<?xml version='1.0' encoding='UTF-8'?><gpx version="1.1" creator="JPX - https://github.com/jenetics/jpx" xmlns="http://www.topografix.com/GPX/1/1"><trk><trkseg><trkpt lat="41.0755331" lon="16.8542446"><ele>56.00000000000001</ele><time>2026-04-04T07:16:48.575Z</time></trkpt><trkpt lat="41.0755541" lon="16.8541558"><ele>56.0</ele><time>2026-04-04T07:16:49.575Z</time></trkpt><trkpt lat="41.0755787" lon="16.8540434"><ele>56.0</ele><time>2026-04-04T07:16:50.575Z</time></trkpt><trkpt lat="41.0756069" lon="16.8539439"><ele>56.0</ele><time>2026-04-04T07:16:51.576Z</time></trkpt><trkpt lat="41.075638" lon="16.8538669"><ele>56.00000000000001</ele><time>2026-04-04T07:16:52.575Z</time></trkpt><trkpt lat="41.0756837" lon="16.8537924"><ele>56.0</ele><time>2026-04-04T07:16:53.576Z</time></trkpt><trkpt lat="41.0757471" lon="16.8537375"><ele>55.50000000000001</ele><time>2026-04-04T07:16:54.575Z</time></trkpt><trkpt lat="41.0758175" lon="16.8537028"><ele>55.0</ele><time>2026-04-04T07:16:55.575Z</time></trkpt><trkpt lat="41.0758967" lon="16.8536805"><ele>54.5</ele><time>2026-04-04T07:16:56.575Z</time></trkpt><trkpt lat="41.0759761" lon="16.8536681"><ele>54.0</ele><time>2026-04-04T07:16:57.575Z</time></trkpt><trkpt lat="41.07604" lon="16.8536767"><ele>53.50000000000001</ele><time>2026-04-04T07:16:58.575Z</time></trkpt><trkpt lat="41.0761427" lon="16.8537333"><ele>53.0</ele><time>2026-04-04T07:17:00.575Z</time></trkpt><trkpt lat="41.0762478" lon="16.8538306"><ele>53.00000000000001</ele><time>2026-04-04T07:17:02.575Z</time></trkpt><trkpt lat="41.0763143" lon="16.8538793"><ele>53.0</ele><time>2026-04-04T07:17:03.576Z</time></trkpt><trkpt lat="41.0763974" lon="16.8539347"><ele>53.0</ele><time>2026-04-04T07:17:04.575Z</time></trkpt><trkpt lat="41.0764656" lon="16.8539789"><ele>53.0</ele><time>2026-04-04T07:17:05.575Z</time></trkpt><trkpt lat="41.0765233" lon="16.8540197"><ele>53.00000000000001</ele><time>2026-04-04T07:17:06.575Z</time></trkpt><trkpt lat="41.0766287" lon="16.8540773"><ele>53.0</ele><time>2026-04-04T07:17:08.575Z</time></trkpt><trkpt lat="41.0767155" lon="16.8540528"><ele>52.66666666666667</ele><time>2026-04-04T07:17:10.575Z</time></trkpt><trkpt lat="41.0767744" lon="16.8539328"><ele>52.333333333333336</ele><time>2026-04-04T07:17:12.575Z</time></trkpt><trkpt lat="41.0768068" lon="16.8538259"><ele>52.0</ele><time>2026-04-04T07:17:13.575Z</time></trkpt><trkpt lat="41.0768486" lon="16.8537053"><ele>51.66666666666667</ele><time>2026-04-04T07:17:14.575Z</time></trkpt><trkpt lat="41.0768849" lon="16.8536113"><ele>51.333333333333336</ele><time>2026-04-04T07:17:15.575Z</time></trkpt><trkpt lat="41.0769125" lon="16.8535345"><ele>51.0</ele><time>2026-04-04T07:17:16.575Z</time></trkpt><trkpt lat="41.0769523" lon="16.8534262"><ele>51.0</ele><time>2026-04-04T07:17:18.575Z</time></trkpt><trkpt lat="41.0770071" lon="16.8533425"><ele>51.0</ele><time>2026-04-04T07:17:20.576Z</time></trkpt><trkpt lat="41.076941" lon="16.8533714"><ele>51.0</ele><time>2026-04-04T07:17:26.575Z</time></trkpt><trkpt lat="41.0769174" lon="16.853458"><ele>51.0</ele><time>2026-04-04T07:17:27.575Z</time></trkpt><trkpt lat="41.0768849" lon="16.8535812"><ele>51.0</ele><time>2026-04-04T07:17:28.575Z</time></trkpt><trkpt lat="41.0768461" lon="16.853688"><ele>51.0</ele><time>2026-04-04T07:17:29.575Z</time></trkpt><trkpt lat="41.0767973" lon="16.8538151"><ele>50.833333333333336</ele><time>2026-04-04T07:17:31.575Z</time></trkpt><trkpt lat="41.0767703" lon="16.8538996"><ele>50.66666666666667</ele><time>2026-04-04T07:17:32.575Z</time></trkpt><trkpt lat="41.0767422" lon="16.8540028"><ele>50.5</ele><time>2026-04-04T07:17:34.575Z</time></trkpt><trkpt lat="41.0766955" lon="16.8540752"><ele>50.333333333333336</ele><time>2026-04-04T07:17:36.575Z</time></trkpt><trkpt lat="41.0766226" lon="16.8540775"><ele>50.16666666666667</ele><time>2026-04-04T07:17:38.575Z</time></trkpt><trkpt lat="41.076512" lon="16.8540064"><ele>50.0</ele><time>2026-04-04T07:17:40.575Z</time></trkpt><trkpt lat="41.0764248" lon="16.8539482"><ele>50.50000000000001</ele><time>2026-04-04T07:17:41.575Z</time></trkpt><trkpt lat="41.076324" lon="16.853886"><ele>51.0</ele><time>2026-04-04T07:17:42.575Z</time></trkpt><trkpt lat="41.076233" lon="16.8538242"><ele>51.5</ele><time>2026-04-04T07:17:43.575Z</time></trkpt><trkpt lat="41.0761623" lon="16.8537609"><ele>52.0</ele><time>2026-04-04T07:17:44.575Z</time></trkpt><trkpt lat="41.0761048" lon="16.8537103"><ele>52.50000000000001</ele><time>2026-04-04T07:17:45.575Z</time></trkpt><trkpt lat="41.0760413" lon="16.8536842"><ele>53.0</ele><time>2026-04-04T07:17:46.575Z</time></trkpt><trkpt lat="41.0759328" lon="16.8536791"><ele>53.0</ele><time>2026-04-04T07:17:48.575Z</time></trkpt><trkpt lat="41.0758153" lon="16.8537154"><ele>53.0</ele><time>2026-04-04T07:17:50.576Z</time></trkpt><trkpt lat="41.0757487" lon="16.8537442"><ele>53.0</ele><time>2026-04-04T07:17:51.576Z</time></trkpt><trkpt lat="41.0756554" lon="16.8538288"><ele>53.0</ele><time>2026-04-04T07:17:53.575Z</time></trkpt><trkpt lat="41.0756061" lon="16.8539391"><ele>53.0</ele><time>2026-04-04T07:17:55.575Z</time></trkpt><trkpt lat="41.075582" lon="16.8540613"><ele>53.50000000000001</ele><time>2026-04-04T07:17:57.575Z</time></trkpt><trkpt lat="41.0755723" lon="16.8541648"><ele>54.0</ele><time>2026-04-04T07:17:59.575Z</time></trkpt><trkpt lat="41.0755711" lon="16.8542655"><ele>54.5</ele><time>2026-04-04T07:18:01.575Z</time></trkpt><trkpt lat="41.0755592" lon="16.8543708"><ele>55.0</ele><time>2026-04-04T07:18:03.576Z</time></trkpt><trkpt lat="41.0754925" lon="16.8544264"><ele>55.50000000000001</ele><time>2026-04-04T07:18:06.576Z</time></trkpt><trkpt lat="41.0754302" lon="16.8543778"><ele>56.0</ele><time>2026-04-04T07:18:09.575Z</time></trkpt><trkpt lat="41.0754235" lon="16.854271"><ele>56.0</ele><time>2026-04-04T07:18:11.575Z</time></trkpt><trkpt lat="41.0753564" lon="16.8541535"><ele>55.99999999999999</ele><time>2026-04-04T07:18:13.575Z</time></trkpt><trkpt lat="41.0752931" lon="16.8541286"><ele>55.99999999999999</ele><time>2026-04-04T07:18:14.575Z</time></trkpt><trkpt lat="41.0752065" lon="16.854123"><ele>56.0</ele><time>2026-04-04T07:18:15.576Z</time></trkpt><trkpt lat="41.07511" lon="16.8541298"><ele>56.0</ele><time>2026-04-04T07:18:16.575Z</time></trkpt><trkpt lat="41.0749947" lon="16.8541402"><ele>55.5</ele><time>2026-04-04T07:18:17.575Z</time></trkpt><trkpt lat="41.0748663" lon="16.8541516"><ele>55.0</ele><time>2026-04-04T07:18:18.575Z</time></trkpt><trkpt lat="41.0747401" lon="16.8541611"><ele>54.5</ele><time>2026-04-04T07:18:19.575Z</time></trkpt><trkpt lat="41.0746237" lon="16.8541685"><ele>54.0</ele><time>2026-04-04T07:18:20.575Z</time></trkpt><trkpt lat="41.0745202" lon="16.8541752"><ele>54.0</ele><time>2026-04-04T07:18:21.575Z</time></trkpt><trkpt lat="41.0744301" lon="16.8541818"><ele>54.00000000000001</ele><time>2026-04-04T07:18:22.575Z</time></trkpt><trkpt lat="41.0743503" lon="16.8541892"><ele>54.00000000000001</ele><time>2026-04-04T07:18:23.575Z</time></trkpt><trkpt lat="41.0742833" lon="16.8542003"><ele>54.0</ele><time>2026-04-04T07:18:24.575Z</time></trkpt><trkpt lat="41.0741878" lon="16.8542251"><ele>54.0</ele><time>2026-04-04T07:18:26.575Z</time></trkpt><trkpt lat="41.0740518" lon="16.8541918"><ele>54.2</ele><time>2026-04-04T07:18:28.575Z</time></trkpt><trkpt lat="41.0739526" lon="16.8541823"><ele>54.400000000000006</ele><time>2026-04-04T07:18:29.575Z</time></trkpt><trkpt lat="41.0738351" lon="16.8541876"><ele>54.6</ele><time>2026-04-04T07:18:30.575Z</time></trkpt><trkpt lat="41.0737311" lon="16.8541888"><ele>54.8</ele><time>2026-04-04T07:18:31.575Z</time></trkpt><trkpt lat="41.0736435" lon="16.854176"><ele>55.0</ele><time>2026-04-04T07:18:32.575Z</time></trkpt><trkpt lat="41.0735698" lon="16.854139"><ele>54.99999999999999</ele><time>2026-04-04T07:18:33.575Z</time></trkpt><trkpt lat="41.0735091" lon="16.8540889"><ele>55.0</ele><time>2026-04-04T07:18:34.575Z</time></trkpt><trkpt lat="41.0734574" lon="16.8540118"><ele>55.0</ele><time>2026-04-04T07:18:35.575Z</time></trkpt><trkpt lat="41.0734162" lon="16.8539088"><ele>55.0</ele><time>2026-04-04T07:18:36.576Z</time></trkpt><trkpt lat="41.0733932" lon="16.8538012"><ele>54.99999999999999</ele><time>2026-04-04T07:18:37.575Z</time></trkpt><trkpt lat="41.0733877" lon="16.8537095"><ele>55.0</ele><time>2026-04-04T07:18:38.576Z</time></trkpt><trkpt lat="41.0733936" lon="16.8535937"><ele>55.0</ele><time>2026-04-04T07:18:40.575Z</time></trkpt><trkpt lat="41.0733374" lon="16.8536403"><ele>55.0</ele><time>2026-04-04T07:18:44.576Z</time></trkpt><trkpt lat="41.07336" lon="16.8538406"><ele>55.0</ele><time>2026-04-04T07:18:46.575Z</time></trkpt><trkpt lat="41.0733985" lon="16.8539609"><ele>55.0</ele><time>2026-04-04T07:18:47.575Z</time></trkpt><trkpt lat="41.0734634" lon="16.8540719"><ele>55.0</ele><time>2026-04-04T07:18:48.575Z</time></trkpt><trkpt lat="41.0735543" lon="16.8541571"><ele>55.0</ele><time>2026-04-04T07:18:49.575Z</time></trkpt><trkpt lat="41.0736665" lon="16.8542089"><ele>55.0</ele><time>2026-04-04T07:18:50.576Z</time></trkpt><trkpt lat="41.0737751" lon="16.8542154"><ele>55.0</ele><time>2026-04-04T07:18:51.575Z</time></trkpt><trkpt lat="41.0738725" lon="16.8541958"><ele>55.0</ele><time>2026-04-04T07:18:52.575Z</time></trkpt><trkpt lat="41.0739514" lon="16.8541992"><ele>55.0</ele><time>2026-04-04T07:18:53.575Z</time></trkpt><trkpt lat="41.074023" lon="16.8542108"><ele>54.8</ele><time>2026-04-04T07:18:54.575Z</time></trkpt><trkpt lat="41.0741328" lon="16.8542506"><ele>54.6</ele><time>2026-04-04T07:18:56.575Z</time></trkpt><trkpt lat="41.0742032" lon="16.8542553"><ele>54.400000000000006</ele><time>2026-04-04T07:18:57.575Z</time></trkpt><trkpt lat="41.0742832" lon="16.8542516"><ele>54.2</ele><time>2026-04-04T07:18:58.575Z</time></trkpt><trkpt lat="41.0743738" lon="16.8542411"><ele>54.0</ele><time>2026-04-04T07:18:59.575Z</time></trkpt><trkpt lat="41.0744768" lon="16.8542256"><ele>54.0</ele><time>2026-04-04T07:19:00.575Z</time></trkpt><trkpt lat="41.0745871" lon="16.8542165"><ele>54.00000000000001</ele><time>2026-04-04T07:19:01.575Z</time></trkpt><trkpt lat="41.0746994" lon="16.8542029"><ele>54.00000000000001</ele><time>2026-04-04T07:19:02.575Z</time></trkpt><trkpt lat="41.0748156" lon="16.8541908"><ele>54.0</ele><time>2026-04-04T07:19:03.575Z</time></trkpt><trkpt lat="41.0749234" lon="16.854178"><ele>54.0</ele><time>2026-04-04T07:19:04.576Z</time></trkpt><trkpt lat="41.0750208" lon="16.8541735"><ele>54.333333333333336</ele><time>2026-04-04T07:19:05.575Z</time></trkpt><trkpt lat="41.0751036" lon="16.8541647"><ele>54.66666666666667</ele><time>2026-04-04T07:19:06.577Z</time></trkpt><trkpt lat="41.075182" lon="16.8541611"><ele>55.0</ele><time>2026-04-04T07:19:07.575Z</time></trkpt><trkpt lat="41.0752529" lon="16.8541563"><ele>55.333333333333336</ele><time>2026-04-04T07:19:08.575Z</time></trkpt><trkpt lat="41.0753592" lon="16.8541937"><ele>55.66666666666667</ele><time>2026-04-04T07:19:10.575Z</time></trkpt><trkpt lat="41.0754038" lon="16.8543074"><ele>56.0</ele><time>2026-04-04T07:19:12.575Z</time></trkpt><trkpt lat="41.0754442" lon="16.8543847"><ele>56.00000000000001</ele><time>2026-04-04T07:19:14.575Z</time></trkpt><trkpt lat="41.0755139" lon="16.8544453"><ele>56.0</ele><time>2026-04-04T07:19:18.575Z</time></trkpt><trkpt lat="41.0755353" lon="16.8543358"><ele>56.0</ele><time>2026-04-04T07:21:13.575Z</time></trkpt><trkpt lat="41.0755301" lon="16.8542522"><ele>56.0</ele><time>2026-04-04T07:21:14.576Z</time></trkpt><trkpt lat="41.0754882" lon="16.8541691"><ele>56.00000000000001</ele><time>2026-04-04T07:21:16.576Z</time></trkpt><trkpt lat="41.075417" lon="16.8541155"><ele>56.0</ele><time>2026-04-04T07:21:19.575Z</time></trkpt><trkpt lat="41.0753031" lon="16.8541257"><ele>56.0</ele><time>2026-04-04T07:21:24.575Z</time></trkpt><trkpt lat="41.075225" lon="16.8541253"><ele>55.99999999999999</ele><time>2026-04-04T07:21:25.575Z</time></trkpt><trkpt lat="41.0751363" lon="16.8541278"><ele>55.99999999999999</ele><time>2026-04-04T07:21:26.575Z</time></trkpt><trkpt lat="41.0750332" lon="16.8541336"><ele>56.0</ele><time>2026-04-04T07:21:27.575Z</time></trkpt><trkpt lat="41.0749204" lon="16.8541424"><ele>56.0</ele><time>2026-04-04T07:21:28.576Z</time></trkpt><trkpt lat="41.0747974" lon="16.8541547"><ele>55.599999999999994</ele><time>2026-04-04T07:21:29.575Z</time></trkpt><trkpt lat="41.0746722" lon="16.8541671"><ele>55.199999999999996</ele><time>2026-04-04T07:21:30.575Z</time></trkpt><trkpt lat="41.0745611" lon="16.8541738"><ele>54.800000000000004</ele><time>2026-04-04T07:21:31.576Z</time></trkpt><trkpt lat="41.0744653" lon="16.8541811"><ele>54.400000000000006</ele><time>2026-04-04T07:21:32.576Z</time></trkpt><trkpt lat="41.0743873" lon="16.8541864"><ele>54.0</ele><time>2026-04-04T07:21:33.575Z</time></trkpt><trkpt lat="41.0743139" lon="16.8541943"><ele>54.0</ele><time>2026-04-04T07:21:34.575Z</time></trkpt><trkpt lat="41.074239" lon="16.8542096"><ele>54.0</ele><time>2026-04-04T07:21:35.575Z</time></trkpt><trkpt lat="41.0741688" lon="16.854216"><ele>54.0</ele><time>2026-04-04T07:21:36.575Z</time></trkpt><trkpt lat="41.0740907" lon="16.8542083"><ele>54.0</ele><time>2026-04-04T07:21:37.575Z</time></trkpt><trkpt lat="41.0739937" lon="16.8541983"><ele>54.0</ele><time>2026-04-04T07:21:38.575Z</time></trkpt><trkpt lat="41.0738884" lon="16.8541913"><ele>54.0</ele><time>2026-04-04T07:21:39.575Z</time></trkpt><trkpt lat="41.0737763" lon="16.8541893"><ele>54.2</ele><time>2026-04-04T07:21:40.575Z</time></trkpt><trkpt lat="41.0736673" lon="16.8541786"><ele>54.400000000000006</ele><time>2026-04-04T07:21:41.575Z</time></trkpt><trkpt lat="41.0735676" lon="16.8541317"><ele>54.6</ele><time>2026-04-04T07:21:42.575Z</time></trkpt><trkpt lat="41.073486" lon="16.8540479"><ele>54.8</ele><time>2026-04-04T07:21:43.575Z</time></trkpt><trkpt lat="41.0734267" lon="16.8539283"><ele>55.0</ele><time>2026-04-04T07:21:44.575Z</time></trkpt><trkpt lat="41.0733941" lon="16.8537747"><ele>55.0</ele><time>2026-04-04T07:21:45.575Z</time></trkpt><trkpt lat="41.0733834" lon="16.8535881"><ele>55.0</ele><time>2026-04-04T07:21:46.575Z</time></trkpt><trkpt lat="41.0733843" lon="16.8533841"><ele>55.0</ele><time>2026-04-04T07:21:47.575Z</time></trkpt><trkpt lat="41.0733905" lon="16.8531593"><ele>55.33333333333333</ele><time>2026-04-04T07:21:48.575Z</time></trkpt><trkpt lat="41.0734038" lon="16.8529235"><ele>55.66666666666667</ele><time>2026-04-04T07:21:49.575Z</time></trkpt><trkpt lat="41.073441" lon="16.8526917"><ele>56.0</ele><time>2026-04-04T07:21:50.575Z</time></trkpt><trkpt lat="41.0735007" lon="16.8524644"><ele>56.0</ele><time>2026-04-04T07:21:51.575Z</time></trkpt><trkpt lat="41.0735786" lon="16.8522468"><ele>56.0</ele><time>2026-04-04T07:21:52.575Z</time></trkpt><trkpt lat="41.073641" lon="16.8520271"><ele>56.0</ele><time>2026-04-04T07:21:53.576Z</time></trkpt><trkpt lat="41.0736878" lon="16.8517988"><ele>56.0</ele><time>2026-04-04T07:21:54.575Z</time></trkpt><trkpt lat="41.0737295" lon="16.8515693"><ele>56.0</ele><time>2026-04-04T07:21:55.575Z</time></trkpt><trkpt lat="41.0737621" lon="16.8513385"><ele>56.0</ele><time>2026-04-04T07:21:56.576Z</time></trkpt><trkpt lat="41.0737894" lon="16.8511169"><ele>56.66666666666667</ele><time>2026-04-04T07:21:57.575Z</time></trkpt><trkpt lat="41.0738206" lon="16.8509081"><ele>57.33333333333333</ele><time>2026-04-04T07:21:58.575Z</time></trkpt><trkpt lat="41.0738599" lon="16.8507097"><ele>58.0</ele><time>2026-04-04T07:21:59.575Z</time></trkpt><trkpt lat="41.073898" lon="16.8505041"><ele>58.0</ele><time>2026-04-04T07:22:00.575Z</time></trkpt><trkpt lat="41.0739292" lon="16.8502858"><ele>58.0</ele><time>2026-04-04T07:22:01.575Z</time></trkpt><trkpt lat="41.0739597" lon="16.8500662"><ele>58.0</ele><time>2026-04-04T07:22:02.575Z</time></trkpt><trkpt lat="41.0739915" lon="16.8498678"><ele>57.75</ele><time>2026-04-04T07:22:03.576Z</time></trkpt><trkpt lat="41.0740181" lon="16.849681"><ele>57.5</ele><time>2026-04-04T07:22:04.575Z</time></trkpt><trkpt lat="41.0740428" lon="16.849515"><ele>57.25</ele><time>2026-04-04T07:22:05.576Z</time></trkpt><trkpt lat="41.0740696" lon="16.8493845"><ele>57.0</ele><time>2026-04-04T07:22:06.576Z</time></trkpt><trkpt lat="41.0740971" lon="16.8492672"><ele>56.666666666666664</ele><time>2026-04-04T07:22:07.575Z</time></trkpt><trkpt lat="41.0741056" lon="16.8491527"><ele>56.33333333333333</ele><time>2026-04-04T07:22:08.575Z</time></trkpt><trkpt lat="41.0741202" lon="16.8490381"><ele>56.0</ele><time>2026-04-04T07:22:09.575Z</time></trkpt><trkpt lat="41.0741455" lon="16.8489334"><ele>55.666666666666664</ele><time>2026-04-04T07:22:10.575Z</time></trkpt><trkpt lat="41.0741641" lon="16.8488417"><ele>55.33333333333333</ele><time>2026-04-04T07:22:11.575Z</time></trkpt><trkpt lat="41.074186" lon="16.8487333"><ele>55.0</ele><time>2026-04-04T07:22:12.575Z</time></trkpt><trkpt lat="41.0742119" lon="16.8485954"><ele>55.5</ele><time>2026-04-04T07:22:13.575Z</time></trkpt><trkpt lat="41.0742394" lon="16.8484297"><ele>56.0</ele><time>2026-04-04T07:22:14.575Z</time></trkpt><trkpt lat="41.0742776" lon="16.8482378"><ele>56.5</ele><time>2026-04-04T07:22:15.576Z</time></trkpt><trkpt lat="41.0743143" lon="16.8480547"><ele>57.0</ele><time>2026-04-04T07:22:16.575Z</time></trkpt><trkpt lat="41.07435" lon="16.8478955"><ele>57.0</ele><time>2026-04-04T07:22:17.575Z</time></trkpt><trkpt lat="41.0743912" lon="16.8477382"><ele>57.0</ele><time>2026-04-04T07:22:18.575Z</time></trkpt><trkpt lat="41.0744383" lon="16.8476022"><ele>57.0</ele><time>2026-04-04T07:22:19.575Z</time></trkpt><trkpt lat="41.0744796" lon="16.847468"><ele>57.0</ele><time>2026-04-04T07:22:20.575Z</time></trkpt><trkpt lat="41.0745076" lon="16.8473628"><ele>57.0</ele><time>2026-04-04T07:22:21.575Z</time></trkpt><trkpt lat="41.0745228" lon="16.8472591"><ele>57.166666666666664</ele><time>2026-04-04T07:22:22.575Z</time></trkpt><trkpt lat="41.0745274" lon="16.8471514"><ele>57.33333333333333</ele><time>2026-04-04T07:22:23.575Z</time></trkpt><trkpt lat="41.0745327" lon="16.847067"><ele>57.5</ele><time>2026-04-04T07:22:24.575Z</time></trkpt><trkpt lat="41.0745382" lon="16.8469512"><ele>57.666666666666664</ele><time>2026-04-04T07:22:26.575Z</time></trkpt><trkpt lat="41.074538" lon="16.8468436"><ele>57.83333333333333</ele><time>2026-04-04T07:22:28.575Z</time></trkpt><trkpt lat="41.0745403" lon="16.8467011"><ele>58.0</ele><time>2026-04-04T07:22:30.576Z</time></trkpt><trkpt lat="41.0745389" lon="16.8465224"><ele>57.99999999999999</ele><time>2026-04-04T07:22:32.576Z</time></trkpt><trkpt lat="41.0745431" lon="16.8464178"><ele>58.0</ele><time>2026-04-04T07:22:33.576Z</time></trkpt><trkpt lat="41.0745517" lon="16.8463082"><ele>58.0</ele><time>2026-04-04T07:22:34.576Z</time></trkpt><trkpt lat="41.0745704" lon="16.8461994"><ele>58.0</ele><time>2026-04-04T07:22:35.576Z</time></trkpt><trkpt lat="41.0745762" lon="16.8460969"><ele>57.99999999999999</ele><time>2026-04-04T07:22:36.576Z</time></trkpt><trkpt lat="41.074573" lon="16.8460048"><ele>58.0</ele><time>2026-04-04T07:22:37.576Z</time></trkpt><trkpt lat="41.074548" lon="16.8459237"><ele>58.166666666666664</ele><time>2026-04-04T07:22:38.576Z</time></trkpt><trkpt lat="41.0745012" lon="16.8458492"><ele>58.33333333333333</ele><time>2026-04-04T07:22:39.577Z</time></trkpt><trkpt lat="41.0744323" lon="16.8457911"><ele>58.5</ele><time>2026-04-04T07:22:40.576Z</time></trkpt><trkpt lat="41.0743444" lon="16.84575"><ele>58.66666666666667</ele><time>2026-04-04T07:22:41.576Z</time></trkpt><trkpt lat="41.0742487" lon="16.8457097"><ele>58.833333333333336</ele><time>2026-04-04T07:22:42.576Z</time></trkpt><trkpt lat="41.0741533" lon="16.8456786"><ele>59.0</ele><time>2026-04-04T07:22:43.576Z</time></trkpt><trkpt lat="41.0740624" lon="16.8456465"><ele>59.400000000000006</ele><time>2026-04-04T07:22:44.576Z</time></trkpt><trkpt lat="41.0739763" lon="16.845633"><ele>59.800000000000004</ele><time>2026-04-04T07:22:45.577Z</time></trkpt><trkpt lat="41.0738725" lon="16.845626"><ele>60.199999999999996</ele><time>2026-04-04T07:22:46.576Z</time></trkpt><trkpt lat="41.0737593" lon="16.8456123"><ele>60.599999999999994</ele><time>2026-04-04T07:22:47.576Z</time></trkpt><trkpt lat="41.0736349" lon="16.8455999"><ele>61.0</ele><time>2026-04-04T07:22:48.576Z</time></trkpt><trkpt lat="41.073502" lon="16.8455724"><ele>61.0</ele><time>2026-04-04T07:22:49.576Z</time></trkpt><trkpt lat="41.0733565" lon="16.8455382"><ele>61.0</ele><time>2026-04-04T07:22:50.576Z</time></trkpt><trkpt lat="41.073203" lon="16.8454982"><ele>61.0</ele><time>2026-04-04T07:22:51.576Z</time></trkpt><trkpt lat="41.0730406" lon="16.8454505"><ele>61.0</ele><time>2026-04-04T07:22:52.576Z</time></trkpt><trkpt lat="41.07287" lon="16.8453954"><ele>61.0</ele><time>2026-04-04T07:22:53.576Z</time></trkpt><trkpt lat="41.0726975" lon="16.845336"><ele>61.0</ele><time>2026-04-04T07:22:54.576Z</time></trkpt><trkpt lat="41.0725295" lon="16.8452776"><ele>61.666666666666664</ele><time>2026-04-04T07:22:55.577Z</time></trkpt><trkpt lat="41.0723689" lon="16.8452295"><ele>62.33333333333333</ele><time>2026-04-04T07:22:56.576Z</time></trkpt><trkpt lat="41.0722168" lon="16.8451823"><ele>63.0</ele><time>2026-04-04T07:22:57.576Z</time></trkpt><trkpt lat="41.0720699" lon="16.8451342"><ele>63.0</ele><time>2026-04-04T07:22:58.576Z</time></trkpt><trkpt lat="41.0719125" lon="16.8450709"><ele>63.0</ele><time>2026-04-04T07:22:59.576Z</time></trkpt><trkpt lat="41.0717646" lon="16.8450115"><ele>63.0</ele><time>2026-04-04T07:23:00.576Z</time></trkpt><trkpt lat="41.0716299" lon="16.8449651"><ele>64.0</ele><time>2026-04-04T07:23:01.576Z</time></trkpt><trkpt lat="41.0715035" lon="16.8449096"><ele>65.0</ele><time>2026-04-04T07:23:02.576Z</time></trkpt><trkpt lat="41.0713834" lon="16.8448409"><ele>66.0</ele><time>2026-04-04T07:23:03.576Z</time></trkpt><trkpt lat="41.0712607" lon="16.8447754"><ele>67.0</ele><time>2026-04-04T07:23:04.576Z</time></trkpt><trkpt lat="41.0711335" lon="16.8447272"><ele>67.0</ele><time>2026-04-04T07:23:05.576Z</time></trkpt><trkpt lat="41.0710024" lon="16.8446755"><ele>67.0</ele><time>2026-04-04T07:23:06.576Z</time></trkpt><trkpt lat="41.0708701" lon="16.8446066"><ele>67.0</ele><time>2026-04-04T07:23:07.576Z</time></trkpt><trkpt lat="41.0707505" lon="16.8445522"><ele>67.0</ele><time>2026-04-04T07:23:08.576Z</time></trkpt><trkpt lat="41.0706255" lon="16.8445119"><ele>66.8</ele><time>2026-04-04T07:23:09.576Z</time></trkpt><trkpt lat="41.0705034" lon="16.8444622"><ele>66.6</ele><time>2026-04-04T07:23:10.576Z</time></trkpt><trkpt lat="41.0703912" lon="16.8444036"><ele>66.39999999999999</ele><time>2026-04-04T07:23:11.576Z</time></trkpt><trkpt lat="41.0702954" lon="16.8443571"><ele>66.2</ele><time>2026-04-04T07:23:12.577Z</time></trkpt><trkpt lat="41.0702096" lon="16.8443131"><ele>66.0</ele><time>2026-04-04T07:23:13.576Z</time></trkpt><trkpt lat="41.0701212" lon="16.8442612"><ele>66.0</ele><time>2026-04-04T07:23:14.576Z</time></trkpt><trkpt lat="41.0700272" lon="16.8441939"><ele>66.0</ele><time>2026-04-04T07:23:15.576Z</time></trkpt><trkpt lat="41.0699281" lon="16.8441222"><ele>66.0</ele><time>2026-04-04T07:23:16.576Z</time></trkpt><trkpt lat="41.0698293" lon="16.844056"><ele>66.0</ele><time>2026-04-04T07:23:17.577Z</time></trkpt><trkpt lat="41.0697517" lon="16.843998"><ele>66.0</ele><time>2026-04-04T07:23:18.576Z</time></trkpt><trkpt lat="41.0696928" lon="16.8439509"><ele>66.2</ele><time>2026-04-04T07:23:19.576Z</time></trkpt><trkpt lat="41.0696217" lon="16.8438438"><ele>66.39999999999999</ele><time>2026-04-04T07:23:21.576Z</time></trkpt><trkpt lat="41.0696192" lon="16.843677"><ele>66.6</ele><time>2026-04-04T07:23:23.576Z</time></trkpt><trkpt lat="41.069617" lon="16.8435787"><ele>66.8</ele><time>2026-04-04T07:23:24.576Z</time></trkpt><trkpt lat="41.0696064" lon="16.8434843"><ele>67.0</ele><time>2026-04-04T07:23:25.576Z</time></trkpt><trkpt lat="41.0696351" lon="16.8433174"><ele>67.0</ele><time>2026-04-04T07:23:27.576Z</time></trkpt><trkpt lat="41.0696375" lon="16.8431925"><ele>67.0</ele><time>2026-04-04T07:23:28.576Z</time></trkpt><trkpt lat="41.0696418" lon="16.8430409"><ele>67.0</ele><time>2026-04-04T07:23:29.576Z</time></trkpt><trkpt lat="41.0696394" lon="16.8428889"><ele>67.0</ele><time>2026-04-04T07:23:30.576Z</time></trkpt><trkpt lat="41.0696432" lon="16.8427335"><ele>67.0</ele><time>2026-04-04T07:23:31.576Z</time></trkpt><trkpt lat="41.0696558" lon="16.842578"><ele>67.16666666666666</ele><time>2026-04-04T07:23:32.576Z</time></trkpt><trkpt lat="41.0696632" lon="16.8424483"><ele>67.33333333333333</ele><time>2026-04-04T07:23:33.576Z</time></trkpt><trkpt lat="41.0696636" lon="16.8423424"><ele>67.5</ele><time>2026-04-04T07:23:34.576Z</time></trkpt><trkpt lat="41.0696466" lon="16.8422171"><ele>67.66666666666667</ele><time>2026-04-04T07:23:36.576Z</time></trkpt><trkpt lat="41.0696324" lon="16.842109"><ele>67.83333333333334</ele><time>2026-04-04T07:23:39.576Z</time></trkpt><trkpt lat="41.0696147" lon="16.8420076"><ele>68.0</ele><time>2026-04-04T07:23:41.575Z</time></trkpt><trkpt lat="41.0695918" lon="16.8419142"><ele>68.0</ele><time>2026-04-04T07:23:43.576Z</time></trkpt><trkpt lat="41.0695796" lon="16.8418124"><ele>68.0</ele><time>2026-04-04T07:23:45.576Z</time></trkpt><trkpt lat="41.0695775" lon="16.8417154"><ele>68.0</ele><time>2026-04-04T07:23:47.576Z</time></trkpt><trkpt lat="41.069566" lon="16.8416123"><ele>68.0</ele><time>2026-04-04T07:23:49.576Z</time></trkpt><trkpt lat="41.0695518" lon="16.8415096"><ele>68.0</ele><time>2026-04-04T07:23:51.576Z</time></trkpt><trkpt lat="41.0695405" lon="16.8414117"><ele>68.0</ele><time>2026-04-04T07:23:53.576Z</time></trkpt><trkpt lat="41.0695323" lon="16.8413219"><ele>68.0</ele><time>2026-04-04T07:23:55.576Z</time></trkpt><trkpt lat="41.0695299" lon="16.8412293"><ele>68.0</ele><time>2026-04-04T07:23:57.576Z</time></trkpt><trkpt lat="41.0695246" lon="16.8411322"><ele>68.0</ele><time>2026-04-04T07:23:59.576Z</time></trkpt><trkpt lat="41.0695185" lon="16.8410241"><ele>68.0</ele><time>2026-04-04T07:24:01.576Z</time></trkpt><trkpt lat="41.069518" lon="16.8408938"><ele>68.0</ele><time>2026-04-04T07:24:03.576Z</time></trkpt><trkpt lat="41.0695115" lon="16.8407507"><ele>68.0</ele><time>2026-04-04T07:24:05.576Z</time></trkpt><trkpt lat="41.0695256" lon="16.8406395"><ele>68.0</ele><time>2026-04-04T07:24:07.577Z</time></trkpt><trkpt lat="41.0695433" lon="16.8405238"><ele>68.0</ele><time>2026-04-04T07:24:09.576Z</time></trkpt><trkpt lat="41.0695645" lon="16.8404127"><ele>68.0</ele><time>2026-04-04T07:24:11.576Z</time></trkpt><trkpt lat="41.0695844" lon="16.8403173"><ele>68.0</ele><time>2026-04-04T07:24:13.577Z</time></trkpt><trkpt lat="41.0695938" lon="16.8401947"><ele>68.0</ele><time>2026-04-04T07:24:15.576Z</time></trkpt><trkpt lat="41.0696282" lon="16.8400511"><ele>68.0</ele><time>2026-04-04T07:24:17.576Z</time></trkpt><trkpt lat="41.0696633" lon="16.839929"><ele>68.0</ele><time>2026-04-04T07:24:19.576Z</time></trkpt><trkpt lat="41.0697069" lon="16.8397623"><ele>68.0</ele><time>2026-04-04T07:24:21.576Z</time></trkpt><trkpt lat="41.0697319" lon="16.8396135"><ele>68.0</ele><time>2026-04-04T07:24:23.576Z</time></trkpt><trkpt lat="41.0697707" lon="16.8395015"><ele>68.0</ele><time>2026-04-04T07:24:25.577Z</time></trkpt><trkpt lat="41.0697738" lon="16.8394094"><ele>68.0</ele><time>2026-04-04T07:24:28.576Z</time></trkpt><trkpt lat="41.0697143" lon="16.8393174"><ele>68.0</ele><time>2026-04-04T07:24:30.576Z</time></trkpt><trkpt lat="41.069655" lon="16.8392705"><ele>68.0</ele><time>2026-04-04T07:24:31.576Z</time></trkpt><trkpt lat="41.0695737" lon="16.839223"><ele>68.0</ele><time>2026-04-04T07:24:32.576Z</time></trkpt><trkpt lat="41.0694683" lon="16.8391632"><ele>68.0</ele><time>2026-04-04T07:24:33.576Z</time></trkpt><trkpt lat="41.0693438" lon="16.8390944"><ele>68.0</ele><time>2026-04-04T07:24:34.576Z</time></trkpt><trkpt lat="41.0692044" lon="16.8390105"><ele>68.0</ele><time>2026-04-04T07:24:35.576Z</time></trkpt><trkpt lat="41.0690546" lon="16.8389183"><ele>68.0</ele><time>2026-04-04T07:24:36.576Z</time></trkpt><trkpt lat="41.0688935" lon="16.838824"><ele>68.0</ele><time>2026-04-04T07:24:37.577Z</time></trkpt><trkpt lat="41.0687259" lon="16.8387258"><ele>68.0</ele><time>2026-04-04T07:24:38.576Z</time></trkpt><trkpt lat="41.0685578" lon="16.8386271"><ele>68.0</ele><time>2026-04-04T07:24:39.576Z</time></trkpt><trkpt lat="41.0683891" lon="16.8385279"><ele>67.66666666666667</ele><time>2026-04-04T07:24:40.576Z</time></trkpt><trkpt lat="41.0682247" lon="16.8384238"><ele>67.33333333333333</ele><time>2026-04-04T07:24:41.577Z</time></trkpt><trkpt lat="41.068059" lon="16.838319"><ele>67.0</ele><time>2026-04-04T07:24:42.576Z</time></trkpt><trkpt lat="41.0678904" lon="16.8382136"><ele>67.0</ele><time>2026-04-04T07:24:43.577Z</time></trkpt><trkpt lat="41.0677244" lon="16.8381061"><ele>67.0</ele><time>2026-04-04T07:24:44.576Z</time></trkpt><trkpt lat="41.0675549" lon="16.8379999"><ele>67.0</ele><time>2026-04-04T07:24:45.576Z</time></trkpt><trkpt lat="41.0673836" lon="16.8378929"><ele>67.33333333333333</ele><time>2026-04-04T07:24:46.576Z</time></trkpt><trkpt lat="41.0672114" lon="16.8377898"><ele>67.66666666666667</ele><time>2026-04-04T07:24:47.576Z</time></trkpt><trkpt lat="41.0670366" lon="16.8376854"><ele>68.0</ele><time>2026-04-04T07:24:48.576Z</time></trkpt><trkpt lat="41.0668635" lon="16.8375817"><ele>68.0</ele><time>2026-04-04T07:24:49.576Z</time></trkpt><trkpt lat="41.0667033" lon="16.8374815"><ele>68.0</ele><time>2026-04-04T07:24:50.576Z</time></trkpt><trkpt lat="41.0665491" lon="16.837393"><ele>68.0</ele><time>2026-04-04T07:24:51.576Z</time></trkpt><trkpt lat="41.0663981" lon="16.8373186"><ele>70.33333333333334</ele><time>2026-04-04T07:24:52.576Z</time></trkpt><trkpt lat="41.0662474" lon="16.8372581"><ele>72.66666666666667</ele><time>2026-04-04T07:24:53.577Z</time></trkpt><trkpt lat="41.0660987" lon="16.8372126"><ele>75.0</ele><time>2026-04-04T07:24:54.576Z</time></trkpt><trkpt lat="41.06595" lon="16.8371796"><ele>75.0</ele><time>2026-04-04T07:24:55.576Z</time></trkpt><trkpt lat="41.06579" lon="16.8371556"><ele>75.0</ele><time>2026-04-04T07:24:56.576Z</time></trkpt><trkpt lat="41.0656165" lon="16.8371364"><ele>75.0</ele><time>2026-04-04T07:24:57.577Z</time></trkpt><trkpt lat="41.065432" lon="16.8371197"><ele>75.0</ele><time>2026-04-04T07:24:58.576Z</time></trkpt><trkpt lat="41.0652377" lon="16.8371062"><ele>75.0</ele><time>2026-04-04T07:24:59.577Z</time></trkpt><trkpt lat="41.0650424" lon="16.8370963"><ele>75.0</ele><time>2026-04-04T07:25:00.576Z</time></trkpt><trkpt lat="41.0648527" lon="16.8370837"><ele>75.0</ele><time>2026-04-04T07:25:01.577Z</time></trkpt><trkpt lat="41.0646612" lon="16.8370643"><ele>75.0</ele><time>2026-04-04T07:25:02.576Z</time></trkpt><trkpt lat="41.0644661" lon="16.8370454"><ele>75.0</ele><time>2026-04-04T07:25:03.576Z</time></trkpt><trkpt lat="41.0642675" lon="16.8370302"><ele>76.0</ele><time>2026-04-04T07:25:04.577Z</time></trkpt><trkpt lat="41.0640665" lon="16.8370184"><ele>77.0</ele><time>2026-04-04T07:25:05.576Z</time></trkpt><trkpt lat="41.0638648" lon="16.8370041"><ele>78.0</ele><time>2026-04-04T07:25:06.576Z</time></trkpt><trkpt lat="41.0636629" lon="16.8369884"><ele>78.0</ele><time>2026-04-04T07:25:07.576Z</time></trkpt><trkpt lat="41.0634577" lon="16.8369702"><ele>78.0</ele><time>2026-04-04T07:25:08.577Z</time></trkpt><trkpt lat="41.0632466" lon="16.8369517"><ele>78.0</ele><time>2026-04-04T07:25:09.576Z</time></trkpt><trkpt lat="41.0630318" lon="16.8369314"><ele>77.0</ele><time>2026-04-04T07:25:10.576Z</time></trkpt><trkpt lat="41.0628131" lon="16.8369097"><ele>76.0</ele><time>2026-04-04T07:25:11.577Z</time></trkpt><trkpt lat="41.0625941" lon="16.8368883"><ele>75.0</ele><time>2026-04-04T07:25:12.576Z</time></trkpt><trkpt lat="41.0623761" lon="16.8368677"><ele>74.0</ele><time>2026-04-04T07:25:13.576Z</time></trkpt><trkpt lat="41.0621581" lon="16.8368467"><ele>73.0</ele><time>2026-04-04T07:25:14.578Z</time></trkpt><trkpt lat="41.0619412" lon="16.8368265"><ele>72.0</ele><time>2026-04-04T07:25:15.576Z</time></trkpt><trkpt lat="41.0617235" lon="16.836809"><ele>73.66666666666667</ele><time>2026-04-04T07:25:16.576Z</time></trkpt><trkpt lat="41.0615063" lon="16.8367965"><ele>75.33333333333334</ele><time>2026-04-04T07:25:17.577Z</time></trkpt><trkpt lat="41.0612904" lon="16.8367829"><ele>77.0</ele><time>2026-04-04T07:25:18.576Z</time></trkpt><trkpt lat="41.0610742" lon="16.8367593"><ele>77.0</ele><time>2026-04-04T07:25:19.576Z</time></trkpt><trkpt lat="41.0608598" lon="16.836732"><ele>77.0</ele><time>2026-04-04T07:25:20.576Z</time></trkpt><trkpt lat="41.0606511" lon="16.836711"><ele>77.0</ele><time>2026-04-04T07:25:21.576Z</time></trkpt><trkpt lat="41.0604618" lon="16.8367143"><ele>77.33333333333334</ele><time>2026-04-04T07:25:22.576Z</time></trkpt><trkpt lat="41.0602711" lon="16.8367526"><ele>77.66666666666667</ele><time>2026-04-04T07:25:23.576Z</time></trkpt><trkpt lat="41.0600768" lon="16.836818"><ele>78.0</ele><time>2026-04-04T07:25:24.576Z</time></trkpt><trkpt lat="41.0598832" lon="16.8368987"><ele>79.0</ele><time>2026-04-04T07:25:25.577Z</time></trkpt><trkpt lat="41.0597064" lon="16.8369688"><ele>80.0</ele><time>2026-04-04T07:25:26.576Z</time></trkpt><trkpt lat="41.0595479" lon="16.8370313"><ele>81.0</ele><time>2026-04-04T07:25:27.576Z</time></trkpt><trkpt lat="41.0594111" lon="16.8370821"><ele>81.0</ele><time>2026-04-04T07:25:28.576Z</time></trkpt><trkpt lat="41.0592908" lon="16.8371163"><ele>81.0</ele><time>2026-04-04T07:25:29.577Z</time></trkpt><trkpt lat="41.0591771" lon="16.8371278"><ele>81.0</ele><time>2026-04-04T07:25:30.576Z</time></trkpt><trkpt lat="41.0590609" lon="16.8371079"><ele>81.0</ele><time>2026-04-04T07:25:31.576Z</time></trkpt><trkpt lat="41.0589408" lon="16.837057"><ele>81.0</ele><time>2026-04-04T07:25:32.576Z</time></trkpt><trkpt lat="41.058824" lon="16.8369676"><ele>81.0</ele><time>2026-04-04T07:25:33.578Z</time></trkpt><trkpt lat="41.0587089" lon="16.8368408"><ele>81.0</ele><time>2026-04-04T07:25:34.576Z</time></trkpt><trkpt lat="41.0585867" lon="16.8366987"><ele>81.0</ele><time>2026-04-04T07:25:35.576Z</time></trkpt><trkpt lat="41.0584554" lon="16.8365502"><ele>81.5</ele><time>2026-04-04T07:25:36.576Z</time></trkpt><trkpt lat="41.0583365" lon="16.8364138"><ele>82.0</ele><time>2026-04-04T07:25:37.576Z</time></trkpt><trkpt lat="41.0582174" lon="16.8363004"><ele>82.5</ele><time>2026-04-04T07:25:38.576Z</time></trkpt><trkpt lat="41.0580867" lon="16.8362182"><ele>83.0</ele><time>2026-04-04T07:25:39.576Z</time></trkpt><trkpt lat="41.0579419" lon="16.8361651"><ele>83.0</ele><time>2026-04-04T07:25:40.576Z</time></trkpt><trkpt lat="41.0577965" lon="16.8361407"><ele>83.0</ele><time>2026-04-04T07:25:41.576Z</time></trkpt><trkpt lat="41.0576382" lon="16.8361382"><ele>83.0</ele><time>2026-04-04T07:25:42.576Z</time></trkpt><trkpt lat="41.0574663" lon="16.8361432"><ele>82.66666666666667</ele><time>2026-04-04T07:25:43.576Z</time></trkpt><trkpt lat="41.0572851" lon="16.836151"><ele>82.33333333333333</ele><time>2026-04-04T07:25:44.576Z</time></trkpt><trkpt lat="41.0571111" lon="16.8361546"><ele>82.0</ele><time>2026-04-04T07:25:45.576Z</time></trkpt><trkpt lat="41.0569642" lon="16.8361572"><ele>82.0</ele><time>2026-04-04T07:25:46.576Z</time></trkpt><trkpt lat="41.0568558" lon="16.836161"><ele>82.0</ele><time>2026-04-04T07:25:47.577Z</time></trkpt><trkpt lat="41.0567714" lon="16.8361647"><ele>82.0</ele><time>2026-04-04T07:25:48.577Z</time></trkpt><trkpt lat="41.0567062" lon="16.8361728"><ele>82.0</ele><time>2026-04-04T07:25:50.576Z</time></trkpt><trkpt lat="41.0566905" lon="16.8360879"><ele>82.0</ele><time>2026-04-04T07:25:58.577Z</time></trkpt><trkpt lat="41.056771" lon="16.8360523"><ele>82.0</ele><time>2026-04-04T07:26:00.577Z</time></trkpt><trkpt lat="41.0568519" lon="16.8360352"><ele>82.0</ele><time>2026-04-04T07:26:02.576Z</time></trkpt><trkpt lat="41.0569292" lon="16.8360303"><ele>82.0</ele><time>2026-04-04T07:26:04.576Z</time></trkpt><trkpt lat="41.0570008" lon="16.8360319"><ele>82.0</ele><time>2026-04-04T07:26:06.576Z</time></trkpt><trkpt lat="41.0570682" lon="16.836038"><ele>82.0</ele><time>2026-04-04T07:26:09.576Z</time></trkpt><trkpt lat="41.0569687" lon="16.8360355"><ele>82.0</ele><time>2026-04-04T07:26:26.576Z</time></trkpt><trkpt lat="41.0568998" lon="16.8360438"><ele>82.0</ele><time>2026-04-04T07:26:27.576Z</time></trkpt><trkpt lat="41.0568308" lon="16.8360582"><ele>82.0</ele><time>2026-04-04T07:26:28.576Z</time></trkpt><trkpt lat="41.0567318" lon="16.8360849"><ele>82.0</ele><time>2026-04-04T07:26:30.576Z</time></trkpt><trkpt lat="41.0566586" lon="16.8361241"><ele>82.0</ele><time>2026-04-04T07:26:32.576Z</time></trkpt><trkpt lat="41.0566616" lon="16.8362186"><ele>82.0</ele><time>2026-04-04T07:26:36.576Z</time></trkpt><trkpt lat="41.056739" lon="16.8362527"><ele>82.0</ele><time>2026-04-04T07:26:38.577Z</time></trkpt><trkpt lat="41.0568465" lon="16.8362688"><ele>82.0</ele><time>2026-04-04T07:26:40.577Z</time></trkpt><trkpt lat="41.0569145" lon="16.8362731"><ele>82.0</ele><time>2026-04-04T07:26:41.576Z</time></trkpt><trkpt lat="41.0569949" lon="16.8362751"><ele>82.0</ele><time>2026-04-04T07:26:42.576Z</time></trkpt><trkpt lat="41.0570841" lon="16.8362861"><ele>82.0</ele><time>2026-04-04T07:26:43.576Z</time></trkpt><trkpt lat="41.0571831" lon="16.8362987"><ele>82.0</ele><time>2026-04-04T07:26:44.576Z</time></trkpt><trkpt lat="41.0572821" lon="16.8363023"><ele>82.0</ele><time>2026-04-04T07:26:45.576Z</time></trkpt><trkpt lat="41.0573848" lon="16.836299"><ele>82.0</ele><time>2026-04-04T07:26:46.576Z</time></trkpt><trkpt lat="41.0574709" lon="16.8363063"><ele>82.0</ele><time>2026-04-04T07:26:47.576Z</time></trkpt><trkpt lat="41.0575404" lon="16.836319"><ele>82.0</ele><time>2026-04-04T07:26:48.576Z</time></trkpt><trkpt lat="41.0576364" lon="16.8363351"><ele>82.0</ele><time>2026-04-04T07:26:50.576Z</time></trkpt><trkpt lat="41.057559" lon="16.836327"><ele>82.0</ele><time>2026-04-04T07:27:04.576Z</time></trkpt><trkpt lat="41.0574895" lon="16.8363073"><ele>82.0</ele><time>2026-04-04T07:27:07.577Z</time></trkpt><trkpt lat="41.0574283" lon="16.8362848"><ele>82.0</ele><time>2026-04-04T07:27:09.576Z</time></trkpt><trkpt lat="41.0573391" lon="16.836274"><ele>82.0</ele><time>2026-04-04T07:27:12.576Z</time></trkpt><trkpt lat="41.0572622" lon="16.8362698"><ele>82.0</ele><time>2026-04-04T07:27:15.576Z</time></trkpt><trkpt lat="41.0571968" lon="16.8362731"><ele>82.0</ele><time>2026-04-04T07:27:18.576Z</time></trkpt><trkpt lat="41.057131" lon="16.8362851"><ele>82.0</ele><time>2026-04-04T07:27:27.577Z</time></trkpt><trkpt lat="41.0570463" lon="16.8362791"><ele>82.0</ele><time>2026-04-04T07:27:30.576Z</time></trkpt><trkpt lat="41.0569773" lon="16.8362708"><ele>82.0</ele><time>2026-04-04T07:27:32.576Z</time></trkpt><trkpt lat="41.0569072" lon="16.8362715"><ele>82.0</ele><time>2026-04-04T07:27:34.577Z</time></trkpt><trkpt lat="41.0568143" lon="16.8362625"><ele>82.0</ele><time>2026-04-04T07:27:37.576Z</time></trkpt><trkpt lat="41.0567395" lon="16.8362603"><ele>82.0</ele><time>2026-04-04T07:27:40.576Z</time></trkpt><trkpt lat="41.0566587" lon="16.8362075"><ele>82.0</ele><time>2026-04-04T07:27:53.576Z</time></trkpt><trkpt lat="41.0565416" lon="16.8361767"><ele>82.0</ele><time>2026-04-04T07:27:55.576Z</time></trkpt><trkpt lat="41.0564667" lon="16.8361755"><ele>82.0</ele><time>2026-04-04T07:27:56.577Z</time></trkpt><trkpt lat="41.0563826" lon="16.8361802"><ele>82.0</ele><time>2026-04-04T07:27:57.576Z</time></trkpt><trkpt lat="41.0562882" lon="16.8361885"><ele>82.0</ele><time>2026-04-04T07:27:58.576Z</time></trkpt><trkpt lat="41.0561822" lon="16.8361964"><ele>82.0</ele><time>2026-04-04T07:27:59.576Z</time></trkpt><trkpt lat="41.0560694" lon="16.8362089"><ele>82.0</ele><time>2026-04-04T07:28:00.576Z</time></trkpt><trkpt lat="41.055949" lon="16.8362254"><ele>82.0</ele><time>2026-04-04T07:28:01.576Z</time></trkpt><trkpt lat="41.0558237" lon="16.8362376"><ele>82.0</ele><time>2026-04-04T07:28:02.576Z</time></trkpt><trkpt lat="41.0556924" lon="16.8362495"><ele>82.0</ele><time>2026-04-04T07:28:03.576Z</time></trkpt><trkpt lat="41.0555599" lon="16.8362644"><ele>82.0</ele><time>2026-04-04T07:28:04.577Z</time></trkpt><trkpt lat="41.0554241" lon="16.8362768"><ele>82.25</ele><time>2026-04-04T07:28:05.576Z</time></trkpt><trkpt lat="41.0552915" lon="16.8362838"><ele>82.5</ele><time>2026-04-04T07:28:06.576Z</time></trkpt><trkpt lat="41.0551634" lon="16.8362859"><ele>82.75</ele><time>2026-04-04T07:28:07.576Z</time></trkpt><trkpt lat="41.0550451" lon="16.836279"><ele>83.0</ele><time>2026-04-04T07:28:08.576Z</time></trkpt><trkpt lat="41.0549423" lon="16.8362697"><ele>83.0</ele><time>2026-04-04T07:28:09.576Z</time></trkpt><trkpt lat="41.054854" lon="16.836255"><ele>83.0</ele><time>2026-04-04T07:28:10.576Z</time></trkpt><trkpt lat="41.0547835" lon="16.8362067"><ele>83.0</ele><time>2026-04-04T07:28:11.577Z</time></trkpt><trkpt lat="41.0547106" lon="16.8361422"><ele>83.0</ele><time>2026-04-04T07:28:12.576Z</time></trkpt><trkpt lat="41.0546442" lon="16.8360787"><ele>83.0</ele><time>2026-04-04T07:28:13.576Z</time></trkpt><trkpt lat="41.0545896" lon="16.8360283"><ele>83.0</ele><time>2026-04-04T07:28:14.576Z</time></trkpt><trkpt lat="41.0545275" lon="16.8359728"><ele>83.0</ele><time>2026-04-04T07:28:16.576Z</time></trkpt><trkpt lat="41.0544955" lon="16.8360561"><ele>83.0</ele><time>2026-04-04T07:28:22.577Z</time></trkpt><trkpt lat="41.054453" lon="16.8361587"><ele>83.0</ele><time>2026-04-04T07:28:24.576Z</time></trkpt><trkpt lat="41.0544017" lon="16.836287"><ele>83.0</ele><time>2026-04-04T07:28:26.576Z</time></trkpt><trkpt lat="41.0543491" lon="16.8364412"><ele>83.0</ele><time>2026-04-04T07:28:28.576Z</time></trkpt><trkpt lat="41.0543278" lon="16.8365236"><ele>83.0</ele><time>2026-04-04T07:28:29.576Z</time></trkpt><trkpt lat="41.0542791" lon="16.8366702"><ele>83.0</ele><time>2026-04-04T07:28:31.577Z</time></trkpt><trkpt lat="41.0542687" lon="16.8367565"><ele>83.0</ele><time>2026-04-04T07:28:32.576Z</time></trkpt><trkpt lat="41.054261" lon="16.8368491"><ele>83.0</ele><time>2026-04-04T07:28:33.576Z</time></trkpt><trkpt lat="41.0542433" lon="16.8369388"><ele>83.0</ele><time>2026-04-04T07:28:34.576Z</time></trkpt><trkpt lat="41.0542212" lon="16.8370397"><ele>83.0</ele><time>2026-04-04T07:28:35.577Z</time></trkpt><trkpt lat="41.0541996" lon="16.8371531"><ele>83.2</ele><time>2026-04-04T07:28:36.576Z</time></trkpt><trkpt lat="41.0541734" lon="16.8372756"><ele>83.4</ele><time>2026-04-04T07:28:37.576Z</time></trkpt><trkpt lat="41.0541492" lon="16.8374039"><ele>83.60000000000001</ele><time>2026-04-04T07:28:38.576Z</time></trkpt><trkpt lat="41.0541283" lon="16.8375398"><ele>83.80000000000001</ele><time>2026-04-04T07:28:39.576Z</time></trkpt><trkpt lat="41.0541047" lon="16.8376694"><ele>84.0</ele><time>2026-04-04T07:28:40.576Z</time></trkpt><trkpt lat="41.0540821" lon="16.837782"><ele>83.66666666666667</ele><time>2026-04-04T07:28:41.576Z</time></trkpt><trkpt lat="41.0540598" lon="16.8378886"><ele>83.33333333333333</ele><time>2026-04-04T07:28:42.576Z</time></trkpt><trkpt lat="41.0540383" lon="16.8379937"><ele>83.0</ele><time>2026-04-04T07:28:43.576Z</time></trkpt><trkpt lat="41.0540195" lon="16.8380879"><ele>82.66666666666666</ele><time>2026-04-04T07:28:44.576Z</time></trkpt><trkpt lat="41.0540101" lon="16.8381739"><ele>82.33333333333333</ele><time>2026-04-04T07:28:45.576Z</time></trkpt><trkpt lat="41.053982" lon="16.8383342"><ele>82.0</ele><time>2026-04-04T07:28:47.576Z</time></trkpt><trkpt lat="41.0539696" lon="16.8384294"><ele>82.0</ele><time>2026-04-04T07:28:48.576Z</time></trkpt><trkpt lat="41.0539521" lon="16.838516"><ele>82.0</ele><time>2026-04-04T07:28:49.576Z</time></trkpt><trkpt lat="41.0539365" lon="16.8386085"><ele>82.0</ele><time>2026-04-04T07:28:51.576Z</time></trkpt><trkpt lat="41.0539146" lon="16.8387409"><ele>82.0</ele><time>2026-04-04T07:28:54.576Z</time></trkpt><trkpt lat="41.0538836" lon="16.8389099"><ele>82.0</ele><time>2026-04-04T07:28:56.576Z</time></trkpt><trkpt lat="41.0538677" lon="16.8390035"><ele>82.0</ele><time>2026-04-04T07:28:57.577Z</time></trkpt><trkpt lat="41.0538577" lon="16.8390935"><ele>82.0</ele><time>2026-04-04T07:28:58.576Z</time></trkpt><trkpt lat="41.053844" lon="16.8392383"><ele>82.0</ele><time>2026-04-04T07:29:00.576Z</time></trkpt><trkpt lat="41.0538401" lon="16.8393422"><ele>82.0</ele><time>2026-04-04T07:29:02.577Z</time></trkpt><trkpt lat="41.0537663" lon="16.8394104"><ele>82.0</ele><time>2026-04-04T07:29:05.576Z</time></trkpt><trkpt lat="41.0536325" lon="16.8394475"><ele>82.0</ele><time>2026-04-04T07:29:07.577Z</time></trkpt><trkpt lat="41.0535496" lon="16.8394753"><ele>82.0</ele><time>2026-04-04T07:29:08.576Z</time></trkpt><trkpt lat="41.0534526" lon="16.8395059"><ele>82.0</ele><time>2026-04-04T07:29:09.576Z</time></trkpt><trkpt lat="41.0533533" lon="16.8395363"><ele>82.0</ele><time>2026-04-04T07:29:10.576Z</time></trkpt><trkpt lat="41.0532416" lon="16.8395708"><ele>82.0</ele><time>2026-04-04T07:29:11.576Z</time></trkpt><trkpt lat="41.053126" lon="16.8396063"><ele>82.0</ele><time>2026-04-04T07:29:12.576Z</time></trkpt><trkpt lat="41.0530062" lon="16.8396433"><ele>82.5</ele><time>2026-04-04T07:29:13.576Z</time></trkpt><trkpt lat="41.0528807" lon="16.8396756"><ele>83.0</ele><time>2026-04-04T07:29:14.576Z</time></trkpt><trkpt lat="41.0527549" lon="16.8397109"><ele>83.5</ele><time>2026-04-04T07:29:15.576Z</time></trkpt><trkpt lat="41.0526395" lon="16.8397436"><ele>84.0</ele><time>2026-04-04T07:29:16.576Z</time></trkpt><trkpt lat="41.0525262" lon="16.8397678"><ele>84.0</ele><time>2026-04-04T07:29:17.577Z</time></trkpt><trkpt lat="41.0524133" lon="16.8397902"><ele>84.0</ele><time>2026-04-04T07:29:18.577Z</time></trkpt><trkpt lat="41.0523093" lon="16.8398125"><ele>84.0</ele><time>2026-04-04T07:29:19.576Z</time></trkpt><trkpt lat="41.0522086" lon="16.8398329"><ele>84.0</ele><time>2026-04-04T07:29:20.576Z</time></trkpt><trkpt lat="41.0521108" lon="16.8398519"><ele>84.0</ele><time>2026-04-04T07:29:21.576Z</time></trkpt><trkpt lat="41.0520115" lon="16.8398677"><ele>84.0</ele><time>2026-04-04T07:29:22.576Z</time></trkpt><trkpt lat="41.0519045" lon="16.8398829"><ele>84.0</ele><time>2026-04-04T07:29:23.576Z</time></trkpt><trkpt lat="41.0517868" lon="16.8399035"><ele>84.0</ele><time>2026-04-04T07:29:24.576Z</time></trkpt><trkpt lat="41.0516609" lon="16.8399277"><ele>84.0</ele><time>2026-04-04T07:29:25.576Z</time></trkpt><trkpt lat="41.0515266" lon="16.8399453"><ele>83.75</ele><time>2026-04-04T07:29:26.576Z</time></trkpt><trkpt lat="41.0513845" lon="16.8399538"><ele>83.5</ele><time>2026-04-04T07:29:27.576Z</time></trkpt><trkpt lat="41.0512366" lon="16.8399702"><ele>83.25</ele><time>2026-04-04T07:29:28.576Z</time></trkpt><trkpt lat="41.0510839" lon="16.840003"><ele>83.0</ele><time>2026-04-04T07:29:29.576Z</time></trkpt><trkpt lat="41.0509253" lon="16.840031"><ele>83.25</ele><time>2026-04-04T07:29:30.576Z</time></trkpt><trkpt lat="41.0507767" lon="16.8400554"><ele>83.5</ele><time>2026-04-04T07:29:31.576Z</time></trkpt><trkpt lat="41.0506417" lon="16.8400748"><ele>83.75</ele><time>2026-04-04T07:29:32.576Z</time></trkpt><trkpt lat="41.0505304" lon="16.8400956"><ele>84.0</ele><time>2026-04-04T07:29:33.576Z</time></trkpt><trkpt lat="41.050442" lon="16.8401183"><ele>84.0</ele><time>2026-04-04T07:29:34.576Z</time></trkpt><trkpt lat="41.0503625" lon="16.8401175"><ele>84.0</ele><time>2026-04-04T07:29:35.576Z</time></trkpt><trkpt lat="41.0502526" lon="16.8400965"><ele>84.0</ele><time>2026-04-04T07:29:37.576Z</time></trkpt><trkpt lat="41.0501866" lon="16.8401034"><ele>84.0</ele><time>2026-04-04T07:29:39.576Z</time></trkpt><trkpt lat="41.0502498" lon="16.8400911"><ele>84.0</ele><time>2026-04-04T07:30:35.576Z</time></trkpt><trkpt lat="41.0501856" lon="16.8400536"><ele>84.0</ele><time>2026-04-04T07:35:09.578Z</time></trkpt><trkpt lat="41.0501961" lon="16.8401363"><ele>84.0</ele><time>2026-04-04T07:35:13.577Z</time></trkpt><trkpt lat="41.0502629" lon="16.8401246"><ele>84.0</ele><time>2026-04-04T07:35:15.577Z</time></trkpt><trkpt lat="41.0503768" lon="16.8401175"><ele>84.0</ele><time>2026-04-04T07:35:17.577Z</time></trkpt><trkpt lat="41.0504559" lon="16.840117"><ele>84.0</ele><time>2026-04-04T07:35:18.577Z</time></trkpt><trkpt lat="41.0505614" lon="16.8400956"><ele>84.0</ele><time>2026-04-04T07:35:19.577Z</time></trkpt><trkpt lat="41.0506772" lon="16.8400718"><ele>83.80000000000001</ele><time>2026-04-04T07:35:20.577Z</time></trkpt><trkpt lat="41.050804" lon="16.8400552"><ele>83.60000000000001</ele><time>2026-04-04T07:35:21.578Z</time></trkpt><trkpt lat="41.0509143" lon="16.8400348"><ele>83.4</ele><time>2026-04-04T07:35:22.577Z</time></trkpt><trkpt lat="41.0510133" lon="16.840019"><ele>83.2</ele><time>2026-04-04T07:35:23.577Z</time></trkpt><trkpt lat="41.0511" lon="16.8400054"><ele>83.0</ele><time>2026-04-04T07:35:24.577Z</time></trkpt><trkpt lat="41.0511763" lon="16.8399924"><ele>83.0</ele><time>2026-04-04T07:35:25.579Z</time></trkpt><trkpt lat="41.051257" lon="16.8399806"><ele>83.0</ele><time>2026-04-04T07:35:26.577Z</time></trkpt><trkpt lat="41.0513298" lon="16.8399701"><ele>83.0</ele><time>2026-04-04T07:35:27.577Z</time></trkpt><trkpt lat="41.0514" lon="16.8399621"><ele>83.0</ele><time>2026-04-04T07:35:28.577Z</time></trkpt><trkpt lat="41.0514908" lon="16.8399474"><ele>83.0</ele><time>2026-04-04T07:35:29.577Z</time></trkpt><trkpt lat="41.0516047" lon="16.8399299"><ele>83.0</ele><time>2026-04-04T07:35:30.577Z</time></trkpt><trkpt lat="41.0517385" lon="16.8399179"><ele>83.16666666666667</ele><time>2026-04-04T07:35:31.577Z</time></trkpt><trkpt lat="41.0518657" lon="16.8398975"><ele>83.33333333333334</ele><time>2026-04-04T07:35:32.577Z</time></trkpt><trkpt lat="41.0519522" lon="16.8398848"><ele>83.5</ele><time>2026-04-04T07:35:33.577Z</time></trkpt><trkpt lat="41.0520261" lon="16.8398765"><ele>83.66666666666667</ele><time>2026-04-04T07:35:34.577Z</time></trkpt><trkpt lat="41.052088" lon="16.8398611"><ele>83.83333333333333</ele><time>2026-04-04T07:35:35.577Z</time></trkpt><trkpt lat="41.0521762" lon="16.8398398"><ele>84.0</ele><time>2026-04-04T07:35:37.577Z</time></trkpt><trkpt lat="41.0522688" lon="16.839816"><ele>84.0</ele><time>2026-04-04T07:35:39.577Z</time></trkpt><trkpt lat="41.0523963" lon="16.8397833"><ele>84.0</ele><time>2026-04-04T07:35:41.577Z</time></trkpt><trkpt lat="41.0524812" lon="16.8397668"><ele>84.0</ele><time>2026-04-04T07:35:42.577Z</time></trkpt><trkpt lat="41.0525843" lon="16.8397514"><ele>84.0</ele><time>2026-04-04T07:35:43.577Z</time></trkpt><trkpt lat="41.0527121" lon="16.8397223"><ele>84.0</ele><time>2026-04-04T07:35:44.577Z</time></trkpt><trkpt lat="41.0528596" lon="16.8396849"><ele>84.0</ele><time>2026-04-04T07:35:45.577Z</time></trkpt><trkpt lat="41.0530077" lon="16.8396458"><ele>84.0</ele><time>2026-04-04T07:35:46.577Z</time></trkpt><trkpt lat="41.0531595" lon="16.839598"><ele>84.0</ele><time>2026-04-04T07:35:47.577Z</time></trkpt><trkpt lat="41.0533212" lon="16.8395478"><ele>83.33333333333333</ele><time>2026-04-04T07:35:48.577Z</time></trkpt><trkpt lat="41.0534887" lon="16.8394933"><ele>82.66666666666666</ele><time>2026-04-04T07:35:49.578Z</time></trkpt><trkpt lat="41.0536615" lon="16.8394372"><ele>82.0</ele><time>2026-04-04T07:35:50.577Z</time></trkpt><trkpt lat="41.0538235" lon="16.8393761"><ele>82.0</ele><time>2026-04-04T07:35:51.577Z</time></trkpt><trkpt lat="41.0539555" lon="16.8393299"><ele>82.0</ele><time>2026-04-04T07:35:52.577Z</time></trkpt><trkpt lat="41.0540657" lon="16.8392914"><ele>82.0</ele><time>2026-04-04T07:35:53.578Z</time></trkpt><trkpt lat="41.0541575" lon="16.8392615"><ele>82.0</ele><time>2026-04-04T07:35:54.578Z</time></trkpt><trkpt lat="41.0542585" lon="16.8392193"><ele>82.16666666666666</ele><time>2026-04-04T07:35:55.577Z</time></trkpt><trkpt lat="41.0543533" lon="16.8391815"><ele>82.33333333333333</ele><time>2026-04-04T07:35:56.577Z</time></trkpt><trkpt lat="41.0544332" lon="16.8391454"><ele>82.5</ele><time>2026-04-04T07:35:57.577Z</time></trkpt><trkpt lat="41.0545046" lon="16.8391113"><ele>82.66666666666667</ele><time>2026-04-04T07:35:58.577Z</time></trkpt><trkpt lat="41.0545866" lon="16.8390684"><ele>82.83333333333334</ele><time>2026-04-04T07:36:00.577Z</time></trkpt><trkpt lat="41.0546369" lon="16.838979"><ele>83.0</ele><time>2026-04-04T07:36:03.577Z</time></trkpt><trkpt lat="41.054591" lon="16.8390767"><ele>83.0</ele><time>2026-04-04T07:36:07.577Z</time></trkpt><trkpt lat="41.0545191" lon="16.8391112"><ele>83.0</ele><time>2026-04-04T07:36:08.577Z</time></trkpt><trkpt lat="41.0544288" lon="16.8391522"><ele>83.0</ele><time>2026-04-04T07:36:09.577Z</time></trkpt><trkpt lat="41.0543157" lon="16.8392007"><ele>83.0</ele><time>2026-04-04T07:36:10.577Z</time></trkpt><trkpt lat="41.0541863" lon="16.8392524"><ele>83.0</ele><time>2026-04-04T07:36:11.578Z</time></trkpt><trkpt lat="41.0540387" lon="16.8393078"><ele>82.75</ele><time>2026-04-04T07:36:12.577Z</time></trkpt><trkpt lat="41.0538954" lon="16.8393553"><ele>82.5</ele><time>2026-04-04T07:36:13.577Z</time></trkpt><trkpt lat="41.0537513" lon="16.8394029"><ele>82.25</ele><time>2026-04-04T07:36:14.578Z</time></trkpt><trkpt lat="41.0536039" lon="16.8394551"><ele>82.0</ele><time>2026-04-04T07:36:15.577Z</time></trkpt><trkpt lat="41.053453" lon="16.8395038"><ele>82.0</ele><time>2026-04-04T07:36:16.577Z</time></trkpt><trkpt lat="41.0533036" lon="16.8395498"><ele>82.0</ele><time>2026-04-04T07:36:17.577Z</time></trkpt><trkpt lat="41.0531592" lon="16.8395951"><ele>82.0</ele><time>2026-04-04T07:36:18.577Z</time></trkpt><trkpt lat="41.0530159" lon="16.8396393"><ele>82.0</ele><time>2026-04-04T07:36:19.577Z</time></trkpt><trkpt lat="41.0528793" lon="16.8396779"><ele>82.5</ele><time>2026-04-04T07:36:20.578Z</time></trkpt><trkpt lat="41.0527562" lon="16.8397085"><ele>83.0</ele><time>2026-04-04T07:36:21.577Z</time></trkpt><trkpt lat="41.0526416" lon="16.8397381"><ele>83.5</ele><time>2026-04-04T07:36:22.577Z</time></trkpt><trkpt lat="41.0525377" lon="16.8397563"><ele>84.0</ele><time>2026-04-04T07:36:23.577Z</time></trkpt><trkpt lat="41.0524323" lon="16.8397716"><ele>84.0</ele><time>2026-04-04T07:36:24.577Z</time></trkpt><trkpt lat="41.0523416" lon="16.8397933"><ele>84.0</ele><time>2026-04-04T07:36:25.577Z</time></trkpt><trkpt lat="41.0522723" lon="16.8398145"><ele>84.0</ele><time>2026-04-04T07:36:26.577Z</time></trkpt><trkpt lat="41.0521648" lon="16.839842"><ele>84.0</ele><time>2026-04-04T07:36:28.578Z</time></trkpt><trkpt lat="41.0520659" lon="16.83986"><ele>84.0</ele><time>2026-04-04T07:36:30.578Z</time></trkpt><trkpt lat="41.0519464" lon="16.8398818"><ele>84.0</ele><time>2026-04-04T07:36:32.578Z</time></trkpt><trkpt lat="41.0518666" lon="16.8398946"><ele>84.0</ele><time>2026-04-04T07:36:33.577Z</time></trkpt><trkpt lat="41.0517617" lon="16.8399093"><ele>84.0</ele><time>2026-04-04T07:36:34.577Z</time></trkpt><trkpt lat="41.0516436" lon="16.8399242"><ele>84.0</ele><time>2026-04-04T07:36:35.577Z</time></trkpt><trkpt lat="41.0515296" lon="16.839941"><ele>84.0</ele><time>2026-04-04T07:36:36.577Z</time></trkpt><trkpt lat="41.0514318" lon="16.8399522"><ele>83.83333333333333</ele><time>2026-04-04T07:36:37.577Z</time></trkpt><trkpt lat="41.0513476" lon="16.8399558"><ele>83.66666666666667</ele><time>2026-04-04T07:36:38.577Z</time></trkpt><trkpt lat="41.0512636" lon="16.8399609"><ele>83.5</ele><time>2026-04-04T07:36:39.578Z</time></trkpt><trkpt lat="41.0511798" lon="16.8399778"><ele>83.33333333333334</ele><time>2026-04-04T07:36:40.577Z</time></trkpt><trkpt lat="41.0511037" lon="16.8399962"><ele>83.16666666666667</ele><time>2026-04-04T07:36:41.577Z</time></trkpt><trkpt lat="41.0510304" lon="16.8400105"><ele>83.0</ele><time>2026-04-04T07:36:42.578Z</time></trkpt><trkpt lat="41.0509529" lon="16.8400268"><ele>83.0</ele><time>2026-04-04T07:36:43.577Z</time></trkpt><trkpt lat="41.0508779" lon="16.8400392"><ele>83.0</ele><time>2026-04-04T07:36:44.577Z</time></trkpt><trkpt lat="41.0508069" lon="16.8400507"><ele>83.0</ele><time>2026-04-04T07:36:45.579Z</time></trkpt><trkpt lat="41.0507408" lon="16.8400627"><ele>83.0</ele><time>2026-04-04T07:36:46.577Z</time></trkpt><trkpt lat="41.0506774" lon="16.8400738"><ele>83.0</ele><time>2026-04-04T07:36:47.577Z</time></trkpt><trkpt lat="41.0505613" lon="16.8400942"><ele>83.0</ele><time>2026-04-04T07:36:49.577Z</time></trkpt><trkpt lat="41.0504685" lon="16.8401152"><ele>83.0</ele><time>2026-04-04T07:36:51.577Z</time></trkpt><trkpt lat="41.0503899" lon="16.8401193"><ele>83.0</ele><time>2026-04-04T07:36:53.577Z</time></trkpt><trkpt lat="41.0503248" lon="16.8401022"><ele>83.0</ele><time>2026-04-04T07:36:55.577Z</time></trkpt><trkpt lat="41.0502609" lon="16.840098"><ele>83.0</ele><time>2026-04-04T07:36:58.577Z</time></trkpt><trkpt lat="41.0501851" lon="16.8401099"><ele>83.0</ele><time>2026-04-04T07:37:02.577Z</time></trkpt><trkpt lat="41.0501872" lon="16.8400252"><ele>83.0</ele><time>2026-04-04T07:37:06.578Z</time></trkpt><trkpt lat="41.0502268" lon="16.8400948"><ele>83.0</ele><time>2026-04-04T07:37:10.577Z</time></trkpt><trkpt lat="41.0501433" lon="16.8401397"><ele>83.0</ele><time>2026-04-04T07:37:51.577Z</time></trkpt><trkpt lat="41.0500234" lon="16.8401646"><ele>83.0</ele><time>2026-04-04T07:37:53.577Z</time></trkpt><trkpt lat="41.0499475" lon="16.8401735"><ele>83.0</ele><time>2026-04-04T07:37:54.577Z</time></trkpt><trkpt lat="41.0498693" lon="16.8401831"><ele>83.0</ele><time>2026-04-04T07:37:55.577Z</time></trkpt><trkpt lat="41.0497486" lon="16.8402017"><ele>83.0</ele><time>2026-04-04T07:37:57.577Z</time></trkpt><trkpt lat="41.049683" lon="16.8402117"><ele>83.28571428571428</ele><time>2026-04-04T07:37:58.578Z</time></trkpt><trkpt lat="41.0496093" lon="16.8402185"><ele>83.57142857142858</ele><time>2026-04-04T07:37:59.577Z</time></trkpt><trkpt lat="41.0495311" lon="16.8402269"><ele>83.85714285714286</ele><time>2026-04-04T07:38:00.578Z</time></trkpt><trkpt lat="41.0494548" lon="16.8402331"><ele>84.14285714285714</ele><time>2026-04-04T07:38:01.577Z</time></trkpt><trkpt lat="41.0493834" lon="16.8402371"><ele>84.42857142857142</ele><time>2026-04-04T07:38:02.577Z</time></trkpt><trkpt lat="41.0493092" lon="16.8402379"><ele>84.71428571428572</ele><time>2026-04-04T07:38:03.577Z</time></trkpt><trkpt lat="41.0492367" lon="16.8402388"><ele>85.0</ele><time>2026-04-04T07:38:04.577Z</time></trkpt><trkpt lat="41.0491721" lon="16.8402442"><ele>85.16666666666666</ele><time>2026-04-04T07:38:05.577Z</time></trkpt><trkpt lat="41.0490542" lon="16.840249"><ele>85.33333333333333</ele><time>2026-04-04T07:38:07.578Z</time></trkpt><trkpt lat="41.04896" lon="16.8402449"><ele>85.5</ele><time>2026-04-04T07:38:09.577Z</time></trkpt><trkpt lat="41.0488944" lon="16.8402505"><ele>85.66666666666667</ele><time>2026-04-04T07:38:12.577Z</time></trkpt><trkpt lat="41.0488251" lon="16.8402822"><ele>85.83333333333334</ele><time>2026-04-04T07:38:31.577Z</time></trkpt><trkpt lat="41.0487572" lon="16.8402968"><ele>86.0</ele><time>2026-04-04T07:38:32.577Z</time></trkpt><trkpt lat="41.0486766" lon="16.8403143"><ele>86.0</ele><time>2026-04-04T07:38:33.578Z</time></trkpt><trkpt lat="41.048585" lon="16.8403254"><ele>86.0</ele><time>2026-04-04T07:38:34.577Z</time></trkpt><trkpt lat="41.0484832" lon="16.8403413"><ele>86.0</ele><time>2026-04-04T07:38:35.577Z</time></trkpt><trkpt lat="41.0483811" lon="16.8403571"><ele>86.0</ele><time>2026-04-04T07:38:36.577Z</time></trkpt><trkpt lat="41.0482756" lon="16.8403742"><ele>86.0</ele><time>2026-04-04T07:38:37.577Z</time></trkpt><trkpt lat="41.0481712" lon="16.8403941"><ele>86.19999999999999</ele><time>2026-04-04T07:38:38.577Z</time></trkpt><trkpt lat="41.0480756" lon="16.840411"><ele>86.39999999999999</ele><time>2026-04-04T07:38:39.577Z</time></trkpt><trkpt lat="41.0479781" lon="16.8404269"><ele>86.6</ele><time>2026-04-04T07:38:40.577Z</time></trkpt><trkpt lat="41.0478799" lon="16.8404419"><ele>86.8</ele><time>2026-04-04T07:38:41.578Z</time></trkpt><trkpt lat="41.0477911" lon="16.8404595"><ele>87.0</ele><time>2026-04-04T07:38:42.577Z</time></trkpt><trkpt lat="41.0477046" lon="16.8404691"><ele>87.0</ele><time>2026-04-04T07:38:43.577Z</time></trkpt><trkpt lat="41.047624" lon="16.8404752"><ele>87.0</ele><time>2026-04-04T07:38:44.577Z</time></trkpt><trkpt lat="41.0475506" lon="16.8404881"><ele>87.0</ele><time>2026-04-04T07:38:45.577Z</time></trkpt><trkpt lat="41.047478" lon="16.8405019"><ele>87.0</ele><time>2026-04-04T07:38:46.577Z</time></trkpt><trkpt lat="41.0473938" lon="16.8405062"><ele>87.0</ele><time>2026-04-04T07:38:47.577Z</time></trkpt><trkpt lat="41.0473012" lon="16.8405155"><ele>87.0</ele><time>2026-04-04T07:38:48.577Z</time></trkpt><trkpt lat="41.0471996" lon="16.8405346"><ele>87.0</ele><time>2026-04-04T07:38:49.577Z</time></trkpt><trkpt lat="41.0470862" lon="16.8405559"><ele>87.0</ele><time>2026-04-04T07:38:50.577Z</time></trkpt><trkpt lat="41.046962" lon="16.8405799"><ele>87.0</ele><time>2026-04-04T07:38:51.577Z</time></trkpt><trkpt lat="41.0468291" lon="16.8406026"><ele>87.0</ele><time>2026-04-04T07:38:52.577Z</time></trkpt><trkpt lat="41.0467033" lon="16.8406234"><ele>87.25</ele><time>2026-04-04T07:38:53.577Z</time></trkpt><trkpt lat="41.046585" lon="16.8406376"><ele>87.5</ele><time>2026-04-04T07:38:54.577Z</time></trkpt><trkpt lat="41.0464562" lon="16.8406565"><ele>87.75</ele><time>2026-04-04T07:38:55.577Z</time></trkpt><trkpt lat="41.0463337" lon="16.840676"><ele>88.0</ele><time>2026-04-04T07:38:56.577Z</time></trkpt><trkpt lat="41.046223" lon="16.8406935"><ele>88.0</ele><time>2026-04-04T07:38:57.577Z</time></trkpt><trkpt lat="41.0461063" lon="16.8407263"><ele>88.0</ele><time>2026-04-04T07:38:58.578Z</time></trkpt><trkpt lat="41.0459951" lon="16.8407462"><ele>88.0</ele><time>2026-04-04T07:38:59.577Z</time></trkpt><trkpt lat="41.0458749" lon="16.84076"><ele>88.0</ele><time>2026-04-04T07:39:00.577Z</time></trkpt><trkpt lat="41.0457524" lon="16.8407835"><ele>88.25</ele><time>2026-04-04T07:39:01.577Z</time></trkpt><trkpt lat="41.045633" lon="16.8408003"><ele>88.5</ele><time>2026-04-04T07:39:02.578Z</time></trkpt><trkpt lat="41.0455094" lon="16.8408189"><ele>88.75</ele><time>2026-04-04T07:39:03.577Z</time></trkpt><trkpt lat="41.0454002" lon="16.8408376"><ele>89.0</ele><time>2026-04-04T07:39:04.578Z</time></trkpt><trkpt lat="41.0453005" lon="16.840858"><ele>89.0</ele><time>2026-04-04T07:39:05.577Z</time></trkpt><trkpt lat="41.0452055" lon="16.840876"><ele>89.0</ele><time>2026-04-04T07:39:06.578Z</time></trkpt><trkpt lat="41.0451281" lon="16.840891"><ele>89.0</ele><time>2026-04-04T07:39:07.577Z</time></trkpt><trkpt lat="41.0450627" lon="16.8408954"><ele>89.0</ele><time>2026-04-04T07:39:08.577Z</time></trkpt><trkpt lat="41.0449834" lon="16.8408812"><ele>89.0</ele><time>2026-04-04T07:39:09.577Z</time></trkpt><trkpt lat="41.0448999" lon="16.8408554"><ele>89.0</ele><time>2026-04-04T07:39:10.578Z</time></trkpt><trkpt lat="41.0448303" lon="16.8408344"><ele>89.2</ele><time>2026-04-04T07:39:11.577Z</time></trkpt><trkpt lat="41.044725" lon="16.8407633"><ele>89.4</ele><time>2026-04-04T07:39:13.577Z</time></trkpt><trkpt lat="41.0446663" lon="16.8406952"><ele>89.6</ele><time>2026-04-04T07:39:14.577Z</time></trkpt><trkpt lat="41.0446096" lon="16.8406226"><ele>89.8</ele><time>2026-04-04T07:39:15.577Z</time></trkpt><trkpt lat="41.0445182" lon="16.8405361"><ele>90.0</ele><time>2026-04-04T07:39:17.578Z</time></trkpt><trkpt lat="41.0443897" lon="16.8405075"><ele>90.0</ele><time>2026-04-04T07:39:19.577Z</time></trkpt><trkpt lat="41.0443257" lon="16.8404892"><ele>90.0</ele><time>2026-04-04T07:39:20.577Z</time></trkpt><trkpt lat="41.0442269" lon="16.8404245"><ele>90.0</ele><time>2026-04-04T07:39:22.577Z</time></trkpt><trkpt lat="41.0441352" lon="16.8403048"><ele>90.0</ele><time>2026-04-04T07:39:24.578Z</time></trkpt><trkpt lat="41.0440863" lon="16.8402309"><ele>90.0</ele><time>2026-04-04T07:39:25.577Z</time></trkpt><trkpt lat="41.0440386" lon="16.8401515"><ele>90.0</ele><time>2026-04-04T07:39:26.577Z</time></trkpt><trkpt lat="41.0440013" lon="16.8400693"><ele>90.0</ele><time>2026-04-04T07:39:27.578Z</time></trkpt><trkpt lat="41.0439746" lon="16.839976"><ele>90.0</ele><time>2026-04-04T07:39:28.577Z</time></trkpt><trkpt lat="41.0439583" lon="16.83987"><ele>90.0</ele><time>2026-04-04T07:39:29.577Z</time></trkpt><trkpt lat="41.0439469" lon="16.8397595"><ele>90.0</ele><time>2026-04-04T07:39:30.577Z</time></trkpt><trkpt lat="41.04393" lon="16.8396625"><ele>90.0</ele><time>2026-04-04T07:39:31.577Z</time></trkpt><trkpt lat="41.0439016" lon="16.8395791"><ele>90.0</ele><time>2026-04-04T07:39:32.578Z</time></trkpt><trkpt lat="41.0438562" lon="16.8394549"><ele>90.0</ele><time>2026-04-04T07:39:34.577Z</time></trkpt><trkpt lat="41.0438284" lon="16.8393391"><ele>90.0</ele><time>2026-04-04T07:39:36.577Z</time></trkpt><trkpt lat="41.0437705" lon="16.8392629"><ele>90.0</ele><time>2026-04-04T07:39:38.577Z</time></trkpt><trkpt lat="41.0437188" lon="16.8393268"><ele>90.0</ele><time>2026-04-04T07:39:42.577Z</time></trkpt><trkpt lat="41.0436708" lon="16.839404"><ele>90.0</ele><time>2026-04-04T07:39:45.577Z</time></trkpt><trkpt lat="41.0436032" lon="16.8394378"><ele>90.0</ele><time>2026-04-04T07:39:47.577Z</time></trkpt><trkpt lat="41.0435275" lon="16.8394291"><ele>90.0</ele><time>2026-04-04T07:39:50.577Z</time></trkpt><trkpt lat="41.0434776" lon="16.8392897"><ele>90.0</ele><time>2026-04-04T07:39:52.577Z</time></trkpt><trkpt lat="41.0434419" lon="16.8392134"><ele>90.0</ele><time>2026-04-04T07:39:53.577Z</time></trkpt><trkpt lat="41.043404" lon="16.8391332"><ele>90.0</ele><time>2026-04-04T07:39:54.577Z</time></trkpt><trkpt lat="41.0433609" lon="16.8390458"><ele>90.0</ele><time>2026-04-04T07:39:55.577Z</time></trkpt><trkpt lat="41.0433218" lon="16.8389744"><ele>90.0</ele><time>2026-04-04T07:39:56.577Z</time></trkpt><trkpt lat="41.0432372" lon="16.8388635"><ele>90.0</ele><time>2026-04-04T07:39:58.578Z</time></trkpt><trkpt lat="41.0431369" lon="16.8387838"><ele>90.0</ele><time>2026-04-04T07:40:00.577Z</time></trkpt><trkpt lat="41.0430544" lon="16.8386996"><ele>90.0</ele><time>2026-04-04T07:40:02.577Z</time></trkpt><trkpt lat="41.0430164" lon="16.8386234"><ele>90.0</ele><time>2026-04-04T07:40:04.578Z</time></trkpt><trkpt lat="41.0429074" lon="16.8386092"><ele>90.0</ele><time>2026-04-04T07:40:06.577Z</time></trkpt><trkpt lat="41.0428386" lon="16.8386243"><ele>90.0</ele><time>2026-04-04T07:40:07.577Z</time></trkpt><trkpt lat="41.0427619" lon="16.8386326"><ele>90.0</ele><time>2026-04-04T07:40:08.577Z</time></trkpt><trkpt lat="41.0426832" lon="16.8386261"><ele>90.0</ele><time>2026-04-04T07:40:09.577Z</time></trkpt><trkpt lat="41.0425946" lon="16.8386076"><ele>90.0</ele><time>2026-04-04T07:40:10.577Z</time></trkpt><trkpt lat="41.0425061" lon="16.83858"><ele>90.0</ele><time>2026-04-04T07:40:11.577Z</time></trkpt><trkpt lat="41.0424151" lon="16.8385506"><ele>90.6</ele><time>2026-04-04T07:40:12.577Z</time></trkpt><trkpt lat="41.0423229" lon="16.8385178"><ele>91.2</ele><time>2026-04-04T07:40:13.577Z</time></trkpt><trkpt lat="41.0422281" lon="16.8384802"><ele>91.80000000000001</ele><time>2026-04-04T07:40:14.577Z</time></trkpt><trkpt lat="41.0421266" lon="16.8384409"><ele>92.4</ele><time>2026-04-04T07:40:15.578Z</time></trkpt><trkpt lat="41.0420169" lon="16.8383963"><ele>93.0</ele><time>2026-04-04T07:40:16.577Z</time></trkpt><trkpt lat="41.0419017" lon="16.8383624"><ele>93.25</ele><time>2026-04-04T07:40:17.578Z</time></trkpt><trkpt lat="41.0417833" lon="16.8383417"><ele>93.5</ele><time>2026-04-04T07:40:18.577Z</time></trkpt><trkpt lat="41.0416628" lon="16.8383373"><ele>93.75</ele><time>2026-04-04T07:40:19.577Z</time></trkpt><trkpt lat="41.0415387" lon="16.8383424"><ele>94.0</ele><time>2026-04-04T07:40:20.578Z</time></trkpt><trkpt lat="41.0414257" lon="16.838343"><ele>94.25</ele><time>2026-04-04T07:40:21.577Z</time></trkpt><trkpt lat="41.0413206" lon="16.8383349"><ele>94.5</ele><time>2026-04-04T07:40:22.577Z</time></trkpt><trkpt lat="41.0412097" lon="16.8383149"><ele>94.75</ele><time>2026-04-04T07:40:23.577Z</time></trkpt><trkpt lat="41.0410905" lon="16.8382894"><ele>95.0</ele><time>2026-04-04T07:40:24.577Z</time></trkpt><trkpt lat="41.0409616" lon="16.8382608"><ele>95.0</ele><time>2026-04-04T07:40:25.577Z</time></trkpt><trkpt lat="41.0408324" lon="16.8382317"><ele>95.0</ele><time>2026-04-04T07:40:26.577Z</time></trkpt><trkpt lat="41.0407182" lon="16.8382071"><ele>95.0</ele><time>2026-04-04T07:40:27.578Z</time></trkpt><trkpt lat="41.0406164" lon="16.8381843"><ele>95.0</ele><time>2026-04-04T07:40:28.577Z</time></trkpt><trkpt lat="41.0405279" lon="16.8381684"><ele>95.0</ele><time>2026-04-04T07:40:29.577Z</time></trkpt><trkpt lat="41.0404515" lon="16.8381553"><ele>95.4</ele><time>2026-04-04T07:40:30.577Z</time></trkpt><trkpt lat="41.0403535" lon="16.8381388"><ele>95.8</ele><time>2026-04-04T07:40:32.578Z</time></trkpt><trkpt lat="41.0402604" lon="16.838143"><ele>96.19999999999999</ele><time>2026-04-04T07:40:37.577Z</time></trkpt><trkpt lat="41.0401345" lon="16.8381465"><ele>96.6</ele><time>2026-04-04T07:40:39.577Z</time></trkpt><trkpt lat="41.0400405" lon="16.8381458"><ele>97.0</ele><time>2026-04-04T07:40:40.577Z</time></trkpt><trkpt lat="41.0399281" lon="16.8381469"><ele>97.25</ele><time>2026-04-04T07:40:41.578Z</time></trkpt><trkpt lat="41.039803" lon="16.8381434"><ele>97.5</ele><time>2026-04-04T07:40:42.577Z</time></trkpt><trkpt lat="41.039671" lon="16.8381394"><ele>97.75</ele><time>2026-04-04T07:40:43.577Z</time></trkpt><trkpt lat="41.0395317" lon="16.8381382"><ele>98.0</ele><time>2026-04-04T07:40:44.577Z</time></trkpt><trkpt lat="41.0393991" lon="16.8381409"><ele>98.0</ele><time>2026-04-04T07:40:45.577Z</time></trkpt><trkpt lat="41.0392792" lon="16.8381465"><ele>98.0</ele><time>2026-04-04T07:40:46.577Z</time></trkpt><trkpt lat="41.0391586" lon="16.8381415"><ele>98.0</ele><time>2026-04-04T07:40:47.577Z</time></trkpt><trkpt lat="41.0390245" lon="16.8381098"><ele>98.0</ele><time>2026-04-04T07:40:48.578Z</time></trkpt><trkpt lat="41.0388778" lon="16.8380617"><ele>98.25</ele><time>2026-04-04T07:40:49.577Z</time></trkpt><trkpt lat="41.0387288" lon="16.8380056"><ele>98.5</ele><time>2026-04-04T07:40:50.577Z</time></trkpt><trkpt lat="41.0385845" lon="16.8379439"><ele>98.75</ele><time>2026-04-04T07:40:51.577Z</time></trkpt><trkpt lat="41.0384528" lon="16.837883"><ele>99.0</ele><time>2026-04-04T07:40:52.578Z</time></trkpt><trkpt lat="41.0383246" lon="16.8378281"><ele>99.25</ele><time>2026-04-04T07:40:53.577Z</time></trkpt><trkpt lat="41.038192" lon="16.8377977"><ele>99.5</ele><time>2026-04-04T07:40:54.577Z</time></trkpt><trkpt lat="41.0380479" lon="16.8377925"><ele>99.75</ele><time>2026-04-04T07:40:55.577Z</time></trkpt><trkpt lat="41.0378963" lon="16.8377995"><ele>100.0</ele><time>2026-04-04T07:40:56.577Z</time></trkpt><trkpt lat="41.0377348" lon="16.8378088"><ele>100.0</ele><time>2026-04-04T07:40:57.577Z</time></trkpt><trkpt lat="41.0375673" lon="16.8378143"><ele>100.0</ele><time>2026-04-04T07:40:58.577Z</time></trkpt><trkpt lat="41.0373954" lon="16.8378216"><ele>100.0</ele><time>2026-04-04T07:40:59.577Z</time></trkpt><trkpt lat="41.0372226" lon="16.837826"><ele>99.66666666666667</ele><time>2026-04-04T07:41:00.578Z</time></trkpt><trkpt lat="41.0370446" lon="16.8378325"><ele>99.33333333333334</ele><time>2026-04-04T07:41:01.577Z</time></trkpt><trkpt lat="41.0368637" lon="16.8378392"><ele>99.0</ele><time>2026-04-04T07:41:02.577Z</time></trkpt><trkpt lat="41.0366832" lon="16.8378521"><ele>99.33333333333334</ele><time>2026-04-04T07:41:03.577Z</time></trkpt><trkpt lat="41.0365042" lon="16.8378598"><ele>99.66666666666667</ele><time>2026-04-04T07:41:04.577Z</time></trkpt><trkpt lat="41.0363228" lon="16.8378571"><ele>100.0</ele><time>2026-04-04T07:41:05.577Z</time></trkpt><trkpt lat="41.0361355" lon="16.8378551"><ele>100.0</ele><time>2026-04-04T07:41:06.577Z</time></trkpt><trkpt lat="41.035945" lon="16.8378539"><ele>100.0</ele><time>2026-04-04T07:41:07.577Z</time></trkpt><trkpt lat="41.0357528" lon="16.8378532"><ele>100.0</ele><time>2026-04-04T07:41:08.577Z</time></trkpt><trkpt lat="41.0355617" lon="16.837853"><ele>100.66666666666667</ele><time>2026-04-04T07:41:09.577Z</time></trkpt><trkpt lat="41.0353796" lon="16.8378534"><ele>101.33333333333334</ele><time>2026-04-04T07:41:10.577Z</time></trkpt><trkpt lat="41.0352012" lon="16.8378548"><ele>102.0</ele><time>2026-04-04T07:41:11.577Z</time></trkpt><trkpt lat="41.0350241" lon="16.8378571"><ele>102.33333333333334</ele><time>2026-04-04T07:41:12.577Z</time></trkpt><trkpt lat="41.034848" lon="16.8378599"><ele>102.66666666666667</ele><time>2026-04-04T07:41:13.577Z</time></trkpt><trkpt lat="41.0346722" lon="16.8378614"><ele>103.0</ele><time>2026-04-04T07:41:14.577Z</time></trkpt><trkpt lat="41.0345" lon="16.8378593"><ele>103.0</ele><time>2026-04-04T07:41:15.577Z</time></trkpt><trkpt lat="41.034338" lon="16.837862"><ele>103.0</ele><time>2026-04-04T07:41:16.577Z</time></trkpt><trkpt lat="41.034183" lon="16.8378658"><ele>103.0</ele><time>2026-04-04T07:41:17.577Z</time></trkpt><trkpt lat="41.0340266" lon="16.8378715"><ele>103.5</ele><time>2026-04-04T07:41:18.577Z</time></trkpt><trkpt lat="41.033872" lon="16.8378838"><ele>104.0</ele><time>2026-04-04T07:41:19.577Z</time></trkpt><trkpt lat="41.0337273" lon="16.8378981"><ele>104.5</ele><time>2026-04-04T07:41:20.577Z</time></trkpt><trkpt lat="41.0335945" lon="16.8379187"><ele>105.0</ele><time>2026-04-04T07:41:21.577Z</time></trkpt><trkpt lat="41.033466" lon="16.8379596"><ele>105.0</ele><time>2026-04-04T07:41:22.578Z</time></trkpt><trkpt lat="41.0333562" lon="16.8380103"><ele>105.0</ele><time>2026-04-04T07:41:23.577Z</time></trkpt><trkpt lat="41.0332728" lon="16.8380729"><ele>105.0</ele><time>2026-04-04T07:41:24.577Z</time></trkpt><trkpt lat="41.0332039" lon="16.838158"><ele>105.0</ele><time>2026-04-04T07:41:25.577Z</time></trkpt><trkpt lat="41.0331366" lon="16.8382482"><ele>105.0</ele><time>2026-04-04T07:41:26.577Z</time></trkpt><trkpt lat="41.0330574" lon="16.8383041"><ele>105.5</ele><time>2026-04-04T07:41:27.577Z</time></trkpt><trkpt lat="41.0329621" lon="16.8383458"><ele>106.0</ele><time>2026-04-04T07:41:28.577Z</time></trkpt><trkpt lat="41.0328491" lon="16.8383769"><ele>106.5</ele><time>2026-04-04T07:41:29.577Z</time></trkpt><trkpt lat="41.032728" lon="16.8383963"><ele>107.0</ele><time>2026-04-04T07:41:30.577Z</time></trkpt><trkpt lat="41.0326023" lon="16.838407"><ele>107.5</ele><time>2026-04-04T07:41:31.577Z</time></trkpt><trkpt lat="41.0324715" lon="16.8384135"><ele>108.0</ele><time>2026-04-04T07:41:32.577Z</time></trkpt><trkpt lat="41.0323391" lon="16.8384214"><ele>108.5</ele><time>2026-04-04T07:41:33.577Z</time></trkpt><trkpt lat="41.0322065" lon="16.8384282"><ele>109.0</ele><time>2026-04-04T07:41:34.577Z</time></trkpt><trkpt lat="41.0320809" lon="16.8384351"><ele>109.0</ele><time>2026-04-04T07:41:35.577Z</time></trkpt><trkpt lat="41.0319535" lon="16.8384432"><ele>109.0</ele><time>2026-04-04T07:41:36.577Z</time></trkpt><trkpt lat="41.031823" lon="16.8384543"><ele>109.0</ele><time>2026-04-04T07:41:37.577Z</time></trkpt><trkpt lat="41.0316913" lon="16.8384681"><ele>109.0</ele><time>2026-04-04T07:41:38.577Z</time></trkpt><trkpt lat="41.0315682" lon="16.8384784"><ele>108.75</ele><time>2026-04-04T07:41:39.577Z</time></trkpt><trkpt lat="41.0314437" lon="16.8385012"><ele>108.5</ele><time>2026-04-04T07:41:40.577Z</time></trkpt><trkpt lat="41.0313213" lon="16.8385453"><ele>108.25</ele><time>2026-04-04T07:41:41.579Z</time></trkpt><trkpt lat="41.0312012" lon="16.8386035"><ele>108.0</ele><time>2026-04-04T07:41:42.578Z</time></trkpt><trkpt lat="41.0310831" lon="16.838661"><ele>108.0</ele><time>2026-04-04T07:41:43.577Z</time></trkpt><trkpt lat="41.0309813" lon="16.8387129"><ele>108.0</ele><time>2026-04-04T07:41:44.577Z</time></trkpt><trkpt lat="41.0308968" lon="16.8387615"><ele>108.0</ele><time>2026-04-04T07:41:45.577Z</time></trkpt><trkpt lat="41.0308315" lon="16.8388001"><ele>108.0</ele><time>2026-04-04T07:41:46.577Z</time></trkpt><trkpt lat="41.0307446" lon="16.8388255"><ele>108.0</ele><time>2026-04-04T07:41:48.577Z</time></trkpt><trkpt lat="41.0307154" lon="16.8387438"><ele>108.0</ele><time>2026-04-04T07:41:50.577Z</time></trkpt><trkpt lat="41.030721" lon="16.8385865"><ele>108.2</ele><time>2026-04-04T07:41:52.577Z</time></trkpt><trkpt lat="41.0307232" lon="16.8384874"><ele>108.4</ele><time>2026-04-04T07:41:53.577Z</time></trkpt><trkpt lat="41.0307191" lon="16.8383722"><ele>108.60000000000001</ele><time>2026-04-04T07:41:54.577Z</time></trkpt><trkpt lat="41.030715" lon="16.838241"><ele>108.80000000000001</ele><time>2026-04-04T07:41:55.578Z</time></trkpt><trkpt lat="41.0307165" lon="16.8381023"><ele>109.0</ele><time>2026-04-04T07:41:56.577Z</time></trkpt><trkpt lat="41.030708" lon="16.8379661"><ele>109.0</ele><time>2026-04-04T07:41:57.577Z</time></trkpt><trkpt lat="41.0307071" lon="16.8378413"><ele>109.0</ele><time>2026-04-04T07:41:58.579Z</time></trkpt><trkpt lat="41.0307084" lon="16.8377101"><ele>109.0</ele><time>2026-04-04T07:41:59.577Z</time></trkpt><trkpt lat="41.0307055" lon="16.8375808"><ele>109.0</ele><time>2026-04-04T07:42:00.577Z</time></trkpt><trkpt lat="41.0307024" lon="16.8374476"><ele>109.0</ele><time>2026-04-04T07:42:01.577Z</time></trkpt><trkpt lat="41.0307011" lon="16.8373152"><ele>109.00000000000001</ele><time>2026-04-04T07:42:02.577Z</time></trkpt><trkpt lat="41.0306985" lon="16.8371981"><ele>109.0</ele><time>2026-04-04T07:42:03.577Z</time></trkpt><trkpt lat="41.0306933" lon="16.8370844"><ele>109.0</ele><time>2026-04-04T07:42:04.577Z</time></trkpt><trkpt lat="41.030697" lon="16.8369765"><ele>109.0</ele><time>2026-04-04T07:42:05.578Z</time></trkpt><trkpt lat="41.0306987" lon="16.8368732"><ele>109.00000000000001</ele><time>2026-04-04T07:42:06.577Z</time></trkpt><trkpt lat="41.030701" lon="16.8367855"><ele>109.0</ele><time>2026-04-04T07:42:07.577Z</time></trkpt><trkpt lat="41.030706" lon="16.836651"><ele>109.16666666666667</ele><time>2026-04-04T07:42:09.577Z</time></trkpt><trkpt lat="41.0307031" lon="16.8365311"><ele>109.33333333333334</ele><time>2026-04-04T07:42:11.577Z</time></trkpt><trkpt lat="41.030688" lon="16.8363907"><ele>109.5</ele><time>2026-04-04T07:42:13.577Z</time></trkpt><trkpt lat="41.0306895" lon="16.8363026"><ele>109.66666666666666</ele><time>2026-04-04T07:42:14.577Z</time></trkpt><trkpt lat="41.0306949" lon="16.8362119"><ele>109.83333333333333</ele><time>2026-04-04T07:42:15.577Z</time></trkpt><trkpt lat="41.030695" lon="16.8361185"><ele>110.0</ele><time>2026-04-04T07:42:16.577Z</time></trkpt><trkpt lat="41.0306945" lon="16.8360261"><ele>110.0</ele><time>2026-04-04T07:42:17.577Z</time></trkpt><trkpt lat="41.0306957" lon="16.8358581"><ele>110.0</ele><time>2026-04-04T07:42:19.577Z</time></trkpt><trkpt lat="41.0306983" lon="16.8357061"><ele>110.0</ele><time>2026-04-04T07:42:21.577Z</time></trkpt><trkpt lat="41.0307207" lon="16.8356195"><ele>110.0</ele><time>2026-04-04T07:42:23.577Z</time></trkpt><trkpt lat="41.0307271" lon="16.8355283"><ele>110.0</ele><time>2026-04-04T07:42:26.578Z</time></trkpt><trkpt lat="41.0306893" lon="16.8354368"><ele>110.0</ele><time>2026-04-04T07:42:28.577Z</time></trkpt><trkpt lat="41.030681" lon="16.835272"><ele>110.0</ele><time>2026-04-04T07:42:30.577Z</time></trkpt><trkpt lat="41.0306809" lon="16.8351681"><ele>110.0</ele><time>2026-04-04T07:42:31.577Z</time></trkpt><trkpt lat="41.0306782" lon="16.8350554"><ele>110.0</ele><time>2026-04-04T07:42:32.577Z</time></trkpt><trkpt lat="41.0306779" lon="16.8349481"><ele>110.0</ele><time>2026-04-04T07:42:33.577Z</time></trkpt><trkpt lat="41.03068" lon="16.834838"><ele>109.66666666666666</ele><time>2026-04-04T07:42:34.577Z</time></trkpt><trkpt lat="41.0306703" lon="16.8347267"><ele>109.33333333333333</ele><time>2026-04-04T07:42:35.578Z</time></trkpt><trkpt lat="41.0306599" lon="16.8346141"><ele>109.0</ele><time>2026-04-04T07:42:36.577Z</time></trkpt><trkpt lat="41.0306548" lon="16.8344993"><ele>108.66666666666666</ele><time>2026-04-04T07:42:37.577Z</time></trkpt><trkpt lat="41.030666" lon="16.8343921"><ele>108.33333333333333</ele><time>2026-04-04T07:42:38.577Z</time></trkpt><trkpt lat="41.0306654" lon="16.8342783"><ele>108.0</ele><time>2026-04-04T07:42:39.577Z</time></trkpt><trkpt lat="41.0306562" lon="16.83417"><ele>107.16666666666667</ele><time>2026-04-04T07:42:40.577Z</time></trkpt><trkpt lat="41.0306541" lon="16.8340641"><ele>106.33333333333334</ele><time>2026-04-04T07:42:41.577Z</time></trkpt><trkpt lat="41.0306594" lon="16.8339514"><ele>105.5</ele><time>2026-04-04T07:42:42.578Z</time></trkpt><trkpt lat="41.0306573" lon="16.8338409"><ele>104.66666666666667</ele><time>2026-04-04T07:42:43.577Z</time></trkpt><trkpt lat="41.0306492" lon="16.833731"><ele>103.83333333333334</ele><time>2026-04-04T07:42:44.577Z</time></trkpt><trkpt lat="41.0306496" lon="16.8336271"><ele>103.0</ele><time>2026-04-04T07:42:45.577Z</time></trkpt><trkpt lat="41.0306584" lon="16.833524"><ele>102.85714285714285</ele><time>2026-04-04T07:42:46.577Z</time></trkpt><trkpt lat="41.0306593" lon="16.8334264"><ele>102.71428571428571</ele><time>2026-04-04T07:42:47.577Z</time></trkpt><trkpt lat="41.0306598" lon="16.8333255"><ele>102.57142857142857</ele><time>2026-04-04T07:42:48.577Z</time></trkpt><trkpt lat="41.030664" lon="16.8332326"><ele>102.42857142857142</ele><time>2026-04-04T07:42:49.578Z</time></trkpt><trkpt lat="41.0306631" lon="16.8331368"><ele>102.28571428571429</ele><time>2026-04-04T07:42:50.578Z</time></trkpt><trkpt lat="41.0306615" lon="16.8330357"><ele>102.14285714285714</ele><time>2026-04-04T07:42:51.577Z</time></trkpt><trkpt lat="41.0306583" lon="16.8329373"><ele>102.0</ele><time>2026-04-04T07:42:52.577Z</time></trkpt><trkpt lat="41.0306527" lon="16.8328507"><ele>102.0</ele><time>2026-04-04T07:42:53.577Z</time></trkpt><trkpt lat="41.0306491" lon="16.8326834"><ele>102.0</ele><time>2026-04-04T07:42:55.577Z</time></trkpt><trkpt lat="41.0306525" lon="16.8325971"><ele>102.0</ele><time>2026-04-04T07:42:56.577Z</time></trkpt><trkpt lat="41.0306532" lon="16.8325021"><ele>102.0</ele><time>2026-04-04T07:42:57.577Z</time></trkpt><trkpt lat="41.0306514" lon="16.8324023"><ele>102.0</ele><time>2026-04-04T07:42:58.577Z</time></trkpt><trkpt lat="41.0306475" lon="16.8322556"><ele>102.0</ele><time>2026-04-04T07:43:00.577Z</time></trkpt><trkpt lat="41.0306266" lon="16.832173"><ele>102.83333333333333</ele><time>2026-04-04T07:43:02.577Z</time></trkpt><trkpt lat="41.0306329" lon="16.8320808"><ele>103.66666666666666</ele><time>2026-04-04T07:43:06.577Z</time></trkpt><trkpt lat="41.0306474" lon="16.831999"><ele>104.5</ele><time>2026-04-04T07:43:12.577Z</time></trkpt><trkpt lat="41.0306571" lon="16.8318335"><ele>105.33333333333333</ele><time>2026-04-04T07:43:14.578Z</time></trkpt><trkpt lat="41.0306555" lon="16.8317295"><ele>106.16666666666666</ele><time>2026-04-04T07:43:15.577Z</time></trkpt><trkpt lat="41.0306533" lon="16.8316115"><ele>107.0</ele><time>2026-04-04T07:43:16.577Z</time></trkpt><trkpt lat="41.0306524" lon="16.8315084"><ele>107.49999999999999</ele><time>2026-04-04T07:43:17.577Z</time></trkpt><trkpt lat="41.0306538" lon="16.8314109"><ele>108.0</ele><time>2026-04-04T07:43:18.577Z</time></trkpt><trkpt lat="41.0306635" lon="16.8313213"><ele>108.5</ele><time>2026-04-04T07:43:19.577Z</time></trkpt><trkpt lat="41.0306619" lon="16.8312265"><ele>109.0</ele><time>2026-04-04T07:43:20.577Z</time></trkpt><trkpt lat="41.0306562" lon="16.8311194"><ele>109.49999999999999</ele><time>2026-04-04T07:43:21.577Z</time></trkpt><trkpt lat="41.0306505" lon="16.8309915"><ele>110.0</ele><time>2026-04-04T07:43:22.577Z</time></trkpt><trkpt lat="41.03065" lon="16.8308362"><ele>110.0</ele><time>2026-04-04T07:43:23.577Z</time></trkpt><trkpt lat="41.0306491" lon="16.8306722"><ele>110.0</ele><time>2026-04-04T07:43:24.577Z</time></trkpt><trkpt lat="41.0306492" lon="16.8305266"><ele>110.0</ele><time>2026-04-04T07:43:25.577Z</time></trkpt><trkpt lat="41.0306457" lon="16.8304004"><ele>110.0</ele><time>2026-04-04T07:43:26.577Z</time></trkpt><trkpt lat="41.030647" lon="16.8302866"><ele>110.0</ele><time>2026-04-04T07:43:27.577Z</time></trkpt><trkpt lat="41.030646" lon="16.830183"><ele>110.0</ele><time>2026-04-04T07:43:28.577Z</time></trkpt><trkpt lat="41.0306465" lon="16.8300835"><ele>110.0</ele><time>2026-04-04T07:43:29.577Z</time></trkpt><trkpt lat="41.0306486" lon="16.8299974"><ele>110.0</ele><time>2026-04-04T07:43:30.577Z</time></trkpt><trkpt lat="41.0306633" lon="16.829851"><ele>110.0</ele><time>2026-04-04T07:43:32.577Z</time></trkpt><trkpt lat="41.0306596" lon="16.8297012"><ele>110.0</ele><time>2026-04-04T07:43:34.577Z</time></trkpt><trkpt lat="41.0306487" lon="16.8295445"><ele>110.0</ele><time>2026-04-04T07:43:36.577Z</time></trkpt><trkpt lat="41.0306479" lon="16.8294411"><ele>110.0</ele><time>2026-04-04T07:43:37.578Z</time></trkpt><trkpt lat="41.0306447" lon="16.8293187"><ele>110.0</ele><time>2026-04-04T07:43:38.577Z</time></trkpt><trkpt lat="41.0306335" lon="16.8291699"><ele>110.0</ele><time>2026-04-04T07:43:39.577Z</time></trkpt><trkpt lat="41.0306322" lon="16.8289942"><ele>110.0</ele><time>2026-04-04T07:43:40.577Z</time></trkpt><trkpt lat="41.030631" lon="16.8288337"><ele>109.99999999999999</ele><time>2026-04-04T07:43:41.577Z</time></trkpt><trkpt lat="41.0306319" lon="16.8286983"><ele>110.0</ele><time>2026-04-04T07:43:42.577Z</time></trkpt><trkpt lat="41.0306346" lon="16.8285773"><ele>110.0</ele><time>2026-04-04T07:43:43.578Z</time></trkpt><trkpt lat="41.0306408" lon="16.828481"><ele>110.0</ele><time>2026-04-04T07:43:44.577Z</time></trkpt><trkpt lat="41.0306424" lon="16.8283963"><ele>109.99999999999999</ele><time>2026-04-04T07:43:45.577Z</time></trkpt><trkpt lat="41.0306442" lon="16.8282865"><ele>110.0</ele><time>2026-04-04T07:43:47.577Z</time></trkpt><trkpt lat="41.0306297" lon="16.8281623"><ele>110.2</ele><time>2026-04-04T07:43:50.577Z</time></trkpt><trkpt lat="41.0306198" lon="16.8280586"><ele>110.4</ele><time>2026-04-04T07:43:54.577Z</time></trkpt><trkpt lat="41.0306227" lon="16.8278908"><ele>110.6</ele><time>2026-04-04T07:43:56.578Z</time></trkpt><trkpt lat="41.030625" lon="16.8277563"><ele>110.8</ele><time>2026-04-04T07:43:57.577Z</time></trkpt><trkpt lat="41.0306281" lon="16.8276146"><ele>111.0</ele><time>2026-04-04T07:43:58.577Z</time></trkpt><trkpt lat="41.0306232" lon="16.8274624"><ele>111.0</ele><time>2026-04-04T07:43:59.578Z</time></trkpt><trkpt lat="41.0306147" lon="16.8273014"><ele>111.0</ele><time>2026-04-04T07:44:00.578Z</time></trkpt><trkpt lat="41.0306074" lon="16.8271366"><ele>111.0</ele><time>2026-04-04T07:44:01.577Z</time></trkpt><trkpt lat="41.0306044" lon="16.8269722"><ele>111.0</ele><time>2026-04-04T07:44:02.578Z</time></trkpt><trkpt lat="41.0305987" lon="16.8268065"><ele>110.75</ele><time>2026-04-04T07:44:03.577Z</time></trkpt><trkpt lat="41.0305918" lon="16.826639"><ele>110.5</ele><time>2026-04-04T07:44:04.577Z</time></trkpt><trkpt lat="41.0305965" lon="16.8264742"><ele>110.25</ele><time>2026-04-04T07:44:05.577Z</time></trkpt><trkpt lat="41.0305975" lon="16.8263166"><ele>110.0</ele><time>2026-04-04T07:44:06.577Z</time></trkpt><trkpt lat="41.0305927" lon="16.8261608"><ele>110.0</ele><time>2026-04-04T07:44:07.577Z</time></trkpt><trkpt lat="41.0305843" lon="16.8260254"><ele>110.0</ele><time>2026-04-04T07:44:08.577Z</time></trkpt><trkpt lat="41.0305738" lon="16.825886"><ele>110.0</ele><time>2026-04-04T07:44:09.577Z</time></trkpt><trkpt lat="41.0305671" lon="16.8257488"><ele>110.0</ele><time>2026-04-04T07:44:10.577Z</time></trkpt><trkpt lat="41.0305742" lon="16.8256281"><ele>110.0</ele><time>2026-04-04T07:44:11.578Z</time></trkpt><trkpt lat="41.0305884" lon="16.8255061"><ele>109.99999999999999</ele><time>2026-04-04T07:44:12.578Z</time></trkpt><trkpt lat="41.0305996" lon="16.8253933"><ele>110.0</ele><time>2026-04-04T07:44:13.577Z</time></trkpt><trkpt lat="41.0305903" lon="16.825288"><ele>110.0</ele><time>2026-04-04T07:44:14.577Z</time></trkpt><trkpt lat="41.0305839" lon="16.825186"><ele>110.0</ele><time>2026-04-04T07:44:15.577Z</time></trkpt><trkpt lat="41.0305862" lon="16.8250886"><ele>109.99999999999999</ele><time>2026-04-04T07:44:16.577Z</time></trkpt><trkpt lat="41.0305846" lon="16.8249944"><ele>110.0</ele><time>2026-04-04T07:44:17.577Z</time></trkpt><trkpt lat="41.0305806" lon="16.8248794"><ele>110.2</ele><time>2026-04-04T07:44:18.577Z</time></trkpt><trkpt lat="41.0305764" lon="16.8247541"><ele>110.4</ele><time>2026-04-04T07:44:19.577Z</time></trkpt><trkpt lat="41.030572" lon="16.824616"><ele>110.6</ele><time>2026-04-04T07:44:20.577Z</time></trkpt><trkpt lat="41.0305704" lon="16.8244686"><ele>110.8</ele><time>2026-04-04T07:44:21.577Z</time></trkpt><trkpt lat="41.0305752" lon="16.8243156"><ele>111.0</ele><time>2026-04-04T07:44:22.577Z</time></trkpt><trkpt lat="41.0305728" lon="16.8241581"><ele>111.5</ele><time>2026-04-04T07:44:23.577Z</time></trkpt><trkpt lat="41.0305644" lon="16.8239939"><ele>112.0</ele><time>2026-04-04T07:44:24.577Z</time></trkpt><trkpt lat="41.0305578" lon="16.8238275"><ele>112.5</ele><time>2026-04-04T07:44:25.577Z</time></trkpt><trkpt lat="41.0305512" lon="16.8236618"><ele>113.0</ele><time>2026-04-04T07:44:26.577Z</time></trkpt><trkpt lat="41.030546" lon="16.8234996"><ele>112.75</ele><time>2026-04-04T07:44:27.578Z</time></trkpt><trkpt lat="41.0305393" lon="16.8233351"><ele>112.5</ele><time>2026-04-04T07:44:28.578Z</time></trkpt><trkpt lat="41.0305331" lon="16.8231645"><ele>112.25</ele><time>2026-04-04T07:44:29.577Z</time></trkpt><trkpt lat="41.0305289" lon="16.8230133"><ele>112.0</ele><time>2026-04-04T07:44:30.578Z</time></trkpt><trkpt lat="41.0305284" lon="16.822872"><ele>112.00000000000001</ele><time>2026-04-04T07:44:31.577Z</time></trkpt><trkpt lat="41.0305275" lon="16.8227307"><ele>112.0</ele><time>2026-04-04T07:44:32.577Z</time></trkpt><trkpt lat="41.0305268" lon="16.8226086"><ele>112.0</ele><time>2026-04-04T07:44:33.577Z</time></trkpt><trkpt lat="41.0305248" lon="16.8225046"><ele>112.0</ele><time>2026-04-04T07:44:34.577Z</time></trkpt><trkpt lat="41.0305234" lon="16.8224198"><ele>112.00000000000001</ele><time>2026-04-04T07:44:35.577Z</time></trkpt><trkpt lat="41.030523" lon="16.822302"><ele>112.0</ele><time>2026-04-04T07:44:37.577Z</time></trkpt><trkpt lat="41.030493" lon="16.8222119"><ele>111.83333333333334</ele><time>2026-04-04T07:44:40.577Z</time></trkpt><trkpt lat="41.0305435" lon="16.8221362"><ele>111.66666666666667</ele><time>2026-04-04T07:44:44.578Z</time></trkpt><trkpt lat="41.0304971" lon="16.8220674"><ele>111.5</ele><time>2026-04-04T07:44:48.577Z</time></trkpt><trkpt lat="41.0304269" lon="16.8220167"><ele>111.33333333333334</ele><time>2026-04-04T07:44:51.577Z</time></trkpt><trkpt lat="41.0304651" lon="16.8218884"><ele>111.16666666666667</ele><time>2026-04-04T07:44:55.578Z</time></trkpt><trkpt lat="41.0305007" lon="16.8217867"><ele>111.0</ele><time>2026-04-04T07:44:57.577Z</time></trkpt><trkpt lat="41.030521" lon="16.8216729"><ele>111.0</ele><time>2026-04-04T07:44:59.577Z</time></trkpt><trkpt lat="41.0305155" lon="16.8215836"><ele>111.0</ele><time>2026-04-04T07:45:00.577Z</time></trkpt><trkpt lat="41.0305106" lon="16.8214852"><ele>111.0</ele><time>2026-04-04T07:45:01.578Z</time></trkpt><trkpt lat="41.0305087" lon="16.8213793"><ele>111.0</ele><time>2026-04-04T07:45:02.577Z</time></trkpt><trkpt lat="41.0305106" lon="16.8212658"><ele>111.0</ele><time>2026-04-04T07:45:03.577Z</time></trkpt><trkpt lat="41.0305115" lon="16.821153"><ele>111.0</ele><time>2026-04-04T07:45:04.577Z</time></trkpt><trkpt lat="41.0305134" lon="16.8210494"><ele>110.8</ele><time>2026-04-04T07:45:05.578Z</time></trkpt><trkpt lat="41.0305123" lon="16.8209597"><ele>110.6</ele><time>2026-04-04T07:45:06.577Z</time></trkpt><trkpt lat="41.0305104" lon="16.8208377"><ele>110.4</ele><time>2026-04-04T07:45:08.577Z</time></trkpt><trkpt lat="41.030515" lon="16.8207196"><ele>110.2</ele><time>2026-04-04T07:45:11.577Z</time></trkpt><trkpt lat="41.0305046" lon="16.8205944"><ele>110.0</ele><time>2026-04-04T07:45:14.577Z</time></trkpt><trkpt lat="41.0304916" lon="16.8204435"><ele>109.99999999999999</ele><time>2026-04-04T07:45:16.578Z</time></trkpt><trkpt lat="41.0304929" lon="16.8203429"><ele>110.0</ele><time>2026-04-04T07:45:17.577Z</time></trkpt><trkpt lat="41.0304917" lon="16.8202382"><ele>110.0</ele><time>2026-04-04T07:45:18.577Z</time></trkpt><trkpt lat="41.0304903" lon="16.8201506"><ele>110.0</ele><time>2026-04-04T07:45:19.577Z</time></trkpt><trkpt lat="41.0304974" lon="16.820024"><ele>109.99999999999999</ele><time>2026-04-04T07:45:21.577Z</time></trkpt><trkpt lat="41.0305044" lon="16.8199352"><ele>110.0</ele><time>2026-04-04T07:45:23.577Z</time></trkpt><trkpt lat="41.0304922" lon="16.8197821"><ele>110.4</ele><time>2026-04-04T07:45:25.577Z</time></trkpt><trkpt lat="41.0304838" lon="16.8196788"><ele>110.8</ele><time>2026-04-04T07:45:26.577Z</time></trkpt><trkpt lat="41.0304774" lon="16.8195595"><ele>111.19999999999999</ele><time>2026-04-04T07:45:27.577Z</time></trkpt><trkpt lat="41.0304735" lon="16.81943"><ele>111.6</ele><time>2026-04-04T07:45:28.577Z</time></trkpt><trkpt lat="41.0304791" lon="16.8192908"><ele>112.0</ele><time>2026-04-04T07:45:29.578Z</time></trkpt><trkpt lat="41.0304794" lon="16.8191479"><ele>112.0</ele><time>2026-04-04T07:45:30.577Z</time></trkpt><trkpt lat="41.0304796" lon="16.8190125"><ele>111.99999999999999</ele><time>2026-04-04T07:45:31.578Z</time></trkpt><trkpt lat="41.0304733" lon="16.8188845"><ele>111.99999999999999</ele><time>2026-04-04T07:45:32.577Z</time></trkpt><trkpt lat="41.0304708" lon="16.818759"><ele>112.0</ele><time>2026-04-04T07:45:33.577Z</time></trkpt><trkpt lat="41.0304711" lon="16.8186318"><ele>112.0</ele><time>2026-04-04T07:45:34.577Z</time></trkpt><trkpt lat="41.0304698" lon="16.8185215"><ele>112.16666666666667</ele><time>2026-04-04T07:45:35.577Z</time></trkpt><trkpt lat="41.0304679" lon="16.8184322"><ele>112.33333333333334</ele><time>2026-04-04T07:45:36.577Z</time></trkpt><trkpt lat="41.0304619" lon="16.8183228"><ele>112.5</ele><time>2026-04-04T07:45:38.578Z</time></trkpt><trkpt lat="41.030463" lon="16.8181916"><ele>112.66666666666666</ele><time>2026-04-04T07:45:41.577Z</time></trkpt><trkpt lat="41.030448" lon="16.8180285"><ele>112.83333333333333</ele><time>2026-04-04T07:45:43.577Z</time></trkpt><trkpt lat="41.0304509" lon="16.8179409"><ele>113.0</ele><time>2026-04-04T07:45:44.578Z</time></trkpt><trkpt lat="41.0304548" lon="16.8177902"><ele>112.99999999999999</ele><time>2026-04-04T07:45:46.578Z</time></trkpt><trkpt lat="41.030467" lon="16.817704"><ele>113.0</ele><time>2026-04-04T07:45:49.578Z</time></trkpt><trkpt lat="41.030473" lon="16.8175954"><ele>113.0</ele><time>2026-04-04T07:45:52.579Z</time></trkpt><trkpt lat="41.0304658" lon="16.8175054"><ele>113.0</ele><time>2026-04-04T07:45:53.578Z</time></trkpt><trkpt lat="41.0304608" lon="16.8174087"><ele>112.99999999999999</ele><time>2026-04-04T07:45:54.578Z</time></trkpt><trkpt lat="41.0304528" lon="16.8172899"><ele>113.0</ele><time>2026-04-04T07:45:55.578Z</time></trkpt><trkpt lat="41.0304435" lon="16.8171564"><ele>113.25</ele><time>2026-04-04T07:45:56.578Z</time></trkpt><trkpt lat="41.0304374" lon="16.8170061"><ele>113.5</ele><time>2026-04-04T07:45:57.578Z</time></trkpt><trkpt lat="41.0304389" lon="16.8168458"><ele>113.75</ele><time>2026-04-04T07:45:58.578Z</time></trkpt><trkpt lat="41.0304418" lon="16.8166775"><ele>114.0</ele><time>2026-04-04T07:45:59.578Z</time></trkpt><trkpt lat="41.030438" lon="16.8164944"><ele>114.5</ele><time>2026-04-04T07:46:00.578Z</time></trkpt><trkpt lat="41.0304307" lon="16.8163113"><ele>115.0</ele><time>2026-04-04T07:46:01.578Z</time></trkpt><trkpt lat="41.0304306" lon="16.8161288"><ele>115.5</ele><time>2026-04-04T07:46:02.578Z</time></trkpt><trkpt lat="41.0304363" lon="16.8159698"><ele>116.0</ele><time>2026-04-04T07:46:03.578Z</time></trkpt><trkpt lat="41.0304341" lon="16.8158267"><ele>116.0</ele><time>2026-04-04T07:46:04.578Z</time></trkpt><trkpt lat="41.030434" lon="16.8157003"><ele>116.0</ele><time>2026-04-04T07:46:05.579Z</time></trkpt><trkpt lat="41.0304472" lon="16.8155694"><ele>116.0</ele><time>2026-04-04T07:46:06.578Z</time></trkpt><trkpt lat="41.0304567" lon="16.8154401"><ele>116.0</ele><time>2026-04-04T07:46:07.578Z</time></trkpt><trkpt lat="41.0304345" lon="16.8153032"><ele>116.0</ele><time>2026-04-04T07:46:08.579Z</time></trkpt><trkpt lat="41.030417" lon="16.8151378"><ele>116.0</ele><time>2026-04-04T07:46:09.578Z</time></trkpt><trkpt lat="41.0304127" lon="16.8149787"><ele>116.0</ele><time>2026-04-04T07:46:10.579Z</time></trkpt><trkpt lat="41.0304137" lon="16.8148094"><ele>116.0</ele><time>2026-04-04T07:46:11.578Z</time></trkpt><trkpt lat="41.0304104" lon="16.8146285"><ele>116.0</ele><time>2026-04-04T07:46:12.578Z</time></trkpt><trkpt lat="41.0304074" lon="16.8144426"><ele>115.75</ele><time>2026-04-04T07:46:13.578Z</time></trkpt><trkpt lat="41.0304016" lon="16.8142515"><ele>115.5</ele><time>2026-04-04T07:46:14.578Z</time></trkpt><trkpt lat="41.0303939" lon="16.8140556"><ele>115.25</ele><time>2026-04-04T07:46:15.579Z</time></trkpt><trkpt lat="41.030393" lon="16.8138561"><ele>115.0</ele><time>2026-04-04T07:46:16.578Z</time></trkpt><trkpt lat="41.0303982" lon="16.8136545"><ele>114.33333333333334</ele><time>2026-04-04T07:46:17.578Z</time></trkpt><trkpt lat="41.0303923" lon="16.8134545"><ele>113.66666666666666</ele><time>2026-04-04T07:46:18.578Z</time></trkpt><trkpt lat="41.0303911" lon="16.8132497"><ele>113.0</ele><time>2026-04-04T07:46:19.578Z</time></trkpt><trkpt lat="41.0303889" lon="16.8130458"><ele>113.0</ele><time>2026-04-04T07:46:20.578Z</time></trkpt><trkpt lat="41.030386" lon="16.8128357"><ele>113.0</ele><time>2026-04-04T07:46:21.578Z</time></trkpt><trkpt lat="41.0303864" lon="16.8126259"><ele>113.0</ele><time>2026-04-04T07:46:22.578Z</time></trkpt><trkpt lat="41.0303863" lon="16.812416"><ele>113.0</ele><time>2026-04-04T07:46:23.578Z</time></trkpt><trkpt lat="41.0303799" lon="16.8121977"><ele>113.0</ele><time>2026-04-04T07:46:24.578Z</time></trkpt><trkpt lat="41.0303749" lon="16.811972"><ele>113.0</ele><time>2026-04-04T07:46:25.578Z</time></trkpt><trkpt lat="41.0303753" lon="16.8117535"><ele>113.0</ele><time>2026-04-04T07:46:26.578Z</time></trkpt><trkpt lat="41.0303759" lon="16.8115567"><ele>113.0</ele><time>2026-04-04T07:46:27.578Z</time></trkpt><trkpt lat="41.0303715" lon="16.8113675"><ele>113.0</ele><time>2026-04-04T07:46:28.578Z</time></trkpt><trkpt lat="41.0303631" lon="16.8111646"><ele>113.0</ele><time>2026-04-04T07:46:29.579Z</time></trkpt><trkpt lat="41.0303531" lon="16.8109639"><ele>113.0</ele><time>2026-04-04T07:46:30.579Z</time></trkpt><trkpt lat="41.0303519" lon="16.8107603"><ele>113.0</ele><time>2026-04-04T07:46:31.578Z</time></trkpt><trkpt lat="41.0303542" lon="16.8105566"><ele>113.0</ele><time>2026-04-04T07:46:32.578Z</time></trkpt><trkpt lat="41.0303438" lon="16.8103524"><ele>113.33333333333333</ele><time>2026-04-04T07:46:33.578Z</time></trkpt><trkpt lat="41.0303303" lon="16.8101327"><ele>113.66666666666666</ele><time>2026-04-04T07:46:34.579Z</time></trkpt><trkpt lat="41.0303261" lon="16.8099281"><ele>114.0</ele><time>2026-04-04T07:46:35.578Z</time></trkpt><trkpt lat="41.0303329" lon="16.8097385"><ele>114.0</ele><time>2026-04-04T07:46:36.578Z</time></trkpt><trkpt lat="41.0303327" lon="16.8095326"><ele>114.0</ele><time>2026-04-04T07:46:37.578Z</time></trkpt><trkpt lat="41.0303273" lon="16.8093018"><ele>114.0</ele><time>2026-04-04T07:46:38.578Z</time></trkpt><trkpt lat="41.0303157" lon="16.8090656"><ele>114.0</ele><time>2026-04-04T07:46:39.578Z</time></trkpt><trkpt lat="41.0303023" lon="16.8088195"><ele>114.0</ele><time>2026-04-04T07:46:40.578Z</time></trkpt><trkpt lat="41.030298" lon="16.8085764"><ele>114.0</ele><time>2026-04-04T07:46:41.578Z</time></trkpt><trkpt lat="41.0302951" lon="16.808337"><ele>114.0</ele><time>2026-04-04T07:46:42.578Z</time></trkpt><trkpt lat="41.0302947" lon="16.8081068"><ele>114.0</ele><time>2026-04-04T07:46:43.578Z</time></trkpt><trkpt lat="41.0302926" lon="16.8078839"><ele>114.0</ele><time>2026-04-04T07:46:44.579Z</time></trkpt><trkpt lat="41.0302922" lon="16.8076685"><ele>114.33333333333334</ele><time>2026-04-04T07:46:45.578Z</time></trkpt><trkpt lat="41.0302921" lon="16.8074549"><ele>114.66666666666667</ele><time>2026-04-04T07:46:46.578Z</time></trkpt><trkpt lat="41.0302941" lon="16.8072438"><ele>115.0</ele><time>2026-04-04T07:46:47.58Z</time></trkpt><trkpt lat="41.0302904" lon="16.807033"><ele>115.33333333333334</ele><time>2026-04-04T07:46:48.578Z</time></trkpt><trkpt lat="41.0302871" lon="16.8068142"><ele>115.66666666666666</ele><time>2026-04-04T07:46:49.578Z</time></trkpt><trkpt lat="41.0302818" lon="16.8066067"><ele>116.0</ele><time>2026-04-04T07:46:50.578Z</time></trkpt><trkpt lat="41.0302776" lon="16.8064189"><ele>116.0</ele><time>2026-04-04T07:46:51.579Z</time></trkpt><trkpt lat="41.0302725" lon="16.8062571"><ele>116.0</ele><time>2026-04-04T07:46:52.578Z</time></trkpt><trkpt lat="41.030268" lon="16.8061195"><ele>116.0</ele><time>2026-04-04T07:46:53.578Z</time></trkpt><trkpt lat="41.0302666" lon="16.8059933"><ele>116.0</ele><time>2026-04-04T07:46:54.578Z</time></trkpt><trkpt lat="41.0302631" lon="16.8058882"><ele>116.0</ele><time>2026-04-04T07:46:55.578Z</time></trkpt><trkpt lat="41.0302614" lon="16.805801"><ele>116.0</ele><time>2026-04-04T07:46:56.578Z</time></trkpt><trkpt lat="41.0302607" lon="16.8056943"><ele>116.0</ele><time>2026-04-04T07:46:58.578Z</time></trkpt><trkpt lat="41.0301927" lon="16.8056415"><ele>116.0</ele><time>2026-04-04T07:47:01.578Z</time></trkpt><trkpt lat="41.0300634" lon="16.8056369"><ele>116.0</ele><time>2026-04-04T07:47:03.578Z</time></trkpt><trkpt lat="41.0299781" lon="16.8056353"><ele>116.0</ele><time>2026-04-04T07:47:04.578Z</time></trkpt><trkpt lat="41.0298806" lon="16.8056288"><ele>116.0</ele><time>2026-04-04T07:47:05.579Z</time></trkpt><trkpt lat="41.0297759" lon="16.8056149"><ele>116.0</ele><time>2026-04-04T07:47:06.579Z</time></trkpt><trkpt lat="41.0296635" lon="16.8055853"><ele>116.0</ele><time>2026-04-04T07:47:07.578Z</time></trkpt><trkpt lat="41.0295468" lon="16.8055512"><ele>116.0</ele><time>2026-04-04T07:47:08.578Z</time></trkpt><trkpt lat="41.0294255" lon="16.8055183"><ele>116.0</ele><time>2026-04-04T07:47:09.578Z</time></trkpt><trkpt lat="41.0292935" lon="16.8054843"><ele>116.0</ele><time>2026-04-04T07:47:10.579Z</time></trkpt><trkpt lat="41.0291567" lon="16.8054396"><ele>116.0</ele><time>2026-04-04T07:47:11.578Z</time></trkpt><trkpt lat="41.02904" lon="16.8053901"><ele>116.0</ele><time>2026-04-04T07:47:12.579Z</time></trkpt><trkpt lat="41.0289299" lon="16.8053328"><ele>116.5</ele><time>2026-04-04T07:47:13.578Z</time></trkpt><trkpt lat="41.0288227" lon="16.8052505"><ele>117.0</ele><time>2026-04-04T07:47:14.578Z</time></trkpt><trkpt lat="41.0287161" lon="16.8051515"><ele>117.5</ele><time>2026-04-04T07:47:15.578Z</time></trkpt><trkpt lat="41.0286065" lon="16.805038"><ele>118.0</ele><time>2026-04-04T07:47:16.579Z</time></trkpt><trkpt lat="41.0284874" lon="16.8049201"><ele>118.66666666666667</ele><time>2026-04-04T07:47:17.579Z</time></trkpt><trkpt lat="41.0283612" lon="16.8047959"><ele>119.33333333333334</ele><time>2026-04-04T07:47:18.578Z</time></trkpt><trkpt lat="41.0282348" lon="16.8046699"><ele>120.0</ele><time>2026-04-04T07:47:19.579Z</time></trkpt><trkpt lat="41.0281081" lon="16.8045431"><ele>120.33333333333334</ele><time>2026-04-04T07:47:20.578Z</time></trkpt><trkpt lat="41.0279819" lon="16.8044137"><ele>120.66666666666667</ele><time>2026-04-04T07:47:21.578Z</time></trkpt><trkpt lat="41.0278566" lon="16.8042861"><ele>121.0</ele><time>2026-04-04T07:47:22.578Z</time></trkpt><trkpt lat="41.0277322" lon="16.8041609"><ele>121.0</ele><time>2026-04-04T07:47:23.579Z</time></trkpt><trkpt lat="41.0276065" lon="16.8040347"><ele>121.0</ele><time>2026-04-04T07:47:24.578Z</time></trkpt><trkpt lat="41.0274785" lon="16.8039045"><ele>121.0</ele><time>2026-04-04T07:47:25.578Z</time></trkpt><trkpt lat="41.0273489" lon="16.8037724"><ele>121.33333333333334</ele><time>2026-04-04T07:47:26.578Z</time></trkpt><trkpt lat="41.027219" lon="16.8036389"><ele>121.66666666666666</ele><time>2026-04-04T07:47:27.578Z</time></trkpt><trkpt lat="41.0270868" lon="16.8035062"><ele>122.0</ele><time>2026-04-04T07:47:28.578Z</time></trkpt><trkpt lat="41.0269618" lon="16.8033784"><ele>122.25</ele><time>2026-04-04T07:47:29.578Z</time></trkpt><trkpt lat="41.0268478" lon="16.8032649"><ele>122.5</ele><time>2026-04-04T07:47:30.579Z</time></trkpt><trkpt lat="41.0267431" lon="16.8031629"><ele>122.75</ele><time>2026-04-04T07:47:31.578Z</time></trkpt><trkpt lat="41.0266506" lon="16.8030755"><ele>123.0</ele><time>2026-04-04T07:47:32.579Z</time></trkpt><trkpt lat="41.0265579" lon="16.8029824"><ele>123.2</ele><time>2026-04-04T07:47:33.578Z</time></trkpt><trkpt lat="41.0264673" lon="16.8028906"><ele>123.4</ele><time>2026-04-04T07:47:34.578Z</time></trkpt><trkpt lat="41.026386" lon="16.802808"><ele>123.60000000000001</ele><time>2026-04-04T07:47:35.579Z</time></trkpt><trkpt lat="41.0263137" lon="16.8027357"><ele>123.80000000000001</ele><time>2026-04-04T07:47:36.578Z</time></trkpt><trkpt lat="41.0262599" lon="16.8026802"><ele>124.0</ele><time>2026-04-04T07:47:37.578Z</time></trkpt><trkpt lat="41.0261699" lon="16.8025879"><ele>124.2</ele><time>2026-04-04T07:47:39.579Z</time></trkpt><trkpt lat="41.0261148" lon="16.8025197"><ele>124.4</ele><time>2026-04-04T07:47:40.578Z</time></trkpt><trkpt lat="41.0260406" lon="16.8024375"><ele>124.6</ele><time>2026-04-04T07:47:41.579Z</time></trkpt><trkpt lat="41.0259565" lon="16.802355"><ele>124.8</ele><time>2026-04-04T07:47:42.578Z</time></trkpt><trkpt lat="41.0258776" lon="16.8022748"><ele>125.0</ele><time>2026-04-04T07:47:43.578Z</time></trkpt><trkpt lat="41.0258019" lon="16.8021951"><ele>125.33333333333333</ele><time>2026-04-04T07:47:44.578Z</time></trkpt><trkpt lat="41.0257329" lon="16.8021181"><ele>125.66666666666666</ele><time>2026-04-04T07:47:45.578Z</time></trkpt><trkpt lat="41.0256637" lon="16.8020452"><ele>126.0</ele><time>2026-04-04T07:47:46.578Z</time></trkpt><trkpt lat="41.0255952" lon="16.8019724"><ele>126.33333333333334</ele><time>2026-04-04T07:47:47.58Z</time></trkpt><trkpt lat="41.025532" lon="16.8019096"><ele>126.66666666666667</ele><time>2026-04-04T07:47:48.578Z</time></trkpt><trkpt lat="41.0254731" lon="16.8018511"><ele>127.0</ele><time>2026-04-04T07:47:49.578Z</time></trkpt><trkpt lat="41.025416" lon="16.801798"><ele>127.19999999999999</ele><time>2026-04-04T07:47:50.578Z</time></trkpt><trkpt lat="41.0253087" lon="16.8016987"><ele>127.39999999999999</ele><time>2026-04-04T07:47:52.578Z</time></trkpt><trkpt lat="41.0252403" lon="16.801642"><ele>127.60000000000001</ele><time>2026-04-04T07:47:53.578Z</time></trkpt><trkpt lat="41.0251753" lon="16.8015941"><ele>127.80000000000001</ele><time>2026-04-04T07:47:54.578Z</time></trkpt><trkpt lat="41.0251096" lon="16.8014634"><ele>128.0</ele><time>2026-04-04T07:47:56.578Z</time></trkpt><trkpt lat="41.0251139" lon="16.8013703"><ele>128.0</ele><time>2026-04-04T07:47:57.578Z</time></trkpt><trkpt lat="41.0251421" lon="16.8012505"><ele>128.0</ele><time>2026-04-04T07:47:58.578Z</time></trkpt><trkpt lat="41.025178" lon="16.8011252"><ele>128.0</ele><time>2026-04-04T07:47:59.578Z</time></trkpt><trkpt lat="41.0252158" lon="16.8009899"><ele>128.0</ele><time>2026-04-04T07:48:00.578Z</time></trkpt><trkpt lat="41.0252504" lon="16.8008598"><ele>128.0</ele><time>2026-04-04T07:48:01.579Z</time></trkpt><trkpt lat="41.0252806" lon="16.8007511"><ele>128.0</ele><time>2026-04-04T07:48:02.578Z</time></trkpt><trkpt lat="41.0253053" lon="16.8006489"><ele>127.99999999999999</ele><time>2026-04-04T07:48:03.578Z</time></trkpt><trkpt lat="41.0253306" lon="16.8005564"><ele>128.0</ele><time>2026-04-04T07:48:04.578Z</time></trkpt><trkpt lat="41.0253536" lon="16.8004665"><ele>128.0</ele><time>2026-04-04T07:48:05.578Z</time></trkpt><trkpt lat="41.0253733" lon="16.8003827"><ele>127.99999999999999</ele><time>2026-04-04T07:48:06.578Z</time></trkpt><trkpt lat="41.0253936" lon="16.8002887"><ele>128.0</ele><time>2026-04-04T07:48:07.579Z</time></trkpt><trkpt lat="41.0254142" lon="16.8001899"><ele>128.0</ele><time>2026-04-04T07:48:08.578Z</time></trkpt><trkpt lat="41.0254459" lon="16.8000848"><ele>128.4</ele><time>2026-04-04T07:48:09.579Z</time></trkpt><trkpt lat="41.0254842" lon="16.7999684"><ele>128.8</ele><time>2026-04-04T07:48:10.578Z</time></trkpt><trkpt lat="41.0255205" lon="16.7998376"><ele>129.2</ele><time>2026-04-04T07:48:11.579Z</time></trkpt><trkpt lat="41.0255561" lon="16.7997201"><ele>129.6</ele><time>2026-04-04T07:48:12.578Z</time></trkpt><trkpt lat="41.0255902" lon="16.799604"><ele>130.0</ele><time>2026-04-04T07:48:13.578Z</time></trkpt><trkpt lat="41.0256243" lon="16.7994694"><ele>129.6</ele><time>2026-04-04T07:48:14.578Z</time></trkpt><trkpt lat="41.0256549" lon="16.7993211"><ele>129.2</ele><time>2026-04-04T07:48:15.578Z</time></trkpt><trkpt lat="41.0256889" lon="16.7991652"><ele>128.8</ele><time>2026-04-04T07:48:16.578Z</time></trkpt><trkpt lat="41.0257178" lon="16.7990319"><ele>128.4</ele><time>2026-04-04T07:48:17.578Z</time></trkpt><trkpt lat="41.0257433" lon="16.7989084"><ele>128.0</ele><time>2026-04-04T07:48:18.578Z</time></trkpt><trkpt lat="41.0257654" lon="16.7987793"><ele>128.0</ele><time>2026-04-04T07:48:19.579Z</time></trkpt><trkpt lat="41.0257768" lon="16.7986501"><ele>128.0</ele><time>2026-04-04T07:48:20.578Z</time></trkpt><trkpt lat="41.0257912" lon="16.7985022"><ele>128.0</ele><time>2026-04-04T07:48:21.579Z</time></trkpt><trkpt lat="41.0258124" lon="16.7983314"><ele>128.0</ele><time>2026-04-04T07:48:22.579Z</time></trkpt><trkpt lat="41.025836" lon="16.7981411"><ele>128.0</ele><time>2026-04-04T07:48:23.578Z</time></trkpt><trkpt lat="41.0258632" lon="16.7979667"><ele>128.0</ele><time>2026-04-04T07:48:24.578Z</time></trkpt><trkpt lat="41.0258876" lon="16.7978011"><ele>128.0</ele><time>2026-04-04T07:48:25.578Z</time></trkpt><trkpt lat="41.0259079" lon="16.7976253"><ele>128.0</ele><time>2026-04-04T07:48:26.578Z</time></trkpt><trkpt lat="41.0259303" lon="16.7974518"><ele>128.25</ele><time>2026-04-04T07:48:27.578Z</time></trkpt><trkpt lat="41.0259513" lon="16.7972948"><ele>128.5</ele><time>2026-04-04T07:48:28.578Z</time></trkpt><trkpt lat="41.0259687" lon="16.7971387"><ele>128.75</ele><time>2026-04-04T07:48:29.578Z</time></trkpt><trkpt lat="41.0259876" lon="16.7969828"><ele>129.0</ele><time>2026-04-04T07:48:30.578Z</time></trkpt><trkpt lat="41.0260078" lon="16.7968187"><ele>129.0</ele><time>2026-04-04T07:48:31.578Z</time></trkpt><trkpt lat="41.0260261" lon="16.7966585"><ele>129.0</ele><time>2026-04-04T07:48:32.578Z</time></trkpt><trkpt lat="41.0260431" lon="16.7965015"><ele>129.0</ele><time>2026-04-04T07:48:33.578Z</time></trkpt><trkpt lat="41.0260617" lon="16.7963415"><ele>129.0</ele><time>2026-04-04T07:48:34.578Z</time></trkpt><trkpt lat="41.0260789" lon="16.7961826"><ele>129.0</ele><time>2026-04-04T07:48:35.578Z</time></trkpt><trkpt lat="41.0260945" lon="16.7960447"><ele>129.0</ele><time>2026-04-04T07:48:36.578Z</time></trkpt><trkpt lat="41.0261075" lon="16.7959315"><ele>129.0</ele><time>2026-04-04T07:48:37.578Z</time></trkpt><trkpt lat="41.0261178" lon="16.7958421"><ele>129.0</ele><time>2026-04-04T07:48:38.579Z</time></trkpt><trkpt lat="41.026116" lon="16.7957261"><ele>129.0</ele><time>2026-04-04T07:48:40.578Z</time></trkpt><trkpt lat="41.0260179" lon="16.7956572"><ele>129.16666666666666</ele><time>2026-04-04T07:48:43.578Z</time></trkpt><trkpt lat="41.0259476" lon="16.79565"><ele>129.33333333333334</ele><time>2026-04-04T07:48:44.578Z</time></trkpt><trkpt lat="41.0258693" lon="16.7956403"><ele>129.5</ele><time>2026-04-04T07:48:45.579Z</time></trkpt><trkpt lat="41.0257825" lon="16.7956213"><ele>129.66666666666669</ele><time>2026-04-04T07:48:46.578Z</time></trkpt><trkpt lat="41.0256875" lon="16.7956036"><ele>129.83333333333334</ele><time>2026-04-04T07:48:47.578Z</time></trkpt><trkpt lat="41.0255824" lon="16.7955889"><ele>130.0</ele><time>2026-04-04T07:48:48.578Z</time></trkpt><trkpt lat="41.0254708" lon="16.7955729"><ele>130.0</ele><time>2026-04-04T07:48:49.578Z</time></trkpt><trkpt lat="41.0253497" lon="16.7955498"><ele>130.0</ele><time>2026-04-04T07:48:50.578Z</time></trkpt><trkpt lat="41.0252227" lon="16.7955262"><ele>130.0</ele><time>2026-04-04T07:48:51.578Z</time></trkpt><trkpt lat="41.0250872" lon="16.7955028"><ele>130.0</ele><time>2026-04-04T07:48:52.579Z</time></trkpt><trkpt lat="41.0249461" lon="16.7954802"><ele>130.5</ele><time>2026-04-04T07:48:53.579Z</time></trkpt><trkpt lat="41.0248119" lon="16.7954594"><ele>131.0</ele><time>2026-04-04T07:48:54.578Z</time></trkpt><trkpt lat="41.0246924" lon="16.7954431"><ele>131.5</ele><time>2026-04-04T07:48:55.578Z</time></trkpt><trkpt lat="41.0245838" lon="16.7954252"><ele>132.0</ele><time>2026-04-04T07:48:56.579Z</time></trkpt><trkpt lat="41.0244899" lon="16.7954123"><ele>132.0</ele><time>2026-04-04T07:48:57.579Z</time></trkpt><trkpt lat="41.0244132" lon="16.7954007"><ele>132.0</ele><time>2026-04-04T07:48:58.578Z</time></trkpt><trkpt lat="41.0243219" lon="16.7953762"><ele>132.0</ele><time>2026-04-04T07:49:00.578Z</time></trkpt><trkpt lat="41.0243137" lon="16.7952652"><ele>132.0</ele><time>2026-04-04T07:49:03.579Z</time></trkpt><trkpt lat="41.0243781" lon="16.7951096"><ele>132.0</ele><time>2026-04-04T07:49:05.578Z</time></trkpt><trkpt lat="41.0244235" lon="16.7950136"><ele>132.0</ele><time>2026-04-04T07:49:06.578Z</time></trkpt><trkpt lat="41.0244781" lon="16.7949031"><ele>132.0</ele><time>2026-04-04T07:49:07.578Z</time></trkpt><trkpt lat="41.0245442" lon="16.7947872"><ele>132.0</ele><time>2026-04-04T07:49:08.579Z</time></trkpt><trkpt lat="41.0246219" lon="16.7946642"><ele>132.0</ele><time>2026-04-04T07:49:09.579Z</time></trkpt><trkpt lat="41.0247052" lon="16.7945286"><ele>132.0</ele><time>2026-04-04T07:49:10.579Z</time></trkpt><trkpt lat="41.0247955" lon="16.7943858"><ele>132.0</ele><time>2026-04-04T07:49:11.579Z</time></trkpt><trkpt lat="41.024887" lon="16.794236"><ele>132.0</ele><time>2026-04-04T07:49:12.578Z</time></trkpt><trkpt lat="41.0249793" lon="16.7940775"><ele>132.0</ele><time>2026-04-04T07:49:13.578Z</time></trkpt><trkpt lat="41.0250703" lon="16.7939126"><ele>131.5</ele><time>2026-04-04T07:49:14.579Z</time></trkpt><trkpt lat="41.0251522" lon="16.7937609"><ele>131.0</ele><time>2026-04-04T07:49:15.578Z</time></trkpt><trkpt lat="41.02523" lon="16.7936046"><ele>130.5</ele><time>2026-04-04T07:49:16.578Z</time></trkpt><trkpt lat="41.0253006" lon="16.7934357"><ele>130.0</ele><time>2026-04-04T07:49:17.578Z</time></trkpt><trkpt lat="41.0253657" lon="16.7932589"><ele>130.0</ele><time>2026-04-04T07:49:18.578Z</time></trkpt><trkpt lat="41.025435" lon="16.7930824"><ele>130.0</ele><time>2026-04-04T07:49:19.578Z</time></trkpt><trkpt lat="41.0255032" lon="16.7929114"><ele>130.0</ele><time>2026-04-04T07:49:20.579Z</time></trkpt><trkpt lat="41.0255595" lon="16.7927524"><ele>130.0</ele><time>2026-04-04T07:49:21.578Z</time></trkpt><trkpt lat="41.0256074" lon="16.7926018"><ele>130.2</ele><time>2026-04-04T07:49:22.578Z</time></trkpt><trkpt lat="41.0256392" lon="16.7924493"><ele>130.4</ele><time>2026-04-04T07:49:23.579Z</time></trkpt><trkpt lat="41.0256578" lon="16.7922822"><ele>130.6</ele><time>2026-04-04T07:49:24.578Z</time></trkpt><trkpt lat="41.0256681" lon="16.792141"><ele>130.8</ele><time>2026-04-04T07:49:25.578Z</time></trkpt><trkpt lat="41.0256623" lon="16.7920169"><ele>131.0</ele><time>2026-04-04T07:49:26.578Z</time></trkpt><trkpt lat="41.0256257" lon="16.7918932"><ele>130.6</ele><time>2026-04-04T07:49:27.578Z</time></trkpt><trkpt lat="41.0255636" lon="16.7917771"><ele>130.2</ele><time>2026-04-04T07:49:28.579Z</time></trkpt><trkpt lat="41.0255039" lon="16.7916811"><ele>129.8</ele><time>2026-04-04T07:49:29.578Z</time></trkpt><trkpt lat="41.0254595" lon="16.7915854"><ele>129.4</ele><time>2026-04-04T07:49:30.578Z</time></trkpt><trkpt lat="41.0254251" lon="16.7914584"><ele>129.0</ele><time>2026-04-04T07:49:31.578Z</time></trkpt><trkpt lat="41.0253992" lon="16.7913046"><ele>129.0</ele><time>2026-04-04T07:49:32.578Z</time></trkpt><trkpt lat="41.0253709" lon="16.7911459"><ele>129.0</ele><time>2026-04-04T07:49:33.579Z</time></trkpt><trkpt lat="41.0253544" lon="16.7910197"><ele>129.0</ele><time>2026-04-04T07:49:34.578Z</time></trkpt><trkpt lat="41.0253542" lon="16.7909243"><ele>129.0</ele><time>2026-04-04T07:49:35.578Z</time></trkpt><trkpt lat="41.0254218" lon="16.7908077"><ele>129.0</ele><time>2026-04-04T07:49:37.578Z</time></trkpt><trkpt lat="41.0254908" lon="16.7907809"><ele>128.6</ele><time>2026-04-04T07:49:38.579Z</time></trkpt><trkpt lat="41.0255654" lon="16.7907706"><ele>128.2</ele><time>2026-04-04T07:49:39.578Z</time></trkpt><trkpt lat="41.02565" lon="16.7907408"><ele>127.79999999999998</ele><time>2026-04-04T07:49:40.578Z</time></trkpt><trkpt lat="41.0257437" lon="16.7906879"><ele>127.39999999999999</ele><time>2026-04-04T07:49:41.578Z</time></trkpt><trkpt lat="41.0258495" lon="16.7906352"><ele>127.0</ele><time>2026-04-04T07:49:42.578Z</time></trkpt><trkpt lat="41.0259652" lon="16.7905843"><ele>126.5</ele><time>2026-04-04T07:49:43.578Z</time></trkpt><trkpt lat="41.0260802" lon="16.7905341"><ele>126.0</ele><time>2026-04-04T07:49:44.578Z</time></trkpt><trkpt lat="41.0261888" lon="16.7904732"><ele>125.5</ele><time>2026-04-04T07:49:45.578Z</time></trkpt><trkpt lat="41.0262949" lon="16.7904002"><ele>125.0</ele><time>2026-04-04T07:49:46.578Z</time></trkpt><trkpt lat="41.0263948" lon="16.7903238"><ele>125.0</ele><time>2026-04-04T07:49:47.578Z</time></trkpt><trkpt lat="41.0264755" lon="16.7902518"><ele>125.0</ele><time>2026-04-04T07:49:48.579Z</time></trkpt><trkpt lat="41.0265346" lon="16.7902027"><ele>125.0</ele><time>2026-04-04T07:49:49.578Z</time></trkpt><trkpt lat="41.0266403" lon="16.7901526"><ele>125.0</ele><time>2026-04-04T07:49:51.578Z</time></trkpt><trkpt lat="41.0267421" lon="16.7901147"><ele>125.0</ele><time>2026-04-04T07:49:53.578Z</time></trkpt><trkpt lat="41.0267461" lon="16.7900291"><ele>125.0</ele><time>2026-04-04T07:49:55.578Z</time></trkpt><trkpt lat="41.0266956" lon="16.7898793"><ele>125.0</ele><time>2026-04-04T07:49:57.578Z</time></trkpt><trkpt lat="41.0266677" lon="16.7897811"><ele>125.0</ele><time>2026-04-04T07:49:58.579Z</time></trkpt><trkpt lat="41.0266306" lon="16.7896791"><ele>125.0</ele><time>2026-04-04T07:49:59.578Z</time></trkpt><trkpt lat="41.0265891" lon="16.7895687"><ele>125.0</ele><time>2026-04-04T07:50:00.578Z</time></trkpt><trkpt lat="41.0265502" lon="16.7894495"><ele>125.2</ele><time>2026-04-04T07:50:01.579Z</time></trkpt><trkpt lat="41.0265079" lon="16.7893163"><ele>125.4</ele><time>2026-04-04T07:50:02.578Z</time></trkpt><trkpt lat="41.0264613" lon="16.7891911"><ele>125.6</ele><time>2026-04-04T07:50:03.578Z</time></trkpt><trkpt lat="41.026402" lon="16.7890757"><ele>125.8</ele><time>2026-04-04T07:50:04.578Z</time></trkpt><trkpt lat="41.0263182" lon="16.7889688"><ele>126.0</ele><time>2026-04-04T07:50:05.578Z</time></trkpt><trkpt lat="41.0262299" lon="16.7888561"><ele>126.0</ele><time>2026-04-04T07:50:06.578Z</time></trkpt><trkpt lat="41.0261405" lon="16.7887387"><ele>126.0</ele><time>2026-04-04T07:50:07.578Z</time></trkpt><trkpt lat="41.0260407" lon="16.7886215"><ele>126.0</ele><time>2026-04-04T07:50:08.578Z</time></trkpt><trkpt lat="41.0259339" lon="16.7885103"><ele>126.0</ele><time>2026-04-04T07:50:09.578Z</time></trkpt><trkpt lat="41.0258281" lon="16.7884001"><ele>126.25</ele><time>2026-04-04T07:50:10.578Z</time></trkpt><trkpt lat="41.0257218" lon="16.788293"><ele>126.5</ele><time>2026-04-04T07:50:11.578Z</time></trkpt><trkpt lat="41.0256117" lon="16.7881843"><ele>126.75</ele><time>2026-04-04T07:50:12.578Z</time></trkpt><trkpt lat="41.0254974" lon="16.7880743"><ele>127.0</ele><time>2026-04-04T07:50:13.578Z</time></trkpt><trkpt lat="41.0253877" lon="16.7879594"><ele>127.0</ele><time>2026-04-04T07:50:14.578Z</time></trkpt><trkpt lat="41.0252887" lon="16.78784"><ele>127.0</ele><time>2026-04-04T07:50:15.578Z</time></trkpt><trkpt lat="41.0252017" lon="16.7877285"><ele>127.0</ele><time>2026-04-04T07:50:16.578Z</time></trkpt><trkpt lat="41.025122" lon="16.7876245"><ele>127.0</ele><time>2026-04-04T07:50:17.579Z</time></trkpt><trkpt lat="41.0250515" lon="16.7875222"><ele>127.33333333333334</ele><time>2026-04-04T07:50:18.578Z</time></trkpt><trkpt lat="41.0249862" lon="16.7874261"><ele>127.66666666666667</ele><time>2026-04-04T07:50:19.579Z</time></trkpt><trkpt lat="41.0249297" lon="16.7873415"><ele>128.0</ele><time>2026-04-04T07:50:20.578Z</time></trkpt><trkpt lat="41.0248759" lon="16.7872615"><ele>128.33333333333334</ele><time>2026-04-04T07:50:21.578Z</time></trkpt><trkpt lat="41.0248195" lon="16.7871782"><ele>128.66666666666666</ele><time>2026-04-04T07:50:22.578Z</time></trkpt><trkpt lat="41.0247507" lon="16.7870973"><ele>129.0</ele><time>2026-04-04T07:50:23.58Z</time></trkpt><trkpt lat="41.0246679" lon="16.7870249"><ele>129.0</ele><time>2026-04-04T07:50:24.578Z</time></trkpt><trkpt lat="41.0245791" lon="16.7869523"><ele>129.0</ele><time>2026-04-04T07:50:25.578Z</time></trkpt><trkpt lat="41.0244906" lon="16.786872"><ele>129.0</ele><time>2026-04-04T07:50:26.578Z</time></trkpt><trkpt lat="41.0244016" lon="16.7867853"><ele>129.0</ele><time>2026-04-04T07:50:27.578Z</time></trkpt><trkpt lat="41.0243232" lon="16.7866946"><ele>129.0</ele><time>2026-04-04T07:50:28.578Z</time></trkpt><trkpt lat="41.02425" lon="16.7866092"><ele>129.4</ele><time>2026-04-04T07:50:29.578Z</time></trkpt><trkpt lat="41.0241781" lon="16.7865362"><ele>129.8</ele><time>2026-04-04T07:50:30.578Z</time></trkpt><trkpt lat="41.0241202" lon="16.7864736"><ele>130.2</ele><time>2026-04-04T07:50:31.578Z</time></trkpt><trkpt lat="41.0240671" lon="16.7863421"><ele>130.6</ele><time>2026-04-04T07:50:33.578Z</time></trkpt><trkpt lat="41.0240521" lon="16.7861642"><ele>131.0</ele><time>2026-04-04T07:50:35.578Z</time></trkpt><trkpt lat="41.0240442" lon="16.7860391"><ele>131.5</ele><time>2026-04-04T07:50:36.578Z</time></trkpt><trkpt lat="41.0240342" lon="16.7859064"><ele>132.0</ele><time>2026-04-04T07:50:37.578Z</time></trkpt><trkpt lat="41.0240205" lon="16.7858006"><ele>132.5</ele><time>2026-04-04T07:50:38.578Z</time></trkpt><trkpt lat="41.0239981" lon="16.7857162"><ele>133.0</ele><time>2026-04-04T07:50:39.578Z</time></trkpt><trkpt lat="41.0239116" lon="16.7856254"><ele>133.5</ele><time>2026-04-04T07:50:41.579Z</time></trkpt><trkpt lat="41.0238387" lon="16.7856157"><ele>134.0</ele><time>2026-04-04T07:50:42.578Z</time></trkpt><trkpt lat="41.0237371" lon="16.7856048"><ele>134.0</ele><time>2026-04-04T07:50:43.578Z</time></trkpt><trkpt lat="41.0236305" lon="16.7855822"><ele>134.0</ele><time>2026-04-04T07:50:44.579Z</time></trkpt><trkpt lat="41.0235121" lon="16.7855513"><ele>134.0</ele><time>2026-04-04T07:50:45.578Z</time></trkpt><trkpt lat="41.0233893" lon="16.7855013"><ele>134.0</ele><time>2026-04-04T07:50:46.578Z</time></trkpt><trkpt lat="41.023265" lon="16.7854519"><ele>134.25</ele><time>2026-04-04T07:50:47.578Z</time></trkpt><trkpt lat="41.0231505" lon="16.7854126"><ele>134.5</ele><time>2026-04-04T07:50:48.578Z</time></trkpt><trkpt lat="41.0230262" lon="16.7853847"><ele>134.75</ele><time>2026-04-04T07:50:49.578Z</time></trkpt><trkpt lat="41.0229119" lon="16.7853475"><ele>135.0</ele><time>2026-04-04T07:50:50.578Z</time></trkpt><trkpt lat="41.0227942" lon="16.7853003"><ele>135.0</ele><time>2026-04-04T07:50:51.578Z</time></trkpt><trkpt lat="41.022677" lon="16.7852603"><ele>135.0</ele><time>2026-04-04T07:50:52.578Z</time></trkpt><trkpt lat="41.0225752" lon="16.7852019"><ele>135.0</ele><time>2026-04-04T07:50:53.578Z</time></trkpt><trkpt lat="41.0224667" lon="16.7851401"><ele>135.0</ele><time>2026-04-04T07:50:54.578Z</time></trkpt><trkpt lat="41.0223663" lon="16.7850863"><ele>134.8</ele><time>2026-04-04T07:50:55.579Z</time></trkpt><trkpt lat="41.022286" lon="16.7850293"><ele>134.6</ele><time>2026-04-04T07:50:56.578Z</time></trkpt><trkpt lat="41.0222196" lon="16.7849668"><ele>134.4</ele><time>2026-04-04T07:50:57.579Z</time></trkpt><trkpt lat="41.0221597" lon="16.7848321"><ele>134.2</ele><time>2026-04-04T07:50:59.578Z</time></trkpt><trkpt lat="41.0221827" lon="16.7847445"><ele>134.0</ele><time>2026-04-04T07:51:00.578Z</time></trkpt><trkpt lat="41.0222236" lon="16.7846387"><ele>134.0</ele><time>2026-04-04T07:51:01.579Z</time></trkpt><trkpt lat="41.022271" lon="16.7845624"><ele>134.0</ele><time>2026-04-04T07:51:02.578Z</time></trkpt><trkpt lat="41.0223087" lon="16.7844938"><ele>134.0</ele><time>2026-04-04T07:51:03.579Z</time></trkpt><trkpt lat="41.0222946" lon="16.7843476"><ele>134.0</ele><time>2026-04-04T07:51:05.578Z</time></trkpt><trkpt lat="41.0222354" lon="16.7842802"><ele>134.0</ele><time>2026-04-04T07:51:06.578Z</time></trkpt><trkpt lat="41.0221574" lon="16.7841963"><ele>134.0</ele><time>2026-04-04T07:51:07.578Z</time></trkpt><trkpt lat="41.0220771" lon="16.7840976"><ele>134.8</ele><time>2026-04-04T07:51:08.578Z</time></trkpt><trkpt lat="41.022007" lon="16.7839821"><ele>135.60000000000002</ele><time>2026-04-04T07:51:09.578Z</time></trkpt><trkpt lat="41.0219437" lon="16.7838766"><ele>136.4</ele><time>2026-04-04T07:51:10.579Z</time></trkpt><trkpt lat="41.0218925" lon="16.7837853"><ele>137.20000000000002</ele><time>2026-04-04T07:51:11.578Z</time></trkpt><trkpt lat="41.0218676" lon="16.7836832"><ele>138.0</ele><time>2026-04-04T07:51:12.578Z</time></trkpt><trkpt lat="41.0218689" lon="16.7835642"><ele>138.16666666666666</ele><time>2026-04-04T07:51:13.578Z</time></trkpt><trkpt lat="41.0218812" lon="16.7834333"><ele>138.33333333333334</ele><time>2026-04-04T07:51:14.578Z</time></trkpt><trkpt lat="41.0218731" lon="16.7833292"><ele>138.5</ele><time>2026-04-04T07:51:15.578Z</time></trkpt><trkpt lat="41.0218421" lon="16.783256"><ele>138.66666666666669</ele><time>2026-04-04T07:51:16.578Z</time></trkpt><trkpt lat="41.0217882" lon="16.7832077"><ele>138.83333333333334</ele><time>2026-04-04T07:51:17.579Z</time></trkpt><trkpt lat="41.0217108" lon="16.7831758"><ele>139.0</ele><time>2026-04-04T07:51:18.578Z</time></trkpt><trkpt lat="41.0216167" lon="16.7831368"><ele>138.25</ele><time>2026-04-04T07:51:19.578Z</time></trkpt><trkpt lat="41.0215196" lon="16.7830656"><ele>137.5</ele><time>2026-04-04T07:51:20.579Z</time></trkpt><trkpt lat="41.021426" lon="16.7829781"><ele>136.75</ele><time>2026-04-04T07:51:21.578Z</time></trkpt><trkpt lat="41.0213292" lon="16.7828949"><ele>136.0</ele><time>2026-04-04T07:51:22.578Z</time></trkpt><trkpt lat="41.0212288" lon="16.7828107"><ele>136.0</ele><time>2026-04-04T07:51:23.578Z</time></trkpt><trkpt lat="41.021124" lon="16.7827221"><ele>136.0</ele><time>2026-04-04T07:51:24.58Z</time></trkpt><trkpt lat="41.0210201" lon="16.7826251"><ele>136.0</ele><time>2026-04-04T07:51:25.579Z</time></trkpt><trkpt lat="41.0209235" lon="16.7825213"><ele>136.0</ele><time>2026-04-04T07:51:26.578Z</time></trkpt><trkpt lat="41.0208361" lon="16.7824152"><ele>136.4</ele><time>2026-04-04T07:51:27.578Z</time></trkpt><trkpt lat="41.0207564" lon="16.7823253"><ele>136.8</ele><time>2026-04-04T07:51:28.578Z</time></trkpt><trkpt lat="41.0206866" lon="16.7822393"><ele>137.20000000000002</ele><time>2026-04-04T07:51:29.578Z</time></trkpt><trkpt lat="41.0206275" lon="16.7821336"><ele>137.6</ele><time>2026-04-04T07:51:30.578Z</time></trkpt><trkpt lat="41.0205824" lon="16.7820044"><ele>138.0</ele><time>2026-04-04T07:51:31.579Z</time></trkpt><trkpt lat="41.0205463" lon="16.781866"><ele>139.0</ele><time>2026-04-04T07:51:32.578Z</time></trkpt><trkpt lat="41.0205307" lon="16.7817412"><ele>140.0</ele><time>2026-04-04T07:51:33.578Z</time></trkpt><trkpt lat="41.0205213" lon="16.7816463"><ele>141.0</ele><time>2026-04-04T07:51:34.578Z</time></trkpt><trkpt lat="41.0204193" lon="16.7815466"><ele>142.0</ele><time>2026-04-04T07:51:36.578Z</time></trkpt><trkpt lat="41.0203289" lon="16.7815126"><ele>143.0</ele><time>2026-04-04T07:51:37.579Z</time></trkpt><trkpt lat="41.0202246" lon="16.7814809"><ele>143.0</ele><time>2026-04-04T07:51:38.578Z</time></trkpt><trkpt lat="41.0201114" lon="16.7814434"><ele>143.0</ele><time>2026-04-04T07:51:39.578Z</time></trkpt><trkpt lat="41.0199974" lon="16.7813966"><ele>143.0</ele><time>2026-04-04T07:51:40.579Z</time></trkpt><trkpt lat="41.01989" lon="16.7813534"><ele>143.0</ele><time>2026-04-04T07:51:41.578Z</time></trkpt><trkpt lat="41.0197822" lon="16.781315"><ele>142.75</ele><time>2026-04-04T07:51:42.578Z</time></trkpt><trkpt lat="41.0196722" lon="16.7812762"><ele>142.5</ele><time>2026-04-04T07:51:43.578Z</time></trkpt><trkpt lat="41.0195613" lon="16.7812337"><ele>142.25</ele><time>2026-04-04T07:51:44.578Z</time></trkpt><trkpt lat="41.0194494" lon="16.7811881"><ele>142.0</ele><time>2026-04-04T07:51:45.578Z</time></trkpt><trkpt lat="41.0193342" lon="16.7811484"><ele>142.0</ele><time>2026-04-04T07:51:46.578Z</time></trkpt><trkpt lat="41.0192198" lon="16.7811098"><ele>142.0</ele><time>2026-04-04T07:51:47.578Z</time></trkpt><trkpt lat="41.0191108" lon="16.7810712"><ele>142.0</ele><time>2026-04-04T07:51:48.578Z</time></trkpt><trkpt lat="41.0190106" lon="16.781036"><ele>142.0</ele><time>2026-04-04T07:51:49.578Z</time></trkpt><trkpt lat="41.0189194" lon="16.7810064"><ele>142.0</ele><time>2026-04-04T07:51:50.578Z</time></trkpt><trkpt lat="41.0188362" lon="16.7809603"><ele>143.5</ele><time>2026-04-04T07:51:51.578Z</time></trkpt><trkpt lat="41.0187502" lon="16.7808786"><ele>145.0</ele><time>2026-04-04T07:51:52.578Z</time></trkpt><trkpt lat="41.0186537" lon="16.7808004"><ele>146.5</ele><time>2026-04-04T07:51:53.578Z</time></trkpt><trkpt lat="41.0185505" lon="16.7807232"><ele>148.0</ele><time>2026-04-04T07:51:54.578Z</time></trkpt><trkpt lat="41.0184453" lon="16.7806379"><ele>148.0</ele><time>2026-04-04T07:51:55.578Z</time></trkpt><trkpt lat="41.0183373" lon="16.7805538"><ele>148.0</ele><time>2026-04-04T07:51:56.578Z</time></trkpt><trkpt lat="41.0182268" lon="16.780471"><ele>148.0</ele><time>2026-04-04T07:51:57.579Z</time></trkpt><trkpt lat="41.0181148" lon="16.7803902"><ele>148.0</ele><time>2026-04-04T07:51:58.578Z</time></trkpt><trkpt lat="41.0180094" lon="16.7803233"><ele>148.4</ele><time>2026-04-04T07:51:59.578Z</time></trkpt><trkpt lat="41.0178965" lon="16.7802782"><ele>148.8</ele><time>2026-04-04T07:52:00.578Z</time></trkpt><trkpt lat="41.0177784" lon="16.7802405"><ele>149.2</ele><time>2026-04-04T07:52:01.578Z</time></trkpt><trkpt lat="41.017671" lon="16.7802033"><ele>149.6</ele><time>2026-04-04T07:52:02.578Z</time></trkpt><trkpt lat="41.0175805" lon="16.7801697"><ele>150.0</ele><time>2026-04-04T07:52:03.578Z</time></trkpt><trkpt lat="41.0175092" lon="16.7801346"><ele>150.4</ele><time>2026-04-04T07:52:04.578Z</time></trkpt><trkpt lat="41.0174356" lon="16.780037"><ele>150.8</ele><time>2026-04-04T07:52:06.579Z</time></trkpt><trkpt lat="41.0174468" lon="16.7798993"><ele>151.2</ele><time>2026-04-04T07:52:08.579Z</time></trkpt><trkpt lat="41.0174477" lon="16.7798125"><ele>151.6</ele><time>2026-04-04T07:52:10.579Z</time></trkpt><trkpt lat="41.0174515" lon="16.7796842"><ele>152.0</ele><time>2026-04-04T07:52:13.578Z</time></trkpt><trkpt lat="41.017468" lon="16.7795098"><ele>152.0</ele><time>2026-04-04T07:52:15.578Z</time></trkpt><trkpt lat="41.0174725" lon="16.7793911"><ele>152.0</ele><time>2026-04-04T07:52:16.578Z</time></trkpt><trkpt lat="41.0174794" lon="16.7792586"><ele>152.0</ele><time>2026-04-04T07:52:17.578Z</time></trkpt><trkpt lat="41.0174814" lon="16.7791314"><ele>152.0</ele><time>2026-04-04T07:52:18.579Z</time></trkpt><trkpt lat="41.0174872" lon="16.7790053"><ele>152.0</ele><time>2026-04-04T07:52:19.578Z</time></trkpt><trkpt lat="41.0175119" lon="16.7788804"><ele>152.0</ele><time>2026-04-04T07:52:20.578Z</time></trkpt><trkpt lat="41.0175525" lon="16.7787506"><ele>152.0</ele><time>2026-04-04T07:52:21.578Z</time></trkpt><trkpt lat="41.0175797" lon="16.7786099"><ele>152.0</ele><time>2026-04-04T07:52:22.578Z</time></trkpt><trkpt lat="41.0176125" lon="16.7784578"><ele>152.0</ele><time>2026-04-04T07:52:23.578Z</time></trkpt><trkpt lat="41.0176367" lon="16.7783177"><ele>152.0</ele><time>2026-04-04T07:52:24.578Z</time></trkpt><trkpt lat="41.0176554" lon="16.7781799"><ele>152.0</ele><time>2026-04-04T07:52:25.578Z</time></trkpt><trkpt lat="41.0176789" lon="16.7780607"><ele>152.0</ele><time>2026-04-04T07:52:26.578Z</time></trkpt><trkpt lat="41.0177011" lon="16.777954"><ele>152.0</ele><time>2026-04-04T07:52:27.578Z</time></trkpt><trkpt lat="41.0177139" lon="16.7778394"><ele>152.0</ele><time>2026-04-04T07:52:28.578Z</time></trkpt><trkpt lat="41.0177313" lon="16.7777131"><ele>152.0</ele><time>2026-04-04T07:52:29.578Z</time></trkpt><trkpt lat="41.0177581" lon="16.7776059"><ele>152.0</ele><time>2026-04-04T07:52:30.578Z</time></trkpt><trkpt lat="41.0177977" lon="16.7775355"><ele>152.0</ele><time>2026-04-04T07:52:31.578Z</time></trkpt><trkpt lat="41.0178459" lon="16.7774742"><ele>152.0</ele><time>2026-04-04T07:52:32.578Z</time></trkpt><trkpt lat="41.0178987" lon="16.7774222"><ele>152.0</ele><time>2026-04-04T07:52:33.578Z</time></trkpt><trkpt lat="41.0179642" lon="16.7773804"><ele>152.0</ele><time>2026-04-04T07:52:34.578Z</time></trkpt><trkpt lat="41.0180381" lon="16.7773306"><ele>152.0</ele><time>2026-04-04T07:52:35.578Z</time></trkpt><trkpt lat="41.0181253" lon="16.7772672"><ele>152.0</ele><time>2026-04-04T07:52:36.578Z</time></trkpt><trkpt lat="41.0182163" lon="16.7771817"><ele>152.0</ele><time>2026-04-04T07:52:37.578Z</time></trkpt><trkpt lat="41.0183113" lon="16.7770842"><ele>152.0</ele><time>2026-04-04T07:52:38.578Z</time></trkpt><trkpt lat="41.0184203" lon="16.7769987"><ele>152.0</ele><time>2026-04-04T07:52:39.578Z</time></trkpt><trkpt lat="41.0185319" lon="16.776913"><ele>152.0</ele><time>2026-04-04T07:52:40.578Z</time></trkpt><trkpt lat="41.0186333" lon="16.776837"><ele>151.83333333333331</ele><time>2026-04-04T07:52:41.578Z</time></trkpt><trkpt lat="41.0187212" lon="16.7767716"><ele>151.66666666666666</ele><time>2026-04-04T07:52:42.578Z</time></trkpt><trkpt lat="41.0187981" lon="16.7767155"><ele>151.5</ele><time>2026-04-04T07:52:43.578Z</time></trkpt><trkpt lat="41.0188654" lon="16.7766622"><ele>151.33333333333334</ele><time>2026-04-04T07:52:44.578Z</time></trkpt><trkpt lat="41.0189225" lon="16.7766202"><ele>151.16666666666669</ele><time>2026-04-04T07:52:45.578Z</time></trkpt><trkpt lat="41.0189819" lon="16.776587"><ele>151.0</ele><time>2026-04-04T07:52:46.578Z</time></trkpt><trkpt lat="41.0190634" lon="16.7765175"><ele>150.75</ele><time>2026-04-04T07:52:48.578Z</time></trkpt><trkpt lat="41.019159" lon="16.7764279"><ele>150.5</ele><time>2026-04-04T07:52:50.578Z</time></trkpt><trkpt lat="41.0192551" lon="16.7763699"><ele>150.25</ele><time>2026-04-04T07:52:51.578Z</time></trkpt><trkpt lat="41.0193733" lon="16.7762949"><ele>150.0</ele><time>2026-04-04T07:52:52.578Z</time></trkpt><trkpt lat="41.0194844" lon="16.7762057"><ele>150.0</ele><time>2026-04-04T07:52:53.578Z</time></trkpt><trkpt lat="41.0195962" lon="16.7761129"><ele>150.0</ele><time>2026-04-04T07:52:54.578Z</time></trkpt><trkpt lat="41.0197038" lon="16.7760415"><ele>150.0</ele><time>2026-04-04T07:52:55.578Z</time></trkpt><trkpt lat="41.0198138" lon="16.7759626"><ele>150.0</ele><time>2026-04-04T07:52:56.578Z</time></trkpt><trkpt lat="41.0199208" lon="16.77584"><ele>149.0</ele><time>2026-04-04T07:52:57.578Z</time></trkpt><trkpt lat="41.0200297" lon="16.7756968"><ele>148.0</ele><time>2026-04-04T07:52:58.578Z</time></trkpt><trkpt lat="41.0201277" lon="16.7755838"><ele>147.0</ele><time>2026-04-04T07:52:59.578Z</time></trkpt><trkpt lat="41.0202067" lon="16.7754574"><ele>146.0</ele><time>2026-04-04T07:53:00.578Z</time></trkpt><trkpt lat="41.0202741" lon="16.775291"><ele>145.8</ele><time>2026-04-04T07:53:01.578Z</time></trkpt><trkpt lat="41.0203257" lon="16.7751283"><ele>145.6</ele><time>2026-04-04T07:53:02.579Z</time></trkpt><trkpt lat="41.020362" lon="16.7749809"><ele>145.4</ele><time>2026-04-04T07:53:03.578Z</time></trkpt><trkpt lat="41.0203984" lon="16.7748724"><ele>145.2</ele><time>2026-04-04T07:53:04.578Z</time></trkpt><trkpt lat="41.0204384" lon="16.7747739"><ele>145.0</ele><time>2026-04-04T07:53:05.578Z</time></trkpt><trkpt lat="41.0204693" lon="16.7746782"><ele>145.0</ele><time>2026-04-04T07:53:06.578Z</time></trkpt><trkpt lat="41.020503" lon="16.7745778"><ele>145.0</ele><time>2026-04-04T07:53:07.578Z</time></trkpt><trkpt lat="41.0205469" lon="16.7744735"><ele>145.0</ele><time>2026-04-04T07:53:08.579Z</time></trkpt><trkpt lat="41.0205642" lon="16.7743743"><ele>145.0</ele><time>2026-04-04T07:53:09.578Z</time></trkpt><trkpt lat="41.0205775" lon="16.7742335"><ele>145.0</ele><time>2026-04-04T07:53:11.578Z</time></trkpt><trkpt lat="41.0205794" lon="16.7741405"><ele>145.0</ele><time>2026-04-04T07:53:14.579Z</time></trkpt><trkpt lat="41.0205167" lon="16.7740686"><ele>144.8</ele><time>2026-04-04T07:53:22.578Z</time></trkpt><trkpt lat="41.0204062" lon="16.7739933"><ele>144.6</ele><time>2026-04-04T07:53:24.578Z</time></trkpt><trkpt lat="41.0203323" lon="16.7739428"><ele>144.4</ele><time>2026-04-04T07:53:25.578Z</time></trkpt><trkpt lat="41.0202493" lon="16.7738872"><ele>144.2</ele><time>2026-04-04T07:53:26.578Z</time></trkpt><trkpt lat="41.0201638" lon="16.7738322"><ele>144.0</ele><time>2026-04-04T07:53:27.579Z</time></trkpt><trkpt lat="41.0200738" lon="16.7737781"><ele>144.0</ele><time>2026-04-04T07:53:28.578Z</time></trkpt><trkpt lat="41.0199871" lon="16.7737043"><ele>144.0</ele><time>2026-04-04T07:53:29.578Z</time></trkpt><trkpt lat="41.0199053" lon="16.7736386"><ele>144.0</ele><time>2026-04-04T07:53:30.578Z</time></trkpt><trkpt lat="41.0198217" lon="16.7735925"><ele>144.0</ele><time>2026-04-04T07:53:31.578Z</time></trkpt><trkpt lat="41.0197307" lon="16.7735502"><ele>144.0</ele><time>2026-04-04T07:53:32.578Z</time></trkpt><trkpt lat="41.0196381" lon="16.7735038"><ele>144.16666666666666</ele><time>2026-04-04T07:53:33.579Z</time></trkpt><trkpt lat="41.01955" lon="16.7734543"><ele>144.33333333333334</ele><time>2026-04-04T07:53:34.579Z</time></trkpt><trkpt lat="41.0194777" lon="16.7734076"><ele>144.5</ele><time>2026-04-04T07:53:35.578Z</time></trkpt><trkpt lat="41.0194148" lon="16.7733676"><ele>144.66666666666669</ele><time>2026-04-04T07:53:36.578Z</time></trkpt><trkpt lat="41.0193238" lon="16.7733151"><ele>144.83333333333334</ele><time>2026-04-04T07:53:38.578Z</time></trkpt><trkpt lat="41.0192494" lon="16.7733023"><ele>145.0</ele><time>2026-04-04T07:53:45.578Z</time></trkpt><trkpt lat="41.0191464" lon="16.7733896"><ele>145.14285714285714</ele><time>2026-04-04T07:53:47.578Z</time></trkpt><trkpt lat="41.019091" lon="16.773455"><ele>145.2857142857143</ele><time>2026-04-04T07:53:48.578Z</time></trkpt><trkpt lat="41.0190428" lon="16.7735091"><ele>145.42857142857144</ele><time>2026-04-04T07:53:49.578Z</time></trkpt><trkpt lat="41.0189614" lon="16.7736008"><ele>145.57142857142858</ele><time>2026-04-04T07:53:51.578Z</time></trkpt><trkpt lat="41.0189052" lon="16.7736385"><ele>145.71428571428572</ele><time>2026-04-04T07:53:53.58Z</time></trkpt><trkpt lat="41.0188955" lon="16.7735512"><ele>145.85714285714286</ele><time>2026-04-04T07:53:59.579Z</time></trkpt><trkpt lat="41.018841" lon="16.7735045"><ele>146.0</ele><time>2026-04-04T07:54:03.578Z</time></trkpt><trkpt lat="41.0187904" lon="16.7734435"><ele>146.0</ele><time>2026-04-04T07:54:06.578Z</time></trkpt><trkpt lat="41.0187601" lon="16.7733529"><ele>146.0</ele><time>2026-04-04T07:54:11.579Z</time></trkpt><trkpt lat="41.0187323" lon="16.7732709"><ele>146.0</ele><time>2026-04-04T07:54:16.578Z</time></trkpt><trkpt lat="41.018694" lon="16.7731789"><ele>146.0</ele><time>2026-04-04T07:54:19.578Z</time></trkpt><trkpt lat="41.0186452" lon="16.7730424"><ele>146.0</ele><time>2026-04-04T07:54:21.579Z</time></trkpt><trkpt lat="41.018605" lon="16.7729537"><ele>146.0</ele><time>2026-04-04T07:54:22.578Z</time></trkpt><trkpt lat="41.0185693" lon="16.7728569"><ele>146.0</ele><time>2026-04-04T07:54:23.578Z</time></trkpt><trkpt lat="41.0185346" lon="16.7727762"><ele>146.0</ele><time>2026-04-04T07:54:24.578Z</time></trkpt><trkpt lat="41.0184998" lon="16.7727049"><ele>146.0</ele><time>2026-04-04T07:54:25.578Z</time></trkpt><trkpt lat="41.0184574" lon="16.7725795"><ele>146.0</ele><time>2026-04-04T07:54:27.578Z</time></trkpt><trkpt lat="41.0184328" lon="16.772466"><ele>146.0</ele><time>2026-04-04T07:54:30.578Z</time></trkpt><trkpt lat="41.0183892" lon="16.7723729"><ele>146.0</ele><time>2026-04-04T07:54:33.578Z</time></trkpt><trkpt lat="41.0183272" lon="16.7722489"><ele>146.2</ele><time>2026-04-04T07:54:35.578Z</time></trkpt><trkpt lat="41.0182854" lon="16.7721706"><ele>146.39999999999998</ele><time>2026-04-04T07:54:36.579Z</time></trkpt><trkpt lat="41.0182449" lon="16.7720682"><ele>146.6</ele><time>2026-04-04T07:54:37.578Z</time></trkpt><trkpt lat="41.0181963" lon="16.7719249"><ele>146.79999999999998</ele><time>2026-04-04T07:54:38.578Z</time></trkpt><trkpt lat="41.018133" lon="16.7717536"><ele>147.0</ele><time>2026-04-04T07:54:39.578Z</time></trkpt><trkpt lat="41.0180684" lon="16.7715767"><ele>147.0</ele><time>2026-04-04T07:54:40.578Z</time></trkpt><trkpt lat="41.0180062" lon="16.771406"><ele>147.0</ele><time>2026-04-04T07:54:41.578Z</time></trkpt><trkpt lat="41.0179431" lon="16.7712361"><ele>147.0</ele><time>2026-04-04T07:54:42.578Z</time></trkpt><trkpt lat="41.0178676" lon="16.7710686"><ele>147.0</ele><time>2026-04-04T07:54:43.578Z</time></trkpt><trkpt lat="41.0177948" lon="16.7709182"><ele>147.0</ele><time>2026-04-04T07:54:44.579Z</time></trkpt><trkpt lat="41.0177304" lon="16.7707865"><ele>147.0</ele><time>2026-04-04T07:54:45.578Z</time></trkpt><trkpt lat="41.0176825" lon="16.7706514"><ele>147.0</ele><time>2026-04-04T07:54:46.578Z</time></trkpt><trkpt lat="41.0176332" lon="16.7705056"><ele>147.0</ele><time>2026-04-04T07:54:47.579Z</time></trkpt><trkpt lat="41.0175754" lon="16.7703569"><ele>147.0</ele><time>2026-04-04T07:54:48.578Z</time></trkpt><trkpt lat="41.0175163" lon="16.7702104"><ele>147.0</ele><time>2026-04-04T07:54:49.578Z</time></trkpt><trkpt lat="41.0174564" lon="16.7700586"><ele>147.0</ele><time>2026-04-04T07:54:50.578Z</time></trkpt><trkpt lat="41.0173965" lon="16.7699004"><ele>147.0</ele><time>2026-04-04T07:54:51.578Z</time></trkpt><trkpt lat="41.0173375" lon="16.7697346"><ele>147.5</ele><time>2026-04-04T07:54:52.578Z</time></trkpt><trkpt lat="41.0172775" lon="16.7695682"><ele>148.0</ele><time>2026-04-04T07:54:53.578Z</time></trkpt><trkpt lat="41.0172134" lon="16.7693978"><ele>148.5</ele><time>2026-04-04T07:54:54.578Z</time></trkpt><trkpt lat="41.01715" lon="16.7692259"><ele>149.0</ele><time>2026-04-04T07:54:55.578Z</time></trkpt><trkpt lat="41.0170847" lon="16.7690513"><ele>149.33333333333331</ele><time>2026-04-04T07:54:56.578Z</time></trkpt><trkpt lat="41.0170124" lon="16.7688792"><ele>149.66666666666666</ele><time>2026-04-04T07:54:57.578Z</time></trkpt><trkpt lat="41.0169417" lon="16.7687035"><ele>150.0</ele><time>2026-04-04T07:54:58.578Z</time></trkpt><trkpt lat="41.0168699" lon="16.7685193"><ele>150.0</ele><time>2026-04-04T07:54:59.579Z</time></trkpt><trkpt lat="41.01679" lon="16.7683419"><ele>150.0</ele><time>2026-04-04T07:55:00.578Z</time></trkpt><trkpt lat="41.0167214" lon="16.7681614"><ele>150.0</ele><time>2026-04-04T07:55:01.578Z</time></trkpt><trkpt lat="41.0166577" lon="16.7679902"><ele>150.6</ele><time>2026-04-04T07:55:02.579Z</time></trkpt><trkpt lat="41.016594" lon="16.7678391"><ele>151.2</ele><time>2026-04-04T07:55:03.578Z</time></trkpt><trkpt lat="41.0165416" lon="16.7677127"><ele>151.8</ele><time>2026-04-04T07:55:04.578Z</time></trkpt><trkpt lat="41.0165002" lon="16.767608"><ele>152.4</ele><time>2026-04-04T07:55:05.578Z</time></trkpt><trkpt lat="41.0164758" lon="16.7675019"><ele>153.0</ele><time>2026-04-04T07:55:06.578Z</time></trkpt><trkpt lat="41.0164431" lon="16.767406"><ele>153.0</ele><time>2026-04-04T07:55:07.578Z</time></trkpt><trkpt lat="41.0164051" lon="16.767322"><ele>153.0</ele><time>2026-04-04T07:55:08.579Z</time></trkpt><trkpt lat="41.0163744" lon="16.7672474"><ele>153.0</ele><time>2026-04-04T07:55:09.578Z</time></trkpt><trkpt lat="41.0163302" lon="16.7671374"><ele>153.0</ele><time>2026-04-04T07:55:11.578Z</time></trkpt><trkpt lat="41.0162591" lon="16.7670764"><ele>153.0</ele><time>2026-04-04T07:55:13.579Z</time></trkpt><trkpt lat="41.0162575" lon="16.7669791"><ele>153.0</ele><time>2026-04-04T07:55:15.578Z</time></trkpt><trkpt lat="41.0162175" lon="16.7668423"><ele>152.83333333333334</ele><time>2026-04-04T07:55:17.578Z</time></trkpt><trkpt lat="41.0161844" lon="16.7667589"><ele>152.66666666666666</ele><time>2026-04-04T07:55:18.578Z</time></trkpt><trkpt lat="41.0161447" lon="16.7666613"><ele>152.5</ele><time>2026-04-04T07:55:19.578Z</time></trkpt><trkpt lat="41.0161069" lon="16.7665474"><ele>152.33333333333331</ele><time>2026-04-04T07:55:20.579Z</time></trkpt><trkpt lat="41.0160607" lon="16.7664287"><ele>152.16666666666666</ele><time>2026-04-04T07:55:21.578Z</time></trkpt><trkpt lat="41.0160047" lon="16.7663239"><ele>152.0</ele><time>2026-04-04T07:55:22.578Z</time></trkpt><trkpt lat="41.0159532" lon="16.7661971"><ele>152.0</ele><time>2026-04-04T07:55:23.578Z</time></trkpt><trkpt lat="41.0158994" lon="16.7660505"><ele>152.0</ele><time>2026-04-04T07:55:24.578Z</time></trkpt><trkpt lat="41.0158364" lon="16.7658972"><ele>152.0</ele><time>2026-04-04T07:55:25.578Z</time></trkpt><trkpt lat="41.0157698" lon="16.7657326"><ele>152.0</ele><time>2026-04-04T07:55:26.578Z</time></trkpt><trkpt lat="41.0156998" lon="16.7655618"><ele>152.0</ele><time>2026-04-04T07:55:27.578Z</time></trkpt><trkpt lat="41.0156316" lon="16.7654066"><ele>152.0</ele><time>2026-04-04T07:55:28.578Z</time></trkpt><trkpt lat="41.015576" lon="16.7652774"><ele>152.0</ele><time>2026-04-04T07:55:29.578Z</time></trkpt><trkpt lat="41.0155262" lon="16.7651702"><ele>152.0</ele><time>2026-04-04T07:55:30.579Z</time></trkpt><trkpt lat="41.0154853" lon="16.7650738"><ele>152.0</ele><time>2026-04-04T07:55:31.578Z</time></trkpt><trkpt lat="41.0154513" lon="16.764987"><ele>152.0</ele><time>2026-04-04T07:55:32.578Z</time></trkpt><trkpt lat="41.01542" lon="16.7649126"><ele>152.0</ele><time>2026-04-04T07:55:33.578Z</time></trkpt><trkpt lat="41.015383" lon="16.7648069"><ele>152.0</ele><time>2026-04-04T07:55:35.579Z</time></trkpt><trkpt lat="41.0153417" lon="16.7646982"><ele>152.0</ele><time>2026-04-04T07:55:38.578Z</time></trkpt><trkpt lat="41.0152781" lon="16.7645526"><ele>152.0</ele><time>2026-04-04T07:55:40.579Z</time></trkpt><trkpt lat="41.0152345" lon="16.7644475"><ele>152.4</ele><time>2026-04-04T07:55:41.579Z</time></trkpt><trkpt lat="41.0151837" lon="16.7643099"><ele>152.79999999999998</ele><time>2026-04-04T07:55:42.579Z</time></trkpt><trkpt lat="41.0151303" lon="16.7641724"><ele>153.2</ele><time>2026-04-04T07:55:43.579Z</time></trkpt><trkpt lat="41.0150865" lon="16.7640549"><ele>153.6</ele><time>2026-04-04T07:55:44.581Z</time></trkpt><trkpt lat="41.0150511" lon="16.7639492"><ele>154.0</ele><time>2026-04-04T07:55:45.579Z</time></trkpt><trkpt lat="41.0150154" lon="16.7638544"><ele>154.16666666666669</ele><time>2026-04-04T07:55:46.579Z</time></trkpt><trkpt lat="41.0149834" lon="16.7637722"><ele>154.33333333333334</ele><time>2026-04-04T07:55:47.58Z</time></trkpt><trkpt lat="41.0149407" lon="16.7636645"><ele>154.5</ele><time>2026-04-04T07:55:49.579Z</time></trkpt><trkpt lat="41.0149091" lon="16.7635836"><ele>154.66666666666666</ele><time>2026-04-04T07:55:51.579Z</time></trkpt><trkpt lat="41.0148733" lon="16.7634523"><ele>154.83333333333331</ele><time>2026-04-04T07:55:55.579Z</time></trkpt><trkpt lat="41.0148273" lon="16.7633598"><ele>155.0</ele><time>2026-04-04T07:55:56.58Z</time></trkpt><trkpt lat="41.0147903" lon="16.7632718"><ele>155.2</ele><time>2026-04-04T07:55:57.579Z</time></trkpt><trkpt lat="41.0147598" lon="16.7631598"><ele>155.4</ele><time>2026-04-04T07:55:58.579Z</time></trkpt><trkpt lat="41.0147122" lon="16.7630388"><ele>155.6</ele><time>2026-04-04T07:55:59.579Z</time></trkpt><trkpt lat="41.0146633" lon="16.7629149"><ele>155.8</ele><time>2026-04-04T07:56:00.58Z</time></trkpt><trkpt lat="41.0146228" lon="16.7628021"><ele>156.0</ele><time>2026-04-04T07:56:01.579Z</time></trkpt><trkpt lat="41.0145707" lon="16.7626793"><ele>156.0</ele><time>2026-04-04T07:56:02.579Z</time></trkpt><trkpt lat="41.0145174" lon="16.7625349"><ele>156.0</ele><time>2026-04-04T07:56:03.579Z</time></trkpt><trkpt lat="41.0144624" lon="16.7623732"><ele>156.0</ele><time>2026-04-04T07:56:04.579Z</time></trkpt><trkpt lat="41.0143993" lon="16.7621893"><ele>156.0</ele><time>2026-04-04T07:56:05.579Z</time></trkpt><trkpt lat="41.0143174" lon="16.7619851"><ele>155.75</ele><time>2026-04-04T07:56:06.579Z</time></trkpt><trkpt lat="41.0142257" lon="16.7617787"><ele>155.5</ele><time>2026-04-04T07:56:07.579Z</time></trkpt><trkpt lat="41.0141551" lon="16.7615988"><ele>155.25</ele><time>2026-04-04T07:56:08.58Z</time></trkpt><trkpt lat="41.0141014" lon="16.7614691"><ele>155.0</ele><time>2026-04-04T07:56:09.579Z</time></trkpt><trkpt lat="41.0140666" lon="16.7613666"><ele>155.4</ele><time>2026-04-04T07:56:10.58Z</time></trkpt><trkpt lat="41.01404" lon="16.7612728"><ele>155.8</ele><time>2026-04-04T07:56:11.579Z</time></trkpt><trkpt lat="41.0140056" lon="16.7611815"><ele>156.2</ele><time>2026-04-04T07:56:12.579Z</time></trkpt><trkpt lat="41.013958" lon="16.7610767"><ele>156.6</ele><time>2026-04-04T07:56:13.579Z</time></trkpt><trkpt lat="41.013904" lon="16.7609542"><ele>157.0</ele><time>2026-04-04T07:56:14.579Z</time></trkpt><trkpt lat="41.0138437" lon="16.7608116"><ele>157.0</ele><time>2026-04-04T07:56:15.579Z</time></trkpt><trkpt lat="41.0137903" lon="16.7606698"><ele>157.0</ele><time>2026-04-04T07:56:16.579Z</time></trkpt><trkpt lat="41.013735" lon="16.7604879"><ele>157.0</ele><time>2026-04-04T07:56:17.58Z</time></trkpt><trkpt lat="41.0136652" lon="16.7602869"><ele>157.0</ele><time>2026-04-04T07:56:18.579Z</time></trkpt><trkpt lat="41.0135857" lon="16.7600755"><ele>157.33333333333334</ele><time>2026-04-04T07:56:19.579Z</time></trkpt><trkpt lat="41.0135035" lon="16.7598541"><ele>157.66666666666666</ele><time>2026-04-04T07:56:20.58Z</time></trkpt><trkpt lat="41.01343" lon="16.7596535"><ele>158.0</ele><time>2026-04-04T07:56:21.579Z</time></trkpt><trkpt lat="41.0133639" lon="16.7594789"><ele>158.0</ele><time>2026-04-04T07:56:22.579Z</time></trkpt><trkpt lat="41.0132904" lon="16.7592975"><ele>158.0</ele><time>2026-04-04T07:56:23.579Z</time></trkpt><trkpt lat="41.0132155" lon="16.7591192"><ele>158.0</ele><time>2026-04-04T07:56:24.58Z</time></trkpt><trkpt lat="41.013139" lon="16.7589368"><ele>158.0</ele><time>2026-04-04T07:56:25.579Z</time></trkpt><trkpt lat="41.0130583" lon="16.7587553"><ele>158.0</ele><time>2026-04-04T07:56:26.579Z</time></trkpt><trkpt lat="41.0129807" lon="16.758589"><ele>158.0</ele><time>2026-04-04T07:56:27.579Z</time></trkpt><trkpt lat="41.0129038" lon="16.7584444"><ele>158.0</ele><time>2026-04-04T07:56:28.579Z</time></trkpt><trkpt lat="41.0128416" lon="16.7583135"><ele>158.0</ele><time>2026-04-04T07:56:29.579Z</time></trkpt><trkpt lat="41.0127915" lon="16.7581949"><ele>158.0</ele><time>2026-04-04T07:56:30.579Z</time></trkpt><trkpt lat="41.012741" lon="16.7580838"><ele>158.0</ele><time>2026-04-04T07:56:31.579Z</time></trkpt><trkpt lat="41.0127016" lon="16.7579639"><ele>158.0</ele><time>2026-04-04T07:56:32.579Z</time></trkpt><trkpt lat="41.0126497" lon="16.7578314"><ele>158.0</ele><time>2026-04-04T07:56:33.579Z</time></trkpt><trkpt lat="41.0125903" lon="16.7576836"><ele>158.0</ele><time>2026-04-04T07:56:34.579Z</time></trkpt><trkpt lat="41.012531" lon="16.7575269"><ele>158.0</ele><time>2026-04-04T07:56:35.58Z</time></trkpt><trkpt lat="41.012464" lon="16.7573613"><ele>158.0</ele><time>2026-04-04T07:56:36.579Z</time></trkpt><trkpt lat="41.0123794" lon="16.757187"><ele>158.0</ele><time>2026-04-04T07:56:37.579Z</time></trkpt><trkpt lat="41.0122838" lon="16.7570027"><ele>158.33333333333331</ele><time>2026-04-04T07:56:38.579Z</time></trkpt><trkpt lat="41.0121945" lon="16.7567894"><ele>158.66666666666666</ele><time>2026-04-04T07:56:39.579Z</time></trkpt><trkpt lat="41.0121032" lon="16.7565586"><ele>159.0</ele><time>2026-04-04T07:56:40.579Z</time></trkpt><trkpt lat="41.0120114" lon="16.7563306"><ele>159.0</ele><time>2026-04-04T07:56:41.579Z</time></trkpt><trkpt lat="41.0119212" lon="16.7560928"><ele>159.0</ele><time>2026-04-04T07:56:42.579Z</time></trkpt><trkpt lat="41.0118327" lon="16.7558633"><ele>159.0</ele><time>2026-04-04T07:56:43.579Z</time></trkpt><trkpt lat="41.01175" lon="16.7556555"><ele>159.66666666666666</ele><time>2026-04-04T07:56:44.579Z</time></trkpt><trkpt lat="41.0116698" lon="16.7554511"><ele>160.33333333333331</ele><time>2026-04-04T07:56:45.579Z</time></trkpt><trkpt lat="41.0115888" lon="16.755243"><ele>161.0</ele><time>2026-04-04T07:56:46.579Z</time></trkpt><trkpt lat="41.0115044" lon="16.7550282"><ele>161.25</ele><time>2026-04-04T07:56:47.579Z</time></trkpt><trkpt lat="41.0114437" lon="16.7548535"><ele>161.5</ele><time>2026-04-04T07:56:48.579Z</time></trkpt><trkpt lat="41.0113981" lon="16.7547162"><ele>161.75</ele><time>2026-04-04T07:56:49.579Z</time></trkpt><trkpt lat="41.0113509" lon="16.7545808"><ele>162.0</ele><time>2026-04-04T07:56:50.579Z</time></trkpt><trkpt lat="41.0112967" lon="16.7544479"><ele>162.25</ele><time>2026-04-04T07:56:51.58Z</time></trkpt><trkpt lat="41.0112423" lon="16.7543167"><ele>162.5</ele><time>2026-04-04T07:56:52.579Z</time></trkpt><trkpt lat="41.0111867" lon="16.7541765"><ele>162.75</ele><time>2026-04-04T07:56:53.579Z</time></trkpt><trkpt lat="41.0111318" lon="16.7540299"><ele>163.0</ele><time>2026-04-04T07:56:54.579Z</time></trkpt><trkpt lat="41.0110771" lon="16.7538822"><ele>163.0</ele><time>2026-04-04T07:56:55.58Z</time></trkpt><trkpt lat="41.0110322" lon="16.7537516"><ele>163.0</ele><time>2026-04-04T07:56:56.579Z</time></trkpt><trkpt lat="41.0110008" lon="16.7536418"><ele>163.0</ele><time>2026-04-04T07:56:57.579Z</time></trkpt><trkpt lat="41.0109639" lon="16.7535427"><ele>163.0</ele><time>2026-04-04T07:56:58.579Z</time></trkpt><trkpt lat="41.0109241" lon="16.7534571"><ele>163.0</ele><time>2026-04-04T07:56:59.579Z</time></trkpt><trkpt lat="41.0108896" lon="16.7533738"><ele>163.0</ele><time>2026-04-04T07:57:00.58Z</time></trkpt><trkpt lat="41.010862" lon="16.7532938"><ele>163.4</ele><time>2026-04-04T07:57:01.579Z</time></trkpt><trkpt lat="41.0107996" lon="16.7531394"><ele>163.8</ele><time>2026-04-04T07:57:03.579Z</time></trkpt><trkpt lat="41.0107644" lon="16.7530466"><ele>164.2</ele><time>2026-04-04T07:57:04.579Z</time></trkpt><trkpt lat="41.0107248" lon="16.7529338"><ele>164.6</ele><time>2026-04-04T07:57:05.579Z</time></trkpt><trkpt lat="41.0106745" lon="16.7527973"><ele>165.0</ele><time>2026-04-04T07:57:06.579Z</time></trkpt><trkpt lat="41.0106123" lon="16.7526412"><ele>165.0</ele><time>2026-04-04T07:57:07.579Z</time></trkpt><trkpt lat="41.0105462" lon="16.7524856"><ele>165.0</ele><time>2026-04-04T07:57:08.579Z</time></trkpt><trkpt lat="41.0104764" lon="16.752341"><ele>165.0</ele><time>2026-04-04T07:57:09.579Z</time></trkpt><trkpt lat="41.0104193" lon="16.7521848"><ele>165.0</ele><time>2026-04-04T07:57:10.579Z</time></trkpt><trkpt lat="41.0103656" lon="16.7520068"><ele>164.66666666666666</ele><time>2026-04-04T07:57:11.579Z</time></trkpt><trkpt lat="41.0102913" lon="16.7518181"><ele>164.33333333333331</ele><time>2026-04-04T07:57:12.579Z</time></trkpt><trkpt lat="41.010208" lon="16.7516124"><ele>164.0</ele><time>2026-04-04T07:57:13.58Z</time></trkpt><trkpt lat="41.0101196" lon="16.7513859"><ele>164.0</ele><time>2026-04-04T07:57:14.579Z</time></trkpt><trkpt lat="41.0100255" lon="16.751153"><ele>164.0</ele><time>2026-04-04T07:57:15.579Z</time></trkpt><trkpt lat="41.0099406" lon="16.7509387"><ele>164.0</ele><time>2026-04-04T07:57:16.579Z</time></trkpt><trkpt lat="41.0098588" lon="16.7507298"><ele>165.0</ele><time>2026-04-04T07:57:17.579Z</time></trkpt><trkpt lat="41.0097703" lon="16.7505113"><ele>166.0</ele><time>2026-04-04T07:57:18.579Z</time></trkpt><trkpt lat="41.0096799" lon="16.750284"><ele>167.0</ele><time>2026-04-04T07:57:19.579Z</time></trkpt><trkpt lat="41.0096022" lon="16.7500868"><ele>167.39999999999998</ele><time>2026-04-04T07:57:20.579Z</time></trkpt><trkpt lat="41.0095377" lon="16.7499235"><ele>167.79999999999998</ele><time>2026-04-04T07:57:21.579Z</time></trkpt><trkpt lat="41.0094886" lon="16.7497949"><ele>168.2</ele><time>2026-04-04T07:57:22.579Z</time></trkpt><trkpt lat="41.0094532" lon="16.7496984"><ele>168.6</ele><time>2026-04-04T07:57:23.58Z</time></trkpt><trkpt lat="41.0094107" lon="16.7495727"><ele>169.0</ele><time>2026-04-04T07:57:25.579Z</time></trkpt><trkpt lat="41.0093576" lon="16.7494791"><ele>169.0</ele><time>2026-04-04T07:57:27.579Z</time></trkpt><trkpt lat="41.0092969" lon="16.7493376"><ele>169.0</ele><time>2026-04-04T07:57:29.579Z</time></trkpt><trkpt lat="41.0092755" lon="16.7492374"><ele>169.0</ele><time>2026-04-04T07:57:30.579Z</time></trkpt><trkpt lat="41.0092504" lon="16.7491325"><ele>169.0</ele><time>2026-04-04T07:57:31.579Z</time></trkpt><trkpt lat="41.0092069" lon="16.7490206"><ele>169.0</ele><time>2026-04-04T07:57:32.58Z</time></trkpt><trkpt lat="41.0091538" lon="16.748898"><ele>169.6</ele><time>2026-04-04T07:57:33.579Z</time></trkpt><trkpt lat="41.0091053" lon="16.7487889"><ele>170.2</ele><time>2026-04-04T07:57:34.579Z</time></trkpt><trkpt lat="41.00906" lon="16.7487067"><ele>170.79999999999998</ele><time>2026-04-04T07:57:35.579Z</time></trkpt><trkpt lat="41.0089949" lon="16.7485624"><ele>171.39999999999998</ele><time>2026-04-04T07:57:37.579Z</time></trkpt><trkpt lat="41.0089614" lon="16.7484614"><ele>172.0</ele><time>2026-04-04T07:57:38.579Z</time></trkpt><trkpt lat="41.0089166" lon="16.7483543"><ele>172.0</ele><time>2026-04-04T07:57:39.579Z</time></trkpt><trkpt lat="41.0088749" lon="16.748237"><ele>172.0</ele><time>2026-04-04T07:57:40.579Z</time></trkpt><trkpt lat="41.0088283" lon="16.748111"><ele>172.0</ele><time>2026-04-04T07:57:41.579Z</time></trkpt><trkpt lat="41.0087746" lon="16.7479791"><ele>172.0</ele><time>2026-04-04T07:57:42.579Z</time></trkpt><trkpt lat="41.0087259" lon="16.7478394"><ele>172.0</ele><time>2026-04-04T07:57:43.579Z</time></trkpt><trkpt lat="41.0086879" lon="16.7477252"><ele>172.2</ele><time>2026-04-04T07:57:44.579Z</time></trkpt><trkpt lat="41.0086506" lon="16.7476316"><ele>172.39999999999998</ele><time>2026-04-04T07:57:45.579Z</time></trkpt><trkpt lat="41.008607" lon="16.7475542"><ele>172.60000000000002</ele><time>2026-04-04T07:57:46.579Z</time></trkpt><trkpt lat="41.0085664" lon="16.7474839"><ele>172.8</ele><time>2026-04-04T07:57:47.579Z</time></trkpt><trkpt lat="41.0085232" lon="16.7473382"><ele>173.0</ele><time>2026-04-04T07:57:49.579Z</time></trkpt><trkpt lat="41.0084763" lon="16.7471691"><ele>173.0</ele><time>2026-04-04T07:57:51.579Z</time></trkpt><trkpt lat="41.0084344" lon="16.7470694"><ele>173.0</ele><time>2026-04-04T07:57:52.58Z</time></trkpt><trkpt lat="41.0083694" lon="16.7469374"><ele>173.0</ele><time>2026-04-04T07:57:53.579Z</time></trkpt><trkpt lat="41.008301" lon="16.7467725"><ele>173.0</ele><time>2026-04-04T07:57:54.58Z</time></trkpt><trkpt lat="41.0082291" lon="16.7465841"><ele>173.0</ele><time>2026-04-04T07:57:55.579Z</time></trkpt><trkpt lat="41.0081589" lon="16.7463711"><ele>173.0</ele><time>2026-04-04T07:57:56.579Z</time></trkpt><trkpt lat="41.0080765" lon="16.7461524"><ele>173.0</ele><time>2026-04-04T07:57:57.579Z</time></trkpt><trkpt lat="41.0079888" lon="16.7459413"><ele>173.25</ele><time>2026-04-04T07:57:58.579Z</time></trkpt><trkpt lat="41.0079171" lon="16.7457561"><ele>173.5</ele><time>2026-04-04T07:57:59.579Z</time></trkpt><trkpt lat="41.0078547" lon="16.7455831"><ele>173.75</ele><time>2026-04-04T07:58:00.579Z</time></trkpt><trkpt lat="41.0077899" lon="16.7454334"><ele>174.0</ele><time>2026-04-04T07:58:01.579Z</time></trkpt><trkpt lat="41.0077311" lon="16.7452994"><ele>174.2</ele><time>2026-04-04T07:58:02.579Z</time></trkpt><trkpt lat="41.0076822" lon="16.745171"><ele>174.39999999999998</ele><time>2026-04-04T07:58:03.579Z</time></trkpt><trkpt lat="41.0076386" lon="16.7450512"><ele>174.6</ele><time>2026-04-04T07:58:04.58Z</time></trkpt><trkpt lat="41.0075967" lon="16.7449394"><ele>174.8</ele><time>2026-04-04T07:58:05.579Z</time></trkpt><trkpt lat="41.0075586" lon="16.7448316"><ele>175.0</ele><time>2026-04-04T07:58:06.58Z</time></trkpt><trkpt lat="41.007518" lon="16.7447226"><ele>175.0</ele><time>2026-04-04T07:58:07.579Z</time></trkpt><trkpt lat="41.0074786" lon="16.7446172"><ele>175.0</ele><time>2026-04-04T07:58:08.579Z</time></trkpt><trkpt lat="41.0074431" lon="16.7445235"><ele>175.0</ele><time>2026-04-04T07:58:09.579Z</time></trkpt><trkpt lat="41.007415" lon="16.7444485"><ele>175.0</ele><time>2026-04-04T07:58:10.579Z</time></trkpt><trkpt lat="41.0073711" lon="16.7443491"><ele>175.0</ele><time>2026-04-04T07:58:12.579Z</time></trkpt><trkpt lat="41.0073264" lon="16.7442447"><ele>175.0</ele><time>2026-04-04T07:58:15.579Z</time></trkpt><trkpt lat="41.0072879" lon="16.7441391"><ele>175.0</ele><time>2026-04-04T07:58:17.579Z</time></trkpt><trkpt lat="41.0072542" lon="16.7440638"><ele>175.0</ele><time>2026-04-04T07:58:18.581Z</time></trkpt><trkpt lat="41.0072154" lon="16.743977"><ele>175.0</ele><time>2026-04-04T07:58:19.579Z</time></trkpt><trkpt lat="41.0071679" lon="16.7438671"><ele>175.0</ele><time>2026-04-04T07:58:20.579Z</time></trkpt><trkpt lat="41.0071187" lon="16.743728"><ele>175.0</ele><time>2026-04-04T07:58:21.58Z</time></trkpt><trkpt lat="41.007061" lon="16.743567"><ele>174.25</ele><time>2026-04-04T07:58:22.58Z</time></trkpt><trkpt lat="41.0069933" lon="16.743394"><ele>173.5</ele><time>2026-04-04T07:58:23.579Z</time></trkpt><trkpt lat="41.0069303" lon="16.7432428"><ele>172.75</ele><time>2026-04-04T07:58:24.579Z</time></trkpt><trkpt lat="41.0068787" lon="16.7431136"><ele>172.0</ele><time>2026-04-04T07:58:25.579Z</time></trkpt><trkpt lat="41.0068383" lon="16.7430099"><ele>172.0</ele><time>2026-04-04T07:58:26.579Z</time></trkpt><trkpt lat="41.0067921" lon="16.7429348"><ele>172.0</ele><time>2026-04-04T07:58:27.579Z</time></trkpt><trkpt lat="41.0067208" lon="16.7428398"><ele>172.0</ele><time>2026-04-04T07:58:29.579Z</time></trkpt><trkpt lat="41.006647" lon="16.7428626"><ele>172.0</ele><time>2026-04-04T07:58:32.579Z</time></trkpt><trkpt lat="41.0066178" lon="16.742977"><ele>172.0</ele><time>2026-04-04T07:58:35.58Z</time></trkpt><trkpt lat="41.0065917" lon="16.7430933"><ele>172.0</ele><time>2026-04-04T07:58:36.579Z</time></trkpt><trkpt lat="41.0065739" lon="16.7432327"><ele>172.39999999999998</ele><time>2026-04-04T07:58:37.579Z</time></trkpt><trkpt lat="41.0065616" lon="16.7434067"><ele>172.79999999999998</ele><time>2026-04-04T07:58:38.579Z</time></trkpt><trkpt lat="41.0065511" lon="16.7435661"><ele>173.2</ele><time>2026-04-04T07:58:39.579Z</time></trkpt><trkpt lat="41.0065408" lon="16.7437018"><ele>173.6</ele><time>2026-04-04T07:58:40.579Z</time></trkpt><trkpt lat="41.0065403" lon="16.7438162"><ele>174.0</ele><time>2026-04-04T07:58:41.579Z</time></trkpt><trkpt lat="41.0065344" lon="16.7439131"><ele>174.25</ele><time>2026-04-04T07:58:42.579Z</time></trkpt><trkpt lat="41.0065048" lon="16.7440289"><ele>174.5</ele><time>2026-04-04T07:58:43.579Z</time></trkpt><trkpt lat="41.0064633" lon="16.7441707"><ele>174.75</ele><time>2026-04-04T07:58:44.579Z</time></trkpt><trkpt lat="41.0064154" lon="16.7443271"><ele>175.0</ele><time>2026-04-04T07:58:45.58Z</time></trkpt><trkpt lat="41.0063446" lon="16.7444896"><ele>175.4</ele><time>2026-04-04T07:58:46.579Z</time></trkpt><trkpt lat="41.0062919" lon="16.7446019"><ele>175.8</ele><time>2026-04-04T07:58:47.579Z</time></trkpt><trkpt lat="41.0062553" lon="16.7446717"><ele>176.2</ele><time>2026-04-04T07:58:48.579Z</time></trkpt><trkpt lat="41.006177" lon="16.7447091"><ele>176.6</ele><time>2026-04-04T07:58:51.579Z</time></trkpt><trkpt lat="41.0060279" lon="16.7446727"><ele>177.0</ele><time>2026-04-04T07:58:53.579Z</time></trkpt><trkpt lat="41.0059283" lon="16.7446556"><ele>177.5</ele><time>2026-04-04T07:58:54.579Z</time></trkpt><trkpt lat="41.0058258" lon="16.7446228"><ele>178.0</ele><time>2026-04-04T07:58:55.579Z</time></trkpt><trkpt lat="41.0057081" lon="16.7445723"><ele>178.5</ele><time>2026-04-04T07:58:56.579Z</time></trkpt><trkpt lat="41.0055884" lon="16.7445344"><ele>179.0</ele><time>2026-04-04T07:58:57.579Z</time></trkpt><trkpt lat="41.0054764" lon="16.7444798"><ele>179.0</ele><time>2026-04-04T07:58:58.579Z</time></trkpt><trkpt lat="41.0053587" lon="16.744437"><ele>179.0</ele><time>2026-04-04T07:58:59.579Z</time></trkpt><trkpt lat="41.0052368" lon="16.7444022"><ele>179.0</ele><time>2026-04-04T07:59:00.58Z</time></trkpt><trkpt lat="41.0051206" lon="16.7443564"><ele>179.0</ele><time>2026-04-04T07:59:01.579Z</time></trkpt><trkpt lat="41.0050176" lon="16.7443182"><ele>178.75</ele><time>2026-04-04T07:59:02.579Z</time></trkpt><trkpt lat="41.0049167" lon="16.7442892"><ele>178.5</ele><time>2026-04-04T07:59:03.58Z</time></trkpt><trkpt lat="41.004808" lon="16.7442555"><ele>178.25</ele><time>2026-04-04T07:59:04.579Z</time></trkpt><trkpt lat="41.0046911" lon="16.7442144"><ele>178.0</ele><time>2026-04-04T07:59:05.58Z</time></trkpt><trkpt lat="41.0045621" lon="16.7441625"><ele>178.0</ele><time>2026-04-04T07:59:06.579Z</time></trkpt><trkpt lat="41.0044155" lon="16.7441214"><ele>178.0</ele><time>2026-04-04T07:59:07.579Z</time></trkpt><trkpt lat="41.0042441" lon="16.7440812"><ele>178.0</ele><time>2026-04-04T07:59:08.579Z</time></trkpt><trkpt lat="41.0040626" lon="16.7440433"><ele>179.33333333333334</ele><time>2026-04-04T07:59:09.579Z</time></trkpt><trkpt lat="41.0038852" lon="16.7440071"><ele>180.66666666666666</ele><time>2026-04-04T07:59:10.579Z</time></trkpt><trkpt lat="41.0037195" lon="16.7439635"><ele>182.0</ele><time>2026-04-04T07:59:11.579Z</time></trkpt><trkpt lat="41.0035526" lon="16.743919"><ele>182.0</ele><time>2026-04-04T07:59:12.579Z</time></trkpt><trkpt lat="41.0033894" lon="16.743874"><ele>182.0</ele><time>2026-04-04T07:59:13.579Z</time></trkpt><trkpt lat="41.0032196" lon="16.7438255"><ele>182.0</ele><time>2026-04-04T07:59:14.579Z</time></trkpt><trkpt lat="41.003062" lon="16.7437795"><ele>182.66666666666666</ele><time>2026-04-04T07:59:15.579Z</time></trkpt><trkpt lat="41.0029009" lon="16.7437341"><ele>183.33333333333334</ele><time>2026-04-04T07:59:16.579Z</time></trkpt><trkpt lat="41.0027322" lon="16.7436819"><ele>184.0</ele><time>2026-04-04T07:59:17.579Z</time></trkpt><trkpt lat="41.0025582" lon="16.7436223"><ele>184.66666666666669</ele><time>2026-04-04T07:59:18.58Z</time></trkpt><trkpt lat="41.002379" lon="16.7435701"><ele>185.33333333333334</ele><time>2026-04-04T07:59:19.579Z</time></trkpt><trkpt lat="41.0022084" lon="16.7435196"><ele>186.0</ele><time>2026-04-04T07:59:20.579Z</time></trkpt><trkpt lat="41.0020428" lon="16.7434684"><ele>186.33333333333334</ele><time>2026-04-04T07:59:21.579Z</time></trkpt><trkpt lat="41.0018699" lon="16.7434183"><ele>186.66666666666669</ele><time>2026-04-04T07:59:22.579Z</time></trkpt><trkpt lat="41.001702" lon="16.7433696"><ele>187.0</ele><time>2026-04-04T07:59:23.579Z</time></trkpt><trkpt lat="41.0015481" lon="16.7433237"><ele>187.5</ele><time>2026-04-04T07:59:24.579Z</time></trkpt><trkpt lat="41.0013935" lon="16.7432808"><ele>188.0</ele><time>2026-04-04T07:59:25.579Z</time></trkpt><trkpt lat="41.0012479" lon="16.7432419"><ele>188.5</ele><time>2026-04-04T07:59:26.579Z</time></trkpt><trkpt lat="41.001121" lon="16.7432162"><ele>189.0</ele><time>2026-04-04T07:59:27.579Z</time></trkpt><trkpt lat="41.0010196" lon="16.7431907"><ele>189.0</ele><time>2026-04-04T07:59:28.579Z</time></trkpt><trkpt lat="41.0009292" lon="16.7431563"><ele>189.0</ele><time>2026-04-04T07:59:29.579Z</time></trkpt><trkpt lat="41.0008361" lon="16.7431101"><ele>189.0</ele><time>2026-04-04T07:59:30.579Z</time></trkpt><trkpt lat="41.0007421" lon="16.7430417"><ele>189.0</ele><time>2026-04-04T07:59:31.58Z</time></trkpt><trkpt lat="41.0006406" lon="16.7429568"><ele>189.0</ele><time>2026-04-04T07:59:32.579Z</time></trkpt><trkpt lat="41.0005318" lon="16.7428615"><ele>188.79999999999998</ele><time>2026-04-04T07:59:33.58Z</time></trkpt><trkpt lat="41.000425" lon="16.7427742"><ele>188.6</ele><time>2026-04-04T07:59:34.579Z</time></trkpt><trkpt lat="41.0003318" lon="16.7427069"><ele>188.4</ele><time>2026-04-04T07:59:35.579Z</time></trkpt><trkpt lat="41.0002552" lon="16.7426515"><ele>188.2</ele><time>2026-04-04T07:59:36.579Z</time></trkpt><trkpt lat="41.0001901" lon="16.7426153"><ele>188.0</ele><time>2026-04-04T07:59:37.579Z</time></trkpt><trkpt lat="41.0000906" lon="16.7425493"><ele>188.0</ele><time>2026-04-04T07:59:39.579Z</time></trkpt><trkpt lat="41.0000103" lon="16.74248"><ele>188.0</ele><time>2026-04-04T07:59:41.579Z</time></trkpt><trkpt lat="40.9999313" lon="16.7424274"><ele>188.0</ele><time>2026-04-04T07:59:43.579Z</time></trkpt><trkpt lat="40.9998392" lon="16.7423724"><ele>188.0</ele><time>2026-04-04T07:59:45.58Z</time></trkpt><trkpt lat="40.99978" lon="16.7423315"><ele>188.0</ele><time>2026-04-04T07:59:47.579Z</time></trkpt><trkpt lat="40.9997125" lon="16.7422928"><ele>188.0</ele><time>2026-04-04T07:59:49.579Z</time></trkpt><trkpt lat="40.99963" lon="16.7422303"><ele>188.0</ele><time>2026-04-04T07:59:51.579Z</time></trkpt><trkpt lat="40.9995408" lon="16.7421277"><ele>188.0</ele><time>2026-04-04T07:59:53.579Z</time></trkpt><trkpt lat="40.9994949" lon="16.7420604"><ele>188.0</ele><time>2026-04-04T07:59:54.58Z</time></trkpt><trkpt lat="40.9994412" lon="16.7419679"><ele>188.0</ele><time>2026-04-04T07:59:55.579Z</time></trkpt><trkpt lat="40.9993798" lon="16.7418536"><ele>188.0</ele><time>2026-04-04T07:59:56.579Z</time></trkpt><trkpt lat="40.9993047" lon="16.7417138"><ele>188.25</ele><time>2026-04-04T07:59:57.579Z</time></trkpt><trkpt lat="40.9992139" lon="16.7415598"><ele>188.5</ele><time>2026-04-04T07:59:58.579Z</time></trkpt><trkpt lat="40.9991319" lon="16.7414199"><ele>188.75</ele><time>2026-04-04T07:59:59.579Z</time></trkpt><trkpt lat="40.9990594" lon="16.7412956"><ele>189.0</ele><time>2026-04-04T08:00:00.579Z</time></trkpt><trkpt lat="40.999001" lon="16.741195"><ele>189.0</ele><time>2026-04-04T08:00:01.579Z</time></trkpt><trkpt lat="40.9989532" lon="16.7411099"><ele>189.0</ele><time>2026-04-04T08:00:02.579Z</time></trkpt><trkpt lat="40.9989137" lon="16.7410389"><ele>189.0</ele><time>2026-04-04T08:00:03.579Z</time></trkpt><trkpt lat="40.9988516" lon="16.7409126"><ele>189.0</ele><time>2026-04-04T08:00:05.58Z</time></trkpt><trkpt lat="40.9988483" lon="16.7408178"><ele>189.0</ele><time>2026-04-04T08:00:07.58Z</time></trkpt><trkpt lat="40.9989275" lon="16.7407236"><ele>189.0</ele><time>2026-04-04T08:00:09.579Z</time></trkpt><trkpt lat="40.9990004" lon="16.7406721"><ele>188.0</ele><time>2026-04-04T08:00:10.58Z</time></trkpt><trkpt lat="40.9990842" lon="16.7406017"><ele>187.0</ele><time>2026-04-04T08:00:11.579Z</time></trkpt><trkpt lat="40.9991761" lon="16.7405232"><ele>186.0</ele><time>2026-04-04T08:00:12.579Z</time></trkpt><trkpt lat="40.9992798" lon="16.7404355"><ele>185.0</ele><time>2026-04-04T08:00:13.579Z</time></trkpt><trkpt lat="40.99939" lon="16.740339"><ele>184.75</ele><time>2026-04-04T08:00:14.58Z</time></trkpt><trkpt lat="40.9995025" lon="16.7402367"><ele>184.5</ele><time>2026-04-04T08:00:15.579Z</time></trkpt><trkpt lat="40.9996185" lon="16.740126"><ele>184.25</ele><time>2026-04-04T08:00:16.579Z</time></trkpt><trkpt lat="40.9997291" lon="16.7399912"><ele>184.0</ele><time>2026-04-04T08:00:17.579Z</time></trkpt><trkpt lat="40.999841" lon="16.7398199"><ele>184.0</ele><time>2026-04-04T08:00:18.58Z</time></trkpt><trkpt lat="40.9999451" lon="16.7396297"><ele>184.0</ele><time>2026-04-04T08:00:19.579Z</time></trkpt><trkpt lat="41.0000486" lon="16.7394272"><ele>184.0</ele><time>2026-04-04T08:00:20.579Z</time></trkpt><trkpt lat="41.000156" lon="16.7392312"><ele>184.66666666666669</ele><time>2026-04-04T08:00:21.579Z</time></trkpt><trkpt lat="41.0002594" lon="16.7390434"><ele>185.33333333333334</ele><time>2026-04-04T08:00:22.579Z</time></trkpt><trkpt lat="41.0003515" lon="16.7388704"><ele>186.0</ele><time>2026-04-04T08:00:23.579Z</time></trkpt><trkpt lat="41.0004384" lon="16.7387055"><ele>187.0</ele><time>2026-04-04T08:00:24.579Z</time></trkpt><trkpt lat="41.0005247" lon="16.7385425"><ele>188.0</ele><time>2026-04-04T08:00:25.579Z</time></trkpt><trkpt lat="41.0006158" lon="16.7383852"><ele>189.0</ele><time>2026-04-04T08:00:26.579Z</time></trkpt><trkpt lat="41.0007105" lon="16.7382312"><ele>189.0</ele><time>2026-04-04T08:00:27.579Z</time></trkpt><trkpt lat="41.0008088" lon="16.7380823"><ele>189.0</ele><time>2026-04-04T08:00:28.579Z</time></trkpt><trkpt lat="41.0009134" lon="16.737936"><ele>189.0</ele><time>2026-04-04T08:00:29.579Z</time></trkpt><trkpt lat="41.0010196" lon="16.7377903"><ele>189.33333333333334</ele><time>2026-04-04T08:00:30.579Z</time></trkpt><trkpt lat="41.001122" lon="16.7376388"><ele>189.66666666666669</ele><time>2026-04-04T08:00:31.579Z</time></trkpt><trkpt lat="41.0012281" lon="16.7374881"><ele>190.0</ele><time>2026-04-04T08:00:32.579Z</time></trkpt><trkpt lat="41.0013367" lon="16.7373339"><ele>190.0</ele><time>2026-04-04T08:00:33.579Z</time></trkpt><trkpt lat="41.0014447" lon="16.7371816"><ele>190.0</ele><time>2026-04-04T08:00:34.579Z</time></trkpt><trkpt lat="41.0015461" lon="16.7370396"><ele>190.0</ele><time>2026-04-04T08:00:35.579Z</time></trkpt><trkpt lat="41.0016405" lon="16.7369033"><ele>190.0</ele><time>2026-04-04T08:00:36.579Z</time></trkpt><trkpt lat="41.0017249" lon="16.736779"><ele>190.0</ele><time>2026-04-04T08:00:37.58Z</time></trkpt><trkpt lat="41.0017992" lon="16.7366735"><ele>190.0</ele><time>2026-04-04T08:00:38.579Z</time></trkpt><trkpt lat="41.0018579" lon="16.7365879"><ele>190.0</ele><time>2026-04-04T08:00:39.58Z</time></trkpt><trkpt lat="41.0019005" lon="16.7365158"><ele>190.0</ele><time>2026-04-04T08:00:40.579Z</time></trkpt><trkpt lat="41.0019272" lon="16.7364084"><ele>190.0</ele><time>2026-04-04T08:00:42.579Z</time></trkpt><trkpt lat="41.0018502" lon="16.7363308"><ele>190.0</ele><time>2026-04-04T08:00:45.579Z</time></trkpt><trkpt lat="41.0017158" lon="16.7363123"><ele>190.2</ele><time>2026-04-04T08:00:47.579Z</time></trkpt><trkpt lat="41.0016166" lon="16.7363009"><ele>190.4</ele><time>2026-04-04T08:00:48.579Z</time></trkpt><trkpt lat="41.0015135" lon="16.7362831"><ele>190.60000000000002</ele><time>2026-04-04T08:00:49.579Z</time></trkpt><trkpt lat="41.0014028" lon="16.7362825"><ele>190.8</ele><time>2026-04-04T08:00:50.579Z</time></trkpt><trkpt lat="41.001291" lon="16.7362739"><ele>191.0</ele><time>2026-04-04T08:00:51.579Z</time></trkpt><trkpt lat="41.001174" lon="16.7362698"><ele>191.0</ele><time>2026-04-04T08:00:52.579Z</time></trkpt><trkpt lat="41.0010585" lon="16.736259"><ele>191.0</ele><time>2026-04-04T08:00:53.579Z</time></trkpt><trkpt lat="41.000962" lon="16.7362505"><ele>191.0</ele><time>2026-04-04T08:00:54.581Z</time></trkpt><trkpt lat="41.0008581" lon="16.7362318"><ele>191.0</ele><time>2026-04-04T08:00:55.579Z</time></trkpt><trkpt lat="41.0007522" lon="16.7362149"><ele>191.0</ele><time>2026-04-04T08:00:56.58Z</time></trkpt><trkpt lat="41.0006444" lon="16.7361965"><ele>191.20000000000002</ele><time>2026-04-04T08:00:57.579Z</time></trkpt><trkpt lat="41.0005383" lon="16.7361749"><ele>191.4</ele><time>2026-04-04T08:00:58.579Z</time></trkpt><trkpt lat="41.0004284" lon="16.7361448"><ele>191.6</ele><time>2026-04-04T08:00:59.579Z</time></trkpt><trkpt lat="41.0003379" lon="16.7361133"><ele>191.8</ele><time>2026-04-04T08:01:00.58Z</time></trkpt><trkpt lat="41.0002546" lon="16.7360888"><ele>192.0</ele><time>2026-04-04T08:01:01.579Z</time></trkpt><trkpt lat="41.0001708" lon="16.736071"><ele>192.0</ele><time>2026-04-04T08:01:02.58Z</time></trkpt><trkpt lat="41.0001024" lon="16.7360541"><ele>192.0</ele><time>2026-04-04T08:01:03.579Z</time></trkpt><trkpt lat="41.0000099" lon="16.7360398"><ele>192.0</ele><time>2026-04-04T08:01:05.579Z</time></trkpt><trkpt lat="40.9999246" lon="16.7360416"><ele>192.0</ele><time>2026-04-04T08:01:07.579Z</time></trkpt><trkpt lat="40.9998299" lon="16.736038"><ele>192.0</ele><time>2026-04-04T08:01:09.579Z</time></trkpt><trkpt lat="40.9997018" lon="16.7360182"><ele>192.0</ele><time>2026-04-04T08:01:11.579Z</time></trkpt><trkpt lat="40.9996212" lon="16.7360173"><ele>192.0</ele><time>2026-04-04T08:01:12.579Z</time></trkpt><trkpt lat="40.9995304" lon="16.7360262"><ele>192.0</ele><time>2026-04-04T08:01:13.579Z</time></trkpt><trkpt lat="40.9994309" lon="16.7360437"><ele>192.0</ele><time>2026-04-04T08:01:14.579Z</time></trkpt><trkpt lat="40.9993287" lon="16.736055"><ele>192.0</ele><time>2026-04-04T08:01:15.579Z</time></trkpt><trkpt lat="40.9992364" lon="16.7360662"><ele>192.0</ele><time>2026-04-04T08:01:16.579Z</time></trkpt><trkpt lat="40.9991538" lon="16.736083"><ele>192.0</ele><time>2026-04-04T08:01:17.579Z</time></trkpt><trkpt lat="40.9990831" lon="16.7360873"><ele>192.0</ele><time>2026-04-04T08:01:18.579Z</time></trkpt><trkpt lat="40.9990161" lon="16.736101"><ele>192.0</ele><time>2026-04-04T08:01:19.579Z</time></trkpt><trkpt lat="40.9989432" lon="16.7361067"><ele>192.0</ele><time>2026-04-04T08:01:20.58Z</time></trkpt><trkpt lat="40.9988735" lon="16.7360856"><ele>192.0</ele><time>2026-04-04T08:01:21.579Z</time></trkpt><trkpt lat="40.998781" lon="16.7360536"><ele>192.25</ele><time>2026-04-04T08:01:22.579Z</time></trkpt><trkpt lat="40.9986717" lon="16.7360074"><ele>192.5</ele><time>2026-04-04T08:01:23.579Z</time></trkpt><trkpt lat="40.9985508" lon="16.735975"><ele>192.75</ele><time>2026-04-04T08:01:24.579Z</time></trkpt><trkpt lat="40.9984426" lon="16.735947"><ele>193.0</ele><time>2026-04-04T08:01:25.579Z</time></trkpt><trkpt lat="40.9983375" lon="16.7359113"><ele>193.25</ele><time>2026-04-04T08:01:26.58Z</time></trkpt><trkpt lat="40.9982211" lon="16.7358671"><ele>193.5</ele><time>2026-04-04T08:01:27.579Z</time></trkpt><trkpt lat="40.9981013" lon="16.7358005"><ele>193.75</ele><time>2026-04-04T08:01:28.579Z</time></trkpt><trkpt lat="40.9979736" lon="16.7357327"><ele>194.0</ele><time>2026-04-04T08:01:29.579Z</time></trkpt><trkpt lat="40.9978432" lon="16.7356673"><ele>194.0</ele><time>2026-04-04T08:01:30.579Z</time></trkpt><trkpt lat="40.9977181" lon="16.7356005"><ele>194.0</ele><time>2026-04-04T08:01:31.579Z</time></trkpt><trkpt lat="40.9976038" lon="16.7355372"><ele>194.0</ele><time>2026-04-04T08:01:32.579Z</time></trkpt><trkpt lat="40.997516" lon="16.7354884"><ele>194.0</ele><time>2026-04-04T08:01:33.579Z</time></trkpt><trkpt lat="40.9974359" lon="16.735453"><ele>194.0</ele><time>2026-04-04T08:01:34.579Z</time></trkpt><trkpt lat="40.9973596" lon="16.7354241"><ele>194.50000000000003</ele><time>2026-04-04T08:01:35.579Z</time></trkpt><trkpt lat="40.9972879" lon="16.7354043"><ele>195.0</ele><time>2026-04-04T08:01:36.58Z</time></trkpt><trkpt lat="40.9972249" lon="16.7354014"><ele>195.5</ele><time>2026-04-04T08:01:37.579Z</time></trkpt><trkpt lat="40.9971484" lon="16.7354659"><ele>196.0</ele><time>2026-04-04T08:01:39.579Z</time></trkpt><trkpt lat="40.9971231" lon="16.7355471"><ele>196.50000000000003</ele><time>2026-04-04T08:01:40.58Z</time></trkpt><trkpt lat="40.997052" lon="16.7356184"><ele>197.0</ele><time>2026-04-04T08:01:42.58Z</time></trkpt><trkpt lat="40.9969447" lon="16.7355674"><ele>197.0</ele><time>2026-04-04T08:01:44.579Z</time></trkpt><trkpt lat="40.996858" lon="16.7355229"><ele>197.0</ele><time>2026-04-04T08:01:45.58Z</time></trkpt><trkpt lat="40.9967547" lon="16.735473"><ele>197.0</ele><time>2026-04-04T08:01:46.579Z</time></trkpt><trkpt lat="40.9966378" lon="16.7354207"><ele>197.0</ele><time>2026-04-04T08:01:47.579Z</time></trkpt><trkpt lat="40.9965167" lon="16.7353704"><ele>197.5</ele><time>2026-04-04T08:01:48.58Z</time></trkpt><trkpt lat="40.9963813" lon="16.7353113"><ele>198.0</ele><time>2026-04-04T08:01:49.579Z</time></trkpt><trkpt lat="40.9962541" lon="16.7352521"><ele>198.5</ele><time>2026-04-04T08:01:50.579Z</time></trkpt><trkpt lat="40.9961401" lon="16.7352071"><ele>199.0</ele><time>2026-04-04T08:01:51.579Z</time></trkpt><trkpt lat="40.9960361" lon="16.7351662"><ele>198.99999999999997</ele><time>2026-04-04T08:01:52.579Z</time></trkpt><trkpt lat="40.9959491" lon="16.7351273"><ele>199.0</ele><time>2026-04-04T08:01:53.579Z</time></trkpt><trkpt lat="40.9958691" lon="16.7350896"><ele>199.0</ele><time>2026-04-04T08:01:54.58Z</time></trkpt><trkpt lat="40.9957971" lon="16.7350636"><ele>199.0</ele><time>2026-04-04T08:01:55.58Z</time></trkpt><trkpt lat="40.9957399" lon="16.7350263"><ele>198.99999999999997</ele><time>2026-04-04T08:01:56.579Z</time></trkpt><trkpt lat="40.9956951" lon="16.7349154"><ele>199.0</ele><time>2026-04-04T08:01:58.579Z</time></trkpt><trkpt lat="40.9957134" lon="16.7347539"><ele>199.2</ele><time>2026-04-04T08:02:00.579Z</time></trkpt><trkpt lat="40.9956666" lon="16.7346577"><ele>199.39999999999998</ele><time>2026-04-04T08:02:02.579Z</time></trkpt><trkpt lat="40.9955276" lon="16.7346432"><ele>199.6</ele><time>2026-04-04T08:02:04.579Z</time></trkpt><trkpt lat="40.9954281" lon="16.7346316"><ele>199.8</ele><time>2026-04-04T08:02:05.58Z</time></trkpt><trkpt lat="40.9953085" lon="16.7346229"><ele>200.0</ele><time>2026-04-04T08:02:06.579Z</time></trkpt><trkpt lat="40.9951839" lon="16.7346127"><ele>200.0</ele><time>2026-04-04T08:02:07.579Z</time></trkpt><trkpt lat="40.995075" lon="16.7346002"><ele>200.0</ele><time>2026-04-04T08:02:08.579Z</time></trkpt><trkpt lat="40.9949766" lon="16.7345912"><ele>200.0</ele><time>2026-04-04T08:02:09.579Z</time></trkpt><trkpt lat="40.99489" lon="16.7345814"><ele>200.0</ele><time>2026-04-04T08:02:10.579Z</time></trkpt><trkpt lat="40.9947953" lon="16.7345745"><ele>200.0</ele><time>2026-04-04T08:02:11.579Z</time></trkpt><trkpt lat="40.9946914" lon="16.7345687"><ele>200.50000000000003</ele><time>2026-04-04T08:02:12.579Z</time></trkpt><trkpt lat="40.9945929" lon="16.7345595"><ele>201.0</ele><time>2026-04-04T08:02:13.58Z</time></trkpt><trkpt lat="40.9945218" lon="16.7345475"><ele>201.5</ele><time>2026-04-04T08:02:14.579Z</time></trkpt><trkpt lat="40.994419" lon="16.7345368"><ele>202.0</ele><time>2026-04-04T08:02:16.579Z</time></trkpt><trkpt lat="40.9943505" lon="16.7345325"><ele>202.50000000000003</ele><time>2026-04-04T08:02:17.579Z</time></trkpt><trkpt lat="40.9942717" lon="16.734525"><ele>203.0</ele><time>2026-04-04T08:02:18.579Z</time></trkpt><trkpt lat="40.9941928" lon="16.7345178"><ele>203.8</ele><time>2026-04-04T08:02:19.58Z</time></trkpt><trkpt lat="40.9941216" lon="16.7345103"><ele>204.60000000000002</ele><time>2026-04-04T08:02:20.579Z</time></trkpt><trkpt lat="40.9940219" lon="16.7345243"><ele>205.39999999999998</ele><time>2026-04-04T08:02:22.579Z</time></trkpt><trkpt lat="40.9939553" lon="16.7346396"><ele>206.2</ele><time>2026-04-04T08:02:24.58Z</time></trkpt><trkpt lat="40.993925" lon="16.7347513"><ele>207.0</ele><time>2026-04-04T08:02:25.579Z</time></trkpt><trkpt lat="40.9938877" lon="16.734887"><ele>207.0</ele><time>2026-04-04T08:02:26.579Z</time></trkpt><trkpt lat="40.9938518" lon="16.7350125"><ele>207.0</ele><time>2026-04-04T08:02:27.579Z</time></trkpt><trkpt lat="40.9938196" lon="16.7351211"><ele>207.0</ele><time>2026-04-04T08:02:28.579Z</time></trkpt><trkpt lat="40.9937878" lon="16.7352266"><ele>207.0</ele><time>2026-04-04T08:02:29.579Z</time></trkpt><trkpt lat="40.9937548" lon="16.7353473"><ele>207.0</ele><time>2026-04-04T08:02:30.579Z</time></trkpt><trkpt lat="40.9937183" lon="16.735475"><ele>206.5</ele><time>2026-04-04T08:02:31.579Z</time></trkpt><trkpt lat="40.9936762" lon="16.7356189"><ele>206.0</ele><time>2026-04-04T08:02:32.58Z</time></trkpt><trkpt lat="40.9936309" lon="16.7357752"><ele>205.5</ele><time>2026-04-04T08:02:33.581Z</time></trkpt><trkpt lat="40.9935786" lon="16.7359554"><ele>205.0</ele><time>2026-04-04T08:02:34.579Z</time></trkpt><trkpt lat="40.9935169" lon="16.7361645"><ele>204.66666666666666</ele><time>2026-04-04T08:02:35.579Z</time></trkpt><trkpt lat="40.993453" lon="16.7363908"><ele>204.33333333333331</ele><time>2026-04-04T08:02:36.579Z</time></trkpt><trkpt lat="40.993397" lon="16.7365849"><ele>204.0</ele><time>2026-04-04T08:02:37.579Z</time></trkpt><trkpt lat="40.9933485" lon="16.7367483"><ele>203.79999999999998</ele><time>2026-04-04T08:02:38.58Z</time></trkpt><trkpt lat="40.993306" lon="16.7368861"><ele>203.6</ele><time>2026-04-04T08:02:39.579Z</time></trkpt><trkpt lat="40.9932699" lon="16.7369966"><ele>203.4</ele><time>2026-04-04T08:02:40.579Z</time></trkpt><trkpt lat="40.9932367" lon="16.7370963"><ele>203.2</ele><time>2026-04-04T08:02:41.579Z</time></trkpt><trkpt lat="40.9932147" lon="16.7372074"><ele>203.0</ele><time>2026-04-04T08:02:42.58Z</time></trkpt><trkpt lat="40.9932021" lon="16.7373434"><ele>203.0</ele><time>2026-04-04T08:02:43.579Z</time></trkpt><trkpt lat="40.993188" lon="16.7374934"><ele>203.0</ele><time>2026-04-04T08:02:44.579Z</time></trkpt><trkpt lat="40.9931802" lon="16.7376308"><ele>203.0</ele><time>2026-04-04T08:02:45.579Z</time></trkpt><trkpt lat="40.9931694" lon="16.7377451"><ele>203.0</ele><time>2026-04-04T08:02:46.579Z</time></trkpt><trkpt lat="40.9931509" lon="16.7378478"><ele>203.0</ele><time>2026-04-04T08:02:47.579Z</time></trkpt><trkpt lat="40.9931293" lon="16.7379397"><ele>202.2</ele><time>2026-04-04T08:02:48.58Z</time></trkpt><trkpt lat="40.9931011" lon="16.7380849"><ele>201.4</ele><time>2026-04-04T08:02:50.579Z</time></trkpt><trkpt lat="40.9931003" lon="16.7381855"><ele>200.6</ele><time>2026-04-04T08:02:52.579Z</time></trkpt><trkpt lat="40.9930247" lon="16.7382009"><ele>199.79999999999998</ele><time>2026-04-04T08:03:00.579Z</time></trkpt><trkpt lat="40.9929027" lon="16.7381657"><ele>199.0</ele><time>2026-04-04T08:03:02.579Z</time></trkpt><trkpt lat="40.9928356" lon="16.7381481"><ele>198.99999999999997</ele><time>2026-04-04T08:03:03.579Z</time></trkpt><trkpt lat="40.9927383" lon="16.7381219"><ele>199.0</ele><time>2026-04-04T08:03:05.579Z</time></trkpt><trkpt lat="40.9926722" lon="16.7381154"><ele>199.0</ele><time>2026-04-04T08:03:10.579Z</time></trkpt><trkpt lat="40.9925946" lon="16.7381578"><ele>199.0</ele><time>2026-04-04T08:03:13.579Z</time></trkpt><trkpt lat="40.9926638" lon="16.7381043"><ele>198.99999999999997</ele><time>2026-04-04T08:03:25.579Z</time></trkpt><trkpt lat="40.9927318" lon="16.7381307"><ele>199.0</ele><time>2026-04-04T08:03:39.579Z</time></trkpt><trkpt lat="40.9928016" lon="16.7381533"><ele>199.0</ele><time>2026-04-04T08:03:41.579Z</time></trkpt><trkpt lat="40.9929003" lon="16.7381821"><ele>199.0</ele><time>2026-04-04T08:03:43.579Z</time></trkpt><trkpt lat="40.9929636" lon="16.7381993"><ele>199.0</ele><time>2026-04-04T08:03:44.579Z</time></trkpt><trkpt lat="40.993067" lon="16.7382271"><ele>199.0</ele><time>2026-04-04T08:03:46.579Z</time></trkpt><trkpt lat="40.9931544" lon="16.7383108"><ele>199.0</ele><time>2026-04-04T08:03:48.579Z</time></trkpt><trkpt lat="40.9932128" lon="16.7383795"><ele>199.0</ele><time>2026-04-04T08:03:49.579Z</time></trkpt><trkpt lat="40.9932793" lon="16.7384496"><ele>199.0</ele><time>2026-04-04T08:03:50.579Z</time></trkpt><trkpt lat="40.9933317" lon="16.7385085"><ele>199.0</ele><time>2026-04-04T08:03:51.579Z</time></trkpt><trkpt lat="40.9933701" lon="16.7386426"><ele>199.0</ele><time>2026-04-04T08:03:53.579Z</time></trkpt><trkpt lat="40.9933026" lon="16.7387889"><ele>199.0</ele><time>2026-04-04T08:03:55.579Z</time></trkpt><trkpt lat="40.993247" lon="16.7388672"><ele>198.33333333333331</ele><time>2026-04-04T08:03:56.58Z</time></trkpt><trkpt lat="40.9932016" lon="16.7389331"><ele>197.66666666666666</ele><time>2026-04-04T08:03:57.579Z</time></trkpt><trkpt lat="40.9931511" lon="16.7390028"><ele>197.0</ele><time>2026-04-04T08:03:58.579Z</time></trkpt><trkpt lat="40.9930956" lon="16.7390806"><ele>196.33333333333331</ele><time>2026-04-04T08:03:59.579Z</time></trkpt><trkpt lat="40.9930416" lon="16.7391571"><ele>195.66666666666666</ele><time>2026-04-04T08:04:00.579Z</time></trkpt><trkpt lat="40.9929868" lon="16.7392265"><ele>195.0</ele><time>2026-04-04T08:04:01.58Z</time></trkpt><trkpt lat="40.992928" lon="16.7393075"><ele>195.0</ele><time>2026-04-04T08:04:02.579Z</time></trkpt><trkpt lat="40.992853" lon="16.7394086"><ele>195.0</ele><time>2026-04-04T08:04:03.579Z</time></trkpt><trkpt lat="40.9927858" lon="16.7395119"><ele>195.0</ele><time>2026-04-04T08:04:04.579Z</time></trkpt><trkpt lat="40.9927188" lon="16.7396161"><ele>195.0</ele><time>2026-04-04T08:04:05.579Z</time></trkpt><trkpt lat="40.992646" lon="16.7397245"><ele>195.0</ele><time>2026-04-04T08:04:06.579Z</time></trkpt><trkpt lat="40.992568" lon="16.7398342"><ele>195.0</ele><time>2026-04-04T08:04:07.579Z</time></trkpt><trkpt lat="40.9924913" lon="16.7399484"><ele>195.0</ele><time>2026-04-04T08:04:08.579Z</time></trkpt><trkpt lat="40.9924107" lon="16.7400612"><ele>195.0</ele><time>2026-04-04T08:04:09.579Z</time></trkpt><trkpt lat="40.9923246" lon="16.7401816"><ele>195.0</ele><time>2026-04-04T08:04:10.579Z</time></trkpt><trkpt lat="40.9922347" lon="16.7403027"><ele>195.5</ele><time>2026-04-04T08:04:11.579Z</time></trkpt><trkpt lat="40.9921573" lon="16.7404139"><ele>196.0</ele><time>2026-04-04T08:04:12.579Z</time></trkpt><trkpt lat="40.9920889" lon="16.7405243"><ele>196.5</ele><time>2026-04-04T08:04:13.579Z</time></trkpt><trkpt lat="40.9920078" lon="16.7406402"><ele>197.0</ele><time>2026-04-04T08:04:14.58Z</time></trkpt><trkpt lat="40.9919226" lon="16.7407658"><ele>197.0</ele><time>2026-04-04T08:04:15.579Z</time></trkpt><trkpt lat="40.9918361" lon="16.7409019"><ele>197.0</ele><time>2026-04-04T08:04:16.579Z</time></trkpt><trkpt lat="40.9917692" lon="16.7410027"><ele>197.0</ele><time>2026-04-04T08:04:17.579Z</time></trkpt><trkpt lat="40.9917076" lon="16.7410899"><ele>197.0</ele><time>2026-04-04T08:04:18.579Z</time></trkpt><trkpt lat="40.9916476" lon="16.7411693"><ele>197.0</ele><time>2026-04-04T08:04:19.58Z</time></trkpt><trkpt lat="40.9915849" lon="16.741214"><ele>198.00000000000003</ele><time>2026-04-04T08:04:20.579Z</time></trkpt><trkpt lat="40.9915052" lon="16.7412284"><ele>199.0</ele><time>2026-04-04T08:04:21.579Z</time></trkpt><trkpt lat="40.9913925" lon="16.741244"><ele>200.0</ele><time>2026-04-04T08:04:22.579Z</time></trkpt><trkpt lat="40.9913002" lon="16.7412672"><ele>201.0</ele><time>2026-04-04T08:04:23.579Z</time></trkpt><trkpt lat="40.9912255" lon="16.7412851"><ele>202.00000000000003</ele><time>2026-04-04T08:04:24.579Z</time></trkpt><trkpt lat="40.9911552" lon="16.7413014"><ele>203.0</ele><time>2026-04-04T08:04:26.58Z</time></trkpt><trkpt lat="40.991031" lon="16.7413415"><ele>203.0</ele><time>2026-04-04T08:04:30.579Z</time></trkpt><trkpt lat="40.9909288" lon="16.7413734"><ele>203.0</ele><time>2026-04-04T08:04:31.58Z</time></trkpt><trkpt lat="40.9908226" lon="16.7413995"><ele>203.0</ele><time>2026-04-04T08:04:32.579Z</time></trkpt><trkpt lat="40.9907092" lon="16.7414252"><ele>203.0</ele><time>2026-04-04T08:04:33.58Z</time></trkpt><trkpt lat="40.9905873" lon="16.7414493"><ele>203.5</ele><time>2026-04-04T08:04:34.579Z</time></trkpt><trkpt lat="40.9904612" lon="16.7414788"><ele>204.0</ele><time>2026-04-04T08:04:35.579Z</time></trkpt><trkpt lat="40.990336" lon="16.7415193"><ele>204.5</ele><time>2026-04-04T08:04:36.579Z</time></trkpt><trkpt lat="40.9902074" lon="16.7415568"><ele>205.0</ele><time>2026-04-04T08:04:37.579Z</time></trkpt><trkpt lat="40.9900759" lon="16.7415923"><ele>205.75</ele><time>2026-04-04T08:04:38.579Z</time></trkpt><trkpt lat="40.9899407" lon="16.7416257"><ele>206.5</ele><time>2026-04-04T08:04:39.579Z</time></trkpt><trkpt lat="40.9898031" lon="16.7416546"><ele>207.25</ele><time>2026-04-04T08:04:40.579Z</time></trkpt><trkpt lat="40.9896701" lon="16.7416861"><ele>208.0</ele><time>2026-04-04T08:04:41.579Z</time></trkpt><trkpt lat="40.9895519" lon="16.7417145"><ele>208.0</ele><time>2026-04-04T08:04:42.579Z</time></trkpt><trkpt lat="40.9894311" lon="16.7417379"><ele>208.0</ele><time>2026-04-04T08:04:43.58Z</time></trkpt><trkpt lat="40.989307" lon="16.7417691"><ele>208.0</ele><time>2026-04-04T08:04:44.579Z</time></trkpt><trkpt lat="40.9891863" lon="16.7418001"><ele>208.0</ele><time>2026-04-04T08:04:45.58Z</time></trkpt><trkpt lat="40.9890666" lon="16.7418256"><ele>208.0</ele><time>2026-04-04T08:04:46.579Z</time></trkpt><trkpt lat="40.9889419" lon="16.7418523"><ele>208.0</ele><time>2026-04-04T08:04:47.579Z</time></trkpt><trkpt lat="40.9888236" lon="16.7418824"><ele>208.0</ele><time>2026-04-04T08:04:48.579Z</time></trkpt><trkpt lat="40.9887158" lon="16.7419154"><ele>208.0</ele><time>2026-04-04T08:04:49.579Z</time></trkpt><trkpt lat="40.9886093" lon="16.7419689"><ele>208.0</ele><time>2026-04-04T08:04:50.579Z</time></trkpt><trkpt lat="40.9885043" lon="16.7420387"><ele>208.0</ele><time>2026-04-04T08:04:51.579Z</time></trkpt><trkpt lat="40.9883933" lon="16.7421145"><ele>208.0</ele><time>2026-04-04T08:04:52.58Z</time></trkpt><trkpt lat="40.9882793" lon="16.7421958"><ele>208.0</ele><time>2026-04-04T08:04:53.58Z</time></trkpt><trkpt lat="40.9881605" lon="16.7422863"><ele>208.5</ele><time>2026-04-04T08:04:54.579Z</time></trkpt><trkpt lat="40.9880421" lon="16.7423801"><ele>209.0</ele><time>2026-04-04T08:04:55.579Z</time></trkpt><trkpt lat="40.9879199" lon="16.7424725"><ele>209.5</ele><time>2026-04-04T08:04:56.579Z</time></trkpt><trkpt lat="40.9877908" lon="16.7425628"><ele>210.0</ele><time>2026-04-04T08:04:57.579Z</time></trkpt><trkpt lat="40.9876591" lon="16.7426541"><ele>210.5</ele><time>2026-04-04T08:04:58.579Z</time></trkpt><trkpt lat="40.9875339" lon="16.7427438"><ele>211.0</ele><time>2026-04-04T08:04:59.579Z</time></trkpt><trkpt lat="40.9874093" lon="16.7428326"><ele>211.5</ele><time>2026-04-04T08:05:00.579Z</time></trkpt><trkpt lat="40.9872847" lon="16.7429179"><ele>212.0</ele><time>2026-04-04T08:05:01.58Z</time></trkpt><trkpt lat="40.9871603" lon="16.7430042"><ele>212.25</ele><time>2026-04-04T08:05:02.579Z</time></trkpt><trkpt lat="40.9870375" lon="16.7430885"><ele>212.5</ele><time>2026-04-04T08:05:03.58Z</time></trkpt><trkpt lat="40.9869162" lon="16.7431787"><ele>212.75</ele><time>2026-04-04T08:05:04.579Z</time></trkpt><trkpt lat="40.9867954" lon="16.7432646"><ele>213.0</ele><time>2026-04-04T08:05:05.579Z</time></trkpt><trkpt lat="40.9866745" lon="16.7433482"><ele>213.75</ele><time>2026-04-04T08:05:06.579Z</time></trkpt><trkpt lat="40.9865545" lon="16.7434354"><ele>214.5</ele><time>2026-04-04T08:05:07.579Z</time></trkpt><trkpt lat="40.986431" lon="16.7435295"><ele>215.25</ele><time>2026-04-04T08:05:08.579Z</time></trkpt><trkpt lat="40.9863073" lon="16.7436274"><ele>216.0</ele><time>2026-04-04T08:05:09.579Z</time></trkpt><trkpt lat="40.98618" lon="16.7437185"><ele>216.0</ele><time>2026-04-04T08:05:10.579Z</time></trkpt><trkpt lat="40.9860512" lon="16.7438038"><ele>216.0</ele><time>2026-04-04T08:05:11.579Z</time></trkpt><trkpt lat="40.9859314" lon="16.7438886"><ele>216.0</ele><time>2026-04-04T08:05:12.579Z</time></trkpt><trkpt lat="40.9858245" lon="16.7439653"><ele>216.0</ele><time>2026-04-04T08:05:13.579Z</time></trkpt><trkpt lat="40.9857189" lon="16.7440557"><ele>216.5</ele><time>2026-04-04T08:05:14.579Z</time></trkpt><trkpt lat="40.9856081" lon="16.7441417"><ele>217.0</ele><time>2026-04-04T08:05:15.58Z</time></trkpt><trkpt lat="40.9854842" lon="16.7442158"><ele>217.5</ele><time>2026-04-04T08:05:16.579Z</time></trkpt><trkpt lat="40.9853575" lon="16.7442992"><ele>218.0</ele><time>2026-04-04T08:05:17.58Z</time></trkpt><trkpt lat="40.9852271" lon="16.7443976"><ele>218.0</ele><time>2026-04-04T08:05:18.579Z</time></trkpt><trkpt lat="40.9851001" lon="16.7445028"><ele>218.0</ele><time>2026-04-04T08:05:19.579Z</time></trkpt><trkpt lat="40.9849873" lon="16.744596"><ele>218.0</ele><time>2026-04-04T08:05:20.579Z</time></trkpt><trkpt lat="40.9848757" lon="16.7446704"><ele>218.0</ele><time>2026-04-04T08:05:21.579Z</time></trkpt><trkpt lat="40.9847692" lon="16.7447404"><ele>218.4</ele><time>2026-04-04T08:05:22.579Z</time></trkpt><trkpt lat="40.9846613" lon="16.7448149"><ele>218.8</ele><time>2026-04-04T08:05:23.579Z</time></trkpt><trkpt lat="40.9845742" lon="16.7448789"><ele>219.2</ele><time>2026-04-04T08:05:24.579Z</time></trkpt><trkpt lat="40.9844961" lon="16.7449325"><ele>219.6</ele><time>2026-04-04T08:05:25.579Z</time></trkpt><trkpt lat="40.9844217" lon="16.7449805"><ele>220.0</ele><time>2026-04-04T08:05:26.579Z</time></trkpt><trkpt lat="40.9843671" lon="16.7450375"><ele>219.99999999999997</ele><time>2026-04-04T08:05:27.579Z</time></trkpt><trkpt lat="40.9843134" lon="16.7450955"><ele>220.0</ele><time>2026-04-04T08:05:28.58Z</time></trkpt><trkpt lat="40.9842488" lon="16.7451655"><ele>220.0</ele><time>2026-04-04T08:05:29.579Z</time></trkpt><trkpt lat="40.9841749" lon="16.7452616"><ele>220.0</ele><time>2026-04-04T08:05:30.581Z</time></trkpt><trkpt lat="40.984103" lon="16.7453602"><ele>219.99999999999997</ele><time>2026-04-04T08:05:31.579Z</time></trkpt><trkpt lat="40.9840415" lon="16.7454375"><ele>220.0</ele><time>2026-04-04T08:05:32.579Z</time></trkpt><trkpt lat="40.9839807" lon="16.7455128"><ele>219.99999999999997</ele><time>2026-04-04T08:05:33.579Z</time></trkpt><trkpt lat="40.9839223" lon="16.7455856"><ele>220.0</ele><time>2026-04-04T08:05:34.579Z</time></trkpt><trkpt lat="40.9838596" lon="16.7456649"><ele>220.0</ele><time>2026-04-04T08:05:35.581Z</time></trkpt><trkpt lat="40.9837978" lon="16.7457457"><ele>220.0</ele><time>2026-04-04T08:05:36.579Z</time></trkpt><trkpt lat="40.9837508" lon="16.7458072"><ele>219.99999999999997</ele><time>2026-04-04T08:05:37.579Z</time></trkpt><trkpt lat="40.9836645" lon="16.7458673"><ele>220.0</ele><time>2026-04-04T08:05:39.58Z</time></trkpt><trkpt lat="40.983556" lon="16.745806"><ele>220.0</ele><time>2026-04-04T08:05:41.579Z</time></trkpt><trkpt lat="40.9834832" lon="16.7457499"><ele>220.0</ele><time>2026-04-04T08:05:42.579Z</time></trkpt><trkpt lat="40.983404" lon="16.7456934"><ele>220.0</ele><time>2026-04-04T08:05:43.579Z</time></trkpt><trkpt lat="40.9833207" lon="16.7456366"><ele>220.0</ele><time>2026-04-04T08:05:44.579Z</time></trkpt><trkpt lat="40.9832534" lon="16.7455835"><ele>220.0</ele><time>2026-04-04T08:05:45.579Z</time></trkpt><trkpt lat="40.9831625" lon="16.7455184"><ele>220.0</ele><time>2026-04-04T08:05:47.579Z</time></trkpt><trkpt lat="40.9830842" lon="16.7455743"><ele>220.0</ele><time>2026-04-04T08:05:49.579Z</time></trkpt><trkpt lat="40.9830397" lon="16.7456617"><ele>220.0</ele><time>2026-04-04T08:05:50.579Z</time></trkpt><trkpt lat="40.9829864" lon="16.7457784"><ele>220.0</ele><time>2026-04-04T08:05:51.579Z</time></trkpt><trkpt lat="40.98292" lon="16.745916"><ele>220.0</ele><time>2026-04-04T08:05:52.579Z</time></trkpt><trkpt lat="40.9828502" lon="16.7460621"><ele>220.0</ele><time>2026-04-04T08:05:53.579Z</time></trkpt><trkpt lat="40.9827845" lon="16.7462065"><ele>220.0</ele><time>2026-04-04T08:05:54.579Z</time></trkpt><trkpt lat="40.9827177" lon="16.7463416"><ele>220.0</ele><time>2026-04-04T08:05:55.579Z</time></trkpt><trkpt lat="40.9826596" lon="16.7464629"><ele>220.0</ele><time>2026-04-04T08:05:56.58Z</time></trkpt><trkpt lat="40.9826072" lon="16.746569"><ele>220.0</ele><time>2026-04-04T08:05:57.579Z</time></trkpt><trkpt lat="40.9825559" lon="16.746689"><ele>220.0</ele><time>2026-04-04T08:05:58.579Z</time></trkpt><trkpt lat="40.9825016" lon="16.7468202"><ele>220.0</ele><time>2026-04-04T08:05:59.579Z</time></trkpt><trkpt lat="40.9824397" lon="16.7469565"><ele>220.0</ele><time>2026-04-04T08:06:00.579Z</time></trkpt><trkpt lat="40.9823695" lon="16.7471022"><ele>220.4</ele><time>2026-04-04T08:06:01.579Z</time></trkpt><trkpt lat="40.9823099" lon="16.7472184"><ele>220.8</ele><time>2026-04-04T08:06:02.579Z</time></trkpt><trkpt lat="40.9822642" lon="16.7473094"><ele>221.2</ele><time>2026-04-04T08:06:03.58Z</time></trkpt><trkpt lat="40.9822219" lon="16.747399"><ele>221.6</ele><time>2026-04-04T08:06:04.579Z</time></trkpt><trkpt lat="40.9821787" lon="16.7475106"><ele>222.0</ele><time>2026-04-04T08:06:05.579Z</time></trkpt><trkpt lat="40.9821258" lon="16.7476295"><ele>221.6</ele><time>2026-04-04T08:06:06.579Z</time></trkpt><trkpt lat="40.9820659" lon="16.7477492"><ele>221.2</ele><time>2026-04-04T08:06:07.579Z</time></trkpt><trkpt lat="40.9820067" lon="16.7478783"><ele>220.8</ele><time>2026-04-04T08:06:08.58Z</time></trkpt><trkpt lat="40.9819479" lon="16.748008"><ele>220.4</ele><time>2026-04-04T08:06:09.579Z</time></trkpt><trkpt lat="40.9818943" lon="16.7481205"><ele>220.0</ele><time>2026-04-04T08:06:10.579Z</time></trkpt><trkpt lat="40.9818442" lon="16.7482239"><ele>220.0</ele><time>2026-04-04T08:06:11.579Z</time></trkpt><trkpt lat="40.9817946" lon="16.7483339"><ele>220.0</ele><time>2026-04-04T08:06:12.579Z</time></trkpt><trkpt lat="40.9817403" lon="16.7484389"><ele>220.0</ele><time>2026-04-04T08:06:13.579Z</time></trkpt><trkpt lat="40.9816902" lon="16.7485481"><ele>220.0</ele><time>2026-04-04T08:06:14.579Z</time></trkpt><trkpt lat="40.9816409" lon="16.7486525"><ele>220.0</ele><time>2026-04-04T08:06:15.579Z</time></trkpt><trkpt lat="40.9815941" lon="16.7487591"><ele>220.4</ele><time>2026-04-04T08:06:16.579Z</time></trkpt><trkpt lat="40.981548" lon="16.7488638"><ele>220.8</ele><time>2026-04-04T08:06:17.579Z</time></trkpt><trkpt lat="40.981492" lon="16.7489781"><ele>221.2</ele><time>2026-04-04T08:06:18.579Z</time></trkpt><trkpt lat="40.9814378" lon="16.7491012"><ele>221.6</ele><time>2026-04-04T08:06:19.579Z</time></trkpt><trkpt lat="40.9813964" lon="16.7491953"><ele>222.0</ele><time>2026-04-04T08:06:20.579Z</time></trkpt><trkpt lat="40.9813619" lon="16.7492726"><ele>221.83333333333334</ele><time>2026-04-04T08:06:21.579Z</time></trkpt><trkpt lat="40.9813177" lon="16.7493806"><ele>221.66666666666669</ele><time>2026-04-04T08:06:23.579Z</time></trkpt><trkpt lat="40.9813484" lon="16.7494714"><ele>221.5</ele><time>2026-04-04T08:06:26.579Z</time></trkpt><trkpt lat="40.9814363" lon="16.7495417"><ele>221.33333333333334</ele><time>2026-04-04T08:06:28.579Z</time></trkpt><trkpt lat="40.9815099" lon="16.7495921"><ele>221.16666666666669</ele><time>2026-04-04T08:06:29.58Z</time></trkpt><trkpt lat="40.9815854" lon="16.7496469"><ele>221.0</ele><time>2026-04-04T08:06:30.579Z</time></trkpt><trkpt lat="40.9816647" lon="16.7497053"><ele>220.71428571428572</ele><time>2026-04-04T08:06:31.579Z</time></trkpt><trkpt lat="40.981749" lon="16.7497722"><ele>220.42857142857144</ele><time>2026-04-04T08:06:32.579Z</time></trkpt><trkpt lat="40.9818119" lon="16.7498179"><ele>220.14285714285717</ele><time>2026-04-04T08:06:33.579Z</time></trkpt><trkpt lat="40.9818655" lon="16.7498618"><ele>219.85714285714286</ele><time>2026-04-04T08:06:35.579Z</time></trkpt><trkpt lat="40.9819206" lon="16.7499032"><ele>219.57142857142856</ele><time>2026-04-04T08:06:37.579Z</time></trkpt><trkpt lat="40.9819785" lon="16.7499455"><ele>219.2857142857143</ele><time>2026-04-04T08:06:38.579Z</time></trkpt><trkpt lat="40.9820406" lon="16.7499899"><ele>219.0</ele><time>2026-04-04T08:06:39.58Z</time></trkpt><trkpt lat="40.9821418" lon="16.7500655"><ele>219.0</ele><time>2026-04-04T08:06:41.579Z</time></trkpt><trkpt lat="40.9822399" lon="16.7501455"><ele>218.99999999999997</ele><time>2026-04-04T08:06:43.579Z</time></trkpt><trkpt lat="40.9823189" lon="16.7502043"><ele>218.99999999999997</ele><time>2026-04-04T08:06:45.579Z</time></trkpt><trkpt lat="40.9823876" lon="16.750266"><ele>219.0</ele><time>2026-04-04T08:06:47.579Z</time></trkpt><trkpt lat="40.9824781" lon="16.7503661"><ele>219.0</ele><time>2026-04-04T08:06:49.58Z</time></trkpt><trkpt lat="40.9825319" lon="16.7504386"><ele>218.83333333333334</ele><time>2026-04-04T08:06:51.579Z</time></trkpt><trkpt lat="40.9825708" lon="16.7505176"><ele>218.66666666666669</ele><time>2026-04-04T08:06:54.579Z</time></trkpt><trkpt lat="40.982558" lon="16.7506207"><ele>218.5</ele><time>2026-04-04T08:06:56.579Z</time></trkpt><trkpt lat="40.9824898" lon="16.7507517"><ele>218.33333333333334</ele><time>2026-04-04T08:06:58.579Z</time></trkpt><trkpt lat="40.9824498" lon="16.7508346"><ele>218.16666666666669</ele><time>2026-04-04T08:06:59.579Z</time></trkpt><trkpt lat="40.9824149" lon="16.75092"><ele>218.0</ele><time>2026-04-04T08:07:00.58Z</time></trkpt><trkpt lat="40.9823829" lon="16.7509955"><ele>218.00000000000003</ele><time>2026-04-04T08:07:01.579Z</time></trkpt><trkpt lat="40.9823355" lon="16.7511102"><ele>218.0</ele><time>2026-04-04T08:07:03.579Z</time></trkpt><trkpt lat="40.9823072" lon="16.751196"><ele>218.0</ele><time>2026-04-04T08:07:06.581Z</time></trkpt><trkpt lat="40.9823684" lon="16.7512628"><ele>218.0</ele><time>2026-04-04T08:07:18.58Z</time></trkpt><trkpt lat="40.9824246" lon="16.7513096"><ele>218.00000000000003</ele><time>2026-04-04T08:07:23.579Z</time></trkpt><trkpt lat="40.9824524" lon="16.7513985"><ele>218.0</ele><time>2026-04-04T08:07:28.579Z</time></trkpt><trkpt lat="40.9825119" lon="16.7514394"><ele>217.66666666666669</ele><time>2026-04-04T08:07:31.579Z</time></trkpt><trkpt lat="40.982583" lon="16.7515045"><ele>217.33333333333334</ele><time>2026-04-04T08:07:34.579Z</time></trkpt><trkpt lat="40.9826558" lon="16.7515712"><ele>217.0</ele><time>2026-04-04T08:07:37.579Z</time></trkpt><trkpt lat="40.982708" lon="16.7516284"><ele>216.66666666666669</ele><time>2026-04-04T08:07:39.579Z</time></trkpt><trkpt lat="40.9827613" lon="16.7516777"><ele>216.33333333333334</ele><time>2026-04-04T08:07:41.579Z</time></trkpt><trkpt lat="40.9828137" lon="16.7517585"><ele>216.0</ele><time>2026-04-04T08:07:45.579Z</time></trkpt><trkpt lat="40.9828397" lon="16.7518737"><ele>215.83333333333334</ele><time>2026-04-04T08:07:48.579Z</time></trkpt><trkpt lat="40.9828467" lon="16.7520353"><ele>215.66666666666669</ele><time>2026-04-04T08:07:50.58Z</time></trkpt><trkpt lat="40.9828528" lon="16.7521287"><ele>215.5</ele><time>2026-04-04T08:07:51.58Z</time></trkpt><trkpt lat="40.9828608" lon="16.7522172"><ele>215.33333333333334</ele><time>2026-04-04T08:07:52.58Z</time></trkpt><trkpt lat="40.9828716" lon="16.7523173"><ele>215.16666666666669</ele><time>2026-04-04T08:07:53.58Z</time></trkpt><trkpt lat="40.9828828" lon="16.752422"><ele>215.0</ele><time>2026-04-04T08:07:54.581Z</time></trkpt><trkpt lat="40.9828948" lon="16.7525335"><ele>215.0</ele><time>2026-04-04T08:07:55.58Z</time></trkpt><trkpt lat="40.9829091" lon="16.7526561"><ele>215.0</ele><time>2026-04-04T08:07:56.58Z</time></trkpt><trkpt lat="40.982923" lon="16.752779"><ele>215.0</ele><time>2026-04-04T08:07:57.58Z</time></trkpt><trkpt lat="40.9829311" lon="16.7529041"><ele>215.0</ele><time>2026-04-04T08:07:58.58Z</time></trkpt><trkpt lat="40.9829399" lon="16.7530336"><ele>215.0</ele><time>2026-04-04T08:07:59.58Z</time></trkpt><trkpt lat="40.9829522" lon="16.7531819"><ele>214.66666666666669</ele><time>2026-04-04T08:08:00.581Z</time></trkpt><trkpt lat="40.9829664" lon="16.7533589"><ele>214.33333333333331</ele><time>2026-04-04T08:08:01.581Z</time></trkpt><trkpt lat="40.9829871" lon="16.7535698"><ele>214.0</ele><time>2026-04-04T08:08:02.58Z</time></trkpt><trkpt lat="40.9830154" lon="16.7538022"><ele>214.5</ele><time>2026-04-04T08:08:03.58Z</time></trkpt><trkpt lat="40.9830318" lon="16.7540149"><ele>215.0</ele><time>2026-04-04T08:08:04.58Z</time></trkpt><trkpt lat="40.9830428" lon="16.7542112"><ele>215.5</ele><time>2026-04-04T08:08:05.58Z</time></trkpt><trkpt lat="40.9830538" lon="16.754387"><ele>216.0</ele><time>2026-04-04T08:08:06.58Z</time></trkpt><trkpt lat="40.9830639" lon="16.7545551"><ele>216.20000000000002</ele><time>2026-04-04T08:08:07.58Z</time></trkpt><trkpt lat="40.9830707" lon="16.7547067"><ele>216.40000000000003</ele><time>2026-04-04T08:08:08.58Z</time></trkpt><trkpt lat="40.9830776" lon="16.7548346"><ele>216.6</ele><time>2026-04-04T08:08:09.581Z</time></trkpt><trkpt lat="40.983095" lon="16.754947"><ele>216.8</ele><time>2026-04-04T08:08:10.58Z</time></trkpt><trkpt lat="40.9831141" lon="16.755065"><ele>217.0</ele><time>2026-04-04T08:08:11.58Z</time></trkpt><trkpt lat="40.9831266" lon="16.7552024"><ele>216.99999999999997</ele><time>2026-04-04T08:08:12.58Z</time></trkpt><trkpt lat="40.9831374" lon="16.7553399"><ele>217.0</ele><time>2026-04-04T08:08:13.58Z</time></trkpt><trkpt lat="40.9831457" lon="16.7554662"><ele>217.0</ele><time>2026-04-04T08:08:14.58Z</time></trkpt><trkpt lat="40.9831556" lon="16.755578"><ele>217.0</ele><time>2026-04-04T08:08:15.58Z</time></trkpt><trkpt lat="40.9831616" lon="16.7556834"><ele>216.99999999999997</ele><time>2026-04-04T08:08:16.581Z</time></trkpt><trkpt lat="40.9831665" lon="16.7557751"><ele>217.0</ele><time>2026-04-04T08:08:17.58Z</time></trkpt><trkpt lat="40.9831704" lon="16.7558999"><ele>216.99999999999997</ele><time>2026-04-04T08:08:19.58Z</time></trkpt><trkpt lat="40.9831717" lon="16.7560099"><ele>217.0</ele><time>2026-04-04T08:08:21.58Z</time></trkpt><trkpt lat="40.9831763" lon="16.7560946"><ele>217.0</ele><time>2026-04-04T08:08:22.58Z</time></trkpt><trkpt lat="40.9831864" lon="16.756202"><ele>217.0</ele><time>2026-04-04T08:08:23.58Z</time></trkpt><trkpt lat="40.9832007" lon="16.7563238"><ele>216.99999999999997</ele><time>2026-04-04T08:08:24.58Z</time></trkpt><trkpt lat="40.9832151" lon="16.7564618"><ele>217.0</ele><time>2026-04-04T08:08:25.58Z</time></trkpt><trkpt lat="40.9832287" lon="16.7566114"><ele>217.0</ele><time>2026-04-04T08:08:26.58Z</time></trkpt><trkpt lat="40.983242" lon="16.7567665"><ele>217.0</ele><time>2026-04-04T08:08:27.581Z</time></trkpt><trkpt lat="40.9832541" lon="16.7569266"><ele>217.0</ele><time>2026-04-04T08:08:28.58Z</time></trkpt><trkpt lat="40.9832698" lon="16.7570933"><ele>217.0</ele><time>2026-04-04T08:08:29.58Z</time></trkpt><trkpt lat="40.9832869" lon="16.7572654"><ele>217.0</ele><time>2026-04-04T08:08:30.58Z</time></trkpt><trkpt lat="40.9832975" lon="16.7574427"><ele>217.0</ele><time>2026-04-04T08:08:31.58Z</time></trkpt><trkpt lat="40.9833081" lon="16.7576284"><ele>217.0</ele><time>2026-04-04T08:08:32.58Z</time></trkpt><trkpt lat="40.9833265" lon="16.7578264"><ele>217.0</ele><time>2026-04-04T08:08:33.58Z</time></trkpt><trkpt lat="40.9833423" lon="16.7580401"><ele>217.0</ele><time>2026-04-04T08:08:34.581Z</time></trkpt><trkpt lat="40.9833542" lon="16.758262"><ele>217.0</ele><time>2026-04-04T08:08:35.58Z</time></trkpt><trkpt lat="40.9833724" lon="16.7584876"><ele>217.0</ele><time>2026-04-04T08:08:36.58Z</time></trkpt><trkpt lat="40.9833838" lon="16.7587001"><ele>217.0</ele><time>2026-04-04T08:08:37.581Z</time></trkpt><trkpt lat="40.983401" lon="16.7588909"><ele>217.0</ele><time>2026-04-04T08:08:38.58Z</time></trkpt><trkpt lat="40.983414" lon="16.7590808"><ele>217.0</ele><time>2026-04-04T08:08:39.58Z</time></trkpt><trkpt lat="40.9834261" lon="16.7592577"><ele>217.0</ele><time>2026-04-04T08:08:40.58Z</time></trkpt><trkpt lat="40.9834428" lon="16.7594162"><ele>217.2</ele><time>2026-04-04T08:08:41.581Z</time></trkpt><trkpt lat="40.9834566" lon="16.7595509"><ele>217.39999999999998</ele><time>2026-04-04T08:08:42.58Z</time></trkpt><trkpt lat="40.9834668" lon="16.7596577"><ele>217.60000000000002</ele><time>2026-04-04T08:08:43.58Z</time></trkpt><trkpt lat="40.9834782" lon="16.7597927"><ele>217.8</ele><time>2026-04-04T08:08:45.58Z</time></trkpt><trkpt lat="40.9834758" lon="16.7598905"><ele>218.0</ele><time>2026-04-04T08:08:48.58Z</time></trkpt><trkpt lat="40.9834608" lon="16.7600406"><ele>218.0</ele><time>2026-04-04T08:08:50.58Z</time></trkpt><trkpt lat="40.9834639" lon="16.7601443"><ele>218.0</ele><time>2026-04-04T08:08:51.58Z</time></trkpt><trkpt lat="40.983471" lon="16.7602674"><ele>218.0</ele><time>2026-04-04T08:08:52.581Z</time></trkpt><trkpt lat="40.9834824" lon="16.7604069"><ele>218.0</ele><time>2026-04-04T08:08:53.58Z</time></trkpt><trkpt lat="40.9834876" lon="16.7605619"><ele>218.0</ele><time>2026-04-04T08:08:54.58Z</time></trkpt><trkpt lat="40.9834956" lon="16.7607233"><ele>218.0</ele><time>2026-04-04T08:08:55.58Z</time></trkpt><trkpt lat="40.9835107" lon="16.7608818"><ele>218.0</ele><time>2026-04-04T08:08:56.58Z</time></trkpt><trkpt lat="40.983521" lon="16.7610287"><ele>218.0</ele><time>2026-04-04T08:08:57.58Z</time></trkpt><trkpt lat="40.9835328" lon="16.7611576"><ele>218.0</ele><time>2026-04-04T08:08:58.58Z</time></trkpt><trkpt lat="40.9835471" lon="16.7612833"><ele>218.0</ele><time>2026-04-04T08:08:59.58Z</time></trkpt><trkpt lat="40.9835549" lon="16.7614152"><ele>218.0</ele><time>2026-04-04T08:09:00.58Z</time></trkpt><trkpt lat="40.9835622" lon="16.7615492"><ele>218.0</ele><time>2026-04-04T08:09:01.58Z</time></trkpt><trkpt lat="40.9835741" lon="16.7616859"><ele>218.0</ele><time>2026-04-04T08:09:02.581Z</time></trkpt><trkpt lat="40.9835839" lon="16.7618308"><ele>218.0</ele><time>2026-04-04T08:09:03.58Z</time></trkpt><trkpt lat="40.9835984" lon="16.7619878"><ele>218.0</ele><time>2026-04-04T08:09:04.58Z</time></trkpt><trkpt lat="40.9836135" lon="16.7621592"><ele>218.0</ele><time>2026-04-04T08:09:05.58Z</time></trkpt><trkpt lat="40.983629" lon="16.7623345"><ele>218.0</ele><time>2026-04-04T08:09:06.58Z</time></trkpt><trkpt lat="40.9836414" lon="16.7625167"><ele>218.0</ele><time>2026-04-04T08:09:07.58Z</time></trkpt><trkpt lat="40.9836518" lon="16.7626971"><ele>218.0</ele><time>2026-04-04T08:09:08.58Z</time></trkpt><trkpt lat="40.9836624" lon="16.7628797"><ele>218.0</ele><time>2026-04-04T08:09:09.58Z</time></trkpt><trkpt lat="40.9836771" lon="16.7630405"><ele>218.0</ele><time>2026-04-04T08:09:10.58Z</time></trkpt><trkpt lat="40.9836881" lon="16.7631907"><ele>218.0</ele><time>2026-04-04T08:09:11.58Z</time></trkpt><trkpt lat="40.9836987" lon="16.7633358"><ele>218.0</ele><time>2026-04-04T08:09:12.581Z</time></trkpt><trkpt lat="40.9837083" lon="16.7634532"><ele>218.0</ele><time>2026-04-04T08:09:13.581Z</time></trkpt><trkpt lat="40.9837224" lon="16.7635455"><ele>218.00000000000003</ele><time>2026-04-04T08:09:14.58Z</time></trkpt><trkpt lat="40.9837395" lon="16.763663"><ele>218.0</ele><time>2026-04-04T08:09:16.58Z</time></trkpt><trkpt lat="40.9837733" lon="16.7637372"><ele>218.0</ele><time>2026-04-04T08:09:19.58Z</time></trkpt><trkpt lat="40.9837503" lon="16.7638457"><ele>218.0</ele><time>2026-04-04T08:09:23.58Z</time></trkpt><trkpt lat="40.9837543" lon="16.7639921"><ele>218.00000000000003</ele><time>2026-04-04T08:09:25.58Z</time></trkpt><trkpt lat="40.9837659" lon="16.7640975"><ele>218.0</ele><time>2026-04-04T08:09:26.58Z</time></trkpt><trkpt lat="40.9837745" lon="16.764225"><ele>218.00000000000003</ele><time>2026-04-04T08:09:27.58Z</time></trkpt><trkpt lat="40.9837828" lon="16.7643478"><ele>218.0</ele><time>2026-04-04T08:09:28.58Z</time></trkpt><trkpt lat="40.9837899" lon="16.7644568"><ele>218.0</ele><time>2026-04-04T08:09:29.58Z</time></trkpt><trkpt lat="40.9838009" lon="16.7645773"><ele>218.0</ele><time>2026-04-04T08:09:31.58Z</time></trkpt><trkpt lat="40.9838365" lon="16.7646552"><ele>218.00000000000003</ele><time>2026-04-04T08:09:34.58Z</time></trkpt><trkpt lat="40.9838485" lon="16.7647432"><ele>218.0</ele><time>2026-04-04T08:09:37.58Z</time></trkpt><trkpt lat="40.983834" lon="16.764864"><ele>218.00000000000003</ele><time>2026-04-04T08:09:39.58Z</time></trkpt><trkpt lat="40.9838151" lon="16.7649537"><ele>218.0</ele><time>2026-04-04T08:09:40.58Z</time></trkpt><trkpt lat="40.9837949" lon="16.7650572"><ele>218.0</ele><time>2026-04-04T08:09:41.58Z</time></trkpt><trkpt lat="40.9837728" lon="16.7651956"><ele>218.0</ele><time>2026-04-04T08:09:43.58Z</time></trkpt><trkpt lat="40.9838342" lon="16.7652908"><ele>218.00000000000003</ele><time>2026-04-04T08:09:45.58Z</time></trkpt><trkpt lat="40.9838924" lon="16.7653447"><ele>218.0</ele><time>2026-04-04T08:09:46.58Z</time></trkpt><trkpt lat="40.9839532" lon="16.7654062"><ele>218.33333333333334</ele><time>2026-04-04T08:09:47.58Z</time></trkpt><trkpt lat="40.9840139" lon="16.7654516"><ele>218.66666666666669</ele><time>2026-04-04T08:09:48.58Z</time></trkpt><trkpt lat="40.9840845" lon="16.7654692"><ele>219.0</ele><time>2026-04-04T08:09:49.58Z</time></trkpt><trkpt lat="40.9841524" lon="16.7654875"><ele>219.33333333333331</ele><time>2026-04-04T08:09:50.581Z</time></trkpt><trkpt lat="40.9842107" lon="16.7655339"><ele>219.66666666666666</ele><time>2026-04-04T08:09:51.58Z</time></trkpt><trkpt lat="40.9842776" lon="16.7656051"><ele>220.0</ele><time>2026-04-04T08:09:52.58Z</time></trkpt><trkpt lat="40.9843515" lon="16.765695"><ele>220.0</ele><time>2026-04-04T08:09:53.58Z</time></trkpt><trkpt lat="40.9844409" lon="16.7658056"><ele>220.0</ele><time>2026-04-04T08:09:54.58Z</time></trkpt><trkpt lat="40.984541" lon="16.7659202"><ele>220.0</ele><time>2026-04-04T08:09:55.581Z</time></trkpt><trkpt lat="40.9846309" lon="16.7660252"><ele>220.0</ele><time>2026-04-04T08:09:56.58Z</time></trkpt><trkpt lat="40.9847252" lon="16.7661381"><ele>220.0</ele><time>2026-04-04T08:09:57.58Z</time></trkpt><trkpt lat="40.9848285" lon="16.7662524"><ele>220.0</ele><time>2026-04-04T08:09:58.581Z</time></trkpt><trkpt lat="40.98495" lon="16.7663928"><ele>220.0</ele><time>2026-04-04T08:09:59.58Z</time></trkpt><trkpt lat="40.9850709" lon="16.7665359"><ele>219.66666666666666</ele><time>2026-04-04T08:10:00.58Z</time></trkpt><trkpt lat="40.9851815" lon="16.7666644"><ele>219.33333333333331</ele><time>2026-04-04T08:10:01.58Z</time></trkpt><trkpt lat="40.9852918" lon="16.7667945"><ele>219.0</ele><time>2026-04-04T08:10:02.58Z</time></trkpt><trkpt lat="40.9854125" lon="16.7669313"><ele>218.33333333333331</ele><time>2026-04-04T08:10:03.581Z</time></trkpt><trkpt lat="40.9855382" lon="16.7670811"><ele>217.66666666666666</ele><time>2026-04-04T08:10:04.581Z</time></trkpt><trkpt lat="40.9856806" lon="16.7672462"><ele>217.0</ele><time>2026-04-04T08:10:05.58Z</time></trkpt><trkpt lat="40.985834" lon="16.7674238"><ele>217.0</ele><time>2026-04-04T08:10:06.581Z</time></trkpt><trkpt lat="40.9859686" lon="16.7675842"><ele>217.0</ele><time>2026-04-04T08:10:07.58Z</time></trkpt><trkpt lat="40.9860712" lon="16.7677048"><ele>217.0</ele><time>2026-04-04T08:10:08.58Z</time></trkpt><trkpt lat="40.9861601" lon="16.7678126"><ele>217.0</ele><time>2026-04-04T08:10:09.58Z</time></trkpt><trkpt lat="40.986244" lon="16.7679216"><ele>216.5</ele><time>2026-04-04T08:10:10.58Z</time></trkpt><trkpt lat="40.986327" lon="16.7680282"><ele>216.0</ele><time>2026-04-04T08:10:11.58Z</time></trkpt><trkpt lat="40.9864062" lon="16.7681209"><ele>215.5</ele><time>2026-04-04T08:10:12.58Z</time></trkpt><trkpt lat="40.986499" lon="16.7682272"><ele>215.0</ele><time>2026-04-04T08:10:13.58Z</time></trkpt><trkpt lat="40.9866061" lon="16.7683515"><ele>214.5</ele><time>2026-04-04T08:10:14.58Z</time></trkpt><trkpt lat="40.9867225" lon="16.7684879"><ele>214.0</ele><time>2026-04-04T08:10:15.581Z</time></trkpt><trkpt lat="40.9868318" lon="16.7686211"><ele>213.5</ele><time>2026-04-04T08:10:16.58Z</time></trkpt><trkpt lat="40.9869287" lon="16.7687343"><ele>213.0</ele><time>2026-04-04T08:10:17.581Z</time></trkpt><trkpt lat="40.9870109" lon="16.7688314"><ele>212.8</ele><time>2026-04-04T08:10:18.58Z</time></trkpt><trkpt lat="40.9870797" lon="16.7689088"><ele>212.60000000000002</ele><time>2026-04-04T08:10:19.58Z</time></trkpt><trkpt lat="40.9871429" lon="16.7689812"><ele>212.39999999999998</ele><time>2026-04-04T08:10:20.58Z</time></trkpt><trkpt lat="40.9872155" lon="16.7690562"><ele>212.2</ele><time>2026-04-04T08:10:21.58Z</time></trkpt><trkpt lat="40.9873019" lon="16.7691547"><ele>212.0</ele><time>2026-04-04T08:10:22.58Z</time></trkpt><trkpt lat="40.9874016" lon="16.7692663"><ele>211.75</ele><time>2026-04-04T08:10:23.58Z</time></trkpt><trkpt lat="40.9875102" lon="16.769401"><ele>211.5</ele><time>2026-04-04T08:10:24.581Z</time></trkpt><trkpt lat="40.9876099" lon="16.7695261"><ele>211.25</ele><time>2026-04-04T08:10:25.58Z</time></trkpt><trkpt lat="40.9877079" lon="16.7696564"><ele>211.0</ele><time>2026-04-04T08:10:26.58Z</time></trkpt><trkpt lat="40.9878251" lon="16.7697934"><ele>211.0</ele><time>2026-04-04T08:10:27.58Z</time></trkpt><trkpt lat="40.9879517" lon="16.7699408"><ele>211.0</ele><time>2026-04-04T08:10:28.58Z</time></trkpt><trkpt lat="40.9880611" lon="16.7700703"><ele>211.0</ele><time>2026-04-04T08:10:29.58Z</time></trkpt><trkpt lat="40.9881578" lon="16.7701797"><ele>211.0</ele><time>2026-04-04T08:10:30.58Z</time></trkpt><trkpt lat="40.9882464" lon="16.7702788"><ele>210.5</ele><time>2026-04-04T08:10:31.581Z</time></trkpt><trkpt lat="40.9883472" lon="16.7703837"><ele>210.0</ele><time>2026-04-04T08:10:32.58Z</time></trkpt><trkpt lat="40.9884553" lon="16.7705186"><ele>209.5</ele><time>2026-04-04T08:10:33.581Z</time></trkpt><trkpt lat="40.9885752" lon="16.7706636"><ele>209.0</ele><time>2026-04-04T08:10:34.58Z</time></trkpt><trkpt lat="40.9887098" lon="16.7708161"><ele>209.0</ele><time>2026-04-04T08:10:35.58Z</time></trkpt><trkpt lat="40.9888532" lon="16.7709833"><ele>209.0</ele><time>2026-04-04T08:10:36.58Z</time></trkpt><trkpt lat="40.9889805" lon="16.7711406"><ele>209.0</ele><time>2026-04-04T08:10:37.581Z</time></trkpt><trkpt lat="40.9891106" lon="16.7712984"><ele>208.33333333333334</ele><time>2026-04-04T08:10:38.58Z</time></trkpt><trkpt lat="40.989244" lon="16.7714595"><ele>207.66666666666669</ele><time>2026-04-04T08:10:39.58Z</time></trkpt><trkpt lat="40.9893797" lon="16.7716206"><ele>207.0</ele><time>2026-04-04T08:10:40.58Z</time></trkpt><trkpt lat="40.9894978" lon="16.7717594"><ele>206.8</ele><time>2026-04-04T08:10:41.58Z</time></trkpt><trkpt lat="40.9895948" lon="16.7718741"><ele>206.6</ele><time>2026-04-04T08:10:42.58Z</time></trkpt><trkpt lat="40.989677" lon="16.7719717"><ele>206.4</ele><time>2026-04-04T08:10:43.581Z</time></trkpt><trkpt lat="40.9897408" lon="16.7720465"><ele>206.20000000000002</ele><time>2026-04-04T08:10:44.58Z</time></trkpt><trkpt lat="40.9898112" lon="16.7721199"><ele>206.0</ele><time>2026-04-04T08:10:46.58Z</time></trkpt><trkpt lat="40.9898897" lon="16.7722047"><ele>206.0</ele><time>2026-04-04T08:10:48.58Z</time></trkpt><trkpt lat="40.9899545" lon="16.7722856"><ele>206.0</ele><time>2026-04-04T08:10:49.581Z</time></trkpt><trkpt lat="40.9900444" lon="16.7723941"><ele>206.0</ele><time>2026-04-04T08:10:50.58Z</time></trkpt><trkpt lat="40.9901442" lon="16.7725109"><ele>206.0</ele><time>2026-04-04T08:10:51.58Z</time></trkpt><trkpt lat="40.9902625" lon="16.7726477"><ele>205.33333333333334</ele><time>2026-04-04T08:10:52.58Z</time></trkpt><trkpt lat="40.9903897" lon="16.7727964"><ele>204.66666666666669</ele><time>2026-04-04T08:10:53.581Z</time></trkpt><trkpt lat="40.9905224" lon="16.7729546"><ele>204.0</ele><time>2026-04-04T08:10:54.58Z</time></trkpt><trkpt lat="40.9906624" lon="16.7731184"><ele>204.0</ele><time>2026-04-04T08:10:55.58Z</time></trkpt><trkpt lat="40.9908083" lon="16.7732918"><ele>204.0</ele><time>2026-04-04T08:10:56.58Z</time></trkpt><trkpt lat="40.9909405" lon="16.7734547"><ele>204.0</ele><time>2026-04-04T08:10:57.58Z</time></trkpt><trkpt lat="40.9910729" lon="16.773618"><ele>203.33333333333331</ele><time>2026-04-04T08:10:58.58Z</time></trkpt><trkpt lat="40.9912101" lon="16.7737807"><ele>202.66666666666666</ele><time>2026-04-04T08:10:59.58Z</time></trkpt><trkpt lat="40.9913482" lon="16.7739449"><ele>202.0</ele><time>2026-04-04T08:11:00.58Z</time></trkpt><trkpt lat="40.9914788" lon="16.7740996"><ele>202.0</ele><time>2026-04-04T08:11:01.58Z</time></trkpt><trkpt lat="40.9916138" lon="16.7742587"><ele>202.0</ele><time>2026-04-04T08:11:02.581Z</time></trkpt><trkpt lat="40.991755" lon="16.7744226"><ele>202.0</ele><time>2026-04-04T08:11:03.58Z</time></trkpt><trkpt lat="40.9919023" lon="16.7745874"><ele>200.33333333333331</ele><time>2026-04-04T08:11:04.58Z</time></trkpt><trkpt lat="40.9920485" lon="16.7747549"><ele>198.66666666666669</ele><time>2026-04-04T08:11:05.58Z</time></trkpt><trkpt lat="40.9921929" lon="16.7749338"><ele>197.0</ele><time>2026-04-04T08:11:06.581Z</time></trkpt><trkpt lat="40.9923443" lon="16.7751149"><ele>196.33333333333334</ele><time>2026-04-04T08:11:07.58Z</time></trkpt><trkpt lat="40.9925003" lon="16.7752994"><ele>195.66666666666669</ele><time>2026-04-04T08:11:08.58Z</time></trkpt><trkpt lat="40.9926593" lon="16.7754847"><ele>195.0</ele><time>2026-04-04T08:11:09.58Z</time></trkpt><trkpt lat="40.9928206" lon="16.7756707"><ele>194.66666666666669</ele><time>2026-04-04T08:11:10.581Z</time></trkpt><trkpt lat="40.9929795" lon="16.775859"><ele>194.33333333333334</ele><time>2026-04-04T08:11:11.582Z</time></trkpt><trkpt lat="40.99313" lon="16.7760366"><ele>194.0</ele><time>2026-04-04T08:11:12.58Z</time></trkpt><trkpt lat="40.99327" lon="16.7762051"><ele>192.33333333333334</ele><time>2026-04-04T08:11:13.58Z</time></trkpt><trkpt lat="40.9934029" lon="16.7763642"><ele>190.66666666666669</ele><time>2026-04-04T08:11:14.58Z</time></trkpt><trkpt lat="40.9935381" lon="16.7765275"><ele>189.0</ele><time>2026-04-04T08:11:15.58Z</time></trkpt><trkpt lat="40.9936784" lon="16.7766957"><ele>188.33333333333334</ele><time>2026-04-04T08:11:16.58Z</time></trkpt><trkpt lat="40.9938222" lon="16.776869"><ele>187.66666666666669</ele><time>2026-04-04T08:11:17.58Z</time></trkpt><trkpt lat="40.9939567" lon="16.7770287"><ele>187.0</ele><time>2026-04-04T08:11:18.58Z</time></trkpt><trkpt lat="40.9940839" lon="16.7771788"><ele>186.33333333333334</ele><time>2026-04-04T08:11:19.58Z</time></trkpt><trkpt lat="40.9941986" lon="16.7773208"><ele>185.66666666666666</ele><time>2026-04-04T08:11:20.58Z</time></trkpt><trkpt lat="40.9943111" lon="16.7774587"><ele>185.0</ele><time>2026-04-04T08:11:21.581Z</time></trkpt><trkpt lat="40.9944278" lon="16.7775997"><ele>185.33333333333331</ele><time>2026-04-04T08:11:22.58Z</time></trkpt><trkpt lat="40.9945609" lon="16.7777472"><ele>185.66666666666666</ele><time>2026-04-04T08:11:23.58Z</time></trkpt><trkpt lat="40.9947015" lon="16.7779088"><ele>186.0</ele><time>2026-04-04T08:11:24.58Z</time></trkpt><trkpt lat="40.9948407" lon="16.7780675"><ele>186.0</ele><time>2026-04-04T08:11:25.58Z</time></trkpt><trkpt lat="40.99497" lon="16.7782188"><ele>186.0</ele><time>2026-04-04T08:11:26.581Z</time></trkpt><trkpt lat="40.9950917" lon="16.7783653"><ele>186.0</ele><time>2026-04-04T08:11:27.58Z</time></trkpt><trkpt lat="40.9952198" lon="16.7785187"><ele>185.0</ele><time>2026-04-04T08:11:28.581Z</time></trkpt><trkpt lat="40.9953462" lon="16.7786707"><ele>184.0</ele><time>2026-04-04T08:11:29.58Z</time></trkpt><trkpt lat="40.9954642" lon="16.7788088"><ele>183.0</ele><time>2026-04-04T08:11:30.58Z</time></trkpt><trkpt lat="40.9955726" lon="16.7789393"><ele>183.0</ele><time>2026-04-04T08:11:31.58Z</time></trkpt><trkpt lat="40.9956662" lon="16.7790541"><ele>183.0</ele><time>2026-04-04T08:11:32.581Z</time></trkpt><trkpt lat="40.9957483" lon="16.7791589"><ele>183.0</ele><time>2026-04-04T08:11:33.581Z</time></trkpt><trkpt lat="40.9958251" lon="16.7792577"><ele>183.0</ele><time>2026-04-04T08:11:34.58Z</time></trkpt><trkpt lat="40.9958993" lon="16.7793479"><ele>183.0</ele><time>2026-04-04T08:11:35.58Z</time></trkpt><trkpt lat="40.9959598" lon="16.7794232"><ele>182.66666666666666</ele><time>2026-04-04T08:11:36.58Z</time></trkpt><trkpt lat="40.9960069" lon="16.7794788"><ele>182.33333333333334</ele><time>2026-04-04T08:11:37.58Z</time></trkpt><trkpt lat="40.9960564" lon="16.7795305"><ele>182.0</ele><time>2026-04-04T08:11:39.58Z</time></trkpt><trkpt lat="40.9961058" lon="16.779606"><ele>181.66666666666669</ele><time>2026-04-04T08:11:41.58Z</time></trkpt><trkpt lat="40.9961573" lon="16.7796689"><ele>181.33333333333334</ele><time>2026-04-04T08:11:43.58Z</time></trkpt><trkpt lat="40.9962512" lon="16.7797728"><ele>181.0</ele><time>2026-04-04T08:11:45.58Z</time></trkpt><trkpt lat="40.9963164" lon="16.7798468"><ele>181.0</ele><time>2026-04-04T08:11:46.58Z</time></trkpt><trkpt lat="40.9963868" lon="16.7799277"><ele>181.0</ele><time>2026-04-04T08:11:47.58Z</time></trkpt><trkpt lat="40.9964653" lon="16.7800165"><ele>181.0</ele><time>2026-04-04T08:11:48.58Z</time></trkpt><trkpt lat="40.9965481" lon="16.7801106"><ele>181.0</ele><time>2026-04-04T08:11:49.58Z</time></trkpt><trkpt lat="40.996622" lon="16.7801971"><ele>181.0</ele><time>2026-04-04T08:11:50.58Z</time></trkpt><trkpt lat="40.9966865" lon="16.7802718"><ele>180.83333333333334</ele><time>2026-04-04T08:11:51.58Z</time></trkpt><trkpt lat="40.9967443" lon="16.7803393"><ele>180.66666666666669</ele><time>2026-04-04T08:11:52.58Z</time></trkpt><trkpt lat="40.9967902" lon="16.7803989"><ele>180.5</ele><time>2026-04-04T08:11:53.58Z</time></trkpt><trkpt lat="40.9968763" lon="16.7805046"><ele>180.33333333333334</ele><time>2026-04-04T08:11:55.58Z</time></trkpt><trkpt lat="40.9969215" lon="16.7805995"><ele>180.16666666666666</ele><time>2026-04-04T08:11:57.58Z</time></trkpt><trkpt lat="40.9969251" lon="16.7807167"><ele>180.0</ele><time>2026-04-04T08:11:59.58Z</time></trkpt><trkpt lat="40.9969299" lon="16.7808013"><ele>180.0</ele><time>2026-04-04T08:12:00.58Z</time></trkpt><trkpt lat="40.9969343" lon="16.7809051"><ele>180.0</ele><time>2026-04-04T08:12:01.58Z</time></trkpt><trkpt lat="40.9969451" lon="16.7810181"><ele>180.0</ele><time>2026-04-04T08:12:02.58Z</time></trkpt><trkpt lat="40.9969537" lon="16.7811188"><ele>180.0</ele><time>2026-04-04T08:12:03.58Z</time></trkpt><trkpt lat="40.9969602" lon="16.7812109"><ele>180.0</ele><time>2026-04-04T08:12:04.58Z</time></trkpt><trkpt lat="40.9969662" lon="16.7813034"><ele>180.0</ele><time>2026-04-04T08:12:05.58Z</time></trkpt><trkpt lat="40.9969735" lon="16.7813932"><ele>180.0</ele><time>2026-04-04T08:12:06.58Z</time></trkpt><trkpt lat="40.9969804" lon="16.7814769"><ele>179.5</ele><time>2026-04-04T08:12:07.58Z</time></trkpt><trkpt lat="40.997002" lon="16.7816021"><ele>179.0</ele><time>2026-04-04T08:12:09.58Z</time></trkpt><trkpt lat="40.997065" lon="16.7816638"><ele>178.5</ele><time>2026-04-04T08:12:11.58Z</time></trkpt><trkpt lat="40.9971442" lon="16.7817139"><ele>178.0</ele><time>2026-04-04T08:12:13.58Z</time></trkpt><trkpt lat="40.9971692" lon="16.7818164"><ele>177.5</ele><time>2026-04-04T08:12:15.581Z</time></trkpt><trkpt lat="40.9971606" lon="16.7819023"><ele>177.0</ele><time>2026-04-04T08:12:16.58Z</time></trkpt><trkpt lat="40.9971441" lon="16.7820038"><ele>176.5</ele><time>2026-04-04T08:12:17.581Z</time></trkpt><trkpt lat="40.9971289" lon="16.7821144"><ele>176.0</ele><time>2026-04-04T08:12:18.58Z</time></trkpt><trkpt lat="40.9971125" lon="16.7822307"><ele>175.5</ele><time>2026-04-04T08:12:19.581Z</time></trkpt><trkpt lat="40.9970995" lon="16.7823392"><ele>175.0</ele><time>2026-04-04T08:12:20.58Z</time></trkpt><trkpt lat="40.997087" lon="16.7824351"><ele>174.5</ele><time>2026-04-04T08:12:21.58Z</time></trkpt><trkpt lat="40.997077" lon="16.7825231"><ele>174.0</ele><time>2026-04-04T08:12:22.58Z</time></trkpt><trkpt lat="40.9970697" lon="16.7826124"><ele>174.28571428571428</ele><time>2026-04-04T08:12:23.58Z</time></trkpt><trkpt lat="40.9970581" lon="16.7827003"><ele>174.57142857142858</ele><time>2026-04-04T08:12:24.58Z</time></trkpt><trkpt lat="40.9970457" lon="16.7827992"><ele>174.85714285714286</ele><time>2026-04-04T08:12:25.58Z</time></trkpt><trkpt lat="40.9970336" lon="16.7828964"><ele>175.14285714285714</ele><time>2026-04-04T08:12:26.58Z</time></trkpt><trkpt lat="40.9970205" lon="16.7829878"><ele>175.42857142857142</ele><time>2026-04-04T08:12:27.58Z</time></trkpt><trkpt lat="40.9970088" lon="16.7830762"><ele>175.71428571428572</ele><time>2026-04-04T08:12:28.58Z</time></trkpt><trkpt lat="40.9970011" lon="16.7831747"><ele>176.0</ele><time>2026-04-04T08:12:29.58Z</time></trkpt><trkpt lat="40.997005" lon="16.7832906"><ele>176.0</ele><time>2026-04-04T08:12:30.58Z</time></trkpt><trkpt lat="40.9970282" lon="16.7834034"><ele>176.0</ele><time>2026-04-04T08:12:31.581Z</time></trkpt><trkpt lat="40.9970591" lon="16.7835206"><ele>176.0</ele><time>2026-04-04T08:12:32.58Z</time></trkpt><trkpt lat="40.9970894" lon="16.7836514"><ele>176.0</ele><time>2026-04-04T08:12:33.58Z</time></trkpt><trkpt lat="40.9971105" lon="16.7837989"><ele>176.0</ele><time>2026-04-04T08:12:34.581Z</time></trkpt><trkpt lat="40.9971272" lon="16.7839372"><ele>176.16666666666666</ele><time>2026-04-04T08:12:35.58Z</time></trkpt><trkpt lat="40.9971409" lon="16.7840578"><ele>176.33333333333331</ele><time>2026-04-04T08:12:36.58Z</time></trkpt><trkpt lat="40.9971474" lon="16.7841655"><ele>176.5</ele><time>2026-04-04T08:12:37.58Z</time></trkpt><trkpt lat="40.9971315" lon="16.7842522"><ele>176.66666666666666</ele><time>2026-04-04T08:12:38.58Z</time></trkpt><trkpt lat="40.99704" lon="16.7843534"><ele>176.83333333333334</ele><time>2026-04-04T08:12:40.58Z</time></trkpt><trkpt lat="40.9969647" lon="16.7843901"><ele>177.0</ele><time>2026-04-04T08:12:41.58Z</time></trkpt><trkpt lat="40.9968819" lon="16.7844424"><ele>177.0</ele><time>2026-04-04T08:12:42.581Z</time></trkpt><trkpt lat="40.9967894" lon="16.7844953"><ele>177.0</ele><time>2026-04-04T08:12:43.58Z</time></trkpt><trkpt lat="40.9966948" lon="16.7845476"><ele>177.0</ele><time>2026-04-04T08:12:44.58Z</time></trkpt><trkpt lat="40.9966043" lon="16.7846047"><ele>177.0</ele><time>2026-04-04T08:12:45.58Z</time></trkpt><trkpt lat="40.9965257" lon="16.7846544"><ele>177.0</ele><time>2026-04-04T08:12:46.58Z</time></trkpt><trkpt lat="40.9964488" lon="16.7846821"><ele>177.0</ele><time>2026-04-04T08:12:47.581Z</time></trkpt><trkpt lat="40.9963642" lon="16.7846985"><ele>177.0</ele><time>2026-04-04T08:12:48.58Z</time></trkpt><trkpt lat="40.9962886" lon="16.7847199"><ele>177.0</ele><time>2026-04-04T08:12:49.58Z</time></trkpt><trkpt lat="40.9962158" lon="16.7847449"><ele>177.0</ele><time>2026-04-04T08:12:51.58Z</time></trkpt><trkpt lat="40.9961493" lon="16.7847858"><ele>177.0</ele><time>2026-04-04T08:12:57.58Z</time></trkpt><trkpt lat="40.9961348" lon="16.7849352"><ele>177.0</ele><time>2026-04-04T08:12:59.58Z</time></trkpt><trkpt lat="40.9961391" lon="16.7850433"><ele>177.0</ele><time>2026-04-04T08:13:00.58Z</time></trkpt><trkpt lat="40.9961437" lon="16.7851756"><ele>177.0</ele><time>2026-04-04T08:13:01.58Z</time></trkpt><trkpt lat="40.9961536" lon="16.7853288"><ele>177.0</ele><time>2026-04-04T08:13:02.58Z</time></trkpt><trkpt lat="40.9961699" lon="16.7854981"><ele>177.0</ele><time>2026-04-04T08:13:03.58Z</time></trkpt><trkpt lat="40.9961892" lon="16.7856809"><ele>176.33333333333334</ele><time>2026-04-04T08:13:04.58Z</time></trkpt><trkpt lat="40.99621" lon="16.7858801"><ele>175.66666666666669</ele><time>2026-04-04T08:13:05.58Z</time></trkpt><trkpt lat="40.9962297" lon="16.7860912"><ele>175.0</ele><time>2026-04-04T08:13:06.581Z</time></trkpt><trkpt lat="40.9962546" lon="16.7863113"><ele>175.0</ele><time>2026-04-04T08:13:07.58Z</time></trkpt><trkpt lat="40.9962833" lon="16.7865309"><ele>175.0</ele><time>2026-04-04T08:13:08.581Z</time></trkpt><trkpt lat="40.9963058" lon="16.7867461"><ele>175.0</ele><time>2026-04-04T08:13:09.58Z</time></trkpt><trkpt lat="40.9963257" lon="16.7869594"><ele>175.0</ele><time>2026-04-04T08:13:10.58Z</time></trkpt><trkpt lat="40.9963447" lon="16.7871559"><ele>175.0</ele><time>2026-04-04T08:13:11.58Z</time></trkpt><trkpt lat="40.9963722" lon="16.7873355"><ele>175.0</ele><time>2026-04-04T08:13:12.581Z</time></trkpt><trkpt lat="40.9964237" lon="16.7875082"><ele>175.0</ele><time>2026-04-04T08:13:13.582Z</time></trkpt><trkpt lat="40.9964953" lon="16.787672"><ele>175.25</ele><time>2026-04-04T08:13:14.58Z</time></trkpt><trkpt lat="40.9965791" lon="16.7878319"><ele>175.5</ele><time>2026-04-04T08:13:15.581Z</time></trkpt><trkpt lat="40.9966723" lon="16.7879874"><ele>175.75</ele><time>2026-04-04T08:13:16.58Z</time></trkpt><trkpt lat="40.9967676" lon="16.7881393"><ele>176.0</ele><time>2026-04-04T08:13:17.58Z</time></trkpt><trkpt lat="40.996865" lon="16.7882922"><ele>176.5</ele><time>2026-04-04T08:13:18.58Z</time></trkpt><trkpt lat="40.9969591" lon="16.7884474"><ele>177.0</ele><time>2026-04-04T08:13:19.58Z</time></trkpt><trkpt lat="40.9970425" lon="16.788605"><ele>177.5</ele><time>2026-04-04T08:13:20.581Z</time></trkpt><trkpt lat="40.9971064" lon="16.7887561"><ele>178.0</ele><time>2026-04-04T08:13:21.58Z</time></trkpt><trkpt lat="40.9971587" lon="16.7889077"><ele>178.25</ele><time>2026-04-04T08:13:22.58Z</time></trkpt><trkpt lat="40.9972044" lon="16.7890661"><ele>178.5</ele><time>2026-04-04T08:13:23.581Z</time></trkpt><trkpt lat="40.9972467" lon="16.7892331"><ele>178.75</ele><time>2026-04-04T08:13:24.58Z</time></trkpt><trkpt lat="40.9972917" lon="16.7894048"><ele>179.0</ele><time>2026-04-04T08:13:25.581Z</time></trkpt><trkpt lat="40.997342" lon="16.7895803"><ele>179.0</ele><time>2026-04-04T08:13:26.58Z</time></trkpt><trkpt lat="40.9973924" lon="16.789755"><ele>179.0</ele><time>2026-04-04T08:13:27.58Z</time></trkpt><trkpt lat="40.9974362" lon="16.7899168"><ele>179.0</ele><time>2026-04-04T08:13:28.58Z</time></trkpt><trkpt lat="40.9974775" lon="16.7900669"><ele>179.0</ele><time>2026-04-04T08:13:29.58Z</time></trkpt><trkpt lat="40.9975181" lon="16.7902064"><ele>178.79999999999998</ele><time>2026-04-04T08:13:30.58Z</time></trkpt><trkpt lat="40.9975553" lon="16.7903356"><ele>178.6</ele><time>2026-04-04T08:13:31.58Z</time></trkpt><trkpt lat="40.9975916" lon="16.7904589"><ele>178.4</ele><time>2026-04-04T08:13:32.58Z</time></trkpt><trkpt lat="40.997625" lon="16.7905779"><ele>178.2</ele><time>2026-04-04T08:13:33.58Z</time></trkpt><trkpt lat="40.9976571" lon="16.790691"><ele>178.0</ele><time>2026-04-04T08:13:34.58Z</time></trkpt><trkpt lat="40.9976863" lon="16.790791"><ele>178.0</ele><time>2026-04-04T08:13:35.581Z</time></trkpt><trkpt lat="40.9977107" lon="16.7908708"><ele>178.0</ele><time>2026-04-04T08:13:36.58Z</time></trkpt><trkpt lat="40.9977555" lon="16.7909891"><ele>178.0</ele><time>2026-04-04T08:13:38.58Z</time></trkpt><trkpt lat="40.9977965" lon="16.7911381"><ele>178.0</ele><time>2026-04-04T08:13:40.58Z</time></trkpt><trkpt lat="40.9978659" lon="16.7912455"><ele>178.0</ele><time>2026-04-04T08:13:42.58Z</time></trkpt><trkpt lat="40.9980015" lon="16.7912217"><ele>178.25</ele><time>2026-04-04T08:13:44.58Z</time></trkpt><trkpt lat="40.9980943" lon="16.7911704"><ele>178.5</ele><time>2026-04-04T08:13:45.58Z</time></trkpt><trkpt lat="40.9981977" lon="16.791104"><ele>178.75</ele><time>2026-04-04T08:13:46.58Z</time></trkpt><trkpt lat="40.9983113" lon="16.79103"><ele>179.0</ele><time>2026-04-04T08:13:47.58Z</time></trkpt><trkpt lat="40.9984298" lon="16.7909551"><ele>179.0</ele><time>2026-04-04T08:13:48.58Z</time></trkpt><trkpt lat="40.9985488" lon="16.7908891"><ele>179.0</ele><time>2026-04-04T08:13:49.58Z</time></trkpt><trkpt lat="40.9986839" lon="16.790835"><ele>179.0</ele><time>2026-04-04T08:13:50.58Z</time></trkpt><trkpt lat="40.9988229" lon="16.790795"><ele>179.0</ele><time>2026-04-04T08:13:51.58Z</time></trkpt><trkpt lat="40.9989652" lon="16.7907731"><ele>179.0</ele><time>2026-04-04T08:13:52.58Z</time></trkpt><trkpt lat="40.9991114" lon="16.7907746"><ele>179.0</ele><time>2026-04-04T08:13:53.58Z</time></trkpt><trkpt lat="40.9992613" lon="16.7907896"><ele>179.0</ele><time>2026-04-04T08:13:54.58Z</time></trkpt><trkpt lat="40.9994169" lon="16.7908118"><ele>178.66666666666666</ele><time>2026-04-04T08:13:55.58Z</time></trkpt><trkpt lat="40.9995748" lon="16.7908436"><ele>178.33333333333334</ele><time>2026-04-04T08:13:56.58Z</time></trkpt><trkpt lat="40.9997379" lon="16.7908806"><ele>178.0</ele><time>2026-04-04T08:13:57.581Z</time></trkpt><trkpt lat="40.9999054" lon="16.7909202"><ele>178.0</ele><time>2026-04-04T08:13:58.58Z</time></trkpt><trkpt lat="41.0000756" lon="16.7909587"><ele>178.0</ele><time>2026-04-04T08:13:59.58Z</time></trkpt><trkpt lat="41.0002256" lon="16.7909962"><ele>178.0</ele><time>2026-04-04T08:14:00.58Z</time></trkpt><trkpt lat="41.0003544" lon="16.7910306"><ele>178.33333333333334</ele><time>2026-04-04T08:14:01.58Z</time></trkpt><trkpt lat="41.000456" lon="16.7910651"><ele>178.66666666666669</ele><time>2026-04-04T08:14:02.58Z</time></trkpt><trkpt lat="41.0005366" lon="16.7910934"><ele>179.0</ele><time>2026-04-04T08:14:03.58Z</time></trkpt><trkpt lat="41.0006075" lon="16.791135"><ele>179.33333333333334</ele><time>2026-04-04T08:14:05.58Z</time></trkpt><trkpt lat="41.0007066" lon="16.7911283"><ele>179.66666666666666</ele><time>2026-04-04T08:14:11.58Z</time></trkpt><trkpt lat="41.0007782" lon="16.7911463"><ele>180.0</ele><time>2026-04-04T08:14:17.58Z</time></trkpt><trkpt lat="41.0009154" lon="16.7911739"><ele>180.0</ele><time>2026-04-04T08:14:19.58Z</time></trkpt><trkpt lat="41.0010166" lon="16.7911995"><ele>180.0</ele><time>2026-04-04T08:14:20.58Z</time></trkpt><trkpt lat="41.001137" lon="16.791231"><ele>180.0</ele><time>2026-04-04T08:14:21.58Z</time></trkpt><trkpt lat="41.0012661" lon="16.7912599"><ele>180.0</ele><time>2026-04-04T08:14:22.58Z</time></trkpt><trkpt lat="41.0013853" lon="16.7912857"><ele>180.0</ele><time>2026-04-04T08:14:23.581Z</time></trkpt><trkpt lat="41.0014899" lon="16.7913158"><ele>180.0</ele><time>2026-04-04T08:14:24.58Z</time></trkpt><trkpt lat="41.0015852" lon="16.7913391"><ele>180.0</ele><time>2026-04-04T08:14:25.581Z</time></trkpt><trkpt lat="41.001673" lon="16.7913593"><ele>180.0</ele><time>2026-04-04T08:14:26.58Z</time></trkpt><trkpt lat="41.0017663" lon="16.7913761"><ele>180.0</ele><time>2026-04-04T08:14:27.58Z</time></trkpt><trkpt lat="41.0018681" lon="16.7913956"><ele>179.83333333333334</ele><time>2026-04-04T08:14:28.58Z</time></trkpt><trkpt lat="41.0019643" lon="16.791411"><ele>179.66666666666666</ele><time>2026-04-04T08:14:29.58Z</time></trkpt><trkpt lat="41.0020494" lon="16.7914273"><ele>179.5</ele><time>2026-04-04T08:14:30.58Z</time></trkpt><trkpt lat="41.0021252" lon="16.7914632"><ele>179.33333333333331</ele><time>2026-04-04T08:14:31.58Z</time></trkpt><trkpt lat="41.0022111" lon="16.7914948"><ele>179.16666666666666</ele><time>2026-04-04T08:14:32.58Z</time></trkpt><trkpt lat="41.0023059" lon="16.7915172"><ele>179.0</ele><time>2026-04-04T08:14:33.581Z</time></trkpt><trkpt lat="41.0023863" lon="16.7915382"><ele>179.0</ele><time>2026-04-04T08:14:34.58Z</time></trkpt><trkpt lat="41.0024499" lon="16.7915493"><ele>179.0</ele><time>2026-04-04T08:14:35.58Z</time></trkpt><trkpt lat="41.0025178" lon="16.7915356"><ele>179.0</ele><time>2026-04-04T08:14:36.58Z</time></trkpt><trkpt lat="41.002583" lon="16.7915357"><ele>179.0</ele><time>2026-04-04T08:14:37.58Z</time></trkpt><trkpt lat="41.0026698" lon="16.7915569"><ele>179.0</ele><time>2026-04-04T08:14:38.58Z</time></trkpt><trkpt lat="41.0027661" lon="16.7915777"><ele>179.0</ele><time>2026-04-04T08:14:39.58Z</time></trkpt><trkpt lat="41.002877" lon="16.7916023"><ele>178.79999999999998</ele><time>2026-04-04T08:14:40.58Z</time></trkpt><trkpt lat="41.0029884" lon="16.791629"><ele>178.6</ele><time>2026-04-04T08:14:41.58Z</time></trkpt><trkpt lat="41.003086" lon="16.7916536"><ele>178.4</ele><time>2026-04-04T08:14:42.58Z</time></trkpt><trkpt lat="41.0031787" lon="16.7916894"><ele>178.2</ele><time>2026-04-04T08:14:43.58Z</time></trkpt><trkpt lat="41.0032837" lon="16.7917335"><ele>178.0</ele><time>2026-04-04T08:14:44.58Z</time></trkpt><trkpt lat="41.0033973" lon="16.7917637"><ele>178.0</ele><time>2026-04-04T08:14:45.58Z</time></trkpt><trkpt lat="41.0034999" lon="16.7917933"><ele>178.0</ele><time>2026-04-04T08:14:46.58Z</time></trkpt><trkpt lat="41.0035982" lon="16.7918118"><ele>178.0</ele><time>2026-04-04T08:14:47.58Z</time></trkpt><trkpt lat="41.0037111" lon="16.7917974"><ele>178.0</ele><time>2026-04-04T08:14:48.58Z</time></trkpt><trkpt lat="41.003819" lon="16.7917556"><ele>178.0</ele><time>2026-04-04T08:14:49.58Z</time></trkpt><trkpt lat="41.0039241" lon="16.7916778"><ele>178.0</ele><time>2026-04-04T08:14:50.581Z</time></trkpt><trkpt lat="41.0040373" lon="16.7915671"><ele>178.0</ele><time>2026-04-04T08:14:51.58Z</time></trkpt><trkpt lat="41.0041441" lon="16.7914438"><ele>178.0</ele><time>2026-04-04T08:14:52.58Z</time></trkpt><trkpt lat="41.0042379" lon="16.7913248"><ele>178.0</ele><time>2026-04-04T08:14:53.58Z</time></trkpt><trkpt lat="41.004329" lon="16.7912167"><ele>177.2</ele><time>2026-04-04T08:14:54.58Z</time></trkpt><trkpt lat="41.004416" lon="16.7911136"><ele>176.4</ele><time>2026-04-04T08:14:55.58Z</time></trkpt><trkpt lat="41.0045059" lon="16.7910071"><ele>175.6</ele><time>2026-04-04T08:14:56.58Z</time></trkpt><trkpt lat="41.0045858" lon="16.7909096"><ele>174.79999999999998</ele><time>2026-04-04T08:14:57.58Z</time></trkpt><trkpt lat="41.0046566" lon="16.7908218"><ele>174.0</ele><time>2026-04-04T08:14:58.58Z</time></trkpt><trkpt lat="41.004707" lon="16.7907671"><ele>174.0</ele><time>2026-04-04T08:14:59.58Z</time></trkpt><trkpt lat="41.004793" lon="16.7907577"><ele>174.0</ele><time>2026-04-04T08:15:01.58Z</time></trkpt><trkpt lat="41.0048691" lon="16.7907984"><ele>174.0</ele><time>2026-04-04T08:15:03.58Z</time></trkpt><trkpt lat="41.0049471" lon="16.7908308"><ele>174.0</ele><time>2026-04-04T08:15:06.581Z</time></trkpt><trkpt lat="41.0048912" lon="16.7908799"><ele>174.0</ele><time>2026-04-04T08:16:17.58Z</time></trkpt><trkpt lat="41.0049409" lon="16.7909418"><ele>174.0</ele><time>2026-04-04T08:17:08.58Z</time></trkpt><trkpt lat="41.0050289" lon="16.7909428"><ele>174.0</ele><time>2026-04-04T08:17:41.58Z</time></trkpt><trkpt lat="41.0049524" lon="16.7909062"><ele>174.0</ele><time>2026-04-04T08:25:48.581Z</time></trkpt><trkpt lat="41.00492" lon="16.7908129"><ele>174.0</ele><time>2026-04-04T08:27:55.582Z</time></trkpt><trkpt lat="41.0048546" lon="16.7907536"><ele>174.0</ele><time>2026-04-04T08:27:57.581Z</time></trkpt><trkpt lat="41.0047983" lon="16.7907111"><ele>174.0</ele><time>2026-04-04T08:28:00.581Z</time></trkpt><trkpt lat="41.0047217" lon="16.7907107"><ele>174.0</ele><time>2026-04-04T08:28:03.581Z</time></trkpt><trkpt lat="41.0046447" lon="16.7908016"><ele>174.0</ele><time>2026-04-04T08:28:05.581Z</time></trkpt><trkpt lat="41.0045945" lon="16.790855"><ele>174.0</ele><time>2026-04-04T08:28:06.581Z</time></trkpt><trkpt lat="41.0045465" lon="16.7909114"><ele>174.0</ele><time>2026-04-04T08:28:07.581Z</time></trkpt><trkpt lat="41.0044986" lon="16.7909766"><ele>174.0</ele><time>2026-04-04T08:28:08.581Z</time></trkpt><trkpt lat="41.0044425" lon="16.7910458"><ele>174.0</ele><time>2026-04-04T08:28:09.581Z</time></trkpt><trkpt lat="41.0043834" lon="16.7911167"><ele>174.0</ele><time>2026-04-04T08:28:10.582Z</time></trkpt><trkpt lat="41.0043222" lon="16.7911931"><ele>174.0</ele><time>2026-04-04T08:28:11.581Z</time></trkpt><trkpt lat="41.004263" lon="16.7912673"><ele>174.0</ele><time>2026-04-04T08:28:12.581Z</time></trkpt><trkpt lat="41.0042037" lon="16.7913412"><ele>174.0</ele><time>2026-04-04T08:28:13.581Z</time></trkpt><trkpt lat="41.004143" lon="16.791415"><ele>174.0</ele><time>2026-04-04T08:28:14.581Z</time></trkpt><trkpt lat="41.0040808" lon="16.7914866"><ele>174.0</ele><time>2026-04-04T08:28:15.581Z</time></trkpt><trkpt lat="41.0040187" lon="16.7915533"><ele>174.0</ele><time>2026-04-04T08:28:16.581Z</time></trkpt><trkpt lat="41.0039566" lon="16.7916221"><ele>174.0</ele><time>2026-04-04T08:28:17.581Z</time></trkpt><trkpt lat="41.0038937" lon="16.7916837"><ele>174.66666666666666</ele><time>2026-04-04T08:28:18.581Z</time></trkpt><trkpt lat="41.0038293" lon="16.791722"><ele>175.33333333333334</ele><time>2026-04-04T08:28:19.581Z</time></trkpt><trkpt lat="41.0037609" lon="16.7917472"><ele>176.0</ele><time>2026-04-04T08:28:20.582Z</time></trkpt><trkpt lat="41.0036951" lon="16.7917611"><ele>176.66666666666669</ele><time>2026-04-04T08:28:21.581Z</time></trkpt><trkpt lat="41.0035937" lon="16.7917584"><ele>177.33333333333334</ele><time>2026-04-04T08:28:23.581Z</time></trkpt><trkpt lat="41.0035128" lon="16.7917371"><ele>178.0</ele><time>2026-04-04T08:28:26.581Z</time></trkpt><trkpt lat="41.0034358" lon="16.7917444"><ele>177.83333333333334</ele><time>2026-04-04T08:29:10.581Z</time></trkpt><trkpt lat="41.0033225" lon="16.7917172"><ele>177.66666666666669</ele><time>2026-04-04T08:29:12.581Z</time></trkpt><trkpt lat="41.0032497" lon="16.7917004"><ele>177.5</ele><time>2026-04-04T08:29:13.581Z</time></trkpt><trkpt lat="41.0031746" lon="16.7916821"><ele>177.33333333333334</ele><time>2026-04-04T08:29:14.581Z</time></trkpt><trkpt lat="41.0030928" lon="16.7916557"><ele>177.16666666666666</ele><time>2026-04-04T08:29:15.581Z</time></trkpt><trkpt lat="41.0029984" lon="16.7916287"><ele>177.0</ele><time>2026-04-04T08:29:16.582Z</time></trkpt><trkpt lat="41.0029036" lon="16.7916045"><ele>177.0</ele><time>2026-04-04T08:29:17.582Z</time></trkpt><trkpt lat="41.0028049" lon="16.7915791"><ele>177.0</ele><time>2026-04-04T08:29:18.582Z</time></trkpt><trkpt lat="41.0027007" lon="16.7915529"><ele>177.0</ele><time>2026-04-04T08:29:19.582Z</time></trkpt><trkpt lat="41.0025889" lon="16.7915263"><ele>177.0</ele><time>2026-04-04T08:29:20.582Z</time></trkpt><trkpt lat="41.002475" lon="16.7914966"><ele>177.0</ele><time>2026-04-04T08:29:21.582Z</time></trkpt><trkpt lat="41.0023596" lon="16.7914676"><ele>177.5</ele><time>2026-04-04T08:29:22.581Z</time></trkpt><trkpt lat="41.0022431" lon="16.7914375"><ele>178.0</ele><time>2026-04-04T08:29:23.581Z</time></trkpt><trkpt lat="41.0021249" lon="16.7914086"><ele>178.5</ele><time>2026-04-04T08:29:24.581Z</time></trkpt><trkpt lat="41.0020054" lon="16.7913819"><ele>179.0</ele><time>2026-04-04T08:29:25.582Z</time></trkpt><trkpt lat="41.001883" lon="16.7913528"><ele>179.0</ele><time>2026-04-04T08:29:26.582Z</time></trkpt><trkpt lat="41.0017583" lon="16.7913229"><ele>179.0</ele><time>2026-04-04T08:29:27.581Z</time></trkpt><trkpt lat="41.0016177" lon="16.791288"><ele>179.0</ele><time>2026-04-04T08:29:28.581Z</time></trkpt><trkpt lat="41.00147" lon="16.7912544"><ele>179.0</ele><time>2026-04-04T08:29:29.581Z</time></trkpt><trkpt lat="41.0013214" lon="16.791219"><ele>179.33333333333331</ele><time>2026-04-04T08:29:30.581Z</time></trkpt><trkpt lat="41.0011702" lon="16.791184"><ele>179.66666666666666</ele><time>2026-04-04T08:29:31.581Z</time></trkpt><trkpt lat="41.0010227" lon="16.7911452"><ele>180.0</ele><time>2026-04-04T08:29:32.581Z</time></trkpt><trkpt lat="41.0008769" lon="16.7911084"><ele>180.25</ele><time>2026-04-04T08:29:33.581Z</time></trkpt><trkpt lat="41.0007321" lon="16.7910778"><ele>180.5</ele><time>2026-04-04T08:29:34.581Z</time></trkpt><trkpt lat="41.0005909" lon="16.7910465"><ele>180.75</ele><time>2026-04-04T08:29:35.581Z</time></trkpt><trkpt lat="41.0004467" lon="16.7910116"><ele>181.0</ele><time>2026-04-04T08:29:36.582Z</time></trkpt><trkpt lat="41.0002972" lon="16.7909732"><ele>180.0</ele><time>2026-04-04T08:29:37.581Z</time></trkpt><trkpt lat="41.0001401" lon="16.7909348"><ele>179.0</ele><time>2026-04-04T08:29:38.581Z</time></trkpt><trkpt lat="40.9999833" lon="16.7908977"><ele>178.0</ele><time>2026-04-04T08:29:39.581Z</time></trkpt><trkpt lat="40.9998369" lon="16.7908631"><ele>178.0</ele><time>2026-04-04T08:29:40.581Z</time></trkpt><trkpt lat="40.9996988" lon="16.7908303"><ele>178.0</ele><time>2026-04-04T08:29:41.581Z</time></trkpt><trkpt lat="40.9995666" lon="16.790799"><ele>178.0</ele><time>2026-04-04T08:29:42.581Z</time></trkpt><trkpt lat="40.9994386" lon="16.7907717"><ele>178.0</ele><time>2026-04-04T08:29:43.581Z</time></trkpt><trkpt lat="40.9993183" lon="16.7907526"><ele>178.0</ele><time>2026-04-04T08:29:44.581Z</time></trkpt><trkpt lat="40.9992056" lon="16.7907399"><ele>178.0</ele><time>2026-04-04T08:29:45.581Z</time></trkpt><trkpt lat="40.9991019" lon="16.7907292"><ele>178.0</ele><time>2026-04-04T08:29:46.582Z</time></trkpt><trkpt lat="40.9990107" lon="16.7907264"><ele>178.0</ele><time>2026-04-04T08:29:47.581Z</time></trkpt><trkpt lat="40.9989334" lon="16.7907249"><ele>178.0</ele><time>2026-04-04T08:29:48.581Z</time></trkpt><trkpt lat="40.9988431" lon="16.7906722"><ele>178.2</ele><time>2026-04-04T08:29:50.581Z</time></trkpt><trkpt lat="40.9988453" lon="16.7905821"><ele>178.4</ele><time>2026-04-04T08:29:52.581Z</time></trkpt><trkpt lat="40.9989463" lon="16.7904514"><ele>178.6</ele><time>2026-04-04T08:29:54.581Z</time></trkpt><trkpt lat="40.9990099" lon="16.7903736"><ele>178.79999999999998</ele><time>2026-04-04T08:29:55.582Z</time></trkpt><trkpt lat="40.9990785" lon="16.790311"><ele>179.0</ele><time>2026-04-04T08:29:56.581Z</time></trkpt><trkpt lat="40.9991569" lon="16.7902642"><ele>178.83333333333331</ele><time>2026-04-04T08:29:57.581Z</time></trkpt><trkpt lat="40.9992493" lon="16.7902316"><ele>178.66666666666666</ele><time>2026-04-04T08:29:58.582Z</time></trkpt><trkpt lat="40.9993412" lon="16.7902099"><ele>178.5</ele><time>2026-04-04T08:29:59.581Z</time></trkpt><trkpt lat="40.9994189" lon="16.7901964"><ele>178.33333333333334</ele><time>2026-04-04T08:30:00.581Z</time></trkpt><trkpt lat="40.9994868" lon="16.7901861"><ele>178.16666666666669</ele><time>2026-04-04T08:30:01.581Z</time></trkpt><trkpt lat="40.9995505" lon="16.790187"><ele>178.0</ele><time>2026-04-04T08:30:02.581Z</time></trkpt><trkpt lat="40.9996474" lon="16.7901195"><ele>178.0</ele><time>2026-04-04T08:30:04.581Z</time></trkpt><trkpt lat="40.9996724" lon="16.7900004"><ele>178.0</ele><time>2026-04-04T08:30:06.582Z</time></trkpt><trkpt lat="40.9997283" lon="16.7899387"><ele>178.0</ele><time>2026-04-04T08:30:08.581Z</time></trkpt><trkpt lat="40.9998428" lon="16.7899114"><ele>178.0</ele><time>2026-04-04T08:30:10.582Z</time></trkpt><trkpt lat="40.9999219" lon="16.7898263"><ele>178.0</ele><time>2026-04-04T08:30:12.581Z</time></trkpt><trkpt lat="40.9999421" lon="16.7896669"><ele>178.0</ele><time>2026-04-04T08:30:14.582Z</time></trkpt><trkpt lat="40.9999462" lon="16.7895591"><ele>178.0</ele><time>2026-04-04T08:30:15.581Z</time></trkpt><trkpt lat="40.9999499" lon="16.7894124"><ele>178.0</ele><time>2026-04-04T08:30:16.582Z</time></trkpt><trkpt lat="40.9999608" lon="16.7892557"><ele>178.0</ele><time>2026-04-04T08:30:17.581Z</time></trkpt><trkpt lat="40.9999734" lon="16.7890839"><ele>178.0</ele><time>2026-04-04T08:30:18.582Z</time></trkpt><trkpt lat="40.9999847" lon="16.7889127"><ele>177.8</ele><time>2026-04-04T08:30:19.581Z</time></trkpt><trkpt lat="40.999999" lon="16.7887576"><ele>177.60000000000002</ele><time>2026-04-04T08:30:20.582Z</time></trkpt><trkpt lat="41.0000151" lon="16.7886173"><ele>177.39999999999998</ele><time>2026-04-04T08:30:21.581Z</time></trkpt><trkpt lat="41.0000189" lon="16.7884918"><ele>177.2</ele><time>2026-04-04T08:30:22.581Z</time></trkpt><trkpt lat="41.0000132" lon="16.7883674"><ele>177.0</ele><time>2026-04-04T08:30:23.581Z</time></trkpt><trkpt lat="41.0000148" lon="16.7882381"><ele>176.75</ele><time>2026-04-04T08:30:24.581Z</time></trkpt><trkpt lat="41.0000406" lon="16.788104"><ele>176.5</ele><time>2026-04-04T08:30:25.583Z</time></trkpt><trkpt lat="41.0000814" lon="16.787961"><ele>176.25</ele><time>2026-04-04T08:30:26.581Z</time></trkpt><trkpt lat="41.0001238" lon="16.7878119"><ele>176.0</ele><time>2026-04-04T08:30:27.581Z</time></trkpt><trkpt lat="41.0001597" lon="16.7876736"><ele>175.8</ele><time>2026-04-04T08:30:28.583Z</time></trkpt><trkpt lat="41.0001803" lon="16.7875416"><ele>175.60000000000002</ele><time>2026-04-04T08:30:29.581Z</time></trkpt><trkpt lat="41.0001858" lon="16.7873978"><ele>175.4</ele><time>2026-04-04T08:30:30.582Z</time></trkpt><trkpt lat="41.0001813" lon="16.7872486"><ele>175.2</ele><time>2026-04-04T08:30:31.581Z</time></trkpt><trkpt lat="41.0001732" lon="16.787105"><ele>175.0</ele><time>2026-04-04T08:30:32.581Z</time></trkpt><trkpt lat="41.0001674" lon="16.7869607"><ele>174.8</ele><time>2026-04-04T08:30:33.581Z</time></trkpt><trkpt lat="41.0001593" lon="16.786816"><ele>174.6</ele><time>2026-04-04T08:30:34.582Z</time></trkpt><trkpt lat="41.0001463" lon="16.7866714"><ele>174.39999999999998</ele><time>2026-04-04T08:30:35.581Z</time></trkpt><trkpt lat="41.0001299" lon="16.7865258"><ele>174.2</ele><time>2026-04-04T08:30:36.581Z</time></trkpt><trkpt lat="41.0001109" lon="16.7863917"><ele>174.0</ele><time>2026-04-04T08:30:37.581Z</time></trkpt><trkpt lat="41.0000856" lon="16.7862555"><ele>174.0</ele><time>2026-04-04T08:30:38.581Z</time></trkpt><trkpt lat="41.0000566" lon="16.786123"><ele>174.0</ele><time>2026-04-04T08:30:39.583Z</time></trkpt><trkpt lat="41.0000409" lon="16.785978"><ele>174.0</ele><time>2026-04-04T08:30:40.581Z</time></trkpt><trkpt lat="41.0000376" lon="16.7858123"><ele>174.0</ele><time>2026-04-04T08:30:41.583Z</time></trkpt><trkpt lat="41.0000484" lon="16.7856457"><ele>173.0</ele><time>2026-04-04T08:30:42.581Z</time></trkpt><trkpt lat="41.0000744" lon="16.7854815"><ele>172.0</ele><time>2026-04-04T08:30:43.582Z</time></trkpt><trkpt lat="41.0001143" lon="16.7852995"><ele>171.0</ele><time>2026-04-04T08:30:44.581Z</time></trkpt><trkpt lat="41.0001573" lon="16.785116"><ele>170.0</ele><time>2026-04-04T08:30:45.581Z</time></trkpt><trkpt lat="41.0001998" lon="16.7849553"><ele>170.25</ele><time>2026-04-04T08:30:46.581Z</time></trkpt><trkpt lat="41.0002323" lon="16.7848002"><ele>170.5</ele><time>2026-04-04T08:30:47.581Z</time></trkpt><trkpt lat="41.0002524" lon="16.7846462"><ele>170.75</ele><time>2026-04-04T08:30:48.581Z</time></trkpt><trkpt lat="41.0002655" lon="16.7844809"><ele>171.0</ele><time>2026-04-04T08:30:49.581Z</time></trkpt><trkpt lat="41.0002706" lon="16.784305"><ele>171.0</ele><time>2026-04-04T08:30:50.581Z</time></trkpt><trkpt lat="41.0002702" lon="16.7841214"><ele>171.0</ele><time>2026-04-04T08:30:51.581Z</time></trkpt><trkpt lat="41.0002685" lon="16.7839379"><ele>171.0</ele><time>2026-04-04T08:30:52.581Z</time></trkpt><trkpt lat="41.0002652" lon="16.7837737"><ele>171.0</ele><time>2026-04-04T08:30:53.581Z</time></trkpt><trkpt lat="41.0002645" lon="16.7836299"><ele>170.66666666666666</ele><time>2026-04-04T08:30:54.581Z</time></trkpt><trkpt lat="41.0002666" lon="16.7835111"><ele>170.33333333333334</ele><time>2026-04-04T08:30:55.581Z</time></trkpt><trkpt lat="41.0002745" lon="16.7834015"><ele>170.0</ele><time>2026-04-04T08:30:56.581Z</time></trkpt><trkpt lat="41.0002846" lon="16.7833056"><ele>169.66666666666669</ele><time>2026-04-04T08:30:57.581Z</time></trkpt><trkpt lat="41.0002963" lon="16.7832018"><ele>169.33333333333334</ele><time>2026-04-04T08:30:59.581Z</time></trkpt><trkpt lat="41.0003179" lon="16.783045"><ele>169.0</ele><time>2026-04-04T08:31:06.581Z</time></trkpt><trkpt lat="41.0003612" lon="16.782963"><ele>169.0</ele><time>2026-04-04T08:31:08.582Z</time></trkpt><trkpt lat="41.0004559" lon="16.7829736"><ele>169.0</ele><time>2026-04-04T08:31:10.581Z</time></trkpt><trkpt lat="41.000529" lon="16.7830189"><ele>169.0</ele><time>2026-04-04T08:31:11.581Z</time></trkpt><trkpt lat="41.0005981" lon="16.7830388"><ele>169.0</ele><time>2026-04-04T08:31:12.581Z</time></trkpt><trkpt lat="41.000682" lon="16.7830483"><ele>169.0</ele><time>2026-04-04T08:31:13.582Z</time></trkpt><trkpt lat="41.0007747" lon="16.7830674"><ele>169.0</ele><time>2026-04-04T08:31:14.581Z</time></trkpt><trkpt lat="41.0008465" lon="16.7831048"><ele>168.79999999999998</ele><time>2026-04-04T08:31:15.581Z</time></trkpt><trkpt lat="41.0009645" lon="16.7831466"><ele>168.6</ele><time>2026-04-04T08:31:17.581Z</time></trkpt><trkpt lat="41.0010604" lon="16.7831154"><ele>168.4</ele><time>2026-04-04T08:31:19.581Z</time></trkpt><trkpt lat="41.0011166" lon="16.7829813"><ele>168.2</ele><time>2026-04-04T08:31:21.582Z</time></trkpt><trkpt lat="41.0011371" lon="16.7828629"><ele>168.0</ele><time>2026-04-04T08:31:22.581Z</time></trkpt><trkpt lat="41.0011659" lon="16.7827313"><ele>167.8</ele><time>2026-04-04T08:31:23.581Z</time></trkpt><trkpt lat="41.0012001" lon="16.782597"><ele>167.60000000000002</ele><time>2026-04-04T08:31:24.581Z</time></trkpt><trkpt lat="41.0012384" lon="16.7824782"><ele>167.39999999999998</ele><time>2026-04-04T08:31:25.581Z</time></trkpt><trkpt lat="41.001296" lon="16.782351"><ele>167.2</ele><time>2026-04-04T08:31:26.581Z</time></trkpt><trkpt lat="41.0013561" lon="16.7822353"><ele>167.0</ele><time>2026-04-04T08:31:27.582Z</time></trkpt><trkpt lat="41.0014148" lon="16.7821356"><ele>167.0</ele><time>2026-04-04T08:31:28.581Z</time></trkpt><trkpt lat="41.0014963" lon="16.7820394"><ele>167.0</ele><time>2026-04-04T08:31:29.581Z</time></trkpt><trkpt lat="41.0015802" lon="16.7819453"><ele>167.0</ele><time>2026-04-04T08:31:30.581Z</time></trkpt><trkpt lat="41.001655" lon="16.7818702"><ele>167.0</ele><time>2026-04-04T08:31:31.581Z</time></trkpt><trkpt lat="41.0017293" lon="16.7818097"><ele>167.0</ele><time>2026-04-04T08:31:32.581Z</time></trkpt><trkpt lat="41.0018079" lon="16.781737"><ele>167.2</ele><time>2026-04-04T08:31:33.581Z</time></trkpt><trkpt lat="41.0018905" lon="16.78164"><ele>167.39999999999998</ele><time>2026-04-04T08:31:34.581Z</time></trkpt><trkpt lat="41.0019771" lon="16.7815384"><ele>167.60000000000002</ele><time>2026-04-04T08:31:35.581Z</time></trkpt><trkpt lat="41.0020564" lon="16.7814443"><ele>167.8</ele><time>2026-04-04T08:31:36.582Z</time></trkpt><trkpt lat="41.0021237" lon="16.7813602"><ele>168.0</ele><time>2026-04-04T08:31:37.581Z</time></trkpt><trkpt lat="41.0021818" lon="16.7812866"><ele>168.0</ele><time>2026-04-04T08:31:38.581Z</time></trkpt><trkpt lat="41.0022311" lon="16.7812277"><ele>168.0</ele><time>2026-04-04T08:31:39.582Z</time></trkpt><trkpt lat="41.0023471" lon="16.7811792"><ele>168.0</ele><time>2026-04-04T08:31:41.581Z</time></trkpt><trkpt lat="41.0024239" lon="16.7811812"><ele>168.0</ele><time>2026-04-04T08:31:42.581Z</time></trkpt><trkpt lat="41.0025198" lon="16.7811882"><ele>168.0</ele><time>2026-04-04T08:31:43.581Z</time></trkpt><trkpt lat="41.0026323" lon="16.7811872"><ele>168.5</ele><time>2026-04-04T08:31:44.581Z</time></trkpt><trkpt lat="41.002766" lon="16.7811919"><ele>169.0</ele><time>2026-04-04T08:31:45.581Z</time></trkpt><trkpt lat="41.0028808" lon="16.7812008"><ele>169.5</ele><time>2026-04-04T08:31:46.581Z</time></trkpt><trkpt lat="41.0029946" lon="16.7812082"><ele>170.0</ele><time>2026-04-04T08:31:47.581Z</time></trkpt><trkpt lat="41.0031112" lon="16.781224"><ele>170.0</ele><time>2026-04-04T08:31:48.582Z</time></trkpt><trkpt lat="41.0032044" lon="16.7812338"><ele>170.0</ele><time>2026-04-04T08:31:49.581Z</time></trkpt><trkpt lat="41.0032811" lon="16.7812382"><ele>170.0</ele><time>2026-04-04T08:31:50.581Z</time></trkpt><trkpt lat="41.0033482" lon="16.7812388"><ele>170.0</ele><time>2026-04-04T08:31:51.581Z</time></trkpt><trkpt lat="41.003414" lon="16.7812192"><ele>170.0</ele><time>2026-04-04T08:31:52.581Z</time></trkpt><trkpt lat="41.0034843" lon="16.7811909"><ele>170.0</ele><time>2026-04-04T08:31:53.581Z</time></trkpt><trkpt lat="41.0035567" lon="16.7811673"><ele>170.14285714285714</ele><time>2026-04-04T08:31:54.581Z</time></trkpt><trkpt lat="41.003621" lon="16.7811601"><ele>170.28571428571428</ele><time>2026-04-04T08:31:55.581Z</time></trkpt><trkpt lat="41.0036855" lon="16.7811584"><ele>170.42857142857142</ele><time>2026-04-04T08:31:56.581Z</time></trkpt><trkpt lat="41.0037585" lon="16.78114"><ele>170.57142857142856</ele><time>2026-04-04T08:31:57.581Z</time></trkpt><trkpt lat="41.0038369" lon="16.7811154"><ele>170.71428571428572</ele><time>2026-04-04T08:31:58.581Z</time></trkpt><trkpt lat="41.0039153" lon="16.7810975"><ele>170.85714285714283</ele><time>2026-04-04T08:31:59.581Z</time></trkpt><trkpt lat="41.003983" lon="16.7810705"><ele>171.0</ele><time>2026-04-04T08:32:00.581Z</time></trkpt><trkpt lat="41.0040469" lon="16.7810516"><ele>171.0</ele><time>2026-04-04T08:32:01.581Z</time></trkpt><trkpt lat="41.0041505" lon="16.7810522"><ele>171.0</ele><time>2026-04-04T08:32:03.581Z</time></trkpt><trkpt lat="41.004248" lon="16.7810422"><ele>171.0</ele><time>2026-04-04T08:32:05.582Z</time></trkpt><trkpt lat="41.0043623" lon="16.7810386"><ele>171.0</ele><time>2026-04-04T08:32:07.581Z</time></trkpt><trkpt lat="41.0044276" lon="16.7810289"><ele>171.0</ele><time>2026-04-04T08:32:08.581Z</time></trkpt><trkpt lat="41.0045351" lon="16.7810263"><ele>170.60000000000002</ele><time>2026-04-04T08:32:10.581Z</time></trkpt><trkpt lat="41.0046406" lon="16.7810225"><ele>170.2</ele><time>2026-04-04T08:32:12.581Z</time></trkpt><trkpt lat="41.0047416" lon="16.7810487"><ele>169.8</ele><time>2026-04-04T08:32:14.582Z</time></trkpt><trkpt lat="41.0048225" lon="16.7810778"><ele>169.39999999999998</ele><time>2026-04-04T08:32:16.581Z</time></trkpt><trkpt lat="41.0049085" lon="16.7811164"><ele>169.0</ele><time>2026-04-04T08:32:18.581Z</time></trkpt><trkpt lat="41.0049781" lon="16.7811899"><ele>169.0</ele><time>2026-04-04T08:32:20.581Z</time></trkpt><trkpt lat="41.0050278" lon="16.7812883"><ele>169.0</ele><time>2026-04-04T08:32:23.581Z</time></trkpt><trkpt lat="41.00508" lon="16.7813465"><ele>169.0</ele><time>2026-04-04T08:32:26.581Z</time></trkpt><trkpt lat="41.0051753" lon="16.7814714"><ele>169.0</ele><time>2026-04-04T08:32:28.582Z</time></trkpt><trkpt lat="41.0052419" lon="16.7815518"><ele>169.0</ele><time>2026-04-04T08:32:29.581Z</time></trkpt><trkpt lat="41.0053108" lon="16.7816378"><ele>169.0</ele><time>2026-04-04T08:32:30.581Z</time></trkpt><trkpt lat="41.00536" lon="16.7817219"><ele>169.0</ele><time>2026-04-04T08:32:31.581Z</time></trkpt><trkpt lat="41.0054045" lon="16.7818064"><ele>169.0</ele><time>2026-04-04T08:32:32.581Z</time></trkpt><trkpt lat="41.005473" lon="16.7818938"><ele>169.0</ele><time>2026-04-04T08:32:33.582Z</time></trkpt><trkpt lat="41.0055531" lon="16.781988"><ele>169.0</ele><time>2026-04-04T08:32:34.581Z</time></trkpt><trkpt lat="41.0056216" lon="16.7820943"><ele>169.33333333333334</ele><time>2026-04-04T08:32:35.581Z</time></trkpt><trkpt lat="41.0056898" lon="16.7822005"><ele>169.66666666666669</ele><time>2026-04-04T08:32:36.581Z</time></trkpt><trkpt lat="41.0057436" lon="16.7822807"><ele>170.0</ele><time>2026-04-04T08:32:37.581Z</time></trkpt><trkpt lat="41.0057934" lon="16.7823424"><ele>170.33333333333334</ele><time>2026-04-04T08:32:38.582Z</time></trkpt><trkpt lat="41.0058453" lon="16.7823921"><ele>170.66666666666666</ele><time>2026-04-04T08:32:39.581Z</time></trkpt><trkpt lat="41.0059008" lon="16.7824482"><ele>171.0</ele><time>2026-04-04T08:32:40.582Z</time></trkpt><trkpt lat="41.0059683" lon="16.7825252"><ele>170.0</ele><time>2026-04-04T08:32:41.581Z</time></trkpt><trkpt lat="41.0060484" lon="16.7826176"><ele>169.0</ele><time>2026-04-04T08:32:42.581Z</time></trkpt><trkpt lat="41.0061369" lon="16.7827156"><ele>168.0</ele><time>2026-04-04T08:32:43.581Z</time></trkpt><trkpt lat="41.0062267" lon="16.7828285"><ele>167.0</ele><time>2026-04-04T08:32:44.581Z</time></trkpt><trkpt lat="41.0063236" lon="16.7829482"><ele>167.0</ele><time>2026-04-04T08:32:45.581Z</time></trkpt><trkpt lat="41.0064211" lon="16.7830684"><ele>167.0</ele><time>2026-04-04T08:32:46.581Z</time></trkpt><trkpt lat="41.0065089" lon="16.7831682"><ele>167.0</ele><time>2026-04-04T08:32:47.581Z</time></trkpt><trkpt lat="41.0065961" lon="16.7832642"><ele>167.0</ele><time>2026-04-04T08:32:48.581Z</time></trkpt><trkpt lat="41.0066764" lon="16.7833508"><ele>167.0</ele><time>2026-04-04T08:32:49.581Z</time></trkpt><trkpt lat="41.0067394" lon="16.783428"><ele>167.0</ele><time>2026-04-04T08:32:50.582Z</time></trkpt><trkpt lat="41.0067896" lon="16.7835082"><ele>167.0</ele><time>2026-04-04T08:32:51.581Z</time></trkpt><trkpt lat="41.0068908" lon="16.7835925"><ele>167.0</ele><time>2026-04-04T08:32:53.581Z</time></trkpt><trkpt lat="41.0069701" lon="16.7836132"><ele>167.0</ele><time>2026-04-04T08:32:54.581Z</time></trkpt><trkpt lat="41.0070688" lon="16.7836211"><ele>167.0</ele><time>2026-04-04T08:32:55.581Z</time></trkpt><trkpt lat="41.007179" lon="16.7836331"><ele>167.0</ele><time>2026-04-04T08:32:56.582Z</time></trkpt><trkpt lat="41.0072737" lon="16.7836632"><ele>167.0</ele><time>2026-04-04T08:32:57.581Z</time></trkpt><trkpt lat="41.0073492" lon="16.7836954"><ele>167.0</ele><time>2026-04-04T08:32:58.581Z</time></trkpt><trkpt lat="41.0074565" lon="16.783741"><ele>167.0</ele><time>2026-04-04T08:33:00.582Z</time></trkpt><trkpt lat="41.0075428" lon="16.7837791"><ele>166.83333333333331</ele><time>2026-04-04T08:33:02.582Z</time></trkpt><trkpt lat="41.0076518" lon="16.7838311"><ele>166.66666666666666</ele><time>2026-04-04T08:33:04.582Z</time></trkpt><trkpt lat="41.0077278" lon="16.7838664"><ele>166.5</ele><time>2026-04-04T08:33:06.581Z</time></trkpt><trkpt lat="41.0078021" lon="16.783905"><ele>166.33333333333334</ele><time>2026-04-04T08:33:09.581Z</time></trkpt><trkpt lat="41.0078345" lon="16.7839827"><ele>166.16666666666669</ele><time>2026-04-04T08:33:12.581Z</time></trkpt><trkpt lat="41.007804" lon="16.7841006"><ele>166.0</ele><time>2026-04-04T08:33:14.581Z</time></trkpt><trkpt lat="41.0077908" lon="16.7842028"><ele>166.0</ele><time>2026-04-04T08:33:16.582Z</time></trkpt><trkpt lat="41.0077754" lon="16.7843036"><ele>166.0</ele><time>2026-04-04T08:33:18.581Z</time></trkpt><trkpt lat="41.0077619" lon="16.7844148"><ele>166.0</ele><time>2026-04-04T08:33:20.581Z</time></trkpt><trkpt lat="41.0077403" lon="16.7845244"><ele>166.0</ele><time>2026-04-04T08:33:22.581Z</time></trkpt><trkpt lat="41.0077173" lon="16.7846382"><ele>166.0</ele><time>2026-04-04T08:33:24.582Z</time></trkpt><trkpt lat="41.0077009" lon="16.7847471"><ele>166.0</ele><time>2026-04-04T08:33:26.581Z</time></trkpt><trkpt lat="41.0076776" lon="16.7848487"><ele>166.0</ele><time>2026-04-04T08:33:28.581Z</time></trkpt><trkpt lat="41.0076637" lon="16.7849479"><ele>166.0</ele><time>2026-04-04T08:33:30.581Z</time></trkpt><trkpt lat="41.0076494" lon="16.7850527"><ele>166.0</ele><time>2026-04-04T08:33:32.581Z</time></trkpt><trkpt lat="41.0076356" lon="16.7851711"><ele>166.0</ele><time>2026-04-04T08:33:34.582Z</time></trkpt><trkpt lat="41.0076227" lon="16.785264"><ele>166.0</ele><time>2026-04-04T08:33:36.582Z</time></trkpt><trkpt lat="41.0076043" lon="16.7853585"><ele>166.0</ele><time>2026-04-04T08:33:38.581Z</time></trkpt><trkpt lat="41.0075878" lon="16.7854475"><ele>166.0</ele><time>2026-04-04T08:33:40.581Z</time></trkpt><trkpt lat="41.0075722" lon="16.7855436"><ele>166.0</ele><time>2026-04-04T08:33:43.582Z</time></trkpt><trkpt lat="41.0075608" lon="16.7856513"><ele>166.0</ele><time>2026-04-04T08:33:47.581Z</time></trkpt><trkpt lat="41.0075458" lon="16.7857381"><ele>166.0</ele><time>2026-04-04T08:33:50.581Z</time></trkpt><trkpt lat="41.0075338" lon="16.7858245"><ele>166.0</ele><time>2026-04-04T08:33:52.581Z</time></trkpt><trkpt lat="41.0075086" lon="16.7859423"><ele>166.0</ele><time>2026-04-04T08:33:54.581Z</time></trkpt><trkpt lat="41.0074892" lon="16.7860783"><ele>166.16666666666669</ele><time>2026-04-04T08:33:56.581Z</time></trkpt><trkpt lat="41.0074728" lon="16.7862063"><ele>166.33333333333334</ele><time>2026-04-04T08:33:58.581Z</time></trkpt><trkpt lat="41.0074547" lon="16.7863051"><ele>166.5</ele><time>2026-04-04T08:34:00.581Z</time></trkpt><trkpt lat="41.0074403" lon="16.7863978"><ele>166.66666666666666</ele><time>2026-04-04T08:34:02.581Z</time></trkpt><trkpt lat="41.0074203" lon="16.7865008"><ele>166.83333333333331</ele><time>2026-04-04T08:34:04.581Z</time></trkpt><trkpt lat="41.0073975" lon="16.7866103"><ele>167.0</ele><time>2026-04-04T08:34:06.581Z</time></trkpt><trkpt lat="41.0073807" lon="16.7867108"><ele>167.0</ele><time>2026-04-04T08:34:08.581Z</time></trkpt><trkpt lat="41.0073702" lon="16.7868128"><ele>167.0</ele><time>2026-04-04T08:34:11.581Z</time></trkpt><trkpt lat="41.0073716" lon="16.7869321"><ele>167.0</ele><time>2026-04-04T08:34:13.581Z</time></trkpt><trkpt lat="41.0074191" lon="16.7870791"><ele>167.0</ele><time>2026-04-04T08:34:15.581Z</time></trkpt><trkpt lat="41.0074562" lon="16.7871587"><ele>167.0</ele><time>2026-04-04T08:34:16.581Z</time></trkpt><trkpt lat="41.0075058" lon="16.7872653"><ele>166.8</ele><time>2026-04-04T08:34:18.581Z</time></trkpt><trkpt lat="41.0074938" lon="16.7873662"><ele>166.6</ele><time>2026-04-04T08:34:23.581Z</time></trkpt><trkpt lat="41.0074863" lon="16.7874916"><ele>166.4</ele><time>2026-04-04T08:34:25.581Z</time></trkpt><trkpt lat="41.0075431" lon="16.7876513"><ele>166.20000000000002</ele><time>2026-04-04T08:34:27.581Z</time></trkpt><trkpt lat="41.0075842" lon="16.7877522"><ele>166.0</ele><time>2026-04-04T08:34:28.582Z</time></trkpt><trkpt lat="41.0076433" lon="16.7878877"><ele>166.0</ele><time>2026-04-04T08:34:29.581Z</time></trkpt><trkpt lat="41.0077099" lon="16.7880475"><ele>166.0</ele><time>2026-04-04T08:34:30.581Z</time></trkpt><trkpt lat="41.0077739" lon="16.7882009"><ele>166.0</ele><time>2026-04-04T08:34:31.581Z</time></trkpt><trkpt lat="41.0078375" lon="16.788338"><ele>166.0</ele><time>2026-04-04T08:34:32.581Z</time></trkpt><trkpt lat="41.0079029" lon="16.78849"><ele>165.75</ele><time>2026-04-04T08:34:33.582Z</time></trkpt><trkpt lat="41.0079715" lon="16.7886459"><ele>165.5</ele><time>2026-04-04T08:34:34.581Z</time></trkpt><trkpt lat="41.008037" lon="16.7888166"><ele>165.25</ele><time>2026-04-04T08:34:35.581Z</time></trkpt><trkpt lat="41.0081112" lon="16.7889876"><ele>165.0</ele><time>2026-04-04T08:34:36.581Z</time></trkpt><trkpt lat="41.0081781" lon="16.7891469"><ele>165.0</ele><time>2026-04-04T08:34:37.581Z</time></trkpt><trkpt lat="41.0082317" lon="16.7892867"><ele>165.0</ele><time>2026-04-04T08:34:38.581Z</time></trkpt><trkpt lat="41.0082764" lon="16.7894094"><ele>165.0</ele><time>2026-04-04T08:34:39.582Z</time></trkpt><trkpt lat="41.0083199" lon="16.7895216"><ele>165.0</ele><time>2026-04-04T08:34:40.581Z</time></trkpt><trkpt lat="41.0083713" lon="16.7896235"><ele>165.0</ele><time>2026-04-04T08:34:41.581Z</time></trkpt><trkpt lat="41.0084302" lon="16.7897304"><ele>164.75</ele><time>2026-04-04T08:34:42.582Z</time></trkpt><trkpt lat="41.0084863" lon="16.7898424"><ele>164.5</ele><time>2026-04-04T08:34:43.581Z</time></trkpt><trkpt lat="41.0085426" lon="16.7899673"><ele>164.25</ele><time>2026-04-04T08:34:44.581Z</time></trkpt><trkpt lat="41.0085979" lon="16.7901076"><ele>164.0</ele><time>2026-04-04T08:34:45.581Z</time></trkpt><trkpt lat="41.0086562" lon="16.7902559"><ele>163.6</ele><time>2026-04-04T08:34:46.582Z</time></trkpt><trkpt lat="41.0087119" lon="16.7903849"><ele>163.2</ele><time>2026-04-04T08:34:47.581Z</time></trkpt><trkpt lat="41.0087602" lon="16.7904988"><ele>162.79999999999998</ele><time>2026-04-04T08:34:48.581Z</time></trkpt><trkpt lat="41.0088006" lon="16.7905942"><ele>162.39999999999998</ele><time>2026-04-04T08:34:49.582Z</time></trkpt><trkpt lat="41.0088347" lon="16.7906736"><ele>162.0</ele><time>2026-04-04T08:34:50.581Z</time></trkpt><trkpt lat="41.0088823" lon="16.7907903"><ele>162.0</ele><time>2026-04-04T08:34:52.581Z</time></trkpt><trkpt lat="41.0089167" lon="16.7908991"><ele>162.0</ele><time>2026-04-04T08:34:54.581Z</time></trkpt><trkpt lat="41.0089499" lon="16.790976"><ele>162.0</ele><time>2026-04-04T08:34:55.581Z</time></trkpt><trkpt lat="41.0089961" lon="16.7910739"><ele>162.0</ele><time>2026-04-04T08:34:56.582Z</time></trkpt><trkpt lat="41.0090496" lon="16.7912002"><ele>162.0</ele><time>2026-04-04T08:34:57.582Z</time></trkpt><trkpt lat="41.0091124" lon="16.7913479"><ele>161.5</ele><time>2026-04-04T08:34:58.581Z</time></trkpt><trkpt lat="41.0091793" lon="16.7914953"><ele>161.0</ele><time>2026-04-04T08:34:59.581Z</time></trkpt><trkpt lat="41.0092371" lon="16.7916229"><ele>160.5</ele><time>2026-04-04T08:35:00.581Z</time></trkpt><trkpt lat="41.0092832" lon="16.7917469"><ele>160.0</ele><time>2026-04-04T08:35:01.581Z</time></trkpt><trkpt lat="41.0093293" lon="16.7918861"><ele>160.0</ele><time>2026-04-04T08:35:02.581Z</time></trkpt><trkpt lat="41.0093968" lon="16.7920322"><ele>160.0</ele><time>2026-04-04T08:35:03.581Z</time></trkpt><trkpt lat="41.0094731" lon="16.7922088"><ele>160.0</ele><time>2026-04-04T08:35:04.581Z</time></trkpt><trkpt lat="41.0095564" lon="16.7923972"><ele>160.0</ele><time>2026-04-04T08:35:05.581Z</time></trkpt><trkpt lat="41.0096427" lon="16.7925589"><ele>159.5</ele><time>2026-04-04T08:35:06.581Z</time></trkpt><trkpt lat="41.009714" lon="16.792726"><ele>159.0</ele><time>2026-04-04T08:35:07.581Z</time></trkpt><trkpt lat="41.00978" lon="16.7928868"><ele>158.5</ele><time>2026-04-04T08:35:08.581Z</time></trkpt><trkpt lat="41.0098408" lon="16.7930293"><ele>158.0</ele><time>2026-04-04T08:35:09.581Z</time></trkpt><trkpt lat="41.0098905" lon="16.7931642"><ele>158.0</ele><time>2026-04-04T08:35:10.581Z</time></trkpt><trkpt lat="41.0099398" lon="16.7932859"><ele>158.0</ele><time>2026-04-04T08:35:11.582Z</time></trkpt><trkpt lat="41.009991" lon="16.7934015"><ele>158.0</ele><time>2026-04-04T08:35:12.582Z</time></trkpt><trkpt lat="41.0100296" lon="16.7934978"><ele>158.0</ele><time>2026-04-04T08:35:13.581Z</time></trkpt><trkpt lat="41.0100655" lon="16.7935905"><ele>158.0</ele><time>2026-04-04T08:35:14.581Z</time></trkpt><trkpt lat="41.010107" lon="16.7936743"><ele>158.0</ele><time>2026-04-04T08:35:15.581Z</time></trkpt><trkpt lat="41.0101439" lon="16.7937578"><ele>157.66666666666666</ele><time>2026-04-04T08:35:16.581Z</time></trkpt><trkpt lat="41.0101813" lon="16.7938549"><ele>157.33333333333331</ele><time>2026-04-04T08:35:17.581Z</time></trkpt><trkpt lat="41.0102231" lon="16.7939471"><ele>157.0</ele><time>2026-04-04T08:35:18.581Z</time></trkpt><trkpt lat="41.0102627" lon="16.7940353"><ele>156.66666666666666</ele><time>2026-04-04T08:35:19.581Z</time></trkpt><trkpt lat="41.0103053" lon="16.7941244"><ele>156.33333333333334</ele><time>2026-04-04T08:35:20.581Z</time></trkpt><trkpt lat="41.0103487" lon="16.7942325"><ele>156.0</ele><time>2026-04-04T08:35:21.581Z</time></trkpt><trkpt lat="41.0103958" lon="16.7943531"><ele>156.0</ele><time>2026-04-04T08:35:22.582Z</time></trkpt><trkpt lat="41.0104575" lon="16.7944846"><ele>156.0</ele><time>2026-04-04T08:35:23.581Z</time></trkpt><trkpt lat="41.0105113" lon="16.7945993"><ele>156.0</ele><time>2026-04-04T08:35:24.581Z</time></trkpt><trkpt lat="41.0105544" lon="16.7947055"><ele>156.0</ele><time>2026-04-04T08:35:25.581Z</time></trkpt><trkpt lat="41.0105944" lon="16.7948021"><ele>156.0</ele><time>2026-04-04T08:35:26.581Z</time></trkpt><trkpt lat="41.0106296" lon="16.7948771"><ele>156.0</ele><time>2026-04-04T08:35:27.581Z</time></trkpt><trkpt lat="41.0106526" lon="16.7949653"><ele>156.0</ele><time>2026-04-04T08:35:29.581Z</time></trkpt><trkpt lat="41.0106003" lon="16.7950152"><ele>156.0</ele><time>2026-04-04T08:35:32.581Z</time></trkpt><trkpt lat="41.0105926" lon="16.7951046"><ele>156.0</ele><time>2026-04-04T08:35:40.581Z</time></trkpt><trkpt lat="41.0106335" lon="16.795184"><ele>156.0</ele><time>2026-04-04T08:35:42.582Z</time></trkpt><trkpt lat="41.0106987" lon="16.7952936"><ele>156.0</ele><time>2026-04-04T08:35:44.581Z</time></trkpt><trkpt lat="41.0107694" lon="16.7954121"><ele>156.0</ele><time>2026-04-04T08:35:46.581Z</time></trkpt><trkpt lat="41.0108123" lon="16.7954954"><ele>156.0</ele><time>2026-04-04T08:35:47.581Z</time></trkpt><trkpt lat="41.0108623" lon="16.7955911"><ele>156.0</ele><time>2026-04-04T08:35:48.581Z</time></trkpt><trkpt lat="41.0109016" lon="16.795667"><ele>156.0</ele><time>2026-04-04T08:35:49.581Z</time></trkpt><trkpt lat="41.0109733" lon="16.7957877"><ele>156.0</ele><time>2026-04-04T08:35:51.581Z</time></trkpt><trkpt lat="41.0110351" lon="16.7958954"><ele>155.6</ele><time>2026-04-04T08:35:53.581Z</time></trkpt><trkpt lat="41.0111114" lon="16.7960266"><ele>155.2</ele><time>2026-04-04T08:35:55.581Z</time></trkpt><trkpt lat="41.0111501" lon="16.7960938"><ele>154.8</ele><time>2026-04-04T08:35:56.581Z</time></trkpt><trkpt lat="41.0112015" lon="16.7962096"><ele>154.4</ele><time>2026-04-04T08:35:58.581Z</time></trkpt><trkpt lat="41.0111629" lon="16.7962972"><ele>154.0</ele><time>2026-04-04T08:36:01.581Z</time></trkpt><trkpt lat="41.0110598" lon="16.7962936"><ele>154.0</ele><time>2026-04-04T08:36:03.581Z</time></trkpt><trkpt lat="41.0109815" lon="16.7962887"><ele>154.0</ele><time>2026-04-04T08:36:04.581Z</time></trkpt><trkpt lat="41.0108895" lon="16.7962857"><ele>154.0</ele><time>2026-04-04T08:36:05.581Z</time></trkpt><trkpt lat="41.0107879" lon="16.7962925"><ele>154.0</ele><time>2026-04-04T08:36:06.581Z</time></trkpt><trkpt lat="41.0106732" lon="16.7962946"><ele>154.0</ele><time>2026-04-04T08:36:07.582Z</time></trkpt><trkpt lat="41.0105539" lon="16.7962933"><ele>154.5</ele><time>2026-04-04T08:36:08.582Z</time></trkpt><trkpt lat="41.0104282" lon="16.7962939"><ele>155.0</ele><time>2026-04-04T08:36:09.582Z</time></trkpt><trkpt lat="41.0102981" lon="16.7962914"><ele>155.5</ele><time>2026-04-04T08:36:10.581Z</time></trkpt><trkpt lat="41.0101573" lon="16.7962918"><ele>156.0</ele><time>2026-04-04T08:36:11.581Z</time></trkpt><trkpt lat="41.0100121" lon="16.7962937"><ele>156.25</ele><time>2026-04-04T08:36:12.581Z</time></trkpt><trkpt lat="41.0098632" lon="16.796295"><ele>156.5</ele><time>2026-04-04T08:36:13.581Z</time></trkpt><trkpt lat="41.0097231" lon="16.7962987"><ele>156.75</ele><time>2026-04-04T08:36:14.581Z</time></trkpt><trkpt lat="41.0095928" lon="16.7962988"><ele>157.0</ele><time>2026-04-04T08:36:15.582Z</time></trkpt><trkpt lat="41.0094777" lon="16.796299"><ele>157.0</ele><time>2026-04-04T08:36:16.581Z</time></trkpt><trkpt lat="41.0093739" lon="16.7962962"><ele>157.0</ele><time>2026-04-04T08:36:17.582Z</time></trkpt><trkpt lat="41.0092891" lon="16.7962967"><ele>157.0</ele><time>2026-04-04T08:36:18.581Z</time></trkpt><trkpt lat="41.0092245" lon="16.7963215"><ele>157.0</ele><time>2026-04-04T08:36:19.582Z</time></trkpt><trkpt lat="41.0091794" lon="16.7963981"><ele>157.0</ele><time>2026-04-04T08:36:20.581Z</time></trkpt><trkpt lat="41.0091619" lon="16.7965029"><ele>157.0</ele><time>2026-04-04T08:36:21.581Z</time></trkpt><trkpt lat="41.0091619" lon="16.796635"><ele>157.0</ele><time>2026-04-04T08:36:22.581Z</time></trkpt><trkpt lat="41.009164" lon="16.7967757"><ele>157.0</ele><time>2026-04-04T08:36:23.581Z</time></trkpt><trkpt lat="41.0091599" lon="16.7969263"><ele>157.0</ele><time>2026-04-04T08:36:24.582Z</time></trkpt><trkpt lat="41.0091496" lon="16.7970665"><ele>157.0</ele><time>2026-04-04T08:36:25.581Z</time></trkpt><trkpt lat="41.0091357" lon="16.7972143"><ele>157.0</ele><time>2026-04-04T08:36:26.581Z</time></trkpt><trkpt lat="41.0091233" lon="16.7973703"><ele>157.0</ele><time>2026-04-04T08:36:27.581Z</time></trkpt><trkpt lat="41.0091064" lon="16.7975232"><ele>157.0</ele><time>2026-04-04T08:36:28.581Z</time></trkpt><trkpt lat="41.0090837" lon="16.7976457"><ele>157.0</ele><time>2026-04-04T08:36:29.582Z</time></trkpt><trkpt lat="41.0090637" lon="16.7977365"><ele>157.0</ele><time>2026-04-04T08:36:30.581Z</time></trkpt><trkpt lat="41.0089686" lon="16.7978503"><ele>157.0</ele><time>2026-04-04T08:36:32.581Z</time></trkpt><trkpt lat="41.0088901" lon="16.7978869"><ele>156.79999999999998</ele><time>2026-04-04T08:36:33.581Z</time></trkpt><trkpt lat="41.0087969" lon="16.7979155"><ele>156.6</ele><time>2026-04-04T08:36:34.581Z</time></trkpt><trkpt lat="41.0086898" lon="16.7979418"><ele>156.39999999999998</ele><time>2026-04-04T08:36:35.581Z</time></trkpt><trkpt lat="41.0085745" lon="16.7979714"><ele>156.2</ele><time>2026-04-04T08:36:36.582Z</time></trkpt><trkpt lat="41.008452" lon="16.7980049"><ele>156.0</ele><time>2026-04-04T08:36:37.582Z</time></trkpt><trkpt lat="41.0083291" lon="16.7980369"><ele>156.4</ele><time>2026-04-04T08:36:38.581Z</time></trkpt><trkpt lat="41.0082129" lon="16.7980639"><ele>156.8</ele><time>2026-04-04T08:36:39.581Z</time></trkpt><trkpt lat="41.0081016" lon="16.7980853"><ele>157.20000000000002</ele><time>2026-04-04T08:36:40.582Z</time></trkpt><trkpt lat="41.0079962" lon="16.7981"><ele>157.6</ele><time>2026-04-04T08:36:41.581Z</time></trkpt><trkpt lat="41.0078959" lon="16.7981189"><ele>158.0</ele><time>2026-04-04T08:36:42.581Z</time></trkpt><trkpt lat="41.0077988" lon="16.7981607"><ele>158.0</ele><time>2026-04-04T08:36:43.581Z</time></trkpt><trkpt lat="41.0077074" lon="16.7982303"><ele>158.0</ele><time>2026-04-04T08:36:44.581Z</time></trkpt><trkpt lat="41.0076268" lon="16.7983106"><ele>158.0</ele><time>2026-04-04T08:36:45.581Z</time></trkpt><trkpt lat="41.0075458" lon="16.7983719"><ele>158.0</ele><time>2026-04-04T08:36:46.581Z</time></trkpt><trkpt lat="41.0074619" lon="16.798414"><ele>158.0</ele><time>2026-04-04T08:36:47.582Z</time></trkpt><trkpt lat="41.0073515" lon="16.7984199"><ele>158.75</ele><time>2026-04-04T08:36:48.581Z</time></trkpt><trkpt lat="41.0072434" lon="16.7984309"><ele>159.5</ele><time>2026-04-04T08:36:49.581Z</time></trkpt><trkpt lat="41.0071277" lon="16.7984409"><ele>160.25</ele><time>2026-04-04T08:36:50.581Z</time></trkpt><trkpt lat="41.0070055" lon="16.7984493"><ele>161.0</ele><time>2026-04-04T08:36:51.581Z</time></trkpt><trkpt lat="41.0068829" lon="16.7984663"><ele>161.0</ele><time>2026-04-04T08:36:52.581Z</time></trkpt><trkpt lat="41.0067644" lon="16.7984859"><ele>161.0</ele><time>2026-04-04T08:36:53.582Z</time></trkpt><trkpt lat="41.0066542" lon="16.7984926"><ele>161.0</ele><time>2026-04-04T08:36:54.582Z</time></trkpt><trkpt lat="41.0065471" lon="16.7984856"><ele>161.0</ele><time>2026-04-04T08:36:55.581Z</time></trkpt><trkpt lat="41.006445" lon="16.7984699"><ele>161.0</ele><time>2026-04-04T08:36:56.581Z</time></trkpt><trkpt lat="41.0063458" lon="16.798459"><ele>161.20000000000002</ele><time>2026-04-04T08:36:57.582Z</time></trkpt><trkpt lat="41.0062593" lon="16.7984687"><ele>161.4</ele><time>2026-04-04T08:36:58.581Z</time></trkpt><trkpt lat="41.0061745" lon="16.7985187"><ele>161.6</ele><time>2026-04-04T08:36:59.581Z</time></trkpt><trkpt lat="41.0060993" lon="16.7985936"><ele>161.8</ele><time>2026-04-04T08:37:00.581Z</time></trkpt><trkpt lat="41.0060281" lon="16.7986751"><ele>162.0</ele><time>2026-04-04T08:37:01.581Z</time></trkpt><trkpt lat="41.0059507" lon="16.7987371"><ele>162.0</ele><time>2026-04-04T08:37:02.581Z</time></trkpt><trkpt lat="41.0058651" lon="16.7987751"><ele>162.0</ele><time>2026-04-04T08:37:03.581Z</time></trkpt><trkpt lat="41.0057674" lon="16.7987937"><ele>162.0</ele><time>2026-04-04T08:37:04.581Z</time></trkpt><trkpt lat="41.005658" lon="16.7987906"><ele>162.0</ele><time>2026-04-04T08:37:05.582Z</time></trkpt><trkpt lat="41.0055408" lon="16.7987814"><ele>162.0</ele><time>2026-04-04T08:37:06.581Z</time></trkpt><trkpt lat="41.0054128" lon="16.7987648"><ele>162.5</ele><time>2026-04-04T08:37:07.582Z</time></trkpt><trkpt lat="41.0052751" lon="16.7987463"><ele>163.0</ele><time>2026-04-04T08:37:08.581Z</time></trkpt><trkpt lat="41.0051305" lon="16.7987279"><ele>163.5</ele><time>2026-04-04T08:37:09.581Z</time></trkpt><trkpt lat="41.0049911" lon="16.7987073"><ele>164.0</ele><time>2026-04-04T08:37:10.581Z</time></trkpt><trkpt lat="41.0048641" lon="16.7986882"><ele>165.0</ele><time>2026-04-04T08:37:11.581Z</time></trkpt><trkpt lat="41.0047453" lon="16.7986648"><ele>166.0</ele><time>2026-04-04T08:37:12.581Z</time></trkpt><trkpt lat="41.0046265" lon="16.7986335"><ele>167.0</ele><time>2026-04-04T08:37:13.581Z</time></trkpt><trkpt lat="41.0045064" lon="16.7985961"><ele>168.0</ele><time>2026-04-04T08:37:14.581Z</time></trkpt><trkpt lat="41.0043873" lon="16.7985571"><ele>168.0</ele><time>2026-04-04T08:37:15.582Z</time></trkpt><trkpt lat="41.0042774" lon="16.7985213"><ele>168.0</ele><time>2026-04-04T08:37:16.581Z</time></trkpt><trkpt lat="41.0041677" lon="16.7984864"><ele>168.0</ele><time>2026-04-04T08:37:17.581Z</time></trkpt><trkpt lat="41.0040711" lon="16.7984573"><ele>168.0</ele><time>2026-04-04T08:37:18.582Z</time></trkpt><trkpt lat="41.0039788" lon="16.7984333"><ele>168.0</ele><time>2026-04-04T08:37:19.581Z</time></trkpt><trkpt lat="41.003896" lon="16.7984137"><ele>168.16666666666666</ele><time>2026-04-04T08:37:20.581Z</time></trkpt><trkpt lat="41.0038322" lon="16.798399"><ele>168.33333333333334</ele><time>2026-04-04T08:37:21.581Z</time></trkpt><trkpt lat="41.0037427" lon="16.7983868"><ele>168.5</ele><time>2026-04-04T08:37:23.581Z</time></trkpt><trkpt lat="41.0036748" lon="16.7984071"><ele>168.66666666666669</ele><time>2026-04-04T08:37:33.581Z</time></trkpt><trkpt lat="41.0036281" lon="16.7985248"><ele>168.83333333333334</ele><time>2026-04-04T08:37:35.581Z</time></trkpt><trkpt lat="41.003619" lon="16.7986515"><ele>169.0</ele><time>2026-04-04T08:37:37.581Z</time></trkpt><trkpt lat="41.0036028" lon="16.798769"><ele>169.0</ele><time>2026-04-04T08:37:39.582Z</time></trkpt><trkpt lat="41.0035766" lon="16.7988486"><ele>169.0</ele><time>2026-04-04T08:37:41.581Z</time></trkpt><trkpt lat="41.0035798" lon="16.7989465"><ele>169.0</ele><time>2026-04-04T08:37:43.581Z</time></trkpt><trkpt lat="41.0035533" lon="16.7990281"><ele>169.0</ele><time>2026-04-04T08:37:44.582Z</time></trkpt><trkpt lat="41.0035248" lon="16.7991139"><ele>169.0</ele><time>2026-04-04T08:37:45.581Z</time></trkpt><trkpt lat="41.0035145" lon="16.7992167"><ele>169.0</ele><time>2026-04-04T08:37:46.581Z</time></trkpt><trkpt lat="41.0034959" lon="16.799321"><ele>169.0</ele><time>2026-04-04T08:37:47.581Z</time></trkpt><trkpt lat="41.0034803" lon="16.7994165"><ele>168.85714285714286</ele><time>2026-04-04T08:37:48.581Z</time></trkpt><trkpt lat="41.0034643" lon="16.7995067"><ele>168.71428571428572</ele><time>2026-04-04T08:37:49.581Z</time></trkpt><trkpt lat="41.003447" lon="16.7995938"><ele>168.57142857142856</ele><time>2026-04-04T08:37:50.581Z</time></trkpt><trkpt lat="41.0034392" lon="16.7996967"><ele>168.42857142857144</ele><time>2026-04-04T08:37:52.581Z</time></trkpt><trkpt lat="41.0034286" lon="16.7997803"><ele>168.28571428571428</ele><time>2026-04-04T08:37:53.581Z</time></trkpt><trkpt lat="41.0034068" lon="16.7998599"><ele>168.14285714285714</ele><time>2026-04-04T08:37:54.581Z</time></trkpt><trkpt lat="41.0033829" lon="16.7999735"><ele>168.0</ele><time>2026-04-04T08:37:56.581Z</time></trkpt><trkpt lat="41.0033647" lon="16.8000627"><ele>168.0</ele><time>2026-04-04T08:37:58.581Z</time></trkpt><trkpt lat="41.0033487" lon="16.8001513"><ele>168.0</ele><time>2026-04-04T08:38:00.581Z</time></trkpt><trkpt lat="41.0033293" lon="16.8002493"><ele>168.0</ele><time>2026-04-04T08:38:02.582Z</time></trkpt><trkpt lat="41.0033116" lon="16.8003368"><ele>168.0</ele><time>2026-04-04T08:38:04.581Z</time></trkpt><trkpt lat="41.0032971" lon="16.8004272"><ele>168.0</ele><time>2026-04-04T08:38:06.581Z</time></trkpt><trkpt lat="41.0032743" lon="16.8005214"><ele>168.0</ele><time>2026-04-04T08:38:08.581Z</time></trkpt><trkpt lat="41.0032578" lon="16.8006172"><ele>168.0</ele><time>2026-04-04T08:38:11.581Z</time></trkpt><trkpt lat="41.003246" lon="16.8007281"><ele>168.33333333333334</ele><time>2026-04-04T08:38:14.581Z</time></trkpt><trkpt lat="41.0032676" lon="16.8008269"><ele>168.66666666666666</ele><time>2026-04-04T08:38:17.581Z</time></trkpt><trkpt lat="41.0033479" lon="16.8008735"><ele>169.0</ele><time>2026-04-04T08:38:19.581Z</time></trkpt><trkpt lat="41.003415" lon="16.8008919"><ele>169.33333333333331</ele><time>2026-04-04T08:38:20.582Z</time></trkpt><trkpt lat="41.003493" lon="16.8009218"><ele>169.66666666666666</ele><time>2026-04-04T08:38:21.581Z</time></trkpt><trkpt lat="41.0035706" lon="16.8009528"><ele>170.0</ele><time>2026-04-04T08:38:22.581Z</time></trkpt><trkpt lat="41.0036477" lon="16.8009812"><ele>169.6</ele><time>2026-04-04T08:38:23.582Z</time></trkpt><trkpt lat="41.0037153" lon="16.8010102"><ele>169.2</ele><time>2026-04-04T08:38:24.581Z</time></trkpt><trkpt lat="41.0037769" lon="16.8010356"><ele>168.8</ele><time>2026-04-04T08:38:25.581Z</time></trkpt><trkpt lat="41.0038808" lon="16.8010778"><ele>168.4</ele><time>2026-04-04T08:38:27.581Z</time></trkpt><trkpt lat="41.0040084" lon="16.8011246"><ele>168.0</ele><time>2026-04-04T08:38:29.581Z</time></trkpt><trkpt lat="41.0040822" lon="16.801148"><ele>168.0</ele><time>2026-04-04T08:38:30.581Z</time></trkpt><trkpt lat="41.0041469" lon="16.80117"><ele>168.0</ele><time>2026-04-04T08:38:31.581Z</time></trkpt><trkpt lat="41.0042651" lon="16.8012125"><ele>168.0</ele><time>2026-04-04T08:38:33.582Z</time></trkpt><trkpt lat="41.0043714" lon="16.8012489"><ele>168.0</ele><time>2026-04-04T08:38:35.583Z</time></trkpt><trkpt lat="41.0044387" lon="16.801282"><ele>168.0</ele><time>2026-04-04T08:38:37.581Z</time></trkpt><trkpt lat="41.004503" lon="16.8013127"><ele>168.0</ele><time>2026-04-04T08:38:39.581Z</time></trkpt><trkpt lat="41.0045584" lon="16.801267"><ele>168.0</ele><time>2026-04-04T08:38:43.581Z</time></trkpt><trkpt lat="41.0044764" lon="16.8012467"><ele>168.0</ele><time>2026-04-04T08:38:45.581Z</time></trkpt><trkpt lat="41.0043613" lon="16.8012126"><ele>168.0</ele><time>2026-04-04T08:38:47.581Z</time></trkpt><trkpt lat="41.004298" lon="16.8011904"><ele>168.0</ele><time>2026-04-04T08:38:48.582Z</time></trkpt><trkpt lat="41.0041827" lon="16.8011536"><ele>168.0</ele><time>2026-04-04T08:38:50.581Z</time></trkpt><trkpt lat="41.0040815" lon="16.8011178"><ele>168.0</ele><time>2026-04-04T08:38:52.581Z</time></trkpt><trkpt lat="41.0039994" lon="16.801091"><ele>168.0</ele><time>2026-04-04T08:38:54.581Z</time></trkpt><trkpt lat="41.0039279" lon="16.8010682"><ele>168.0</ele><time>2026-04-04T08:38:56.581Z</time></trkpt><trkpt lat="41.0038606" lon="16.8010408"><ele>168.0</ele><time>2026-04-04T08:38:58.581Z</time></trkpt><trkpt lat="41.0037952" lon="16.8010133"><ele>168.0</ele><time>2026-04-04T08:39:00.581Z</time></trkpt><trkpt lat="41.0037306" lon="16.8010656"><ele>168.0</ele><time>2026-04-04T08:39:03.582Z</time></trkpt><trkpt lat="41.0037229" lon="16.8011775"><ele>168.0</ele><time>2026-04-04T08:39:06.581Z</time></trkpt><trkpt lat="41.0037012" lon="16.8013201"><ele>168.0</ele><time>2026-04-04T08:39:08.581Z</time></trkpt><trkpt lat="41.0036872" lon="16.8014921"><ele>168.0</ele><time>2026-04-04T08:39:10.581Z</time></trkpt><trkpt lat="41.0036906" lon="16.8015934"><ele>168.0</ele><time>2026-04-04T08:39:11.581Z</time></trkpt><trkpt lat="41.0036999" lon="16.801702"><ele>168.0</ele><time>2026-04-04T08:39:12.581Z</time></trkpt><trkpt lat="41.0037156" lon="16.801817"><ele>167.5</ele><time>2026-04-04T08:39:13.581Z</time></trkpt><trkpt lat="41.0037416" lon="16.8019334"><ele>167.0</ele><time>2026-04-04T08:39:14.581Z</time></trkpt><trkpt lat="41.0037738" lon="16.802052"><ele>166.5</ele><time>2026-04-04T08:39:15.581Z</time></trkpt><trkpt lat="41.0038061" lon="16.8021465"><ele>166.0</ele><time>2026-04-04T08:39:16.581Z</time></trkpt><trkpt lat="41.0038387" lon="16.8022309"><ele>165.5</ele><time>2026-04-04T08:39:17.581Z</time></trkpt><trkpt lat="41.0038763" lon="16.8023058"><ele>165.0</ele><time>2026-04-04T08:39:18.581Z</time></trkpt><trkpt lat="41.0039244" lon="16.802376"><ele>165.0</ele><time>2026-04-04T08:39:19.581Z</time></trkpt><trkpt lat="41.0039702" lon="16.8024604"><ele>165.0</ele><time>2026-04-04T08:39:20.581Z</time></trkpt><trkpt lat="41.0040102" lon="16.8025542"><ele>165.0</ele><time>2026-04-04T08:39:21.583Z</time></trkpt><trkpt lat="41.0040469" lon="16.802652"><ele>165.0</ele><time>2026-04-04T08:39:22.581Z</time></trkpt><trkpt lat="41.0040848" lon="16.8027576"><ele>165.0</ele><time>2026-04-04T08:39:23.581Z</time></trkpt><trkpt lat="41.0041207" lon="16.8028615"><ele>165.0</ele><time>2026-04-04T08:39:24.581Z</time></trkpt><trkpt lat="41.004159" lon="16.8029637"><ele>164.6</ele><time>2026-04-04T08:39:25.581Z</time></trkpt><trkpt lat="41.0042011" lon="16.8030782"><ele>164.2</ele><time>2026-04-04T08:39:26.581Z</time></trkpt><trkpt lat="41.0042446" lon="16.8031997"><ele>163.8</ele><time>2026-04-04T08:39:27.582Z</time></trkpt><trkpt lat="41.0042954" lon="16.803324"><ele>163.4</ele><time>2026-04-04T08:39:28.581Z</time></trkpt><trkpt lat="41.004349" lon="16.8034552"><ele>163.0</ele><time>2026-04-04T08:39:29.581Z</time></trkpt><trkpt lat="41.0044045" lon="16.803593"><ele>163.0</ele><time>2026-04-04T08:39:30.581Z</time></trkpt><trkpt lat="41.0044562" lon="16.8037214"><ele>163.0</ele><time>2026-04-04T08:39:31.581Z</time></trkpt><trkpt lat="41.0045122" lon="16.8038355"><ele>163.0</ele><time>2026-04-04T08:39:32.581Z</time></trkpt><trkpt lat="41.0045647" lon="16.8039332"><ele>163.0</ele><time>2026-04-04T08:39:33.582Z</time></trkpt><trkpt lat="41.0046155" lon="16.8040184"><ele>163.0</ele><time>2026-04-04T08:39:34.581Z</time></trkpt><trkpt lat="41.0046664" lon="16.8040958"><ele>163.0</ele><time>2026-04-04T08:39:35.581Z</time></trkpt><trkpt lat="41.0047095" lon="16.8041656"><ele>163.0</ele><time>2026-04-04T08:39:36.582Z</time></trkpt><trkpt lat="41.0047934" lon="16.8042811"><ele>163.0</ele><time>2026-04-04T08:39:38.581Z</time></trkpt><trkpt lat="41.0048767" lon="16.8043749"><ele>163.0</ele><time>2026-04-04T08:39:40.581Z</time></trkpt><trkpt lat="41.004944" lon="16.8044718"><ele>163.0</ele><time>2026-04-04T08:39:42.582Z</time></trkpt><trkpt lat="41.0049558" lon="16.8045799"><ele>163.0</ele><time>2026-04-04T08:39:44.581Z</time></trkpt><trkpt lat="41.0049918" lon="16.8046962"><ele>163.0</ele><time>2026-04-04T08:39:46.582Z</time></trkpt><trkpt lat="41.0051078" lon="16.8047833"><ele>163.0</ele><time>2026-04-04T08:39:48.582Z</time></trkpt><trkpt lat="41.0051726" lon="16.8048266"><ele>163.0</ele><time>2026-04-04T08:39:49.582Z</time></trkpt><trkpt lat="41.0052678" lon="16.8048878"><ele>163.0</ele><time>2026-04-04T08:39:51.582Z</time></trkpt><trkpt lat="41.0053322" lon="16.8049564"><ele>163.0</ele><time>2026-04-04T08:39:54.582Z</time></trkpt><trkpt lat="41.0053934" lon="16.805009"><ele>163.0</ele><time>2026-04-04T08:39:55.582Z</time></trkpt><trkpt lat="41.0054869" lon="16.8050731"><ele>163.0</ele><time>2026-04-04T08:39:56.582Z</time></trkpt><trkpt lat="41.0055608" lon="16.8051475"><ele>163.0</ele><time>2026-04-04T08:39:57.582Z</time></trkpt><trkpt lat="41.0056408" lon="16.8052205"><ele>163.0</ele><time>2026-04-04T08:39:58.583Z</time></trkpt><trkpt lat="41.0057233" lon="16.8052886"><ele>162.75</ele><time>2026-04-04T08:39:59.582Z</time></trkpt><trkpt lat="41.0058129" lon="16.805356"><ele>162.5</ele><time>2026-04-04T08:40:00.582Z</time></trkpt><trkpt lat="41.0059149" lon="16.8054208"><ele>162.25</ele><time>2026-04-04T08:40:01.582Z</time></trkpt><trkpt lat="41.0060245" lon="16.8054842"><ele>162.0</ele><time>2026-04-04T08:40:02.582Z</time></trkpt><trkpt lat="41.0061439" lon="16.805534"><ele>161.6</ele><time>2026-04-04T08:40:03.582Z</time></trkpt><trkpt lat="41.0062572" lon="16.8055619"><ele>161.2</ele><time>2026-04-04T08:40:04.583Z</time></trkpt><trkpt lat="41.0063611" lon="16.8055887"><ele>160.8</ele><time>2026-04-04T08:40:05.582Z</time></trkpt><trkpt lat="41.0064489" lon="16.805626"><ele>160.4</ele><time>2026-04-04T08:40:06.583Z</time></trkpt><trkpt lat="41.0065273" lon="16.8056655"><ele>160.0</ele><time>2026-04-04T08:40:07.582Z</time></trkpt><trkpt lat="41.0065911" lon="16.8057429"><ele>160.0</ele><time>2026-04-04T08:40:08.582Z</time></trkpt><trkpt lat="41.0066437" lon="16.8058525"><ele>160.0</ele><time>2026-04-04T08:40:09.582Z</time></trkpt><trkpt lat="41.0066919" lon="16.8060009"><ele>160.0</ele><time>2026-04-04T08:40:10.582Z</time></trkpt><trkpt lat="41.0067464" lon="16.8061673"><ele>160.0</ele><time>2026-04-04T08:40:11.582Z</time></trkpt><trkpt lat="41.006795" lon="16.8063191"><ele>159.6</ele><time>2026-04-04T08:40:12.582Z</time></trkpt><trkpt lat="41.0068409" lon="16.8064517"><ele>159.2</ele><time>2026-04-04T08:40:13.582Z</time></trkpt><trkpt lat="41.0069042" lon="16.8065628"><ele>158.8</ele><time>2026-04-04T08:40:14.583Z</time></trkpt><trkpt lat="41.0069926" lon="16.8066686"><ele>158.4</ele><time>2026-04-04T08:40:15.582Z</time></trkpt><trkpt lat="41.0070667" lon="16.8067522"><ele>158.0</ele><time>2026-04-04T08:40:16.583Z</time></trkpt><trkpt lat="41.0071412" lon="16.8068017"><ele>158.20000000000002</ele><time>2026-04-04T08:40:17.582Z</time></trkpt><trkpt lat="41.00723" lon="16.8068311"><ele>158.4</ele><time>2026-04-04T08:40:18.582Z</time></trkpt><trkpt lat="41.0073288" lon="16.8068371"><ele>158.60000000000002</ele><time>2026-04-04T08:40:19.582Z</time></trkpt><trkpt lat="41.0074388" lon="16.8068281"><ele>158.8</ele><time>2026-04-04T08:40:20.582Z</time></trkpt><trkpt lat="41.0075365" lon="16.8068125"><ele>159.0</ele><time>2026-04-04T08:40:21.582Z</time></trkpt><trkpt lat="41.0076384" lon="16.806808"><ele>159.0</ele><time>2026-04-04T08:40:22.582Z</time></trkpt><trkpt lat="41.0077428" lon="16.8068147"><ele>159.0</ele><time>2026-04-04T08:40:23.582Z</time></trkpt><trkpt lat="41.0078486" lon="16.8068318"><ele>159.0</ele><time>2026-04-04T08:40:24.582Z</time></trkpt><trkpt lat="41.0079643" lon="16.8068538"><ele>159.0</ele><time>2026-04-04T08:40:25.582Z</time></trkpt><trkpt lat="41.0080907" lon="16.8068757"><ele>159.0</ele><time>2026-04-04T08:40:26.582Z</time></trkpt><trkpt lat="41.0082267" lon="16.8069019"><ele>159.0</ele><time>2026-04-04T08:40:27.582Z</time></trkpt><trkpt lat="41.0083664" lon="16.8069303"><ele>159.0</ele><time>2026-04-04T08:40:28.582Z</time></trkpt><trkpt lat="41.0085047" lon="16.8069558"><ele>159.0</ele><time>2026-04-04T08:40:29.582Z</time></trkpt><trkpt lat="41.0086318" lon="16.8069836"><ele>158.8</ele><time>2026-04-04T08:40:30.582Z</time></trkpt><trkpt lat="41.0087447" lon="16.8070082"><ele>158.60000000000002</ele><time>2026-04-04T08:40:31.582Z</time></trkpt><trkpt lat="41.0088531" lon="16.8070306"><ele>158.4</ele><time>2026-04-04T08:40:32.582Z</time></trkpt><trkpt lat="41.0089473" lon="16.8070502"><ele>158.20000000000002</ele><time>2026-04-04T08:40:33.582Z</time></trkpt><trkpt lat="41.0090286" lon="16.8070595"><ele>158.0</ele><time>2026-04-04T08:40:34.582Z</time></trkpt><trkpt lat="41.0090996" lon="16.8070488"><ele>157.20000000000002</ele><time>2026-04-04T08:40:35.582Z</time></trkpt><trkpt lat="41.0091854" lon="16.8069318"><ele>156.4</ele><time>2026-04-04T08:40:37.582Z</time></trkpt><trkpt lat="41.0093032" lon="16.806905"><ele>155.60000000000002</ele><time>2026-04-04T08:40:39.582Z</time></trkpt><trkpt lat="41.0093747" lon="16.8069527"><ele>154.8</ele><time>2026-04-04T08:40:40.582Z</time></trkpt><trkpt lat="41.0094594" lon="16.8070029"><ele>154.0</ele><time>2026-04-04T08:40:41.582Z</time></trkpt><trkpt lat="41.0095556" lon="16.8070613"><ele>154.0</ele><time>2026-04-04T08:40:42.582Z</time></trkpt><trkpt lat="41.009653" lon="16.8071168"><ele>154.0</ele><time>2026-04-04T08:40:43.582Z</time></trkpt><trkpt lat="41.0097504" lon="16.8071656"><ele>154.0</ele><time>2026-04-04T08:40:44.582Z</time></trkpt><trkpt lat="41.0098421" lon="16.8072025"><ele>154.0</ele><time>2026-04-04T08:40:45.582Z</time></trkpt><trkpt lat="41.0099455" lon="16.8072376"><ele>154.0</ele><time>2026-04-04T08:40:46.582Z</time></trkpt><trkpt lat="41.0100608" lon="16.8072704"><ele>153.5</ele><time>2026-04-04T08:40:47.582Z</time></trkpt><trkpt lat="41.0101874" lon="16.8073002"><ele>153.0</ele><time>2026-04-04T08:40:48.582Z</time></trkpt><trkpt lat="41.0103221" lon="16.8073251"><ele>152.5</ele><time>2026-04-04T08:40:49.583Z</time></trkpt><trkpt lat="41.0104563" lon="16.8073532"><ele>152.0</ele><time>2026-04-04T08:40:50.582Z</time></trkpt><trkpt lat="41.0105729" lon="16.8073857"><ele>152.0</ele><time>2026-04-04T08:40:51.582Z</time></trkpt><trkpt lat="41.0106736" lon="16.8074134"><ele>152.0</ele><time>2026-04-04T08:40:52.582Z</time></trkpt><trkpt lat="41.010754" lon="16.8074378"><ele>152.0</ele><time>2026-04-04T08:40:53.583Z</time></trkpt><trkpt lat="41.0108398" lon="16.8075202"><ele>152.0</ele><time>2026-04-04T08:40:55.582Z</time></trkpt><trkpt lat="41.0108121" lon="16.8076884"><ele>152.0</ele><time>2026-04-04T08:40:57.583Z</time></trkpt><trkpt lat="41.0107776" lon="16.8078014"><ele>152.0</ele><time>2026-04-04T08:40:58.582Z</time></trkpt><trkpt lat="41.0107462" lon="16.8079268"><ele>152.0</ele><time>2026-04-04T08:40:59.582Z</time></trkpt><trkpt lat="41.0107089" lon="16.8080678"><ele>152.0</ele><time>2026-04-04T08:41:00.582Z</time></trkpt><trkpt lat="41.0106667" lon="16.80822"><ele>152.0</ele><time>2026-04-04T08:41:01.582Z</time></trkpt><trkpt lat="41.0106218" lon="16.8083799"><ele>152.25</ele><time>2026-04-04T08:41:02.582Z</time></trkpt><trkpt lat="41.0105774" lon="16.8085495"><ele>152.5</ele><time>2026-04-04T08:41:03.582Z</time></trkpt><trkpt lat="41.0105307" lon="16.8087158"><ele>152.75</ele><time>2026-04-04T08:41:04.582Z</time></trkpt><trkpt lat="41.0104811" lon="16.8088883"><ele>153.0</ele><time>2026-04-04T08:41:05.582Z</time></trkpt><trkpt lat="41.0104308" lon="16.8090684"><ele>153.0</ele><time>2026-04-04T08:41:06.582Z</time></trkpt><trkpt lat="41.010382" lon="16.8092499"><ele>153.0</ele><time>2026-04-04T08:41:07.582Z</time></trkpt><trkpt lat="41.0103289" lon="16.809433"><ele>153.0</ele><time>2026-04-04T08:41:08.582Z</time></trkpt><trkpt lat="41.0102751" lon="16.8096191"><ele>153.0</ele><time>2026-04-04T08:41:09.582Z</time></trkpt><trkpt lat="41.0102209" lon="16.8098094"><ele>153.0</ele><time>2026-04-04T08:41:10.582Z</time></trkpt><trkpt lat="41.0101675" lon="16.8100038"><ele>153.0</ele><time>2026-04-04T08:41:11.583Z</time></trkpt><trkpt lat="41.0101151" lon="16.8101943"><ele>153.0</ele><time>2026-04-04T08:41:12.583Z</time></trkpt><trkpt lat="41.0100655" lon="16.8103718"><ele>153.0</ele><time>2026-04-04T08:41:13.582Z</time></trkpt><trkpt lat="41.0100211" lon="16.8105297"><ele>153.0</ele><time>2026-04-04T08:41:14.582Z</time></trkpt><trkpt lat="41.0099823" lon="16.8106725"><ele>153.0</ele><time>2026-04-04T08:41:15.582Z</time></trkpt><trkpt lat="41.0099438" lon="16.8108021"><ele>153.0</ele><time>2026-04-04T08:41:16.583Z</time></trkpt><trkpt lat="41.0099094" lon="16.8109198"><ele>153.0</ele><time>2026-04-04T08:41:17.584Z</time></trkpt><trkpt lat="41.0098796" lon="16.8110204"><ele>152.83333333333334</ele><time>2026-04-04T08:41:18.582Z</time></trkpt><trkpt lat="41.0098635" lon="16.811118"><ele>152.66666666666666</ele><time>2026-04-04T08:41:19.582Z</time></trkpt><trkpt lat="41.0098627" lon="16.81121"><ele>152.5</ele><time>2026-04-04T08:41:20.582Z</time></trkpt><trkpt lat="41.0098816" lon="16.8112998"><ele>152.33333333333331</ele><time>2026-04-04T08:41:21.582Z</time></trkpt><trkpt lat="41.009924" lon="16.8113897"><ele>152.16666666666666</ele><time>2026-04-04T08:41:22.582Z</time></trkpt><trkpt lat="41.0099807" lon="16.81149"><ele>152.0</ele><time>2026-04-04T08:41:23.582Z</time></trkpt><trkpt lat="41.010049" lon="16.8115999"><ele>152.0</ele><time>2026-04-04T08:41:24.582Z</time></trkpt><trkpt lat="41.0101242" lon="16.8117211"><ele>152.0</ele><time>2026-04-04T08:41:25.583Z</time></trkpt><trkpt lat="41.0102027" lon="16.8118594"><ele>152.0</ele><time>2026-04-04T08:41:26.582Z</time></trkpt><trkpt lat="41.0102779" lon="16.8120145"><ele>152.0</ele><time>2026-04-04T08:41:27.583Z</time></trkpt><trkpt lat="41.0103508" lon="16.8121816"><ele>151.75</ele><time>2026-04-04T08:41:28.582Z</time></trkpt><trkpt lat="41.010413" lon="16.8123441"><ele>151.5</ele><time>2026-04-04T08:41:29.582Z</time></trkpt><trkpt lat="41.0104701" lon="16.8124926"><ele>151.25</ele><time>2026-04-04T08:41:30.582Z</time></trkpt><trkpt lat="41.0105143" lon="16.8126211"><ele>151.0</ele><time>2026-04-04T08:41:31.582Z</time></trkpt><trkpt lat="41.0105556" lon="16.8127321"><ele>151.0</ele><time>2026-04-04T08:41:32.582Z</time></trkpt><trkpt lat="41.010619" lon="16.8127956"><ele>151.0</ele><time>2026-04-04T08:41:33.583Z</time></trkpt><trkpt lat="41.0106986" lon="16.812828"><ele>151.0</ele><time>2026-04-04T08:41:34.582Z</time></trkpt><trkpt lat="41.0107959" lon="16.8128384"><ele>151.0</ele><time>2026-04-04T08:41:35.583Z</time></trkpt><trkpt lat="41.0109169" lon="16.8128437"><ele>151.0</ele><time>2026-04-04T08:41:36.582Z</time></trkpt><trkpt lat="41.0110438" lon="16.8128465"><ele>150.75</ele><time>2026-04-04T08:41:37.583Z</time></trkpt><trkpt lat="41.0111811" lon="16.8128557"><ele>150.5</ele><time>2026-04-04T08:41:38.582Z</time></trkpt><trkpt lat="41.0113212" lon="16.8128675"><ele>150.25</ele><time>2026-04-04T08:41:39.583Z</time></trkpt><trkpt lat="41.0114613" lon="16.8128789"><ele>150.0</ele><time>2026-04-04T08:41:40.582Z</time></trkpt><trkpt lat="41.0115943" lon="16.8128857"><ele>149.0</ele><time>2026-04-04T08:41:41.582Z</time></trkpt><trkpt lat="41.0117275" lon="16.8128942"><ele>148.0</ele><time>2026-04-04T08:41:42.582Z</time></trkpt><trkpt lat="41.0118571" lon="16.8128982"><ele>147.0</ele><time>2026-04-04T08:41:43.582Z</time></trkpt><trkpt lat="41.0119747" lon="16.8128982"><ele>146.0</ele><time>2026-04-04T08:41:44.582Z</time></trkpt><trkpt lat="41.0120719" lon="16.8128975"><ele>146.0</ele><time>2026-04-04T08:41:45.583Z</time></trkpt><trkpt lat="41.0121448" lon="16.8129041"><ele>146.0</ele><time>2026-04-04T08:41:46.582Z</time></trkpt><trkpt lat="41.0122017" lon="16.8129687"><ele>146.0</ele><time>2026-04-04T08:41:48.582Z</time></trkpt><trkpt lat="41.0121438" lon="16.8130693"><ele>146.0</ele><time>2026-04-04T08:41:51.583Z</time></trkpt><trkpt lat="41.012085" lon="16.813148"><ele>146.0</ele><time>2026-04-04T08:41:52.582Z</time></trkpt><trkpt lat="41.0120112" lon="16.8132408"><ele>146.0</ele><time>2026-04-04T08:41:53.582Z</time></trkpt><trkpt lat="41.0119282" lon="16.8133241"><ele>146.0</ele><time>2026-04-04T08:41:54.582Z</time></trkpt><trkpt lat="41.0118401" lon="16.8134124"><ele>146.0</ele><time>2026-04-04T08:41:55.582Z</time></trkpt><trkpt lat="41.0117525" lon="16.8135097"><ele>146.0</ele><time>2026-04-04T08:41:56.582Z</time></trkpt><trkpt lat="41.0116662" lon="16.8136162"><ele>146.0</ele><time>2026-04-04T08:41:57.582Z</time></trkpt><trkpt lat="41.0115788" lon="16.8137274"><ele>146.0</ele><time>2026-04-04T08:41:58.582Z</time></trkpt><trkpt lat="41.0115194" lon="16.8138113"><ele>146.0</ele><time>2026-04-04T08:41:59.582Z</time></trkpt><trkpt lat="41.0115745" lon="16.8138864"><ele>146.0</ele><time>2026-04-04T08:42:04.582Z</time></trkpt><trkpt lat="41.0116471" lon="16.8139071"><ele>146.0</ele><time>2026-04-04T08:42:05.582Z</time></trkpt><trkpt lat="41.0117373" lon="16.8139376"><ele>146.0</ele><time>2026-04-04T08:42:06.582Z</time></trkpt><trkpt lat="41.0118471" lon="16.8139745"><ele>146.0</ele><time>2026-04-04T08:42:07.582Z</time></trkpt><trkpt lat="41.011961" lon="16.8140139"><ele>146.0</ele><time>2026-04-04T08:42:08.582Z</time></trkpt><trkpt lat="41.0120624" lon="16.8140461"><ele>146.0</ele><time>2026-04-04T08:42:09.582Z</time></trkpt><trkpt lat="41.0121595" lon="16.8140761"><ele>146.0</ele><time>2026-04-04T08:42:10.582Z</time></trkpt><trkpt lat="41.0122661" lon="16.8141063"><ele>146.0</ele><time>2026-04-04T08:42:11.582Z</time></trkpt><trkpt lat="41.0123718" lon="16.8141334"><ele>146.0</ele><time>2026-04-04T08:42:12.582Z</time></trkpt><trkpt lat="41.012472" lon="16.81417"><ele>145.6</ele><time>2026-04-04T08:42:13.582Z</time></trkpt><trkpt lat="41.012567" lon="16.8142222"><ele>145.2</ele><time>2026-04-04T08:42:14.582Z</time></trkpt><trkpt lat="41.0126549" lon="16.8142747"><ele>144.8</ele><time>2026-04-04T08:42:15.582Z</time></trkpt><trkpt lat="41.0127461" lon="16.8143161"><ele>144.4</ele><time>2026-04-04T08:42:16.582Z</time></trkpt><trkpt lat="41.0128266" lon="16.8143402"><ele>144.0</ele><time>2026-04-04T08:42:17.582Z</time></trkpt><trkpt lat="41.0129015" lon="16.8143625"><ele>144.0</ele><time>2026-04-04T08:42:18.583Z</time></trkpt><trkpt lat="41.0129703" lon="16.8143854"><ele>144.0</ele><time>2026-04-04T08:42:19.582Z</time></trkpt><trkpt lat="41.0130339" lon="16.8144198"><ele>144.0</ele><time>2026-04-04T08:42:20.582Z</time></trkpt><trkpt lat="41.0131067" lon="16.814511"><ele>144.0</ele><time>2026-04-04T08:42:22.582Z</time></trkpt><trkpt lat="41.0131852" lon="16.814619"><ele>144.0</ele><time>2026-04-04T08:42:24.582Z</time></trkpt><trkpt lat="41.0132868" lon="16.8146566"><ele>143.4</ele><time>2026-04-04T08:42:26.582Z</time></trkpt><trkpt lat="41.0133588" lon="16.8146827"><ele>142.8</ele><time>2026-04-04T08:42:27.583Z</time></trkpt><trkpt lat="41.0134468" lon="16.8147112"><ele>142.2</ele><time>2026-04-04T08:42:28.582Z</time></trkpt><trkpt lat="41.0135419" lon="16.8147389"><ele>141.6</ele><time>2026-04-04T08:42:29.582Z</time></trkpt><trkpt lat="41.0136391" lon="16.8147693"><ele>141.0</ele><time>2026-04-04T08:42:30.582Z</time></trkpt><trkpt lat="41.0137309" lon="16.8147972"><ele>141.0</ele><time>2026-04-04T08:42:31.583Z</time></trkpt><trkpt lat="41.0138106" lon="16.8148216"><ele>141.0</ele><time>2026-04-04T08:42:32.582Z</time></trkpt><trkpt lat="41.013895" lon="16.8148458"><ele>141.0</ele><time>2026-04-04T08:42:33.582Z</time></trkpt><trkpt lat="41.0139693" lon="16.8148667"><ele>141.0</ele><time>2026-04-04T08:42:34.582Z</time></trkpt><trkpt lat="41.0140315" lon="16.8148835"><ele>141.0</ele><time>2026-04-04T08:42:35.583Z</time></trkpt><trkpt lat="41.0141406" lon="16.8148891"><ele>141.0</ele><time>2026-04-04T08:42:37.582Z</time></trkpt><trkpt lat="41.0142605" lon="16.8149218"><ele>140.66666666666666</ele><time>2026-04-04T08:42:39.582Z</time></trkpt><trkpt lat="41.0143586" lon="16.814969"><ele>140.33333333333334</ele><time>2026-04-04T08:42:41.582Z</time></trkpt><trkpt lat="41.0144001" lon="16.8150342"><ele>140.0</ele><time>2026-04-04T08:42:43.582Z</time></trkpt><trkpt lat="41.0144466" lon="16.8151028"><ele>139.66666666666669</ele><time>2026-04-04T08:42:45.582Z</time></trkpt><trkpt lat="41.0145752" lon="16.8151437"><ele>139.33333333333334</ele><time>2026-04-04T08:42:47.582Z</time></trkpt><trkpt lat="41.0146484" lon="16.8151478"><ele>139.0</ele><time>2026-04-04T08:42:48.582Z</time></trkpt><trkpt lat="41.0147804" lon="16.8151794"><ele>138.6</ele><time>2026-04-04T08:42:50.582Z</time></trkpt><trkpt lat="41.014865" lon="16.8152135"><ele>138.2</ele><time>2026-04-04T08:42:51.582Z</time></trkpt><trkpt lat="41.0149519" lon="16.8152344"><ele>137.79999999999998</ele><time>2026-04-04T08:42:52.582Z</time></trkpt><trkpt lat="41.0150475" lon="16.8152464"><ele>137.4</ele><time>2026-04-04T08:42:53.582Z</time></trkpt><trkpt lat="41.0151521" lon="16.8152724"><ele>137.0</ele><time>2026-04-04T08:42:54.582Z</time></trkpt><trkpt lat="41.0152461" lon="16.8152915"><ele>136.71428571428572</ele><time>2026-04-04T08:42:55.582Z</time></trkpt><trkpt lat="41.0153211" lon="16.8153065"><ele>136.42857142857144</ele><time>2026-04-04T08:42:56.582Z</time></trkpt><trkpt lat="41.015389" lon="16.8153176"><ele>136.14285714285714</ele><time>2026-04-04T08:42:57.582Z</time></trkpt><trkpt lat="41.0154531" lon="16.8153438"><ele>135.85714285714286</ele><time>2026-04-04T08:42:58.582Z</time></trkpt><trkpt lat="41.0155164" lon="16.815371"><ele>135.57142857142856</ele><time>2026-04-04T08:42:59.583Z</time></trkpt><trkpt lat="41.0155832" lon="16.8153839"><ele>135.28571428571428</ele><time>2026-04-04T08:43:00.582Z</time></trkpt><trkpt lat="41.0156567" lon="16.815391"><ele>135.0</ele><time>2026-04-04T08:43:01.582Z</time></trkpt><trkpt lat="41.0157276" lon="16.8153962"><ele>135.0</ele><time>2026-04-04T08:43:02.582Z</time></trkpt><trkpt lat="41.0157911" lon="16.8154032"><ele>135.0</ele><time>2026-04-04T08:43:03.582Z</time></trkpt><trkpt lat="41.0158686" lon="16.8154192"><ele>135.0</ele><time>2026-04-04T08:43:04.582Z</time></trkpt><trkpt lat="41.0159554" lon="16.8154435"><ele>135.0</ele><time>2026-04-04T08:43:05.582Z</time></trkpt><trkpt lat="41.0160548" lon="16.8154656"><ele>135.0</ele><time>2026-04-04T08:43:06.582Z</time></trkpt><trkpt lat="41.0161596" lon="16.8154859"><ele>135.0</ele><time>2026-04-04T08:43:07.582Z</time></trkpt><trkpt lat="41.016278" lon="16.8155106"><ele>134.5</ele><time>2026-04-04T08:43:08.582Z</time></trkpt><trkpt lat="41.0164034" lon="16.8155368"><ele>134.0</ele><time>2026-04-04T08:43:09.582Z</time></trkpt><trkpt lat="41.0165276" lon="16.8155615"><ele>133.5</ele><time>2026-04-04T08:43:10.582Z</time></trkpt><trkpt lat="41.01664" lon="16.8155831"><ele>133.0</ele><time>2026-04-04T08:43:11.582Z</time></trkpt><trkpt lat="41.0167403" lon="16.8156044"><ele>132.83333333333334</ele><time>2026-04-04T08:43:12.582Z</time></trkpt><trkpt lat="41.0168294" lon="16.8156201"><ele>132.66666666666669</ele><time>2026-04-04T08:43:13.582Z</time></trkpt><trkpt lat="41.0169034" lon="16.8156326"><ele>132.5</ele><time>2026-04-04T08:43:14.583Z</time></trkpt><trkpt lat="41.0170139" lon="16.8156962"><ele>132.33333333333334</ele><time>2026-04-04T08:43:16.582Z</time></trkpt><trkpt lat="41.0170926" lon="16.8157627"><ele>132.16666666666666</ele><time>2026-04-04T08:43:18.582Z</time></trkpt><trkpt lat="41.01716" lon="16.8157729"><ele>132.0</ele><time>2026-04-04T08:43:20.582Z</time></trkpt><trkpt lat="41.0172283" lon="16.8157793"><ele>132.0</ele><time>2026-04-04T08:43:22.583Z</time></trkpt><trkpt lat="41.0173005" lon="16.8157874"><ele>132.0</ele><time>2026-04-04T08:43:24.583Z</time></trkpt><trkpt lat="41.0173581" lon="16.8158498"><ele>132.0</ele><time>2026-04-04T08:43:27.583Z</time></trkpt><trkpt lat="41.0173518" lon="16.8159542"><ele>132.0</ele><time>2026-04-04T08:43:29.582Z</time></trkpt><trkpt lat="41.0173528" lon="16.8160977"><ele>132.0</ele><time>2026-04-04T08:43:31.582Z</time></trkpt><trkpt lat="41.0174221" lon="16.8161433"><ele>132.0</ele><time>2026-04-04T08:43:33.582Z</time></trkpt><trkpt lat="41.0175515" lon="16.8161209"><ele>132.0</ele><time>2026-04-04T08:43:35.582Z</time></trkpt><trkpt lat="41.0176542" lon="16.8161113"><ele>132.0</ele><time>2026-04-04T08:43:36.583Z</time></trkpt><trkpt lat="41.0177649" lon="16.816092"><ele>132.0</ele><time>2026-04-04T08:43:37.582Z</time></trkpt><trkpt lat="41.0178869" lon="16.8160706"><ele>132.0</ele><time>2026-04-04T08:43:38.583Z</time></trkpt><trkpt lat="41.0180235" lon="16.8160547"><ele>132.0</ele><time>2026-04-04T08:43:39.582Z</time></trkpt><trkpt lat="41.018162" lon="16.8160324"><ele>132.0</ele><time>2026-04-04T08:43:40.582Z</time></trkpt><trkpt lat="41.0182952" lon="16.8160091"><ele>132.0</ele><time>2026-04-04T08:43:41.582Z</time></trkpt><trkpt lat="41.0184135" lon="16.8159841"><ele>132.0</ele><time>2026-04-04T08:43:42.582Z</time></trkpt><trkpt lat="41.018528" lon="16.8159598"><ele>132.0</ele><time>2026-04-04T08:43:43.582Z</time></trkpt><trkpt lat="41.0186458" lon="16.8159333"><ele>132.0</ele><time>2026-04-04T08:43:44.582Z</time></trkpt><trkpt lat="41.0187606" lon="16.8159141"><ele>132.0</ele><time>2026-04-04T08:43:45.583Z</time></trkpt><trkpt lat="41.018883" lon="16.8158863"><ele>132.0</ele><time>2026-04-04T08:43:46.582Z</time></trkpt><trkpt lat="41.0189994" lon="16.815861"><ele>132.0</ele><time>2026-04-04T08:43:47.582Z</time></trkpt><trkpt lat="41.0191102" lon="16.8158502"><ele>132.0</ele><time>2026-04-04T08:43:48.582Z</time></trkpt><trkpt lat="41.0192235" lon="16.8158441"><ele>132.0</ele><time>2026-04-04T08:43:49.582Z</time></trkpt><trkpt lat="41.0193388" lon="16.8158297"><ele>132.0</ele><time>2026-04-04T08:43:50.583Z</time></trkpt><trkpt lat="41.0194486" lon="16.8158183"><ele>131.66666666666666</ele><time>2026-04-04T08:43:51.582Z</time></trkpt><trkpt lat="41.0195497" lon="16.8158051"><ele>131.33333333333334</ele><time>2026-04-04T08:43:52.582Z</time></trkpt><trkpt lat="41.0196338" lon="16.8157941"><ele>131.0</ele><time>2026-04-04T08:43:53.582Z</time></trkpt><trkpt lat="41.0196987" lon="16.8157802"><ele>130.66666666666669</ele><time>2026-04-04T08:43:54.583Z</time></trkpt><trkpt lat="41.0197983" lon="16.8157731"><ele>130.33333333333334</ele><time>2026-04-04T08:43:56.582Z</time></trkpt><trkpt lat="41.0198677" lon="16.8158053"><ele>130.0</ele><time>2026-04-04T08:43:59.582Z</time></trkpt><trkpt lat="41.0198449" lon="16.8159452"><ele>129.83333333333334</ele><time>2026-04-04T08:44:02.583Z</time></trkpt><trkpt lat="41.0198248" lon="16.8160288"><ele>129.66666666666669</ele><time>2026-04-04T08:44:03.582Z</time></trkpt><trkpt lat="41.0198032" lon="16.8161234"><ele>129.5</ele><time>2026-04-04T08:44:04.582Z</time></trkpt><trkpt lat="41.0197814" lon="16.8162101"><ele>129.33333333333334</ele><time>2026-04-04T08:44:05.582Z</time></trkpt><trkpt lat="41.0197517" lon="16.8163393"><ele>129.16666666666666</ele><time>2026-04-04T08:44:07.582Z</time></trkpt><trkpt lat="41.0198412" lon="16.8164244"><ele>129.0</ele><time>2026-04-04T08:44:10.582Z</time></trkpt><trkpt lat="41.019909" lon="16.8164445"><ele>129.2</ele><time>2026-04-04T08:44:11.582Z</time></trkpt><trkpt lat="41.0199916" lon="16.8164713"><ele>129.4</ele><time>2026-04-04T08:44:12.582Z</time></trkpt><trkpt lat="41.0200833" lon="16.8165003"><ele>129.6</ele><time>2026-04-04T08:44:13.583Z</time></trkpt><trkpt lat="41.0201825" lon="16.8165407"><ele>129.8</ele><time>2026-04-04T08:44:14.582Z</time></trkpt><trkpt lat="41.0202975" lon="16.8165837"><ele>130.0</ele><time>2026-04-04T08:44:15.583Z</time></trkpt><trkpt lat="41.0204013" lon="16.81662"><ele>130.0</ele><time>2026-04-04T08:44:16.582Z</time></trkpt><trkpt lat="41.0205075" lon="16.8166375"><ele>130.0</ele><time>2026-04-04T08:44:17.582Z</time></trkpt><trkpt lat="41.0206008" lon="16.8166352"><ele>130.0</ele><time>2026-04-04T08:44:18.582Z</time></trkpt><trkpt lat="41.0206957" lon="16.8166206"><ele>130.0</ele><time>2026-04-04T08:44:19.582Z</time></trkpt><trkpt lat="41.0207694" lon="16.8166452"><ele>130.0</ele><time>2026-04-04T08:44:20.582Z</time></trkpt><trkpt lat="41.0208255" lon="16.8166929"><ele>130.0</ele><time>2026-04-04T08:44:21.582Z</time></trkpt><trkpt lat="41.0208448" lon="16.8168374"><ele>129.4</ele><time>2026-04-04T08:44:23.582Z</time></trkpt><trkpt lat="41.0208259" lon="16.8169293"><ele>128.8</ele><time>2026-04-04T08:44:24.582Z</time></trkpt><trkpt lat="41.0208481" lon="16.8170142"><ele>128.2</ele><time>2026-04-04T08:44:25.582Z</time></trkpt><trkpt lat="41.0209612" lon="16.8170945"><ele>127.6</ele><time>2026-04-04T08:44:27.582Z</time></trkpt><trkpt lat="41.0210417" lon="16.817126"><ele>127.0</ele><time>2026-04-04T08:44:28.582Z</time></trkpt><trkpt lat="41.0211355" lon="16.8171739"><ele>127.0</ele><time>2026-04-04T08:44:29.582Z</time></trkpt><trkpt lat="41.0212402" lon="16.8172273"><ele>127.0</ele><time>2026-04-04T08:44:30.582Z</time></trkpt><trkpt lat="41.0213514" lon="16.8172893"><ele>127.0</ele><time>2026-04-04T08:44:31.583Z</time></trkpt><trkpt lat="41.0214602" lon="16.8173513"><ele>127.0</ele><time>2026-04-04T08:44:32.582Z</time></trkpt><trkpt lat="41.0215739" lon="16.8174078"><ele>126.5</ele><time>2026-04-04T08:44:33.582Z</time></trkpt><trkpt lat="41.0216939" lon="16.8174616"><ele>126.0</ele><time>2026-04-04T08:44:34.582Z</time></trkpt><trkpt lat="41.0218173" lon="16.8175186"><ele>125.5</ele><time>2026-04-04T08:44:35.583Z</time></trkpt><trkpt lat="41.0219447" lon="16.8175786"><ele>125.0</ele><time>2026-04-04T08:44:36.582Z</time></trkpt><trkpt lat="41.0220734" lon="16.8176331"><ele>124.8</ele><time>2026-04-04T08:44:37.582Z</time></trkpt><trkpt lat="41.0221904" lon="16.8176852"><ele>124.6</ele><time>2026-04-04T08:44:38.582Z</time></trkpt><trkpt lat="41.022297" lon="16.8177378"><ele>124.4</ele><time>2026-04-04T08:44:39.582Z</time></trkpt><trkpt lat="41.0223919" lon="16.8177955"><ele>124.2</ele><time>2026-04-04T08:44:40.582Z</time></trkpt><trkpt lat="41.0224781" lon="16.8178616"><ele>124.0</ele><time>2026-04-04T08:44:41.582Z</time></trkpt><trkpt lat="41.0225673" lon="16.8178854"><ele>123.80000000000001</ele><time>2026-04-04T08:44:42.582Z</time></trkpt><trkpt lat="41.0226649" lon="16.8178984"><ele>123.60000000000001</ele><time>2026-04-04T08:44:43.582Z</time></trkpt><trkpt lat="41.0227686" lon="16.8179109"><ele>123.4</ele><time>2026-04-04T08:44:44.582Z</time></trkpt><trkpt lat="41.0228802" lon="16.8179281"><ele>123.2</ele><time>2026-04-04T08:44:45.583Z</time></trkpt><trkpt lat="41.0229997" lon="16.817939"><ele>123.0</ele><time>2026-04-04T08:44:46.582Z</time></trkpt><trkpt lat="41.023122" lon="16.8179454"><ele>123.0</ele><time>2026-04-04T08:44:47.582Z</time></trkpt><trkpt lat="41.0232444" lon="16.8179502"><ele>123.0</ele><time>2026-04-04T08:44:48.582Z</time></trkpt><trkpt lat="41.0233736" lon="16.8179519"><ele>123.0</ele><time>2026-04-04T08:44:49.582Z</time></trkpt><trkpt lat="41.023508" lon="16.817944"><ele>123.0</ele><time>2026-04-04T08:44:50.583Z</time></trkpt><trkpt lat="41.0236454" lon="16.817933"><ele>123.25</ele><time>2026-04-04T08:44:51.583Z</time></trkpt><trkpt lat="41.0237866" lon="16.8179224"><ele>123.5</ele><time>2026-04-04T08:44:52.583Z</time></trkpt><trkpt lat="41.0239234" lon="16.8179115"><ele>123.75</ele><time>2026-04-04T08:44:53.582Z</time></trkpt><trkpt lat="41.0240462" lon="16.8178978"><ele>124.0</ele><time>2026-04-04T08:44:54.582Z</time></trkpt><trkpt lat="41.0241469" lon="16.817888"><ele>123.6</ele><time>2026-04-04T08:44:55.583Z</time></trkpt><trkpt lat="41.0242238" lon="16.8178873"><ele>123.2</ele><time>2026-04-04T08:44:56.582Z</time></trkpt><trkpt lat="41.0243497" lon="16.8179254"><ele>122.79999999999998</ele><time>2026-04-04T08:44:58.582Z</time></trkpt><trkpt lat="41.0244173" lon="16.8179893"><ele>122.39999999999999</ele><time>2026-04-04T08:44:59.583Z</time></trkpt><trkpt lat="41.024492" lon="16.8180763"><ele>122.0</ele><time>2026-04-04T08:45:00.582Z</time></trkpt><trkpt lat="41.0245738" lon="16.8181676"><ele>122.0</ele><time>2026-04-04T08:45:01.582Z</time></trkpt><trkpt lat="41.0246652" lon="16.8182674"><ele>122.0</ele><time>2026-04-04T08:45:02.582Z</time></trkpt><trkpt lat="41.0247588" lon="16.818366"><ele>122.0</ele><time>2026-04-04T08:45:03.582Z</time></trkpt><trkpt lat="41.0248502" lon="16.8184624"><ele>122.0</ele><time>2026-04-04T08:45:04.582Z</time></trkpt><trkpt lat="41.0249523" lon="16.818571"><ele>120.66666666666666</ele><time>2026-04-04T08:45:05.582Z</time></trkpt><trkpt lat="41.0250611" lon="16.8186888"><ele>119.33333333333334</ele><time>2026-04-04T08:45:06.583Z</time></trkpt><trkpt lat="41.0251813" lon="16.8188142"><ele>118.0</ele><time>2026-04-04T08:45:07.582Z</time></trkpt><trkpt lat="41.0253159" lon="16.8189482"><ele>118.0</ele><time>2026-04-04T08:45:08.582Z</time></trkpt><trkpt lat="41.0254587" lon="16.8190842"><ele>118.0</ele><time>2026-04-04T08:45:09.582Z</time></trkpt><trkpt lat="41.025586" lon="16.8192062"><ele>118.0</ele><time>2026-04-04T08:45:10.582Z</time></trkpt><trkpt lat="41.0257019" lon="16.819325"><ele>118.0</ele><time>2026-04-04T08:45:11.583Z</time></trkpt><trkpt lat="41.0258072" lon="16.8194346"><ele>118.00000000000001</ele><time>2026-04-04T08:45:12.582Z</time></trkpt><trkpt lat="41.0259001" lon="16.8195296"><ele>118.00000000000001</ele><time>2026-04-04T08:45:13.583Z</time></trkpt><trkpt lat="41.0259821" lon="16.8196124"><ele>118.0</ele><time>2026-04-04T08:45:14.583Z</time></trkpt><trkpt lat="41.0260556" lon="16.8196819"><ele>118.0</ele><time>2026-04-04T08:45:15.582Z</time></trkpt><trkpt lat="41.0261187" lon="16.819731"><ele>118.0</ele><time>2026-04-04T08:45:16.582Z</time></trkpt><trkpt lat="41.0262104" lon="16.8197906"><ele>118.00000000000001</ele><time>2026-04-04T08:45:18.582Z</time></trkpt><trkpt lat="41.0262734" lon="16.8198401"><ele>118.00000000000001</ele><time>2026-04-04T08:45:21.582Z</time></trkpt><trkpt lat="41.0262354" lon="16.8199438"><ele>118.0</ele><time>2026-04-04T08:45:26.582Z</time></trkpt><trkpt lat="41.0261748" lon="16.8200902"><ele>118.0</ele><time>2026-04-04T08:45:28.582Z</time></trkpt><trkpt lat="41.0261407" lon="16.8201717"><ele>118.33333333333334</ele><time>2026-04-04T08:45:29.582Z</time></trkpt><trkpt lat="41.0261065" lon="16.8202563"><ele>118.66666666666667</ele><time>2026-04-04T08:45:30.582Z</time></trkpt><trkpt lat="41.026075" lon="16.8203289"><ele>119.0</ele><time>2026-04-04T08:45:31.582Z</time></trkpt><trkpt lat="41.0260209" lon="16.8204544"><ele>119.33333333333334</ele><time>2026-04-04T08:45:33.582Z</time></trkpt><trkpt lat="41.0259797" lon="16.8205521"><ele>119.66666666666667</ele><time>2026-04-04T08:45:36.582Z</time></trkpt><trkpt lat="41.0259452" lon="16.8206495"><ele>120.0</ele><time>2026-04-04T08:45:39.582Z</time></trkpt><trkpt lat="41.0259194" lon="16.8207337"><ele>120.0</ele><time>2026-04-04T08:45:41.582Z</time></trkpt><trkpt lat="41.0259372" lon="16.8206436"><ele>120.0</ele><time>2026-04-04T08:45:54.582Z</time></trkpt><trkpt lat="41.0259847" lon="16.8205459"><ele>120.0</ele><time>2026-04-04T08:46:11.582Z</time></trkpt><trkpt lat="41.0260251" lon="16.8204408"><ele>120.0</ele><time>2026-04-04T08:46:13.583Z</time></trkpt><trkpt lat="41.0260657" lon="16.820335"><ele>120.0</ele><time>2026-04-04T08:46:15.583Z</time></trkpt><trkpt lat="41.0261177" lon="16.8202135"><ele>120.0</ele><time>2026-04-04T08:46:17.582Z</time></trkpt><trkpt lat="41.0261726" lon="16.8200812"><ele>119.6</ele><time>2026-04-04T08:46:19.582Z</time></trkpt><trkpt lat="41.0262209" lon="16.8199668"><ele>119.2</ele><time>2026-04-04T08:46:21.582Z</time></trkpt><trkpt lat="41.0262657" lon="16.8198707"><ele>118.80000000000001</ele><time>2026-04-04T08:46:23.582Z</time></trkpt><trkpt lat="41.0263586" lon="16.8198662"><ele>118.4</ele><time>2026-04-04T08:46:26.582Z</time></trkpt><trkpt lat="41.026446" lon="16.8199327"><ele>118.0</ele><time>2026-04-04T08:46:28.582Z</time></trkpt><trkpt lat="41.0265151" lon="16.8199864"><ele>118.0</ele><time>2026-04-04T08:46:29.582Z</time></trkpt><trkpt lat="41.0265874" lon="16.8200355"><ele>118.00000000000001</ele><time>2026-04-04T08:46:30.582Z</time></trkpt><trkpt lat="41.0266687" lon="16.8201489"><ele>118.00000000000001</ele><time>2026-04-04T08:46:32.582Z</time></trkpt><trkpt lat="41.0266916" lon="16.8202335"><ele>118.0</ele><time>2026-04-04T08:46:33.582Z</time></trkpt><trkpt lat="41.0267084" lon="16.8203231"><ele>118.0</ele><time>2026-04-04T08:46:34.583Z</time></trkpt><trkpt lat="41.026698" lon="16.8204801"><ele>118.2</ele><time>2026-04-04T08:46:36.582Z</time></trkpt><trkpt lat="41.0266497" lon="16.8206214"><ele>118.4</ele><time>2026-04-04T08:46:38.582Z</time></trkpt><trkpt lat="41.02662" lon="16.8207098"><ele>118.60000000000001</ele><time>2026-04-04T08:46:39.582Z</time></trkpt><trkpt lat="41.0265871" lon="16.8208159"><ele>118.80000000000001</ele><time>2026-04-04T08:46:40.582Z</time></trkpt><trkpt lat="41.0265443" lon="16.8209317"><ele>119.0</ele><time>2026-04-04T08:46:41.582Z</time></trkpt><trkpt lat="41.0265064" lon="16.821049"><ele>119.0</ele><time>2026-04-04T08:46:42.582Z</time></trkpt><trkpt lat="41.0264759" lon="16.8211342"><ele>119.0</ele><time>2026-04-04T08:46:43.582Z</time></trkpt><trkpt lat="41.0264326" lon="16.8212535"><ele>119.0</ele><time>2026-04-04T08:46:45.582Z</time></trkpt><trkpt lat="41.0263955" lon="16.8213322"><ele>119.0</ele><time>2026-04-04T08:46:47.582Z</time></trkpt><trkpt lat="41.0263564" lon="16.8214631"><ele>119.0</ele><time>2026-04-04T08:46:49.582Z</time></trkpt><trkpt lat="41.0263116" lon="16.821604"><ele>118.99999999999999</ele><time>2026-04-04T08:46:51.582Z</time></trkpt><trkpt lat="41.026273" lon="16.8216925"><ele>119.0</ele><time>2026-04-04T08:46:53.582Z</time></trkpt><trkpt lat="41.0263348" lon="16.8216477"><ele>119.0</ele><time>2026-04-04T08:46:58.582Z</time></trkpt><trkpt lat="41.0263529" lon="16.8215023"><ele>119.0</ele><time>2026-04-04T08:47:00.582Z</time></trkpt><trkpt lat="41.026386" lon="16.8214024"><ele>118.99999999999999</ele><time>2026-04-04T08:47:01.582Z</time></trkpt><trkpt lat="41.0264213" lon="16.8213031"><ele>119.0</ele><time>2026-04-04T08:47:02.582Z</time></trkpt><trkpt lat="41.0264521" lon="16.8212125"><ele>118.99999999999999</ele><time>2026-04-04T08:47:03.582Z</time></trkpt><trkpt lat="41.0264855" lon="16.821127"><ele>119.0</ele><time>2026-04-04T08:47:04.582Z</time></trkpt><trkpt lat="41.0265182" lon="16.8210378"><ele>119.0</ele><time>2026-04-04T08:47:05.582Z</time></trkpt><trkpt lat="41.026548" lon="16.8209473"><ele>119.0</ele><time>2026-04-04T08:47:06.582Z</time></trkpt><trkpt lat="41.0265716" lon="16.8208641"><ele>118.99999999999999</ele><time>2026-04-04T08:47:07.583Z</time></trkpt><trkpt lat="41.0265978" lon="16.8207851"><ele>119.0</ele><time>2026-04-04T08:47:08.582Z</time></trkpt><trkpt lat="41.0266432" lon="16.820648"><ele>118.49999999999999</ele><time>2026-04-04T08:47:10.582Z</time></trkpt><trkpt lat="41.0266899" lon="16.8205294"><ele>118.0</ele><time>2026-04-04T08:47:12.582Z</time></trkpt><trkpt lat="41.0267188" lon="16.8204279"><ele>117.5</ele><time>2026-04-04T08:47:14.582Z</time></trkpt><trkpt lat="41.0267179" lon="16.8203248"><ele>117.0</ele><time>2026-04-04T08:47:16.582Z</time></trkpt><trkpt lat="41.0266907" lon="16.8202068"><ele>116.49999999999999</ele><time>2026-04-04T08:47:18.583Z</time></trkpt><trkpt lat="41.0267048" lon="16.8201172"><ele>116.0</ele><time>2026-04-04T08:47:20.582Z</time></trkpt><trkpt lat="41.0267687" lon="16.8201129"><ele>115.99999999999999</ele><time>2026-04-04T08:47:22.583Z</time></trkpt><trkpt lat="41.0268472" lon="16.8201433"><ele>116.0</ele><time>2026-04-04T08:47:24.582Z</time></trkpt><trkpt lat="41.0269283" lon="16.8201724"><ele>116.0</ele><time>2026-04-04T08:47:26.583Z</time></trkpt><trkpt lat="41.0270167" lon="16.8201993"><ele>116.0</ele><time>2026-04-04T08:47:29.583Z</time></trkpt><trkpt lat="41.0270787" lon="16.82022"><ele>115.99999999999999</ele><time>2026-04-04T08:47:31.583Z</time></trkpt><trkpt lat="41.0271613" lon="16.8202352"><ele>116.0</ele><time>2026-04-04T08:47:34.583Z</time></trkpt><trkpt lat="41.027075" lon="16.8202182"><ele>115.99999999999999</ele><time>2026-04-04T08:47:54.583Z</time></trkpt><trkpt lat="41.0269672" lon="16.8201833"><ele>116.0</ele><time>2026-04-04T08:47:56.582Z</time></trkpt><trkpt lat="41.0269058" lon="16.8201591"><ele>116.0</ele><time>2026-04-04T08:47:57.582Z</time></trkpt><trkpt lat="41.0267962" lon="16.8201169"><ele>116.0</ele><time>2026-04-04T08:47:59.583Z</time></trkpt><trkpt lat="41.0267326" lon="16.8201038"><ele>115.99999999999999</ele><time>2026-04-04T08:48:01.582Z</time></trkpt><trkpt lat="41.0266903" lon="16.8201768"><ele>116.0</ele><time>2026-04-04T08:48:04.582Z</time></trkpt><trkpt lat="41.0267037" lon="16.8202708"><ele>115.99999999999999</ele><time>2026-04-04T08:48:06.583Z</time></trkpt><trkpt lat="41.0267261" lon="16.8203738"><ele>116.0</ele><time>2026-04-04T08:48:08.582Z</time></trkpt><trkpt lat="41.0267604" lon="16.8204695"><ele>116.0</ele><time>2026-04-04T08:48:17.582Z</time></trkpt><trkpt lat="41.0268156" lon="16.8205336"><ele>116.0</ele><time>2026-04-04T08:48:19.582Z</time></trkpt><trkpt lat="41.0268719" lon="16.8205993"><ele>115.99999999999999</ele><time>2026-04-04T08:48:21.583Z</time></trkpt><trkpt lat="41.0269284" lon="16.8206665"><ele>116.0</ele><time>2026-04-04T08:48:23.583Z</time></trkpt><trkpt lat="41.0269859" lon="16.8207127"><ele>115.99999999999999</ele><time>2026-04-04T08:48:26.582Z</time></trkpt><trkpt lat="41.0270439" lon="16.8207521"><ele>116.0</ele><time>2026-04-04T08:48:40.582Z</time></trkpt><trkpt lat="41.0270811" lon="16.8208224"><ele>116.0</ele><time>2026-04-04T08:48:44.582Z</time></trkpt><trkpt lat="41.0271282" lon="16.8208858"><ele>116.0</ele><time>2026-04-04T08:49:08.582Z</time></trkpt><trkpt lat="41.0271873" lon="16.8209767"><ele>115.99999999999999</ele><time>2026-04-04T08:49:10.582Z</time></trkpt><trkpt lat="41.0272542" lon="16.8210641"><ele>116.0</ele><time>2026-04-04T08:49:12.582Z</time></trkpt><trkpt lat="41.0273212" lon="16.8211602"><ele>116.19999999999999</ele><time>2026-04-04T08:49:14.582Z</time></trkpt><trkpt lat="41.0273992" lon="16.821264"><ele>116.39999999999999</ele><time>2026-04-04T08:49:16.582Z</time></trkpt><trkpt lat="41.0274588" lon="16.8213302"><ele>116.6</ele><time>2026-04-04T08:49:17.582Z</time></trkpt><trkpt lat="41.0275282" lon="16.8214025"><ele>116.8</ele><time>2026-04-04T08:49:18.582Z</time></trkpt><trkpt lat="41.0276015" lon="16.8214872"><ele>117.0</ele><time>2026-04-04T08:49:19.582Z</time></trkpt><trkpt lat="41.027685" lon="16.821589"><ele>116.5</ele><time>2026-04-04T08:49:20.582Z</time></trkpt><trkpt lat="41.0277879" lon="16.8217143"><ele>116.0</ele><time>2026-04-04T08:49:21.582Z</time></trkpt><trkpt lat="41.0278944" lon="16.8218392"><ele>115.5</ele><time>2026-04-04T08:49:22.582Z</time></trkpt><trkpt lat="41.0279861" lon="16.8219543"><ele>115.0</ele><time>2026-04-04T08:49:23.582Z</time></trkpt><trkpt lat="41.0280753" lon="16.8220584"><ele>115.0</ele><time>2026-04-04T08:49:24.583Z</time></trkpt><trkpt lat="41.0281659" lon="16.8221655"><ele>115.0</ele><time>2026-04-04T08:49:25.582Z</time></trkpt><trkpt lat="41.0282541" lon="16.8222723"><ele>115.0</ele><time>2026-04-04T08:49:26.582Z</time></trkpt><trkpt lat="41.0283347" lon="16.8223832"><ele>115.0</ele><time>2026-04-04T08:49:27.582Z</time></trkpt><trkpt lat="41.0284229" lon="16.8224898"><ele>114.5</ele><time>2026-04-04T08:49:28.582Z</time></trkpt><trkpt lat="41.0285136" lon="16.8225941"><ele>114.0</ele><time>2026-04-04T08:49:29.582Z</time></trkpt><trkpt lat="41.0286046" lon="16.8227116"><ele>113.5</ele><time>2026-04-04T08:49:30.582Z</time></trkpt><trkpt lat="41.0286977" lon="16.8228284"><ele>113.0</ele><time>2026-04-04T08:49:31.584Z</time></trkpt><trkpt lat="41.0287809" lon="16.8229356"><ele>113.0</ele><time>2026-04-04T08:49:32.582Z</time></trkpt><trkpt lat="41.0288719" lon="16.8230452"><ele>113.00000000000001</ele><time>2026-04-04T08:49:33.582Z</time></trkpt><trkpt lat="41.028958" lon="16.8231458"><ele>113.00000000000001</ele><time>2026-04-04T08:49:34.583Z</time></trkpt><trkpt lat="41.0290353" lon="16.823236"><ele>113.0</ele><time>2026-04-04T08:49:35.582Z</time></trkpt><trkpt lat="41.0291069" lon="16.8233244"><ele>113.0</ele><time>2026-04-04T08:49:36.583Z</time></trkpt><trkpt lat="41.0291633" lon="16.8234119"><ele>113.0</ele><time>2026-04-04T08:49:37.582Z</time></trkpt><trkpt lat="41.0292252" lon="16.823493"><ele>113.00000000000001</ele><time>2026-04-04T08:49:38.582Z</time></trkpt><trkpt lat="41.0292909" lon="16.8235798"><ele>113.00000000000001</ele><time>2026-04-04T08:49:39.582Z</time></trkpt><trkpt lat="41.0293586" lon="16.8236698"><ele>113.0</ele><time>2026-04-04T08:49:40.582Z</time></trkpt><trkpt lat="41.0294262" lon="16.8237519"><ele>113.0</ele><time>2026-04-04T08:49:41.582Z</time></trkpt><trkpt lat="41.029499" lon="16.8238277"><ele>113.0</ele><time>2026-04-04T08:49:42.583Z</time></trkpt><trkpt lat="41.0295711" lon="16.8239106"><ele>113.00000000000001</ele><time>2026-04-04T08:49:43.582Z</time></trkpt><trkpt lat="41.0296375" lon="16.8240108"><ele>113.00000000000001</ele><time>2026-04-04T08:49:44.582Z</time></trkpt><trkpt lat="41.0297131" lon="16.8241077"><ele>113.0</ele><time>2026-04-04T08:49:45.582Z</time></trkpt><trkpt lat="41.0297959" lon="16.8242015"><ele>113.0</ele><time>2026-04-04T08:49:46.582Z</time></trkpt><trkpt lat="41.0298802" lon="16.8243018"><ele>112.60000000000001</ele><time>2026-04-04T08:49:47.582Z</time></trkpt><trkpt lat="41.0299683" lon="16.8244024"><ele>112.20000000000002</ele><time>2026-04-04T08:49:48.583Z</time></trkpt><trkpt lat="41.0300524" lon="16.8245002"><ele>111.8</ele><time>2026-04-04T08:49:49.582Z</time></trkpt><trkpt lat="41.0301287" lon="16.8245865"><ele>111.4</ele><time>2026-04-04T08:49:50.582Z</time></trkpt><trkpt lat="41.0301966" lon="16.824661"><ele>111.0</ele><time>2026-04-04T08:49:51.582Z</time></trkpt><trkpt lat="41.0302558" lon="16.8247268"><ele>111.0</ele><time>2026-04-04T08:49:52.582Z</time></trkpt><trkpt lat="41.0303138" lon="16.8247858"><ele>111.0</ele><time>2026-04-04T08:49:53.582Z</time></trkpt><trkpt lat="41.0303741" lon="16.8248449"><ele>111.0</ele><time>2026-04-04T08:49:54.582Z</time></trkpt><trkpt lat="41.0304334" lon="16.8248989"><ele>111.0</ele><time>2026-04-04T08:49:55.582Z</time></trkpt><trkpt lat="41.0304873" lon="16.8249485"><ele>111.0</ele><time>2026-04-04T08:49:56.582Z</time></trkpt><trkpt lat="41.0305645" lon="16.8250249"><ele>111.0</ele><time>2026-04-04T08:49:58.582Z</time></trkpt><trkpt lat="41.0306026" lon="16.8251269"><ele>110.83333333333333</ele><time>2026-04-04T08:50:00.582Z</time></trkpt><trkpt lat="41.0305974" lon="16.8252322"><ele>110.66666666666666</ele><time>2026-04-04T08:50:02.582Z</time></trkpt><trkpt lat="41.0306034" lon="16.8253578"><ele>110.5</ele><time>2026-04-04T08:50:04.582Z</time></trkpt><trkpt lat="41.0306057" lon="16.8254871"><ele>110.33333333333333</ele><time>2026-04-04T08:50:06.582Z</time></trkpt><trkpt lat="41.0305972" lon="16.8255967"><ele>110.16666666666666</ele><time>2026-04-04T08:50:08.582Z</time></trkpt><trkpt lat="41.030582" lon="16.8257182"><ele>110.0</ele><time>2026-04-04T08:50:10.582Z</time></trkpt><trkpt lat="41.0305944" lon="16.8258872"><ele>110.0</ele><time>2026-04-04T08:50:12.582Z</time></trkpt><trkpt lat="41.0305988" lon="16.8259917"><ele>110.0</ele><time>2026-04-04T08:50:13.582Z</time></trkpt><trkpt lat="41.0306007" lon="16.8261102"><ele>110.0</ele><time>2026-04-04T08:50:14.582Z</time></trkpt><trkpt lat="41.0306013" lon="16.8262354"><ele>110.0</ele><time>2026-04-04T08:50:15.582Z</time></trkpt><trkpt lat="41.030601" lon="16.826362"><ele>110.0</ele><time>2026-04-04T08:50:16.583Z</time></trkpt><trkpt lat="41.0305982" lon="16.8264865"><ele>109.99999999999999</ele><time>2026-04-04T08:50:17.582Z</time></trkpt><trkpt lat="41.0305986" lon="16.8266029"><ele>110.0</ele><time>2026-04-04T08:50:18.584Z</time></trkpt><trkpt lat="41.0306071" lon="16.8267155"><ele>110.0</ele><time>2026-04-04T08:50:19.582Z</time></trkpt><trkpt lat="41.0306142" lon="16.8268204"><ele>110.0</ele><time>2026-04-04T08:50:20.582Z</time></trkpt><trkpt lat="41.0306141" lon="16.8269196"><ele>109.99999999999999</ele><time>2026-04-04T08:50:21.582Z</time></trkpt><trkpt lat="41.0306139" lon="16.8270124"><ele>110.0</ele><time>2026-04-04T08:50:22.582Z</time></trkpt><trkpt lat="41.0306229" lon="16.8271676"><ele>110.16666666666666</ele><time>2026-04-04T08:50:24.582Z</time></trkpt><trkpt lat="41.0306334" lon="16.8272952"><ele>110.33333333333333</ele><time>2026-04-04T08:50:26.582Z</time></trkpt><trkpt lat="41.030635" lon="16.8274134"><ele>110.5</ele><time>2026-04-04T08:50:28.582Z</time></trkpt><trkpt lat="41.0306413" lon="16.8275229"><ele>110.66666666666666</ele><time>2026-04-04T08:50:30.582Z</time></trkpt><trkpt lat="41.0306356" lon="16.8276346"><ele>110.83333333333333</ele><time>2026-04-04T08:50:32.582Z</time></trkpt><trkpt lat="41.0306352" lon="16.8277345"><ele>111.0</ele><time>2026-04-04T08:50:34.582Z</time></trkpt><trkpt lat="41.0306391" lon="16.8278613"><ele>111.0</ele><time>2026-04-04T08:50:36.583Z</time></trkpt><trkpt lat="41.0306431" lon="16.8279729"><ele>111.0</ele><time>2026-04-04T08:50:38.582Z</time></trkpt><trkpt lat="41.0306381" lon="16.8280938"><ele>111.0</ele><time>2026-04-04T08:50:41.582Z</time></trkpt><trkpt lat="41.030641" lon="16.8282381"><ele>111.0</ele><time>2026-04-04T08:50:43.582Z</time></trkpt><trkpt lat="41.0306511" lon="16.8283768"><ele>111.0</ele><time>2026-04-04T08:50:45.582Z</time></trkpt><trkpt lat="41.0306474" lon="16.828469"><ele>110.8</ele><time>2026-04-04T08:50:47.582Z</time></trkpt><trkpt lat="41.030642" lon="16.8285732"><ele>110.6</ele><time>2026-04-04T08:50:50.582Z</time></trkpt><trkpt lat="41.0306415" lon="16.8286798"><ele>110.4</ele><time>2026-04-04T08:50:52.583Z</time></trkpt><trkpt lat="41.0306488" lon="16.8288227"><ele>110.2</ele><time>2026-04-04T08:50:54.582Z</time></trkpt><trkpt lat="41.0306532" lon="16.8289866"><ele>110.0</ele><time>2026-04-04T08:50:56.582Z</time></trkpt><trkpt lat="41.0306544" lon="16.8290784"><ele>110.0</ele><time>2026-04-04T08:50:57.582Z</time></trkpt><trkpt lat="41.0306546" lon="16.829222"><ele>110.0</ele><time>2026-04-04T08:50:59.582Z</time></trkpt><trkpt lat="41.0306555" lon="16.8293197"><ele>110.0</ele><time>2026-04-04T08:51:01.582Z</time></trkpt><trkpt lat="41.030659" lon="16.829435"><ele>110.0</ele><time>2026-04-04T08:51:04.582Z</time></trkpt><trkpt lat="41.0306608" lon="16.82953"><ele>110.0</ele><time>2026-04-04T08:51:06.582Z</time></trkpt><trkpt lat="41.0306682" lon="16.8296873"><ele>110.0</ele><time>2026-04-04T08:51:08.583Z</time></trkpt><trkpt lat="41.0306699" lon="16.8298452"><ele>110.0</ele><time>2026-04-04T08:51:10.582Z</time></trkpt><trkpt lat="41.0306556" lon="16.8299782"><ele>110.0</ele><time>2026-04-04T08:51:12.582Z</time></trkpt><trkpt lat="41.0306565" lon="16.8301126"><ele>110.0</ele><time>2026-04-04T08:51:14.582Z</time></trkpt><trkpt lat="41.0306589" lon="16.8301978"><ele>110.0</ele><time>2026-04-04T08:51:15.582Z</time></trkpt><trkpt lat="41.0306608" lon="16.8302977"><ele>109.99999999999999</ele><time>2026-04-04T08:51:16.582Z</time></trkpt><trkpt lat="41.0306596" lon="16.8303962"><ele>110.0</ele><time>2026-04-04T08:51:17.582Z</time></trkpt><trkpt lat="41.0306631" lon="16.8304963"><ele>110.0</ele><time>2026-04-04T08:51:18.582Z</time></trkpt><trkpt lat="41.0306644" lon="16.8305886"><ele>110.0</ele><time>2026-04-04T08:51:19.582Z</time></trkpt><trkpt lat="41.0306661" lon="16.830674"><ele>109.99999999999999</ele><time>2026-04-04T08:51:20.583Z</time></trkpt><trkpt lat="41.0306644" lon="16.8308287"><ele>110.0</ele><time>2026-04-04T08:51:22.582Z</time></trkpt><trkpt lat="41.0306642" lon="16.8309781"><ele>109.99999999999999</ele><time>2026-04-04T08:51:24.582Z</time></trkpt><trkpt lat="41.030666" lon="16.8310883"><ele>110.0</ele><time>2026-04-04T08:51:26.582Z</time></trkpt><trkpt lat="41.0306758" lon="16.8312174"><ele>110.0</ele><time>2026-04-04T08:51:28.582Z</time></trkpt><trkpt lat="41.0306761" lon="16.8313052"><ele>110.0</ele><time>2026-04-04T08:51:29.582Z</time></trkpt><trkpt lat="41.0306684" lon="16.8313996"><ele>109.99999999999999</ele><time>2026-04-04T08:51:30.582Z</time></trkpt><trkpt lat="41.0306652" lon="16.8315124"><ele>110.0</ele><time>2026-04-04T08:51:31.583Z</time></trkpt><trkpt lat="41.0306646" lon="16.8316261"><ele>109.99999999999999</ele><time>2026-04-04T08:51:32.582Z</time></trkpt><trkpt lat="41.0306647" lon="16.8317229"><ele>110.0</ele><time>2026-04-04T08:51:33.582Z</time></trkpt><trkpt lat="41.0306676" lon="16.8318088"><ele>110.0</ele><time>2026-04-04T08:51:34.582Z</time></trkpt><trkpt lat="41.0306701" lon="16.8319143"><ele>110.0</ele><time>2026-04-04T08:51:36.582Z</time></trkpt><trkpt lat="41.0306468" lon="16.83202"><ele>109.99999999999999</ele><time>2026-04-04T08:51:38.582Z</time></trkpt><trkpt lat="41.0306313" lon="16.8321376"><ele>110.0</ele><time>2026-04-04T08:51:40.583Z</time></trkpt><trkpt lat="41.030654" lon="16.8322223"><ele>109.57142857142857</ele><time>2026-04-04T08:51:43.582Z</time></trkpt><trkpt lat="41.0306642" lon="16.8323204"><ele>109.14285714285714</ele><time>2026-04-04T08:51:46.582Z</time></trkpt><trkpt lat="41.0306659" lon="16.8324052"><ele>108.71428571428572</ele><time>2026-04-04T08:51:48.582Z</time></trkpt><trkpt lat="41.0306675" lon="16.8324978"><ele>108.28571428571428</ele><time>2026-04-04T08:51:50.582Z</time></trkpt><trkpt lat="41.0306658" lon="16.8325953"><ele>107.85714285714286</ele><time>2026-04-04T08:51:52.582Z</time></trkpt><trkpt lat="41.0306658" lon="16.8326931"><ele>107.42857142857143</ele><time>2026-04-04T08:51:54.582Z</time></trkpt><trkpt lat="41.0306699" lon="16.8327951"><ele>107.0</ele><time>2026-04-04T08:51:56.582Z</time></trkpt><trkpt lat="41.0306616" lon="16.832898"><ele>106.19999999999999</ele><time>2026-04-04T08:51:58.582Z</time></trkpt><trkpt lat="41.0306716" lon="16.8330071"><ele>105.39999999999999</ele><time>2026-04-04T08:52:00.582Z</time></trkpt><trkpt lat="41.0306744" lon="16.8331308"><ele>104.6</ele><time>2026-04-04T08:52:02.583Z</time></trkpt><trkpt lat="41.0306727" lon="16.8332669"><ele>103.80000000000001</ele><time>2026-04-04T08:52:04.583Z</time></trkpt><trkpt lat="41.0306696" lon="16.8334215"><ele>103.0</ele><time>2026-04-04T08:52:06.582Z</time></trkpt><trkpt lat="41.0306612" lon="16.8335804"><ele>103.0</ele><time>2026-04-04T08:52:08.582Z</time></trkpt><trkpt lat="41.0306608" lon="16.833725"><ele>103.0</ele><time>2026-04-04T08:52:10.582Z</time></trkpt><trkpt lat="41.0306735" lon="16.8338974"><ele>103.0</ele><time>2026-04-04T08:52:12.582Z</time></trkpt><trkpt lat="41.0306675" lon="16.8340402"><ele>103.0</ele><time>2026-04-04T08:52:14.583Z</time></trkpt><trkpt lat="41.0306702" lon="16.834187"><ele>103.83333333333334</ele><time>2026-04-04T08:52:16.582Z</time></trkpt><trkpt lat="41.0306696" lon="16.8343559"><ele>104.66666666666667</ele><time>2026-04-04T08:52:18.582Z</time></trkpt><trkpt lat="41.0306615" lon="16.8344552"><ele>105.5</ele><time>2026-04-04T08:52:19.582Z</time></trkpt><trkpt lat="41.0306598" lon="16.8345623"><ele>106.33333333333334</ele><time>2026-04-04T08:52:20.582Z</time></trkpt><trkpt lat="41.0306673" lon="16.8346675"><ele>107.16666666666667</ele><time>2026-04-04T08:52:21.582Z</time></trkpt><trkpt lat="41.0306779" lon="16.8347716"><ele>108.0</ele><time>2026-04-04T08:52:22.582Z</time></trkpt><trkpt lat="41.0306833" lon="16.8348722"><ele>108.0</ele><time>2026-04-04T08:52:23.582Z</time></trkpt><trkpt lat="41.0306818" lon="16.8349844"><ele>108.0</ele><time>2026-04-04T08:52:24.582Z</time></trkpt><trkpt lat="41.0306832" lon="16.8350981"><ele>108.0</ele><time>2026-04-04T08:52:25.582Z</time></trkpt><trkpt lat="41.0306888" lon="16.8351908"><ele>108.0</ele><time>2026-04-04T08:52:26.582Z</time></trkpt><trkpt lat="41.0306923" lon="16.8352774"><ele>108.0</ele><time>2026-04-04T08:52:27.582Z</time></trkpt><trkpt lat="41.0306968" lon="16.8354329"><ele>108.0</ele><time>2026-04-04T08:52:29.582Z</time></trkpt><trkpt lat="41.0307263" lon="16.8355151"><ele>108.33333333333333</ele><time>2026-04-04T08:52:31.583Z</time></trkpt><trkpt lat="41.0307129" lon="16.8356153"><ele>108.66666666666666</ele><time>2026-04-04T08:52:34.582Z</time></trkpt><trkpt lat="41.0307068" lon="16.8357344"><ele>109.0</ele><time>2026-04-04T08:52:36.582Z</time></trkpt><trkpt lat="41.0307099" lon="16.8358203"><ele>109.33333333333333</ele><time>2026-04-04T08:52:37.582Z</time></trkpt><trkpt lat="41.0307075" lon="16.8359139"><ele>109.66666666666666</ele><time>2026-04-04T08:52:38.582Z</time></trkpt><trkpt lat="41.0307076" lon="16.8360144"><ele>110.0</ele><time>2026-04-04T08:52:39.582Z</time></trkpt><trkpt lat="41.0307052" lon="16.8361156"><ele>110.0</ele><time>2026-04-04T08:52:40.582Z</time></trkpt><trkpt lat="41.0307043" lon="16.8362094"><ele>110.0</ele><time>2026-04-04T08:52:41.582Z</time></trkpt><trkpt lat="41.0307031" lon="16.8363699"><ele>110.0</ele><time>2026-04-04T08:52:43.582Z</time></trkpt><trkpt lat="41.0307132" lon="16.8364963"><ele>110.0</ele><time>2026-04-04T08:52:45.583Z</time></trkpt><trkpt lat="41.0307161" lon="16.8366194"><ele>110.0</ele><time>2026-04-04T08:52:47.582Z</time></trkpt><trkpt lat="41.0307129" lon="16.8367688"><ele>109.83333333333333</ele><time>2026-04-04T08:52:49.583Z</time></trkpt><trkpt lat="41.0307084" lon="16.8368616"><ele>109.66666666666666</ele><time>2026-04-04T08:52:50.582Z</time></trkpt><trkpt lat="41.030704" lon="16.8369527"><ele>109.5</ele><time>2026-04-04T08:52:51.582Z</time></trkpt><trkpt lat="41.0307001" lon="16.83709"><ele>109.33333333333334</ele><time>2026-04-04T08:52:53.582Z</time></trkpt><trkpt lat="41.0307216" lon="16.8371757"><ele>109.16666666666667</ele><time>2026-04-04T08:52:55.582Z</time></trkpt><trkpt lat="41.0308061" lon="16.8371308"><ele>109.0</ele><time>2026-04-04T08:52:59.582Z</time></trkpt><trkpt lat="41.0309372" lon="16.8371459"><ele>108.6</ele><time>2026-04-04T08:53:01.583Z</time></trkpt><trkpt lat="41.0310209" lon="16.8371441"><ele>108.2</ele><time>2026-04-04T08:53:02.582Z</time></trkpt><trkpt lat="41.0311234" lon="16.8371412"><ele>107.79999999999998</ele><time>2026-04-04T08:53:03.582Z</time></trkpt><trkpt lat="41.031243" lon="16.8371402"><ele>107.39999999999999</ele><time>2026-04-04T08:53:04.582Z</time></trkpt><trkpt lat="41.0313742" lon="16.8371373"><ele>107.0</ele><time>2026-04-04T08:53:05.582Z</time></trkpt><trkpt lat="41.0315098" lon="16.8371352"><ele>107.0</ele><time>2026-04-04T08:53:06.582Z</time></trkpt><trkpt lat="41.0316329" lon="16.8371373"><ele>107.0</ele><time>2026-04-04T08:53:07.582Z</time></trkpt><trkpt lat="41.0317576" lon="16.8371373"><ele>107.0</ele><time>2026-04-04T08:53:08.582Z</time></trkpt><trkpt lat="41.0318866" lon="16.837133"><ele>107.0</ele><time>2026-04-04T08:53:09.582Z</time></trkpt><trkpt lat="41.0320181" lon="16.8371321"><ele>107.0</ele><time>2026-04-04T08:53:10.582Z</time></trkpt><trkpt lat="41.0321467" lon="16.8371356"><ele>107.0</ele><time>2026-04-04T08:53:11.582Z</time></trkpt><trkpt lat="41.032274" lon="16.8371339"><ele>107.0</ele><time>2026-04-04T08:53:12.582Z</time></trkpt><trkpt lat="41.0324217" lon="16.8371352"><ele>107.0</ele><time>2026-04-04T08:53:13.583Z</time></trkpt><trkpt lat="41.0325705" lon="16.8371577"><ele>106.5</ele><time>2026-04-04T08:53:14.583Z</time></trkpt><trkpt lat="41.0327103" lon="16.8371939"><ele>106.0</ele><time>2026-04-04T08:53:15.582Z</time></trkpt><trkpt lat="41.0328308" lon="16.837219"><ele>105.5</ele><time>2026-04-04T08:53:16.582Z</time></trkpt><trkpt lat="41.0329323" lon="16.8372357"><ele>105.0</ele><time>2026-04-04T08:53:17.582Z</time></trkpt><trkpt lat="41.033017" lon="16.8372482"><ele>105.0</ele><time>2026-04-04T08:53:18.582Z</time></trkpt><trkpt lat="41.0330869" lon="16.8372576"><ele>105.0</ele><time>2026-04-04T08:53:19.584Z</time></trkpt><trkpt lat="41.033174" lon="16.8372976"><ele>105.0</ele><time>2026-04-04T08:53:21.582Z</time></trkpt><trkpt lat="41.0332007" lon="16.8374076"><ele>105.0</ele><time>2026-04-04T08:53:23.582Z</time></trkpt><trkpt lat="41.0332599" lon="16.8375239"><ele>105.0</ele><time>2026-04-04T08:53:25.582Z</time></trkpt><trkpt lat="41.0333704" lon="16.8375794"><ele>105.0</ele><time>2026-04-04T08:53:27.582Z</time></trkpt><trkpt lat="41.0334283" lon="16.8376299"><ele>105.0</ele><time>2026-04-04T08:53:28.582Z</time></trkpt><trkpt lat="41.0335034" lon="16.8376968"><ele>105.0</ele><time>2026-04-04T08:53:29.582Z</time></trkpt><trkpt lat="41.0335712" lon="16.8377577"><ele>105.0</ele><time>2026-04-04T08:53:30.582Z</time></trkpt><trkpt lat="41.0336224" lon="16.8378064"><ele>105.0</ele><time>2026-04-04T08:53:31.582Z</time></trkpt><trkpt lat="41.0336869" lon="16.8378691"><ele>105.0</ele><time>2026-04-04T08:53:33.582Z</time></trkpt><trkpt lat="41.0337838" lon="16.8378992"><ele>105.0</ele><time>2026-04-04T08:53:36.583Z</time></trkpt><trkpt lat="41.0339142" lon="16.8378894"><ele>105.0</ele><time>2026-04-04T08:53:38.582Z</time></trkpt><trkpt lat="41.0339921" lon="16.8378835"><ele>105.0</ele><time>2026-04-04T08:53:39.583Z</time></trkpt><trkpt lat="41.0340774" lon="16.8378815"><ele>105.0</ele><time>2026-04-04T08:53:40.582Z</time></trkpt><trkpt lat="41.0341669" lon="16.8378799"><ele>105.0</ele><time>2026-04-04T08:53:41.582Z</time></trkpt><trkpt lat="41.03426" lon="16.8378776"><ele>104.6</ele><time>2026-04-04T08:53:42.582Z</time></trkpt><trkpt lat="41.0343589" lon="16.8378743"><ele>104.2</ele><time>2026-04-04T08:53:43.582Z</time></trkpt><trkpt lat="41.0344571" lon="16.8378699"><ele>103.80000000000001</ele><time>2026-04-04T08:53:44.583Z</time></trkpt><trkpt lat="41.0345573" lon="16.8378729"><ele>103.4</ele><time>2026-04-04T08:53:45.582Z</time></trkpt><trkpt lat="41.0346654" lon="16.8378744"><ele>103.0</ele><time>2026-04-04T08:53:46.582Z</time></trkpt><trkpt lat="41.0347857" lon="16.8378742"><ele>103.0</ele><time>2026-04-04T08:53:47.582Z</time></trkpt><trkpt lat="41.0348984" lon="16.8378738"><ele>103.0</ele><time>2026-04-04T08:53:48.582Z</time></trkpt><trkpt lat="41.034999" lon="16.8378736"><ele>103.0</ele><time>2026-04-04T08:53:49.582Z</time></trkpt><trkpt lat="41.0350866" lon="16.8378752"><ele>103.0</ele><time>2026-04-04T08:53:50.583Z</time></trkpt><trkpt lat="41.0351666" lon="16.8378815"><ele>103.0</ele><time>2026-04-04T08:53:51.583Z</time></trkpt><trkpt lat="41.0352469" lon="16.8378788"><ele>102.75</ele><time>2026-04-04T08:53:52.583Z</time></trkpt><trkpt lat="41.0353362" lon="16.8378676"><ele>102.5</ele><time>2026-04-04T08:53:53.582Z</time></trkpt><trkpt lat="41.0354405" lon="16.8378634"><ele>102.25</ele><time>2026-04-04T08:53:54.582Z</time></trkpt><trkpt lat="41.0355675" lon="16.8378572"><ele>102.0</ele><time>2026-04-04T08:53:55.582Z</time></trkpt><trkpt lat="41.0357159" lon="16.8378562"><ele>101.33333333333334</ele><time>2026-04-04T08:53:56.582Z</time></trkpt><trkpt lat="41.0358725" lon="16.8378602"><ele>100.66666666666667</ele><time>2026-04-04T08:53:57.582Z</time></trkpt><trkpt lat="41.0360381" lon="16.8378626"><ele>100.0</ele><time>2026-04-04T08:53:58.582Z</time></trkpt><trkpt lat="41.036206" lon="16.8378638"><ele>100.0</ele><time>2026-04-04T08:53:59.582Z</time></trkpt><trkpt lat="41.0363725" lon="16.8378607"><ele>100.0</ele><time>2026-04-04T08:54:00.582Z</time></trkpt><trkpt lat="41.0365422" lon="16.8378621"><ele>100.0</ele><time>2026-04-04T08:54:01.582Z</time></trkpt><trkpt lat="41.0367088" lon="16.8378561"><ele>99.66666666666667</ele><time>2026-04-04T08:54:02.582Z</time></trkpt><trkpt lat="41.0368704" lon="16.837846"><ele>99.33333333333334</ele><time>2026-04-04T08:54:03.583Z</time></trkpt><trkpt lat="41.0370367" lon="16.8378394"><ele>99.0</ele><time>2026-04-04T08:54:04.582Z</time></trkpt><trkpt lat="41.0372095" lon="16.8378359"><ele>99.0</ele><time>2026-04-04T08:54:05.583Z</time></trkpt><trkpt lat="41.0373858" lon="16.8378293"><ele>99.0</ele><time>2026-04-04T08:54:06.582Z</time></trkpt><trkpt lat="41.0375583" lon="16.8378254"><ele>99.0</ele><time>2026-04-04T08:54:07.582Z</time></trkpt><trkpt lat="41.037721" lon="16.83782"><ele>99.25</ele><time>2026-04-04T08:54:08.582Z</time></trkpt><trkpt lat="41.0378715" lon="16.8378113"><ele>99.5</ele><time>2026-04-04T08:54:09.582Z</time></trkpt><trkpt lat="41.038008" lon="16.8378063"><ele>99.75</ele><time>2026-04-04T08:54:10.583Z</time></trkpt><trkpt lat="41.0381261" lon="16.8378056"><ele>100.0</ele><time>2026-04-04T08:54:11.582Z</time></trkpt><trkpt lat="41.0382346" lon="16.8378122"><ele>99.75</ele><time>2026-04-04T08:54:12.582Z</time></trkpt><trkpt lat="41.0383459" lon="16.8378488"><ele>99.5</ele><time>2026-04-04T08:54:13.582Z</time></trkpt><trkpt lat="41.0384661" lon="16.8379074"><ele>99.25</ele><time>2026-04-04T08:54:14.582Z</time></trkpt><trkpt lat="41.0385974" lon="16.8379646"><ele>99.0</ele><time>2026-04-04T08:54:15.582Z</time></trkpt><trkpt lat="41.0387305" lon="16.8380163"><ele>99.0</ele><time>2026-04-04T08:54:16.583Z</time></trkpt><trkpt lat="41.0388558" lon="16.838065"><ele>99.0</ele><time>2026-04-04T08:54:17.582Z</time></trkpt><trkpt lat="41.0389722" lon="16.8381074"><ele>99.0</ele><time>2026-04-04T08:54:18.583Z</time></trkpt><trkpt lat="41.0390782" lon="16.8381404"><ele>99.0</ele><time>2026-04-04T08:54:19.582Z</time></trkpt><trkpt lat="41.0391785" lon="16.8381563"><ele>98.75</ele><time>2026-04-04T08:54:20.582Z</time></trkpt><trkpt lat="41.0392781" lon="16.8381545"><ele>98.5</ele><time>2026-04-04T08:54:21.582Z</time></trkpt><trkpt lat="41.0393894" lon="16.8381524"><ele>98.25</ele><time>2026-04-04T08:54:22.582Z</time></trkpt><trkpt lat="41.039511" lon="16.8381524"><ele>98.0</ele><time>2026-04-04T08:54:23.582Z</time></trkpt><trkpt lat="41.0396383" lon="16.8381517"><ele>98.0</ele><time>2026-04-04T08:54:24.582Z</time></trkpt><trkpt lat="41.0397624" lon="16.8381525"><ele>98.0</ele><time>2026-04-04T08:54:25.582Z</time></trkpt><trkpt lat="41.039875" lon="16.8381543"><ele>98.0</ele><time>2026-04-04T08:54:26.583Z</time></trkpt><trkpt lat="41.0399796" lon="16.8381552"><ele>98.0</ele><time>2026-04-04T08:54:27.582Z</time></trkpt><trkpt lat="41.0400707" lon="16.8381555"><ele>98.0</ele><time>2026-04-04T08:54:28.582Z</time></trkpt><trkpt lat="41.0401417" lon="16.8381573"><ele>97.80000000000001</ele><time>2026-04-04T08:54:29.583Z</time></trkpt><trkpt lat="41.0402188" lon="16.8381724"><ele>97.6</ele><time>2026-04-04T08:54:31.582Z</time></trkpt><trkpt lat="41.0402717" lon="16.8382511"><ele>97.4</ele><time>2026-04-04T08:54:34.582Z</time></trkpt><trkpt lat="41.0403024" lon="16.8384266"><ele>97.19999999999999</ele><time>2026-04-04T08:54:36.582Z</time></trkpt><trkpt lat="41.0403038" lon="16.8385452"><ele>97.0</ele><time>2026-04-04T08:54:37.583Z</time></trkpt><trkpt lat="41.0402988" lon="16.8386767"><ele>97.0</ele><time>2026-04-04T08:54:38.582Z</time></trkpt><trkpt lat="41.040286" lon="16.8388155"><ele>97.0</ele><time>2026-04-04T08:54:39.583Z</time></trkpt><trkpt lat="41.0402661" lon="16.8389638"><ele>97.0</ele><time>2026-04-04T08:54:40.582Z</time></trkpt><trkpt lat="41.0402408" lon="16.8391244"><ele>97.0</ele><time>2026-04-04T08:54:41.582Z</time></trkpt><trkpt lat="41.0402257" lon="16.8392865"><ele>97.00000000000001</ele><time>2026-04-04T08:54:42.583Z</time></trkpt><trkpt lat="41.0402191" lon="16.8394237"><ele>97.0</ele><time>2026-04-04T08:54:43.582Z</time></trkpt><trkpt lat="41.0402163" lon="16.8395389"><ele>97.0</ele><time>2026-04-04T08:54:44.582Z</time></trkpt><trkpt lat="41.0402197" lon="16.8396271"><ele>97.0</ele><time>2026-04-04T08:54:45.582Z</time></trkpt><trkpt lat="41.0402139" lon="16.8397484"><ele>97.00000000000001</ele><time>2026-04-04T08:54:48.582Z</time></trkpt><trkpt lat="41.0402748" lon="16.8397937"><ele>97.0</ele><time>2026-04-04T08:54:52.582Z</time></trkpt><trkpt lat="41.040254" lon="16.8396852"><ele>97.00000000000001</ele><time>2026-04-04T08:54:54.582Z</time></trkpt><trkpt lat="41.0402453" lon="16.8396019"><ele>97.0</ele><time>2026-04-04T08:54:55.582Z</time></trkpt><trkpt lat="41.0402415" lon="16.8395094"><ele>97.0</ele><time>2026-04-04T08:54:56.582Z</time></trkpt><trkpt lat="41.0402426" lon="16.8393999"><ele>97.0</ele><time>2026-04-04T08:54:57.582Z</time></trkpt><trkpt lat="41.0402479" lon="16.8392792"><ele>97.00000000000001</ele><time>2026-04-04T08:54:58.583Z</time></trkpt><trkpt lat="41.0402614" lon="16.8391424"><ele>97.0</ele><time>2026-04-04T08:54:59.582Z</time></trkpt><trkpt lat="41.0402777" lon="16.8389977"><ele>97.0</ele><time>2026-04-04T08:55:00.582Z</time></trkpt><trkpt lat="41.0402949" lon="16.8388416"><ele>97.0</ele><time>2026-04-04T08:55:01.582Z</time></trkpt><trkpt lat="41.0403079" lon="16.8386881"><ele>97.0</ele><time>2026-04-04T08:55:02.582Z</time></trkpt><trkpt lat="41.0403101" lon="16.8385516"><ele>97.0</ele><time>2026-04-04T08:55:03.582Z</time></trkpt><trkpt lat="41.0403088" lon="16.8384383"><ele>97.0</ele><time>2026-04-04T08:55:04.583Z</time></trkpt><trkpt lat="41.0403087" lon="16.838334"><ele>97.00000000000001</ele><time>2026-04-04T08:55:05.582Z</time></trkpt><trkpt lat="41.0403187" lon="16.8382458"><ele>97.0</ele><time>2026-04-04T08:55:06.582Z</time></trkpt><trkpt lat="41.0403864" lon="16.8381705"><ele>97.0</ele><time>2026-04-04T08:55:08.582Z</time></trkpt><trkpt lat="41.0404512" lon="16.8381652"><ele>97.0</ele><time>2026-04-04T08:55:09.582Z</time></trkpt><trkpt lat="41.0405281" lon="16.8381838"><ele>97.00000000000001</ele><time>2026-04-04T08:55:10.583Z</time></trkpt><trkpt lat="41.0406162" lon="16.8382068"><ele>97.0</ele><time>2026-04-04T08:55:11.582Z</time></trkpt><trkpt lat="41.0406993" lon="16.83823"><ele>97.00000000000001</ele><time>2026-04-04T08:55:12.582Z</time></trkpt><trkpt lat="41.0407786" lon="16.8382492"><ele>97.0</ele><time>2026-04-04T08:55:13.582Z</time></trkpt><trkpt lat="41.0408569" lon="16.8382626"><ele>97.0</ele><time>2026-04-04T08:55:14.582Z</time></trkpt><trkpt lat="41.0409344" lon="16.8382732"><ele>97.0</ele><time>2026-04-04T08:55:15.583Z</time></trkpt><trkpt lat="41.0410123" lon="16.8382888"><ele>97.00000000000001</ele><time>2026-04-04T08:55:16.582Z</time></trkpt><trkpt lat="41.0410933" lon="16.8383103"><ele>97.0</ele><time>2026-04-04T08:55:17.582Z</time></trkpt><trkpt lat="41.0411742" lon="16.8383356"><ele>96.6</ele><time>2026-04-04T08:55:18.582Z</time></trkpt><trkpt lat="41.041255" lon="16.8383563"><ele>96.19999999999999</ele><time>2026-04-04T08:55:19.582Z</time></trkpt><trkpt lat="41.0413424" lon="16.8383647"><ele>95.8</ele><time>2026-04-04T08:55:20.582Z</time></trkpt><trkpt lat="41.0414384" lon="16.8383648"><ele>95.4</ele><time>2026-04-04T08:55:21.582Z</time></trkpt><trkpt lat="41.0415443" lon="16.8383657"><ele>95.0</ele><time>2026-04-04T08:55:22.583Z</time></trkpt><trkpt lat="41.0416589" lon="16.8383618"><ele>94.75</ele><time>2026-04-04T08:55:23.582Z</time></trkpt><trkpt lat="41.0417772" lon="16.8383655"><ele>94.5</ele><time>2026-04-04T08:55:24.582Z</time></trkpt><trkpt lat="41.0418936" lon="16.8383799"><ele>94.25</ele><time>2026-04-04T08:55:25.582Z</time></trkpt><trkpt lat="41.0420114" lon="16.8384139"><ele>94.0</ele><time>2026-04-04T08:55:26.582Z</time></trkpt><trkpt lat="41.0421257" lon="16.8384558"><ele>93.80000000000001</ele><time>2026-04-04T08:55:27.583Z</time></trkpt><trkpt lat="41.0422323" lon="16.8385005"><ele>93.60000000000001</ele><time>2026-04-04T08:55:28.582Z</time></trkpt><trkpt lat="41.0423365" lon="16.8385446"><ele>93.4</ele><time>2026-04-04T08:55:29.582Z</time></trkpt><trkpt lat="41.042436" lon="16.8385845"><ele>93.2</ele><time>2026-04-04T08:55:30.582Z</time></trkpt><trkpt lat="41.042536" lon="16.8386193"><ele>93.0</ele><time>2026-04-04T08:55:31.582Z</time></trkpt><trkpt lat="41.0426349" lon="16.8386451"><ele>92.4</ele><time>2026-04-04T08:55:32.582Z</time></trkpt><trkpt lat="41.042733" lon="16.8386465"><ele>91.80000000000001</ele><time>2026-04-04T08:55:33.583Z</time></trkpt><trkpt lat="41.0428294" lon="16.8386321"><ele>91.2</ele><time>2026-04-04T08:55:34.583Z</time></trkpt><trkpt lat="41.0429101" lon="16.8386185"><ele>90.6</ele><time>2026-04-04T08:55:35.582Z</time></trkpt><trkpt lat="41.0430262" lon="16.8386314"><ele>90.0</ele><time>2026-04-04T08:55:37.583Z</time></trkpt><trkpt lat="41.043096" lon="16.838727"><ele>90.0</ele><time>2026-04-04T08:55:39.582Z</time></trkpt><trkpt lat="41.0431725" lon="16.8388086"><ele>90.0</ele><time>2026-04-04T08:55:41.582Z</time></trkpt><trkpt lat="41.0432612" lon="16.8388972"><ele>90.0</ele><time>2026-04-04T08:55:43.582Z</time></trkpt><trkpt lat="41.0433037" lon="16.8389663"><ele>90.0</ele><time>2026-04-04T08:55:44.582Z</time></trkpt><trkpt lat="41.0433431" lon="16.8390424"><ele>90.0</ele><time>2026-04-04T08:55:45.582Z</time></trkpt><trkpt lat="41.0433799" lon="16.8391143"><ele>90.0</ele><time>2026-04-04T08:55:46.582Z</time></trkpt><trkpt lat="41.0434154" lon="16.8391857"><ele>90.0</ele><time>2026-04-04T08:55:47.583Z</time></trkpt><trkpt lat="41.0434736" lon="16.8393089"><ele>90.0</ele><time>2026-04-04T08:55:49.582Z</time></trkpt><trkpt lat="41.0435265" lon="16.8394037"><ele>90.0</ele><time>2026-04-04T08:55:51.582Z</time></trkpt><trkpt lat="41.0435832" lon="16.8394535"><ele>90.0</ele><time>2026-04-04T08:55:53.583Z</time></trkpt><trkpt lat="41.0436763" lon="16.8393978"><ele>90.0</ele><time>2026-04-04T08:55:56.582Z</time></trkpt><trkpt lat="41.0437417" lon="16.8393524"><ele>90.0</ele><time>2026-04-04T08:55:58.582Z</time></trkpt><trkpt lat="41.0437926" lon="16.8394062"><ele>90.0</ele><time>2026-04-04T08:56:01.582Z</time></trkpt><trkpt lat="41.0438157" lon="16.8394869"><ele>90.0</ele><time>2026-04-04T08:56:03.582Z</time></trkpt><trkpt lat="41.0438992" lon="16.8395647"><ele>90.0</ele><time>2026-04-04T08:56:05.582Z</time></trkpt><trkpt lat="41.0439544" lon="16.8397128"><ele>90.0</ele><time>2026-04-04T08:56:07.582Z</time></trkpt><trkpt lat="41.0439757" lon="16.8398158"><ele>90.0</ele><time>2026-04-04T08:56:08.582Z</time></trkpt><trkpt lat="41.0439853" lon="16.8399161"><ele>90.0</ele><time>2026-04-04T08:56:09.582Z</time></trkpt><trkpt lat="41.0440062" lon="16.8400168"><ele>90.0</ele><time>2026-04-04T08:56:10.582Z</time></trkpt><trkpt lat="41.0440443" lon="16.8401184"><ele>90.0</ele><time>2026-04-04T08:56:11.582Z</time></trkpt><trkpt lat="41.0440922" lon="16.8402112"><ele>90.0</ele><time>2026-04-04T08:56:12.582Z</time></trkpt><trkpt lat="41.0441391" lon="16.8402886"><ele>90.0</ele><time>2026-04-04T08:56:13.582Z</time></trkpt><trkpt lat="41.0441882" lon="16.8403594"><ele>90.0</ele><time>2026-04-04T08:56:14.582Z</time></trkpt><trkpt lat="41.0442383" lon="16.8404133"><ele>90.0</ele><time>2026-04-04T08:56:15.582Z</time></trkpt><trkpt lat="41.044296" lon="16.8404624"><ele>90.0</ele><time>2026-04-04T08:56:16.582Z</time></trkpt><trkpt lat="41.0443589" lon="16.840499"><ele>90.0</ele><time>2026-04-04T08:56:17.582Z</time></trkpt><trkpt lat="41.0444295" lon="16.8405132"><ele>90.0</ele><time>2026-04-04T08:56:18.582Z</time></trkpt><trkpt lat="41.0445063" lon="16.8405315"><ele>90.0</ele><time>2026-04-04T08:56:19.582Z</time></trkpt><trkpt lat="41.0445668" lon="16.840563"><ele>90.0</ele><time>2026-04-04T08:56:20.583Z</time></trkpt><trkpt lat="41.0446173" lon="16.8406195"><ele>90.0</ele><time>2026-04-04T08:56:21.582Z</time></trkpt><trkpt lat="41.0446756" lon="16.8407014"><ele>90.0</ele><time>2026-04-04T08:56:22.582Z</time></trkpt><trkpt lat="41.0447264" lon="16.8407727"><ele>90.0</ele><time>2026-04-04T08:56:23.582Z</time></trkpt><trkpt lat="41.0447813" lon="16.8408248"><ele>90.0</ele><time>2026-04-04T08:56:24.583Z</time></trkpt><trkpt lat="41.0448436" lon="16.840859"><ele>90.0</ele><time>2026-04-04T08:56:25.584Z</time></trkpt><trkpt lat="41.0449168" lon="16.8408704"><ele>90.0</ele><time>2026-04-04T08:56:26.582Z</time></trkpt><trkpt lat="41.0450115" lon="16.8408931"><ele>90.0</ele><time>2026-04-04T08:56:27.582Z</time></trkpt><trkpt lat="41.04509" lon="16.8408955"><ele>90.0</ele><time>2026-04-04T08:56:28.582Z</time></trkpt><trkpt lat="41.0451706" lon="16.840883"><ele>89.8</ele><time>2026-04-04T08:56:29.582Z</time></trkpt><trkpt lat="41.0452558" lon="16.8408649"><ele>89.6</ele><time>2026-04-04T08:56:30.582Z</time></trkpt><trkpt lat="41.0453479" lon="16.8408455"><ele>89.4</ele><time>2026-04-04T08:56:31.582Z</time></trkpt><trkpt lat="41.0454424" lon="16.8408247"><ele>89.2</ele><time>2026-04-04T08:56:32.582Z</time></trkpt><trkpt lat="41.0455507" lon="16.8408088"><ele>89.0</ele><time>2026-04-04T08:56:33.582Z</time></trkpt><trkpt lat="41.0456532" lon="16.8407993"><ele>89.0</ele><time>2026-04-04T08:56:34.582Z</time></trkpt><trkpt lat="41.0457438" lon="16.8407943"><ele>89.0</ele><time>2026-04-04T08:56:35.583Z</time></trkpt><trkpt lat="41.0458277" lon="16.8407818"><ele>89.0</ele><time>2026-04-04T08:56:36.582Z</time></trkpt><trkpt lat="41.0459138" lon="16.8407656"><ele>89.0</ele><time>2026-04-04T08:56:37.582Z</time></trkpt><trkpt lat="41.0460022" lon="16.8407532"><ele>89.0</ele><time>2026-04-04T08:56:38.582Z</time></trkpt><trkpt lat="41.0460914" lon="16.8407425"><ele>89.0</ele><time>2026-04-04T08:56:39.582Z</time></trkpt><trkpt lat="41.0461748" lon="16.8407285"><ele>88.83333333333334</ele><time>2026-04-04T08:56:40.582Z</time></trkpt><trkpt lat="41.0462547" lon="16.8407116"><ele>88.66666666666667</ele><time>2026-04-04T08:56:41.583Z</time></trkpt><trkpt lat="41.0463312" lon="16.8406974"><ele>88.5</ele><time>2026-04-04T08:56:42.582Z</time></trkpt><trkpt lat="41.046405" lon="16.8406895"><ele>88.33333333333333</ele><time>2026-04-04T08:56:43.582Z</time></trkpt><trkpt lat="41.0464758" lon="16.8406773"><ele>88.16666666666666</ele><time>2026-04-04T08:56:44.582Z</time></trkpt><trkpt lat="41.0465495" lon="16.8406614"><ele>88.0</ele><time>2026-04-04T08:56:45.582Z</time></trkpt><trkpt lat="41.0466234" lon="16.8406536"><ele>87.83333333333333</ele><time>2026-04-04T08:56:46.583Z</time></trkpt><trkpt lat="41.0467013" lon="16.8406424"><ele>87.66666666666666</ele><time>2026-04-04T08:56:47.582Z</time></trkpt><trkpt lat="41.0467819" lon="16.8406277"><ele>87.5</ele><time>2026-04-04T08:56:48.582Z</time></trkpt><trkpt lat="41.0468658" lon="16.8406086"><ele>87.33333333333333</ele><time>2026-04-04T08:56:49.583Z</time></trkpt><trkpt lat="41.0469539" lon="16.8405923"><ele>87.16666666666667</ele><time>2026-04-04T08:56:50.582Z</time></trkpt><trkpt lat="41.0470403" lon="16.840577"><ele>87.0</ele><time>2026-04-04T08:56:51.583Z</time></trkpt><trkpt lat="41.0471285" lon="16.8405611"><ele>87.0</ele><time>2026-04-04T08:56:52.582Z</time></trkpt><trkpt lat="41.0472122" lon="16.8405466"><ele>87.0</ele><time>2026-04-04T08:56:53.582Z</time></trkpt><trkpt lat="41.0472906" lon="16.8405305"><ele>87.0</ele><time>2026-04-04T08:56:54.583Z</time></trkpt><trkpt lat="41.0473679" lon="16.8405173"><ele>87.0</ele><time>2026-04-04T08:56:55.582Z</time></trkpt><trkpt lat="41.0474397" lon="16.8405131"><ele>87.0</ele><time>2026-04-04T08:56:56.582Z</time></trkpt><trkpt lat="41.0475101" lon="16.8405007"><ele>87.0</ele><time>2026-04-04T08:56:57.582Z</time></trkpt><trkpt lat="41.0475732" lon="16.8404889"><ele>87.0</ele><time>2026-04-04T08:56:58.582Z</time></trkpt><trkpt lat="41.0476864" lon="16.8404754"><ele>87.0</ele><time>2026-04-04T08:57:00.582Z</time></trkpt><trkpt lat="41.0478055" lon="16.8404558"><ele>87.0</ele><time>2026-04-04T08:57:02.582Z</time></trkpt><trkpt lat="41.047876" lon="16.8404435"><ele>87.0</ele><time>2026-04-04T08:57:03.582Z</time></trkpt><trkpt lat="41.0479563" lon="16.8404285"><ele>87.0</ele><time>2026-04-04T08:57:04.582Z</time></trkpt><trkpt lat="41.0480387" lon="16.8404168"><ele>87.0</ele><time>2026-04-04T08:57:05.582Z</time></trkpt><trkpt lat="41.0481234" lon="16.8404004"><ele>87.0</ele><time>2026-04-04T08:57:06.582Z</time></trkpt><trkpt lat="41.0482142" lon="16.8403856"><ele>86.83333333333333</ele><time>2026-04-04T08:57:07.582Z</time></trkpt><trkpt lat="41.0483056" lon="16.8403702"><ele>86.66666666666667</ele><time>2026-04-04T08:57:08.582Z</time></trkpt><trkpt lat="41.0483967" lon="16.8403557"><ele>86.5</ele><time>2026-04-04T08:57:09.583Z</time></trkpt><trkpt lat="41.0484815" lon="16.8403433"><ele>86.33333333333334</ele><time>2026-04-04T08:57:10.582Z</time></trkpt><trkpt lat="41.0485602" lon="16.840329"><ele>86.16666666666667</ele><time>2026-04-04T08:57:11.582Z</time></trkpt><trkpt lat="41.04863" lon="16.8403189"><ele>86.0</ele><time>2026-04-04T08:57:12.582Z</time></trkpt><trkpt lat="41.0487535" lon="16.8403033"><ele>86.0</ele><time>2026-04-04T08:57:14.584Z</time></trkpt><trkpt lat="41.0488414" lon="16.8403288"><ele>86.0</ele><time>2026-04-04T08:57:16.582Z</time></trkpt><trkpt lat="41.0488691" lon="16.8404365"><ele>86.0</ele><time>2026-04-04T08:57:18.582Z</time></trkpt><trkpt lat="41.0488841" lon="16.8405815"><ele>86.0</ele><time>2026-04-04T08:57:20.583Z</time></trkpt><trkpt lat="41.0488891" lon="16.8406824"><ele>86.0</ele><time>2026-04-04T08:57:21.582Z</time></trkpt><trkpt lat="41.0489102" lon="16.8407842"><ele>86.0</ele><time>2026-04-04T08:57:22.583Z</time></trkpt><trkpt lat="41.048961" lon="16.8409367"><ele>85.4</ele><time>2026-04-04T08:57:23.582Z</time></trkpt><trkpt lat="41.0489728" lon="16.8410943"><ele>84.8</ele><time>2026-04-04T08:57:24.583Z</time></trkpt><trkpt lat="41.0489958" lon="16.841221"><ele>84.2</ele><time>2026-04-04T08:57:25.582Z</time></trkpt><trkpt lat="41.0490184" lon="16.8413126"><ele>83.60000000000001</ele><time>2026-04-04T08:57:26.582Z</time></trkpt><trkpt lat="41.0490458" lon="16.8413954"><ele>83.0</ele><time>2026-04-04T08:57:27.582Z</time></trkpt><trkpt lat="41.0491409" lon="16.8414505"><ele>82.80000000000001</ele><time>2026-04-04T08:57:29.582Z</time></trkpt><trkpt lat="41.0492159" lon="16.8414442"><ele>82.6</ele><time>2026-04-04T08:57:30.582Z</time></trkpt><trkpt lat="41.0493142" lon="16.841448"><ele>82.4</ele><time>2026-04-04T08:57:31.582Z</time></trkpt><trkpt lat="41.0494198" lon="16.8414518"><ele>82.19999999999999</ele><time>2026-04-04T08:57:32.582Z</time></trkpt><trkpt lat="41.0495282" lon="16.8414626"><ele>82.0</ele><time>2026-04-04T08:57:33.582Z</time></trkpt><trkpt lat="41.0496491" lon="16.8414682"><ele>82.0</ele><time>2026-04-04T08:57:34.582Z</time></trkpt><trkpt lat="41.0497782" lon="16.841471"><ele>82.0</ele><time>2026-04-04T08:57:35.582Z</time></trkpt><trkpt lat="41.0499003" lon="16.8414781"><ele>82.0</ele><time>2026-04-04T08:57:36.582Z</time></trkpt><trkpt lat="41.0500049" lon="16.8414992"><ele>82.0</ele><time>2026-04-04T08:57:37.582Z</time></trkpt><trkpt lat="41.0500893" lon="16.8415138"><ele>82.0</ele><time>2026-04-04T08:57:38.582Z</time></trkpt><trkpt lat="41.0501516" lon="16.8415261"><ele>82.0</ele><time>2026-04-04T08:57:39.582Z</time></trkpt><trkpt lat="41.0502174" lon="16.8416005"><ele>82.0</ele><time>2026-04-04T08:57:41.583Z</time></trkpt><trkpt lat="41.050231" lon="16.8417805"><ele>82.0</ele><time>2026-04-04T08:57:43.582Z</time></trkpt><trkpt lat="41.050222" lon="16.8419093"><ele>82.0</ele><time>2026-04-04T08:57:44.583Z</time></trkpt><trkpt lat="41.0502173" lon="16.8420522"><ele>82.0</ele><time>2026-04-04T08:57:45.582Z</time></trkpt><trkpt lat="41.0502084" lon="16.8422045"><ele>81.39999999999999</ele><time>2026-04-04T08:57:46.582Z</time></trkpt><trkpt lat="41.0502002" lon="16.8423432"><ele>80.8</ele><time>2026-04-04T08:57:47.582Z</time></trkpt><trkpt lat="41.0502021" lon="16.842482"><ele>80.2</ele><time>2026-04-04T08:57:48.582Z</time></trkpt><trkpt lat="41.0501989" lon="16.8426154"><ele>79.6</ele><time>2026-04-04T08:57:49.582Z</time></trkpt><trkpt lat="41.0501927" lon="16.842754"><ele>79.0</ele><time>2026-04-04T08:57:50.582Z</time></trkpt><trkpt lat="41.0501872" lon="16.8428962"><ele>79.0</ele><time>2026-04-04T08:57:51.583Z</time></trkpt><trkpt lat="41.0501834" lon="16.8430266"><ele>79.0</ele><time>2026-04-04T08:57:52.582Z</time></trkpt><trkpt lat="41.0501769" lon="16.8431411"><ele>79.0</ele><time>2026-04-04T08:57:53.582Z</time></trkpt><trkpt lat="41.0501792" lon="16.8432313"><ele>79.0</ele><time>2026-04-04T08:57:54.582Z</time></trkpt><trkpt lat="41.0502356" lon="16.8433505"><ele>79.0</ele><time>2026-04-04T08:57:56.582Z</time></trkpt><trkpt lat="41.0502899" lon="16.8434017"><ele>79.0</ele><time>2026-04-04T08:57:57.582Z</time></trkpt><trkpt lat="41.0503629" lon="16.8434538"><ele>79.0</ele><time>2026-04-04T08:57:58.582Z</time></trkpt><trkpt lat="41.0504373" lon="16.8435172"><ele>79.0</ele><time>2026-04-04T08:57:59.582Z</time></trkpt><trkpt lat="41.0505147" lon="16.8436011"><ele>79.0</ele><time>2026-04-04T08:58:00.582Z</time></trkpt><trkpt lat="41.0505987" lon="16.8436956"><ele>79.0</ele><time>2026-04-04T08:58:01.583Z</time></trkpt><trkpt lat="41.050687" lon="16.8437908"><ele>79.0</ele><time>2026-04-04T08:58:02.582Z</time></trkpt><trkpt lat="41.050773" lon="16.8438905"><ele>78.60000000000001</ele><time>2026-04-04T08:58:03.582Z</time></trkpt><trkpt lat="41.0508524" lon="16.8439663"><ele>78.2</ele><time>2026-04-04T08:58:04.583Z</time></trkpt><trkpt lat="41.0509234" lon="16.8440487"><ele>77.80000000000001</ele><time>2026-04-04T08:58:05.582Z</time></trkpt><trkpt lat="41.050985" lon="16.8441489"><ele>77.4</ele><time>2026-04-04T08:58:06.582Z</time></trkpt><trkpt lat="41.0510397" lon="16.8442544"><ele>77.0</ele><time>2026-04-04T08:58:07.582Z</time></trkpt><trkpt lat="41.0510898" lon="16.8443749"><ele>78.0</ele><time>2026-04-04T08:58:08.582Z</time></trkpt><trkpt lat="41.0511316" lon="16.8445089"><ele>79.0</ele><time>2026-04-04T08:58:09.583Z</time></trkpt><trkpt lat="41.0511685" lon="16.8446506"><ele>80.0</ele><time>2026-04-04T08:58:10.582Z</time></trkpt><trkpt lat="41.0512013" lon="16.8447954"><ele>81.0</ele><time>2026-04-04T08:58:11.583Z</time></trkpt><trkpt lat="41.05123" lon="16.8449492"><ele>81.0</ele><time>2026-04-04T08:58:12.582Z</time></trkpt><trkpt lat="41.051257" lon="16.8451135"><ele>81.0</ele><time>2026-04-04T08:58:13.582Z</time></trkpt><trkpt lat="41.051284" lon="16.845278"><ele>81.0</ele><time>2026-04-04T08:58:14.582Z</time></trkpt><trkpt lat="41.0513148" lon="16.8454508"><ele>81.0</ele><time>2026-04-04T08:58:15.582Z</time></trkpt><trkpt lat="41.0513341" lon="16.8456113"><ele>81.0</ele><time>2026-04-04T08:58:16.582Z</time></trkpt><trkpt lat="41.0513486" lon="16.8457616"><ele>81.0</ele><time>2026-04-04T08:58:17.582Z</time></trkpt><trkpt lat="41.051351" lon="16.8459013"><ele>81.0</ele><time>2026-04-04T08:58:18.582Z</time></trkpt><trkpt lat="41.0513556" lon="16.8460443"><ele>81.0</ele><time>2026-04-04T08:58:19.582Z</time></trkpt><trkpt lat="41.0513603" lon="16.8461801"><ele>81.0</ele><time>2026-04-04T08:58:20.583Z</time></trkpt><trkpt lat="41.0513588" lon="16.8463053"><ele>81.0</ele><time>2026-04-04T08:58:21.582Z</time></trkpt><trkpt lat="41.0513568" lon="16.8464345"><ele>81.0</ele><time>2026-04-04T08:58:22.582Z</time></trkpt><trkpt lat="41.0513554" lon="16.8465666"><ele>81.0</ele><time>2026-04-04T08:58:23.582Z</time></trkpt><trkpt lat="41.0513544" lon="16.8467058"><ele>81.0</ele><time>2026-04-04T08:58:24.582Z</time></trkpt><trkpt lat="41.0513563" lon="16.846844"><ele>81.0</ele><time>2026-04-04T08:58:25.582Z</time></trkpt><trkpt lat="41.051356" lon="16.8469563"><ele>80.33333333333333</ele><time>2026-04-04T08:58:26.582Z</time></trkpt><trkpt lat="41.0513586" lon="16.8470557"><ele>79.66666666666667</ele><time>2026-04-04T08:58:27.582Z</time></trkpt><trkpt lat="41.0513607" lon="16.8471454"><ele>79.0</ele><time>2026-04-04T08:58:28.582Z</time></trkpt><trkpt lat="41.0513642" lon="16.8472626"><ele>78.33333333333334</ele><time>2026-04-04T08:58:30.582Z</time></trkpt><trkpt lat="41.0513677" lon="16.8474058"><ele>77.66666666666667</ele><time>2026-04-04T08:58:32.582Z</time></trkpt><trkpt lat="41.0513645" lon="16.847509"><ele>77.0</ele><time>2026-04-04T08:58:33.582Z</time></trkpt><trkpt lat="41.051358" lon="16.847626"><ele>76.66666666666667</ele><time>2026-04-04T08:58:34.582Z</time></trkpt><trkpt lat="41.0513479" lon="16.8477339"><ele>76.33333333333334</ele><time>2026-04-04T08:58:35.582Z</time></trkpt><trkpt lat="41.0513385" lon="16.8478325"><ele>76.0</ele><time>2026-04-04T08:58:36.582Z</time></trkpt><trkpt lat="41.05135" lon="16.8479232"><ele>75.66666666666667</ele><time>2026-04-04T08:58:37.582Z</time></trkpt><trkpt lat="41.0513939" lon="16.847999"><ele>75.33333333333333</ele><time>2026-04-04T08:58:38.582Z</time></trkpt><trkpt lat="41.0514588" lon="16.8480705"><ele>75.0</ele><time>2026-04-04T08:58:39.582Z</time></trkpt><trkpt lat="41.0515338" lon="16.8481467"><ele>75.0</ele><time>2026-04-04T08:58:40.582Z</time></trkpt><trkpt lat="41.0516178" lon="16.8482286"><ele>75.0</ele><time>2026-04-04T08:58:41.582Z</time></trkpt><trkpt lat="41.0517117" lon="16.8483153"><ele>75.0</ele><time>2026-04-04T08:58:42.583Z</time></trkpt><trkpt lat="41.0518108" lon="16.8484106"><ele>75.0</ele><time>2026-04-04T08:58:43.583Z</time></trkpt><trkpt lat="41.0519026" lon="16.8485019"><ele>74.83333333333333</ele><time>2026-04-04T08:58:44.582Z</time></trkpt><trkpt lat="41.0519845" lon="16.8485753"><ele>74.66666666666667</ele><time>2026-04-04T08:58:45.582Z</time></trkpt><trkpt lat="41.0520597" lon="16.8486331"><ele>74.5</ele><time>2026-04-04T08:58:46.582Z</time></trkpt><trkpt lat="41.0521211" lon="16.8487145"><ele>74.33333333333334</ele><time>2026-04-04T08:58:47.582Z</time></trkpt><trkpt lat="41.0521779" lon="16.8487961"><ele>74.16666666666667</ele><time>2026-04-04T08:58:48.582Z</time></trkpt><trkpt lat="41.0522382" lon="16.8488834"><ele>74.0</ele><time>2026-04-04T08:58:49.582Z</time></trkpt><trkpt lat="41.052296" lon="16.8489705"><ele>74.0</ele><time>2026-04-04T08:58:50.582Z</time></trkpt><trkpt lat="41.0523525" lon="16.84907"><ele>74.0</ele><time>2026-04-04T08:58:51.582Z</time></trkpt><trkpt lat="41.052411" lon="16.8491747"><ele>74.0</ele><time>2026-04-04T08:58:52.582Z</time></trkpt><trkpt lat="41.0524755" lon="16.8492898"><ele>74.0</ele><time>2026-04-04T08:58:53.582Z</time></trkpt><trkpt lat="41.0525391" lon="16.8494177"><ele>74.0</ele><time>2026-04-04T08:58:54.582Z</time></trkpt><trkpt lat="41.0526077" lon="16.8495456"><ele>73.5</ele><time>2026-04-04T08:58:55.582Z</time></trkpt><trkpt lat="41.0526818" lon="16.8496718"><ele>73.0</ele><time>2026-04-04T08:58:56.582Z</time></trkpt><trkpt lat="41.0527579" lon="16.8497995"><ele>72.5</ele><time>2026-04-04T08:58:57.582Z</time></trkpt><trkpt lat="41.052835" lon="16.8499318"><ele>72.0</ele><time>2026-04-04T08:58:58.582Z</time></trkpt><trkpt lat="41.0529131" lon="16.8500652"><ele>72.75</ele><time>2026-04-04T08:58:59.582Z</time></trkpt><trkpt lat="41.0529947" lon="16.8502061"><ele>73.5</ele><time>2026-04-04T08:59:00.582Z</time></trkpt><trkpt lat="41.0530786" lon="16.8503514"><ele>74.25</ele><time>2026-04-04T08:59:01.582Z</time></trkpt><trkpt lat="41.0531627" lon="16.8504961"><ele>75.0</ele><time>2026-04-04T08:59:02.583Z</time></trkpt><trkpt lat="41.0532396" lon="16.8506266"><ele>74.5</ele><time>2026-04-04T08:59:03.582Z</time></trkpt><trkpt lat="41.0533192" lon="16.850756"><ele>74.0</ele><time>2026-04-04T08:59:04.582Z</time></trkpt><trkpt lat="41.0534004" lon="16.8508914"><ele>73.5</ele><time>2026-04-04T08:59:05.582Z</time></trkpt><trkpt lat="41.0534789" lon="16.8510337"><ele>73.0</ele><time>2026-04-04T08:59:06.583Z</time></trkpt><trkpt lat="41.0535666" lon="16.8511776"><ele>73.0</ele><time>2026-04-04T08:59:07.582Z</time></trkpt><trkpt lat="41.0536584" lon="16.8513194"><ele>73.0</ele><time>2026-04-04T08:59:08.582Z</time></trkpt><trkpt lat="41.0537446" lon="16.8514468"><ele>73.0</ele><time>2026-04-04T08:59:09.582Z</time></trkpt><trkpt lat="41.0538322" lon="16.851564"><ele>73.0</ele><time>2026-04-04T08:59:10.582Z</time></trkpt><trkpt lat="41.0539195" lon="16.8516739"><ele>73.0</ele><time>2026-04-04T08:59:11.582Z</time></trkpt><trkpt lat="41.0539969" lon="16.8517683"><ele>73.0</ele><time>2026-04-04T08:59:12.582Z</time></trkpt><trkpt lat="41.0540631" lon="16.8518483"><ele>73.0</ele><time>2026-04-04T08:59:13.582Z</time></trkpt><trkpt lat="41.0541193" lon="16.851909"><ele>73.0</ele><time>2026-04-04T08:59:14.582Z</time></trkpt><trkpt lat="41.0541868" lon="16.8519916"><ele>73.0</ele><time>2026-04-04T08:59:16.583Z</time></trkpt><trkpt lat="41.0542384" lon="16.8520502"><ele>73.0</ele><time>2026-04-04T08:59:18.582Z</time></trkpt><trkpt lat="41.054319" lon="16.8521521"><ele>73.16666666666666</ele><time>2026-04-04T08:59:20.582Z</time></trkpt><trkpt lat="41.0543791" lon="16.8522211"><ele>73.33333333333333</ele><time>2026-04-04T08:59:21.582Z</time></trkpt><trkpt lat="41.0544419" lon="16.8522908"><ele>73.5</ele><time>2026-04-04T08:59:22.583Z</time></trkpt><trkpt lat="41.0544908" lon="16.8523456"><ele>73.66666666666667</ele><time>2026-04-04T08:59:23.582Z</time></trkpt><trkpt lat="41.0545747" lon="16.8524431"><ele>73.83333333333334</ele><time>2026-04-04T08:59:25.582Z</time></trkpt><trkpt lat="41.0546445" lon="16.8525281"><ele>74.0</ele><time>2026-04-04T08:59:27.582Z</time></trkpt><trkpt lat="41.0545507" lon="16.8524157"><ele>74.0</ele><time>2026-04-04T08:59:34.582Z</time></trkpt><trkpt lat="41.054494" lon="16.8523592"><ele>74.0</ele><time>2026-04-04T08:59:35.583Z</time></trkpt><trkpt lat="41.0544389" lon="16.8523001"><ele>74.0</ele><time>2026-04-04T08:59:36.582Z</time></trkpt><trkpt lat="41.0543845" lon="16.8522377"><ele>74.0</ele><time>2026-04-04T08:59:37.582Z</time></trkpt><trkpt lat="41.0543316" lon="16.8521774"><ele>74.0</ele><time>2026-04-04T08:59:38.582Z</time></trkpt><trkpt lat="41.054282" lon="16.85212"><ele>74.0</ele><time>2026-04-04T08:59:39.583Z</time></trkpt><trkpt lat="41.0542334" lon="16.8520656"><ele>74.0</ele><time>2026-04-04T08:59:40.582Z</time></trkpt><trkpt lat="41.0541703" lon="16.8519721"><ele>74.0</ele><time>2026-04-04T08:59:42.582Z</time></trkpt><trkpt lat="41.0541755" lon="16.8518829"><ele>74.0</ele><time>2026-04-04T08:59:44.582Z</time></trkpt><trkpt lat="41.0542006" lon="16.8518022"><ele>74.0</ele><time>2026-04-04T08:59:48.582Z</time></trkpt><trkpt lat="41.0541718" lon="16.8519159"><ele>74.0</ele><time>2026-04-04T08:59:53.582Z</time></trkpt><trkpt lat="41.0541764" lon="16.8519997"><ele>74.0</ele><time>2026-04-04T08:59:55.582Z</time></trkpt><trkpt lat="41.054227" lon="16.8520569"><ele>74.0</ele><time>2026-04-04T08:59:58.582Z</time></trkpt><trkpt lat="41.0542919" lon="16.8521315"><ele>74.0</ele><time>2026-04-04T09:00:00.582Z</time></trkpt><trkpt lat="41.0543877" lon="16.8522444"><ele>74.0</ele><time>2026-04-04T09:00:02.583Z</time></trkpt><trkpt lat="41.0544462" lon="16.852306"><ele>74.0</ele><time>2026-04-04T09:00:03.582Z</time></trkpt><trkpt lat="41.0545102" lon="16.8523725"><ele>74.0</ele><time>2026-04-04T09:00:04.582Z</time></trkpt><trkpt lat="41.0545723" lon="16.8524393"><ele>74.0</ele><time>2026-04-04T09:00:05.582Z</time></trkpt><trkpt lat="41.0546352" lon="16.852499"><ele>74.0</ele><time>2026-04-04T09:00:06.582Z</time></trkpt><trkpt lat="41.0547013" lon="16.8525445"><ele>74.0</ele><time>2026-04-04T09:00:07.582Z</time></trkpt><trkpt lat="41.0547738" lon="16.8525819"><ele>74.0</ele><time>2026-04-04T09:00:08.582Z</time></trkpt><trkpt lat="41.0548421" lon="16.8526115"><ele>74.0</ele><time>2026-04-04T09:00:09.582Z</time></trkpt><trkpt lat="41.0549357" lon="16.8526652"><ele>74.0</ele><time>2026-04-04T09:00:11.582Z</time></trkpt><trkpt lat="41.0549867" lon="16.8527337"><ele>74.0</ele><time>2026-04-04T09:00:13.582Z</time></trkpt><trkpt lat="41.0550369" lon="16.8528448"><ele>74.0</ele><time>2026-04-04T09:00:15.582Z</time></trkpt><trkpt lat="41.0550995" lon="16.8529763"><ele>74.16666666666667</ele><time>2026-04-04T09:00:17.582Z</time></trkpt><trkpt lat="41.0551345" lon="16.8530474"><ele>74.33333333333334</ele><time>2026-04-04T09:00:18.583Z</time></trkpt><trkpt lat="41.0551711" lon="16.8531161"><ele>74.5</ele><time>2026-04-04T09:00:19.582Z</time></trkpt><trkpt lat="41.0552476" lon="16.8532511"><ele>74.66666666666667</ele><time>2026-04-04T09:00:21.583Z</time></trkpt><trkpt lat="41.0552894" lon="16.853319"><ele>74.83333333333333</ele><time>2026-04-04T09:00:22.583Z</time></trkpt><trkpt lat="41.0553375" lon="16.8533909"><ele>75.0</ele><time>2026-04-04T09:00:23.582Z</time></trkpt><trkpt lat="41.0553866" lon="16.853466"><ele>75.16666666666667</ele><time>2026-04-04T09:00:24.582Z</time></trkpt><trkpt lat="41.055434" lon="16.8535479"><ele>75.33333333333333</ele><time>2026-04-04T09:00:25.582Z</time></trkpt><trkpt lat="41.0554829" lon="16.853635"><ele>75.5</ele><time>2026-04-04T09:00:26.582Z</time></trkpt><trkpt lat="41.0555384" lon="16.8537268"><ele>75.66666666666666</ele><time>2026-04-04T09:00:27.582Z</time></trkpt><trkpt lat="41.0555947" lon="16.8538199"><ele>75.83333333333333</ele><time>2026-04-04T09:00:28.582Z</time></trkpt><trkpt lat="41.0556483" lon="16.8539143"><ele>76.0</ele><time>2026-04-04T09:00:29.58Z</time></trkpt><trkpt lat="41.0557059" lon="16.8540088"><ele>76.0</ele><time>2026-04-04T09:00:30.582Z</time></trkpt><trkpt lat="41.0557693" lon="16.8541155"><ele>76.0</ele><time>2026-04-04T09:00:31.583Z</time></trkpt><trkpt lat="41.0558361" lon="16.8542348"><ele>76.0</ele><time>2026-04-04T09:00:32.582Z</time></trkpt><trkpt lat="41.0558959" lon="16.8543574"><ele>76.0</ele><time>2026-04-04T09:00:33.582Z</time></trkpt><trkpt lat="41.0559416" lon="16.8544885"><ele>76.0</ele><time>2026-04-04T09:00:34.582Z</time></trkpt><trkpt lat="41.0559814" lon="16.8546252"><ele>76.0</ele><time>2026-04-04T09:00:35.582Z</time></trkpt><trkpt lat="41.0560115" lon="16.8547717"><ele>76.0</ele><time>2026-04-04T09:00:36.582Z</time></trkpt><trkpt lat="41.056033" lon="16.8549061"><ele>76.0</ele><time>2026-04-04T09:00:37.582Z</time></trkpt><trkpt lat="41.0560572" lon="16.8550326"><ele>76.0</ele><time>2026-04-04T09:00:38.582Z</time></trkpt><trkpt lat="41.0560908" lon="16.855143"><ele>76.0</ele><time>2026-04-04T09:00:39.582Z</time></trkpt><trkpt lat="41.0561276" lon="16.8552498"><ele>75.83333333333333</ele><time>2026-04-04T09:00:40.582Z</time></trkpt><trkpt lat="41.0561612" lon="16.85536"><ele>75.66666666666666</ele><time>2026-04-04T09:00:41.582Z</time></trkpt><trkpt lat="41.0561807" lon="16.8554774"><ele>75.5</ele><time>2026-04-04T09:00:42.583Z</time></trkpt><trkpt lat="41.0561804" lon="16.8555892"><ele>75.33333333333333</ele><time>2026-04-04T09:00:43.582Z</time></trkpt><trkpt lat="41.0561802" lon="16.8557016"><ele>75.16666666666667</ele><time>2026-04-04T09:00:44.583Z</time></trkpt><trkpt lat="41.0562075" lon="16.8557994"><ele>75.0</ele><time>2026-04-04T09:00:45.582Z</time></trkpt><trkpt lat="41.0562556" lon="16.8558962"><ele>75.0</ele><time>2026-04-04T09:00:46.583Z</time></trkpt><trkpt lat="41.0563169" lon="16.8560021"><ele>75.0</ele><time>2026-04-04T09:00:47.582Z</time></trkpt><trkpt lat="41.0563874" lon="16.8561149"><ele>75.0</ele><time>2026-04-04T09:00:48.582Z</time></trkpt><trkpt lat="41.0564666" lon="16.8562357"><ele>75.0</ele><time>2026-04-04T09:00:49.582Z</time></trkpt><trkpt lat="41.0565501" lon="16.8563555"><ele>74.25</ele><time>2026-04-04T09:00:50.582Z</time></trkpt><trkpt lat="41.0566344" lon="16.8564823"><ele>73.5</ele><time>2026-04-04T09:00:51.582Z</time></trkpt><trkpt lat="41.0567162" lon="16.8566044"><ele>72.75</ele><time>2026-04-04T09:00:52.582Z</time></trkpt><trkpt lat="41.0567967" lon="16.8567213"><ele>72.0</ele><time>2026-04-04T09:00:53.583Z</time></trkpt><trkpt lat="41.056884" lon="16.8568405"><ele>72.0</ele><time>2026-04-04T09:00:54.582Z</time></trkpt><trkpt lat="41.0569669" lon="16.8569584"><ele>72.0</ele><time>2026-04-04T09:00:55.582Z</time></trkpt><trkpt lat="41.0570399" lon="16.8570657"><ele>72.0</ele><time>2026-04-04T09:00:56.582Z</time></trkpt><trkpt lat="41.0571079" lon="16.8571631"><ele>72.0</ele><time>2026-04-04T09:00:57.582Z</time></trkpt><trkpt lat="41.0571675" lon="16.8572519"><ele>72.0</ele><time>2026-04-04T09:00:58.582Z</time></trkpt><trkpt lat="41.0572186" lon="16.8573352"><ele>72.0</ele><time>2026-04-04T09:00:59.582Z</time></trkpt><trkpt lat="41.0572713" lon="16.8574135"><ele>72.0</ele><time>2026-04-04T09:01:00.583Z</time></trkpt><trkpt lat="41.0573255" lon="16.8574939"><ele>72.0</ele><time>2026-04-04T09:01:01.583Z</time></trkpt><trkpt lat="41.0573785" lon="16.8575688"><ele>72.0</ele><time>2026-04-04T09:01:02.582Z</time></trkpt><trkpt lat="41.0574281" lon="16.8576397"><ele>72.0</ele><time>2026-04-04T09:01:03.582Z</time></trkpt><trkpt lat="41.0574771" lon="16.8577099"><ele>72.0</ele><time>2026-04-04T09:01:04.582Z</time></trkpt><trkpt lat="41.0575213" lon="16.857777"><ele>71.83333333333333</ele><time>2026-04-04T09:01:05.582Z</time></trkpt><trkpt lat="41.0575624" lon="16.8578406"><ele>71.66666666666667</ele><time>2026-04-04T09:01:06.582Z</time></trkpt><trkpt lat="41.0576286" lon="16.8579227"><ele>71.5</ele><time>2026-04-04T09:01:08.582Z</time></trkpt><trkpt lat="41.0577017" lon="16.8578791"><ele>71.33333333333334</ele><time>2026-04-04T09:01:11.582Z</time></trkpt><trkpt lat="41.0577645" lon="16.8577357"><ele>71.16666666666667</ele><time>2026-04-04T09:01:13.582Z</time></trkpt><trkpt lat="41.0578026" lon="16.8576433"><ele>71.0</ele><time>2026-04-04T09:01:14.582Z</time></trkpt><trkpt lat="41.057825" lon="16.857553"><ele>71.0</ele><time>2026-04-04T09:01:15.582Z</time></trkpt><trkpt lat="41.0578294" lon="16.8574466"><ele>71.0</ele><time>2026-04-04T09:01:16.582Z</time></trkpt><trkpt lat="41.0578251" lon="16.8573225"><ele>71.0</ele><time>2026-04-04T09:01:17.583Z</time></trkpt><trkpt lat="41.0578232" lon="16.8571835"><ele>71.0</ele><time>2026-04-04T09:01:18.582Z</time></trkpt><trkpt lat="41.0578402" lon="16.8570255"><ele>71.0</ele><time>2026-04-04T09:01:19.582Z</time></trkpt><trkpt lat="41.0578623" lon="16.8568593"><ele>70.8</ele><time>2026-04-04T09:01:20.582Z</time></trkpt><trkpt lat="41.0578852" lon="16.8567062"><ele>70.6</ele><time>2026-04-04T09:01:21.582Z</time></trkpt><trkpt lat="41.0579082" lon="16.8565631"><ele>70.4</ele><time>2026-04-04T09:01:22.582Z</time></trkpt><trkpt lat="41.0579396" lon="16.8564362"><ele>70.2</ele><time>2026-04-04T09:01:23.582Z</time></trkpt><trkpt lat="41.0579883" lon="16.8563166"><ele>70.0</ele><time>2026-04-04T09:01:24.582Z</time></trkpt><trkpt lat="41.0580652" lon="16.85619"><ele>70.0</ele><time>2026-04-04T09:01:25.582Z</time></trkpt><trkpt lat="41.0581653" lon="16.8560662"><ele>70.0</ele><time>2026-04-04T09:01:26.582Z</time></trkpt><trkpt lat="41.0582921" lon="16.8559268"><ele>70.0</ele><time>2026-04-04T09:01:27.582Z</time></trkpt><trkpt lat="41.0584254" lon="16.8557663"><ele>67.66666666666666</ele><time>2026-04-04T09:01:28.583Z</time></trkpt><trkpt lat="41.0585574" lon="16.8556074"><ele>65.33333333333333</ele><time>2026-04-04T09:01:29.582Z</time></trkpt><trkpt lat="41.0586778" lon="16.8554688"><ele>63.0</ele><time>2026-04-04T09:01:30.582Z</time></trkpt><trkpt lat="41.0587874" lon="16.8553502"><ele>63.0</ele><time>2026-04-04T09:01:31.582Z</time></trkpt><trkpt lat="41.0588742" lon="16.8552531"><ele>63.0</ele><time>2026-04-04T09:01:32.582Z</time></trkpt><trkpt lat="41.0589353" lon="16.8551573"><ele>63.0</ele><time>2026-04-04T09:01:33.582Z</time></trkpt><trkpt lat="41.0589756" lon="16.8550543"><ele>63.0</ele><time>2026-04-04T09:01:34.582Z</time></trkpt><trkpt lat="41.0589949" lon="16.8549356"><ele>63.0</ele><time>2026-04-04T09:01:35.582Z</time></trkpt><trkpt lat="41.058996" lon="16.8547952"><ele>63.4</ele><time>2026-04-04T09:01:36.583Z</time></trkpt><trkpt lat="41.0589868" lon="16.8546454"><ele>63.8</ele><time>2026-04-04T09:01:37.582Z</time></trkpt><trkpt lat="41.0589708" lon="16.8544967"><ele>64.2</ele><time>2026-04-04T09:01:38.582Z</time></trkpt><trkpt lat="41.0589428" lon="16.8543554"><ele>64.6</ele><time>2026-04-04T09:01:39.582Z</time></trkpt><trkpt lat="41.0589061" lon="16.8542348"><ele>65.0</ele><time>2026-04-04T09:01:40.582Z</time></trkpt><trkpt lat="41.058862" lon="16.8541129"><ele>65.4</ele><time>2026-04-04T09:01:41.582Z</time></trkpt><trkpt lat="41.0588123" lon="16.8539971"><ele>65.8</ele><time>2026-04-04T09:01:42.582Z</time></trkpt><trkpt lat="41.0587593" lon="16.8538851"><ele>66.2</ele><time>2026-04-04T09:01:43.582Z</time></trkpt><trkpt lat="41.0587105" lon="16.8537803"><ele>66.6</ele><time>2026-04-04T09:01:44.582Z</time></trkpt><trkpt lat="41.0586652" lon="16.8536839"><ele>67.0</ele><time>2026-04-04T09:01:45.583Z</time></trkpt><trkpt lat="41.0586237" lon="16.8535927"><ele>67.0</ele><time>2026-04-04T09:01:46.583Z</time></trkpt><trkpt lat="41.0585841" lon="16.8535124"><ele>67.0</ele><time>2026-04-04T09:01:47.582Z</time></trkpt><trkpt lat="41.0585482" lon="16.8534361"><ele>67.0</ele><time>2026-04-04T09:01:48.582Z</time></trkpt><trkpt lat="41.0585113" lon="16.8533525"><ele>67.0</ele><time>2026-04-04T09:01:49.582Z</time></trkpt><trkpt lat="41.0584743" lon="16.8532618"><ele>67.0</ele><time>2026-04-04T09:01:50.582Z</time></trkpt><trkpt lat="41.0584268" lon="16.8531518"><ele>67.0</ele><time>2026-04-04T09:01:51.582Z</time></trkpt><trkpt lat="41.0583684" lon="16.8530225"><ele>67.25</ele><time>2026-04-04T09:01:52.582Z</time></trkpt><trkpt lat="41.0582994" lon="16.8528781"><ele>67.5</ele><time>2026-04-04T09:01:53.582Z</time></trkpt><trkpt lat="41.0582265" lon="16.852726"><ele>67.75</ele><time>2026-04-04T09:01:54.582Z</time></trkpt><trkpt lat="41.0581572" lon="16.8525765"><ele>68.0</ele><time>2026-04-04T09:01:55.582Z</time></trkpt><trkpt lat="41.0580949" lon="16.8524454"><ele>68.0</ele><time>2026-04-04T09:01:56.582Z</time></trkpt><trkpt lat="41.0580376" lon="16.852332"><ele>68.0</ele><time>2026-04-04T09:01:57.582Z</time></trkpt><trkpt lat="41.0579788" lon="16.852236"><ele>68.0</ele><time>2026-04-04T09:01:58.583Z</time></trkpt><trkpt lat="41.0579162" lon="16.852156"><ele>68.0</ele><time>2026-04-04T09:01:59.582Z</time></trkpt><trkpt lat="41.0578608" lon="16.8520884"><ele>68.0</ele><time>2026-04-04T09:02:00.582Z</time></trkpt><trkpt lat="41.057814" lon="16.8520142"><ele>68.0</ele><time>2026-04-04T09:02:02.582Z</time></trkpt><trkpt lat="41.0577625" lon="16.8519515"><ele>68.0</ele><time>2026-04-04T09:02:04.582Z</time></trkpt><trkpt lat="41.0577157" lon="16.8518891"><ele>68.0</ele><time>2026-04-04T09:02:05.582Z</time></trkpt><trkpt lat="41.0576678" lon="16.8518074"><ele>68.0</ele><time>2026-04-04T09:02:06.583Z</time></trkpt><trkpt lat="41.0576242" lon="16.8517146"><ele>68.0</ele><time>2026-04-04T09:02:07.582Z</time></trkpt><trkpt lat="41.0575856" lon="16.8516155"><ele>68.0</ele><time>2026-04-04T09:02:08.582Z</time></trkpt><trkpt lat="41.0575493" lon="16.8515121"><ele>68.0</ele><time>2026-04-04T09:02:09.582Z</time></trkpt><trkpt lat="41.0575248" lon="16.851395"><ele>68.6</ele><time>2026-04-04T09:02:10.582Z</time></trkpt><trkpt lat="41.0575061" lon="16.851253"><ele>69.19999999999999</ele><time>2026-04-04T09:02:11.582Z</time></trkpt><trkpt lat="41.0574905" lon="16.8511092"><ele>69.8</ele><time>2026-04-04T09:02:12.582Z</time></trkpt><trkpt lat="41.0574723" lon="16.8509609"><ele>70.39999999999999</ele><time>2026-04-04T09:02:13.582Z</time></trkpt><trkpt lat="41.057454" lon="16.8508093"><ele>71.0</ele><time>2026-04-04T09:02:14.583Z</time></trkpt><trkpt lat="41.0574357" lon="16.8506586"><ele>71.0</ele><time>2026-04-04T09:02:15.582Z</time></trkpt><trkpt lat="41.0574146" lon="16.8505123"><ele>71.0</ele><time>2026-04-04T09:02:16.582Z</time></trkpt><trkpt lat="41.0573949" lon="16.8503763"><ele>71.0</ele><time>2026-04-04T09:02:17.582Z</time></trkpt><trkpt lat="41.0573625" lon="16.8502542"><ele>71.0</ele><time>2026-04-04T09:02:18.582Z</time></trkpt><trkpt lat="41.0573196" lon="16.850137"><ele>71.0</ele><time>2026-04-04T09:02:19.582Z</time></trkpt><trkpt lat="41.0572702" lon="16.8500311"><ele>71.83333333333334</ele><time>2026-04-04T09:02:20.582Z</time></trkpt><trkpt lat="41.0572161" lon="16.8499326"><ele>72.66666666666667</ele><time>2026-04-04T09:02:21.582Z</time></trkpt><trkpt lat="41.057169" lon="16.8498403"><ele>73.5</ele><time>2026-04-04T09:02:22.582Z</time></trkpt><trkpt lat="41.0571306" lon="16.8497604"><ele>74.33333333333333</ele><time>2026-04-04T09:02:23.582Z</time></trkpt><trkpt lat="41.0571382" lon="16.8496474"><ele>75.16666666666666</ele><time>2026-04-04T09:02:25.582Z</time></trkpt><trkpt lat="41.0572274" lon="16.8496502"><ele>76.0</ele><time>2026-04-04T09:02:28.582Z</time></trkpt><trkpt lat="41.0573054" lon="16.8497584"><ele>76.0</ele><time>2026-04-04T09:02:30.582Z</time></trkpt><trkpt lat="41.0573481" lon="16.849837"><ele>76.0</ele><time>2026-04-04T09:02:31.583Z</time></trkpt><trkpt lat="41.0573972" lon="16.8499198"><ele>76.0</ele><time>2026-04-04T09:02:32.582Z</time></trkpt><trkpt lat="41.0574472" lon="16.8500103"><ele>76.0</ele><time>2026-04-04T09:02:33.582Z</time></trkpt><trkpt lat="41.0574969" lon="16.8501197"><ele>76.0</ele><time>2026-04-04T09:02:34.582Z</time></trkpt><trkpt lat="41.0575442" lon="16.8502487"><ele>76.0</ele><time>2026-04-04T09:02:35.582Z</time></trkpt><trkpt lat="41.0575818" lon="16.8503903"><ele>75.66666666666666</ele><time>2026-04-04T09:02:36.582Z</time></trkpt><trkpt lat="41.0576112" lon="16.8505197"><ele>75.33333333333333</ele><time>2026-04-04T09:02:37.582Z</time></trkpt><trkpt lat="41.0576378" lon="16.8506369"><ele>75.0</ele><time>2026-04-04T09:02:38.582Z</time></trkpt><trkpt lat="41.0576714" lon="16.8507322"><ele>74.66666666666667</ele><time>2026-04-04T09:02:39.582Z</time></trkpt><trkpt lat="41.0577222" lon="16.8508049"><ele>74.33333333333334</ele><time>2026-04-04T09:02:40.582Z</time></trkpt><trkpt lat="41.057793" lon="16.8508653"><ele>74.0</ele><time>2026-04-04T09:02:41.582Z</time></trkpt><trkpt lat="41.057869" lon="16.8509142"><ele>73.5</ele><time>2026-04-04T09:02:42.582Z</time></trkpt><trkpt lat="41.0579417" lon="16.8509609"><ele>73.0</ele><time>2026-04-04T09:02:43.584Z</time></trkpt><trkpt lat="41.0580117" lon="16.8510059"><ele>72.5</ele><time>2026-04-04T09:02:44.582Z</time></trkpt><trkpt lat="41.058081" lon="16.8510489"><ele>72.0</ele><time>2026-04-04T09:02:45.583Z</time></trkpt><trkpt lat="41.0581485" lon="16.8510887"><ele>71.5</ele><time>2026-04-04T09:02:46.582Z</time></trkpt><trkpt lat="41.0582135" lon="16.8511258"><ele>71.0</ele><time>2026-04-04T09:02:47.582Z</time></trkpt><trkpt lat="41.0582802" lon="16.8511657"><ele>71.5</ele><time>2026-04-04T09:02:48.582Z</time></trkpt><trkpt lat="41.0583557" lon="16.8512057"><ele>72.0</ele><time>2026-04-04T09:02:49.582Z</time></trkpt><trkpt lat="41.0584334" lon="16.8512438"><ele>72.5</ele><time>2026-04-04T09:02:50.582Z</time></trkpt><trkpt lat="41.0585104" lon="16.851277"><ele>73.0</ele><time>2026-04-04T09:02:51.582Z</time></trkpt><trkpt lat="41.0585894" lon="16.8513309"><ele>73.5</ele><time>2026-04-04T09:02:52.583Z</time></trkpt><trkpt lat="41.0586648" lon="16.8513948"><ele>74.0</ele><time>2026-04-04T09:02:53.582Z</time></trkpt><trkpt lat="41.0587323" lon="16.8514581"><ele>74.0</ele><time>2026-04-04T09:02:54.583Z</time></trkpt><trkpt lat="41.0588005" lon="16.8515163"><ele>74.0</ele><time>2026-04-04T09:02:55.583Z</time></trkpt><trkpt lat="41.05887" lon="16.85156"><ele>74.0</ele><time>2026-04-04T09:02:56.582Z</time></trkpt><trkpt lat="41.0589405" lon="16.8515979"><ele>74.0</ele><time>2026-04-04T09:02:57.582Z</time></trkpt><trkpt lat="41.0590206" lon="16.8516415"><ele>74.0</ele><time>2026-04-04T09:02:58.582Z</time></trkpt><trkpt lat="41.059123" lon="16.851707"><ele>74.0</ele><time>2026-04-04T09:02:59.583Z</time></trkpt><trkpt lat="41.059243" lon="16.8517762"><ele>74.0</ele><time>2026-04-04T09:03:00.582Z</time></trkpt><trkpt lat="41.0593648" lon="16.8518335"><ele>74.0</ele><time>2026-04-04T09:03:01.582Z</time></trkpt><trkpt lat="41.0594745" lon="16.851886"><ele>74.0</ele><time>2026-04-04T09:03:02.582Z</time></trkpt><trkpt lat="41.0595973" lon="16.8519359"><ele>74.0</ele><time>2026-04-04T09:03:03.582Z</time></trkpt><trkpt lat="41.0597386" lon="16.8519869"><ele>74.0</ele><time>2026-04-04T09:03:04.582Z</time></trkpt><trkpt lat="41.0598907" lon="16.852041"><ele>74.0</ele><time>2026-04-04T09:03:05.582Z</time></trkpt><trkpt lat="41.0600247" lon="16.8520877"><ele>74.0</ele><time>2026-04-04T09:03:06.582Z</time></trkpt><trkpt lat="41.0601507" lon="16.8521255"><ele>74.0</ele><time>2026-04-04T09:03:07.582Z</time></trkpt><trkpt lat="41.060251" lon="16.8521528"><ele>73.60000000000001</ele><time>2026-04-04T09:03:08.582Z</time></trkpt><trkpt lat="41.0603348" lon="16.8521616"><ele>73.2</ele><time>2026-04-04T09:03:09.582Z</time></trkpt><trkpt lat="41.0604186" lon="16.8521414"><ele>72.80000000000001</ele><time>2026-04-04T09:03:10.582Z</time></trkpt><trkpt lat="41.0604929" lon="16.8520909"><ele>72.4</ele><time>2026-04-04T09:03:11.582Z</time></trkpt><trkpt lat="41.0605614" lon="16.852006"><ele>72.0</ele><time>2026-04-04T09:03:12.582Z</time></trkpt><trkpt lat="41.0606477" lon="16.8518981"><ele>72.0</ele><time>2026-04-04T09:03:13.582Z</time></trkpt><trkpt lat="41.0607523" lon="16.8517987"><ele>72.0</ele><time>2026-04-04T09:03:14.582Z</time></trkpt><trkpt lat="41.0608726" lon="16.851683"><ele>72.0</ele><time>2026-04-04T09:03:15.582Z</time></trkpt><trkpt lat="41.0609977" lon="16.8515626"><ele>72.0</ele><time>2026-04-04T09:03:16.582Z</time></trkpt><trkpt lat="41.0611064" lon="16.8514615"><ele>72.0</ele><time>2026-04-04T09:03:17.582Z</time></trkpt><trkpt lat="41.0611908" lon="16.8513837"><ele>72.0</ele><time>2026-04-04T09:03:18.582Z</time></trkpt><trkpt lat="41.0612517" lon="16.8513378"><ele>72.0</ele><time>2026-04-04T09:03:19.582Z</time></trkpt><trkpt lat="41.0613268" lon="16.8513129"><ele>72.0</ele><time>2026-04-04T09:03:21.582Z</time></trkpt><trkpt lat="41.0614285" lon="16.8512978"><ele>72.0</ele><time>2026-04-04T09:03:23.582Z</time></trkpt><trkpt lat="41.0615021" lon="16.8512894"><ele>72.0</ele><time>2026-04-04T09:03:24.582Z</time></trkpt><trkpt lat="41.0615917" lon="16.8512852"><ele>72.2</ele><time>2026-04-04T09:03:25.582Z</time></trkpt><trkpt lat="41.0616884" lon="16.8512793"><ele>72.4</ele><time>2026-04-04T09:03:26.582Z</time></trkpt><trkpt lat="41.0617922" lon="16.8512747"><ele>72.6</ele><time>2026-04-04T09:03:27.582Z</time></trkpt><trkpt lat="41.0619021" lon="16.8512695"><ele>72.8</ele><time>2026-04-04T09:03:28.582Z</time></trkpt><trkpt lat="41.0620117" lon="16.8512598"><ele>73.0</ele><time>2026-04-04T09:03:29.582Z</time></trkpt><trkpt lat="41.0621211" lon="16.8512491"><ele>73.0</ele><time>2026-04-04T09:03:30.582Z</time></trkpt><trkpt lat="41.0622336" lon="16.8512503"><ele>73.0</ele><time>2026-04-04T09:03:31.583Z</time></trkpt><trkpt lat="41.0623474" lon="16.8512369"><ele>73.0</ele><time>2026-04-04T09:03:32.582Z</time></trkpt><trkpt lat="41.0624627" lon="16.8512287"><ele>73.0</ele><time>2026-04-04T09:03:33.582Z</time></trkpt><trkpt lat="41.062579" lon="16.8512252"><ele>72.25</ele><time>2026-04-04T09:03:34.582Z</time></trkpt><trkpt lat="41.062701" lon="16.8512179"><ele>71.5</ele><time>2026-04-04T09:03:35.582Z</time></trkpt><trkpt lat="41.0628325" lon="16.8512106"><ele>70.75</ele><time>2026-04-04T09:03:36.582Z</time></trkpt><trkpt lat="41.0629719" lon="16.8512041"><ele>70.0</ele><time>2026-04-04T09:03:37.583Z</time></trkpt><trkpt lat="41.0631159" lon="16.8511953"><ele>70.0</ele><time>2026-04-04T09:03:38.582Z</time></trkpt><trkpt lat="41.0632491" lon="16.8511854"><ele>70.0</ele><time>2026-04-04T09:03:39.583Z</time></trkpt><trkpt lat="41.063371" lon="16.8511764"><ele>70.0</ele><time>2026-04-04T09:03:40.582Z</time></trkpt><trkpt lat="41.0634828" lon="16.851169"><ele>70.0</ele><time>2026-04-04T09:03:41.582Z</time></trkpt><trkpt lat="41.0635833" lon="16.8511588"><ele>69.83333333333333</ele><time>2026-04-04T09:03:42.582Z</time></trkpt><trkpt lat="41.0636715" lon="16.8511427"><ele>69.66666666666666</ele><time>2026-04-04T09:03:43.582Z</time></trkpt><trkpt lat="41.0637506" lon="16.8511301"><ele>69.5</ele><time>2026-04-04T09:03:44.582Z</time></trkpt><trkpt lat="41.0638247" lon="16.8511323"><ele>69.33333333333333</ele><time>2026-04-04T09:03:45.582Z</time></trkpt><trkpt lat="41.0638909" lon="16.8511487"><ele>69.16666666666667</ele><time>2026-04-04T09:03:46.582Z</time></trkpt><trkpt lat="41.063997" lon="16.8512559"><ele>69.0</ele><time>2026-04-04T09:03:48.582Z</time></trkpt><trkpt lat="41.0640518" lon="16.8513385"><ele>69.0</ele><time>2026-04-04T09:03:49.582Z</time></trkpt><trkpt lat="41.0641131" lon="16.8514296"><ele>69.0</ele><time>2026-04-04T09:03:50.582Z</time></trkpt><trkpt lat="41.0641809" lon="16.8515214"><ele>69.0</ele><time>2026-04-04T09:03:51.582Z</time></trkpt><trkpt lat="41.0642489" lon="16.8516124"><ele>69.0</ele><time>2026-04-04T09:03:52.582Z</time></trkpt><trkpt lat="41.0643127" lon="16.8517003"><ele>69.0</ele><time>2026-04-04T09:03:53.582Z</time></trkpt><trkpt lat="41.0643657" lon="16.8517811"><ele>69.0</ele><time>2026-04-04T09:03:54.582Z</time></trkpt><trkpt lat="41.0644082" lon="16.8518579"><ele>69.0</ele><time>2026-04-04T09:03:55.583Z</time></trkpt><trkpt lat="41.0644442" lon="16.8519371"><ele>69.0</ele><time>2026-04-04T09:03:56.582Z</time></trkpt><trkpt lat="41.0644792" lon="16.852065"><ele>69.0</ele><time>2026-04-04T09:03:58.582Z</time></trkpt><trkpt lat="41.0644969" lon="16.8521899"><ele>69.0</ele><time>2026-04-04T09:04:00.582Z</time></trkpt><trkpt lat="41.0644909" lon="16.8523062"><ele>69.0</ele><time>2026-04-04T09:04:01.582Z</time></trkpt><trkpt lat="41.0644787" lon="16.8524462"><ele>69.0</ele><time>2026-04-04T09:04:02.582Z</time></trkpt><trkpt lat="41.0644624" lon="16.8525895"><ele>69.0</ele><time>2026-04-04T09:04:03.582Z</time></trkpt><trkpt lat="41.0644451" lon="16.8527205"><ele>69.0</ele><time>2026-04-04T09:04:04.582Z</time></trkpt><trkpt lat="41.0644183" lon="16.8528458"><ele>69.0</ele><time>2026-04-04T09:04:05.582Z</time></trkpt><trkpt lat="41.064371" lon="16.8529527"><ele>69.0</ele><time>2026-04-04T09:04:06.583Z</time></trkpt><trkpt lat="41.0643078" lon="16.8530374"><ele>69.0</ele><time>2026-04-04T09:04:07.582Z</time></trkpt><trkpt lat="41.0642287" lon="16.8530851"><ele>69.0</ele><time>2026-04-04T09:04:08.582Z</time></trkpt><trkpt lat="41.0641415" lon="16.8531103"><ele>69.0</ele><time>2026-04-04T09:04:09.583Z</time></trkpt><trkpt lat="41.064054" lon="16.8531155"><ele>69.0</ele><time>2026-04-04T09:04:10.582Z</time></trkpt><trkpt lat="41.0639655" lon="16.8531189"><ele>69.0</ele><time>2026-04-04T09:04:11.582Z</time></trkpt><trkpt lat="41.0638789" lon="16.8531278"><ele>69.0</ele><time>2026-04-04T09:04:12.582Z</time></trkpt><trkpt lat="41.0637997" lon="16.8531277"><ele>69.0</ele><time>2026-04-04T09:04:13.582Z</time></trkpt><trkpt lat="41.0637329" lon="16.8531386"><ele>69.0</ele><time>2026-04-04T09:04:14.583Z</time></trkpt><trkpt lat="41.0636687" lon="16.8532445"><ele>69.0</ele><time>2026-04-04T09:04:16.582Z</time></trkpt><trkpt lat="41.0637226" lon="16.8533282"><ele>69.0</ele><time>2026-04-04T09:04:18.582Z</time></trkpt><trkpt lat="41.0638404" lon="16.8533124"><ele>69.0</ele><time>2026-04-04T09:04:20.582Z</time></trkpt><trkpt lat="41.0639077" lon="16.8533042"><ele>69.0</ele><time>2026-04-04T09:04:21.582Z</time></trkpt><trkpt lat="41.0639783" lon="16.8532974"><ele>69.0</ele><time>2026-04-04T09:04:22.582Z</time></trkpt><trkpt lat="41.0640629" lon="16.8532918"><ele>69.0</ele><time>2026-04-04T09:04:23.582Z</time></trkpt><trkpt lat="41.0641681" lon="16.8532779"><ele>69.0</ele><time>2026-04-04T09:04:24.582Z</time></trkpt><trkpt lat="41.0642661" lon="16.8532541"><ele>69.0</ele><time>2026-04-04T09:04:25.582Z</time></trkpt><trkpt lat="41.0643505" lon="16.8532159"><ele>69.0</ele><time>2026-04-04T09:04:26.582Z</time></trkpt><trkpt lat="41.0644177" lon="16.8531618"><ele>69.0</ele><time>2026-04-04T09:04:27.582Z</time></trkpt><trkpt lat="41.0644837" lon="16.8530803"><ele>69.0</ele><time>2026-04-04T09:04:28.582Z</time></trkpt><trkpt lat="41.0645423" lon="16.8529624"><ele>69.0</ele><time>2026-04-04T09:04:29.582Z</time></trkpt><trkpt lat="41.0645889" lon="16.8528018"><ele>69.0</ele><time>2026-04-04T09:04:30.582Z</time></trkpt><trkpt lat="41.0646231" lon="16.8526451"><ele>69.0</ele><time>2026-04-04T09:04:31.582Z</time></trkpt><trkpt lat="41.0646541" lon="16.8525269"><ele>69.0</ele><time>2026-04-04T09:04:32.582Z</time></trkpt><trkpt lat="41.0646859" lon="16.8524318"><ele>69.0</ele><time>2026-04-04T09:04:33.582Z</time></trkpt><trkpt lat="41.0647322" lon="16.8523652"><ele>69.0</ele><time>2026-04-04T09:04:34.582Z</time></trkpt><trkpt lat="41.0647959" lon="16.8523121"><ele>69.0</ele><time>2026-04-04T09:04:35.582Z</time></trkpt><trkpt lat="41.064871" lon="16.8522785"><ele>69.0</ele><time>2026-04-04T09:04:36.582Z</time></trkpt><trkpt lat="41.0649791" lon="16.8522542"><ele>69.0</ele><time>2026-04-04T09:04:37.582Z</time></trkpt><trkpt lat="41.06511" lon="16.8522447"><ele>69.0</ele><time>2026-04-04T09:04:38.582Z</time></trkpt><trkpt lat="41.065227" lon="16.8522347"><ele>69.0</ele><time>2026-04-04T09:04:39.583Z</time></trkpt><trkpt lat="41.0653356" lon="16.8522279"><ele>69.0</ele><time>2026-04-04T09:04:40.582Z</time></trkpt><trkpt lat="41.0654418" lon="16.8522207"><ele>69.0</ele><time>2026-04-04T09:04:41.582Z</time></trkpt><trkpt lat="41.0655391" lon="16.8522093"><ele>69.0</ele><time>2026-04-04T09:04:42.582Z</time></trkpt><trkpt lat="41.0656291" lon="16.8522027"><ele>69.0</ele><time>2026-04-04T09:04:43.583Z</time></trkpt><trkpt lat="41.0657149" lon="16.8521999"><ele>69.0</ele><time>2026-04-04T09:04:44.582Z</time></trkpt><trkpt lat="41.0658213" lon="16.8521957"><ele>69.0</ele><time>2026-04-04T09:04:45.582Z</time></trkpt><trkpt lat="41.0659379" lon="16.8521862"><ele>69.0</ele><time>2026-04-04T09:04:46.582Z</time></trkpt><trkpt lat="41.066054" lon="16.8521801"><ele>69.0</ele><time>2026-04-04T09:04:47.582Z</time></trkpt><trkpt lat="41.0661699" lon="16.8521778"><ele>68.25</ele><time>2026-04-04T09:04:48.582Z</time></trkpt><trkpt lat="41.0663006" lon="16.8521758"><ele>67.5</ele><time>2026-04-04T09:04:49.582Z</time></trkpt><trkpt lat="41.0664385" lon="16.8521678"><ele>66.75</ele><time>2026-04-04T09:04:50.582Z</time></trkpt><trkpt lat="41.0665747" lon="16.8521595"><ele>66.0</ele><time>2026-04-04T09:04:51.582Z</time></trkpt><trkpt lat="41.0666828" lon="16.8521585"><ele>65.66666666666667</ele><time>2026-04-04T09:04:52.582Z</time></trkpt><trkpt lat="41.0667679" lon="16.8521626"><ele>65.33333333333333</ele><time>2026-04-04T09:04:53.582Z</time></trkpt><trkpt lat="41.0668347" lon="16.8521926"><ele>65.0</ele><time>2026-04-04T09:04:54.582Z</time></trkpt><trkpt lat="41.066884" lon="16.8522508"><ele>64.66666666666666</ele><time>2026-04-04T09:04:55.582Z</time></trkpt><trkpt lat="41.0669378" lon="16.8523818"><ele>64.33333333333333</ele><time>2026-04-04T09:04:57.582Z</time></trkpt><trkpt lat="41.0669749" lon="16.8524524"><ele>64.0</ele><time>2026-04-04T09:04:59.583Z</time></trkpt><trkpt lat="41.0670715" lon="16.8524848"><ele>64.0</ele><time>2026-04-04T09:05:01.582Z</time></trkpt><trkpt lat="41.0671519" lon="16.85247"><ele>64.0</ele><time>2026-04-04T09:05:02.582Z</time></trkpt><trkpt lat="41.0672598" lon="16.852437"><ele>64.0</ele><time>2026-04-04T09:05:03.583Z</time></trkpt><trkpt lat="41.0673728" lon="16.852411"><ele>64.0</ele><time>2026-04-04T09:05:04.582Z</time></trkpt><trkpt lat="41.0674605" lon="16.8523996"><ele>64.0</ele><time>2026-04-04T09:05:05.582Z</time></trkpt><trkpt lat="41.0675291" lon="16.8524077"><ele>63.800000000000004</ele><time>2026-04-04T09:05:06.583Z</time></trkpt><trkpt lat="41.0676192" lon="16.8525163"><ele>63.60000000000001</ele><time>2026-04-04T09:05:08.582Z</time></trkpt><trkpt lat="41.0676433" lon="16.8526225"><ele>63.4</ele><time>2026-04-04T09:05:09.582Z</time></trkpt><trkpt lat="41.0676509" lon="16.8527554"><ele>63.2</ele><time>2026-04-04T09:05:10.583Z</time></trkpt><trkpt lat="41.0676637" lon="16.8528798"><ele>63.0</ele><time>2026-04-04T09:05:11.582Z</time></trkpt><trkpt lat="41.0676798" lon="16.8529922"><ele>62.833333333333336</ele><time>2026-04-04T09:05:12.582Z</time></trkpt><trkpt lat="41.0677013" lon="16.853096"><ele>62.66666666666667</ele><time>2026-04-04T09:05:13.582Z</time></trkpt><trkpt lat="41.0677339" lon="16.8531914"><ele>62.5</ele><time>2026-04-04T09:05:14.582Z</time></trkpt><trkpt lat="41.0677703" lon="16.853285"><ele>62.333333333333336</ele><time>2026-04-04T09:05:15.582Z</time></trkpt><trkpt lat="41.0677971" lon="16.85337"><ele>62.16666666666667</ele><time>2026-04-04T09:05:16.584Z</time></trkpt><trkpt lat="41.0678326" lon="16.8534423"><ele>62.0</ele><time>2026-04-04T09:05:17.582Z</time></trkpt><trkpt lat="41.0679037" lon="16.853487"><ele>62.0</ele><time>2026-04-04T09:05:19.582Z</time></trkpt><trkpt lat="41.0679344" lon="16.8534112"><ele>62.0</ele><time>2026-04-04T09:05:21.582Z</time></trkpt><trkpt lat="41.0679331" lon="16.8533195"><ele>62.0</ele><time>2026-04-04T09:05:22.583Z</time></trkpt><trkpt lat="41.0679299" lon="16.8531993"><ele>62.0</ele><time>2026-04-04T09:05:23.582Z</time></trkpt><trkpt lat="41.0679366" lon="16.8530569"><ele>62.0</ele><time>2026-04-04T09:05:24.582Z</time></trkpt><trkpt lat="41.0679516" lon="16.852899"><ele>62.0</ele><time>2026-04-04T09:05:25.582Z</time></trkpt><trkpt lat="41.0679732" lon="16.8527294"><ele>62.0</ele><time>2026-04-04T09:05:26.582Z</time></trkpt><trkpt lat="41.0679988" lon="16.8525465"><ele>62.0</ele><time>2026-04-04T09:05:27.582Z</time></trkpt><trkpt lat="41.0680312" lon="16.8523731"><ele>62.0</ele><time>2026-04-04T09:05:28.582Z</time></trkpt><trkpt lat="41.0680645" lon="16.8522377"><ele>62.2</ele><time>2026-04-04T09:05:29.583Z</time></trkpt><trkpt lat="41.0680997" lon="16.8521322"><ele>62.400000000000006</ele><time>2026-04-04T09:05:30.582Z</time></trkpt><trkpt lat="41.0681378" lon="16.8520533"><ele>62.599999999999994</ele><time>2026-04-04T09:05:31.582Z</time></trkpt><trkpt lat="41.0682643" lon="16.8519975"><ele>62.8</ele><time>2026-04-04T09:05:33.582Z</time></trkpt><trkpt lat="41.0683555" lon="16.8519939"><ele>63.0</ele><time>2026-04-04T09:05:34.582Z</time></trkpt><trkpt lat="41.0684619" lon="16.8519812"><ele>63.0</ele><time>2026-04-04T09:05:35.582Z</time></trkpt><trkpt lat="41.0685896" lon="16.8519709"><ele>63.0</ele><time>2026-04-04T09:05:36.582Z</time></trkpt><trkpt lat="41.0687299" lon="16.8519633"><ele>63.0</ele><time>2026-04-04T09:05:37.582Z</time></trkpt><trkpt lat="41.0688862" lon="16.8519513"><ele>63.0</ele><time>2026-04-04T09:05:38.582Z</time></trkpt><trkpt lat="41.0690549" lon="16.8519377"><ele>62.0</ele><time>2026-04-04T09:05:39.582Z</time></trkpt><trkpt lat="41.0692396" lon="16.8519229"><ele>61.0</ele><time>2026-04-04T09:05:40.582Z</time></trkpt><trkpt lat="41.0694421" lon="16.8519085"><ele>60.0</ele><time>2026-04-04T09:05:41.582Z</time></trkpt><trkpt lat="41.0696592" lon="16.8518897"><ele>60.0</ele><time>2026-04-04T09:05:42.582Z</time></trkpt><trkpt lat="41.0698738" lon="16.8518749"><ele>60.0</ele><time>2026-04-04T09:05:43.582Z</time></trkpt><trkpt lat="41.0700719" lon="16.8518668"><ele>60.0</ele><time>2026-04-04T09:05:44.582Z</time></trkpt><trkpt lat="41.0702527" lon="16.8518619"><ele>60.0</ele><time>2026-04-04T09:05:45.582Z</time></trkpt><trkpt lat="41.0704227" lon="16.8518591"><ele>60.0</ele><time>2026-04-04T09:05:46.582Z</time></trkpt><trkpt lat="41.0705906" lon="16.8518461"><ele>60.0</ele><time>2026-04-04T09:05:47.582Z</time></trkpt><trkpt lat="41.0707506" lon="16.8518327"><ele>59.75</ele><time>2026-04-04T09:05:48.583Z</time></trkpt><trkpt lat="41.0709091" lon="16.8518239"><ele>59.5</ele><time>2026-04-04T09:05:49.582Z</time></trkpt><trkpt lat="41.0710554" lon="16.8518168"><ele>59.25</ele><time>2026-04-04T09:05:50.582Z</time></trkpt><trkpt lat="41.0711864" lon="16.8518038"><ele>59.0</ele><time>2026-04-04T09:05:51.582Z</time></trkpt><trkpt lat="41.0713034" lon="16.8517851"><ele>59.0</ele><time>2026-04-04T09:05:52.582Z</time></trkpt><trkpt lat="41.0714128" lon="16.8517842"><ele>59.00000000000001</ele><time>2026-04-04T09:05:53.582Z</time></trkpt><trkpt lat="41.0715215" lon="16.851786"><ele>59.00000000000001</ele><time>2026-04-04T09:05:54.582Z</time></trkpt><trkpt lat="41.0716293" lon="16.8517841"><ele>59.0</ele><time>2026-04-04T09:05:55.582Z</time></trkpt><trkpt lat="41.0717413" lon="16.8517937"><ele>59.0</ele><time>2026-04-04T09:05:56.582Z</time></trkpt><trkpt lat="41.0718556" lon="16.8517982"><ele>59.0</ele><time>2026-04-04T09:05:57.582Z</time></trkpt><trkpt lat="41.0719742" lon="16.8518007"><ele>59.0</ele><time>2026-04-04T09:05:58.582Z</time></trkpt><trkpt lat="41.0720973" lon="16.8517962"><ele>59.0</ele><time>2026-04-04T09:05:59.582Z</time></trkpt><trkpt lat="41.072222" lon="16.8517813"><ele>59.0</ele><time>2026-04-04T09:06:00.582Z</time></trkpt><trkpt lat="41.0723365" lon="16.8517653"><ele>58.25</ele><time>2026-04-04T09:06:01.582Z</time></trkpt><trkpt lat="41.0724491" lon="16.8517494"><ele>57.5</ele><time>2026-04-04T09:06:02.582Z</time></trkpt><trkpt lat="41.0725648" lon="16.8517397"><ele>56.75</ele><time>2026-04-04T09:06:03.582Z</time></trkpt><trkpt lat="41.0726848" lon="16.8517341"><ele>56.0</ele><time>2026-04-04T09:06:04.582Z</time></trkpt><trkpt lat="41.0727981" lon="16.851732"><ele>56.0</ele><time>2026-04-04T09:06:05.582Z</time></trkpt><trkpt lat="41.0729015" lon="16.8517313"><ele>55.99999999999999</ele><time>2026-04-04T09:06:06.582Z</time></trkpt><trkpt lat="41.0729934" lon="16.8517293"><ele>55.99999999999999</ele><time>2026-04-04T09:06:07.582Z</time></trkpt><trkpt lat="41.0730843" lon="16.8517307"><ele>56.0</ele><time>2026-04-04T09:06:08.582Z</time></trkpt><trkpt lat="41.0731731" lon="16.8517258"><ele>56.0</ele><time>2026-04-04T09:06:09.582Z</time></trkpt><trkpt lat="41.0732584" lon="16.8517184"><ele>56.00000000000001</ele><time>2026-04-04T09:06:10.583Z</time></trkpt><trkpt lat="41.0733369" lon="16.8517085"><ele>56.0</ele><time>2026-04-04T09:06:11.582Z</time></trkpt><trkpt lat="41.0734015" lon="16.851718"><ele>56.0</ele><time>2026-04-04T09:06:12.582Z</time></trkpt><trkpt lat="41.0734726" lon="16.8518274"><ele>56.0</ele><time>2026-04-04T09:06:14.582Z</time></trkpt><trkpt lat="41.0734698" lon="16.8519666"><ele>56.00000000000001</ele><time>2026-04-04T09:06:16.582Z</time></trkpt><trkpt lat="41.0734434" lon="16.852055"><ele>56.0</ele><time>2026-04-04T09:06:17.582Z</time></trkpt><trkpt lat="41.0734185" lon="16.8521581"><ele>56.0</ele><time>2026-04-04T09:06:18.582Z</time></trkpt><trkpt lat="41.0733925" lon="16.8522754"><ele>55.99999999999999</ele><time>2026-04-04T09:06:19.582Z</time></trkpt><trkpt lat="41.0733682" lon="16.8523909"><ele>55.99999999999999</ele><time>2026-04-04T09:06:20.582Z</time></trkpt><trkpt lat="41.073352" lon="16.8524933"><ele>56.0</ele><time>2026-04-04T09:06:21.582Z</time></trkpt><trkpt lat="41.0733677" lon="16.8526249"><ele>56.0</ele><time>2026-04-04T09:06:23.583Z</time></trkpt><trkpt lat="41.0733881" lon="16.8527543"><ele>55.50000000000001</ele><time>2026-04-04T09:06:25.583Z</time></trkpt><trkpt lat="41.0733849" lon="16.852847"><ele>55.0</ele><time>2026-04-04T09:06:26.582Z</time></trkpt><trkpt lat="41.0733806" lon="16.8529569"><ele>54.5</ele><time>2026-04-04T09:06:27.582Z</time></trkpt><trkpt lat="41.0733751" lon="16.8530789"><ele>54.0</ele><time>2026-04-04T09:06:28.582Z</time></trkpt><trkpt lat="41.0733687" lon="16.853207"><ele>53.50000000000001</ele><time>2026-04-04T09:06:29.582Z</time></trkpt><trkpt lat="41.0733625" lon="16.8533294"><ele>53.0</ele><time>2026-04-04T09:06:30.583Z</time></trkpt><trkpt lat="41.0733595" lon="16.8534489"><ele>53.333333333333336</ele><time>2026-04-04T09:06:31.582Z</time></trkpt><trkpt lat="41.0733582" lon="16.8535731"><ele>53.66666666666667</ele><time>2026-04-04T09:06:32.582Z</time></trkpt><trkpt lat="41.0733609" lon="16.8536934"><ele>54.0</ele><time>2026-04-04T09:06:33.582Z</time></trkpt><trkpt lat="41.0733698" lon="16.8538094"><ele>54.33333333333333</ele><time>2026-04-04T09:06:34.582Z</time></trkpt><trkpt lat="41.0733909" lon="16.8539159"><ele>54.666666666666664</ele><time>2026-04-04T09:06:35.582Z</time></trkpt><trkpt lat="41.0734216" lon="16.8540099"><ele>55.0</ele><time>2026-04-04T09:06:36.583Z</time></trkpt><trkpt lat="41.073472" lon="16.8540829"><ele>54.99999999999999</ele><time>2026-04-04T09:06:37.583Z</time></trkpt><trkpt lat="41.0735275" lon="16.8541455"><ele>55.0</ele><time>2026-04-04T09:06:38.583Z</time></trkpt><trkpt lat="41.0735909" lon="16.8541874"><ele>55.0</ele><time>2026-04-04T09:06:39.582Z</time></trkpt><trkpt lat="41.0736591" lon="16.8542165"><ele>55.0</ele><time>2026-04-04T09:06:40.582Z</time></trkpt><trkpt lat="41.0737341" lon="16.8542243"><ele>55.0</ele><time>2026-04-04T09:06:41.582Z</time></trkpt><trkpt lat="41.0738094" lon="16.8542231"><ele>54.99999999999999</ele><time>2026-04-04T09:06:42.582Z</time></trkpt><trkpt lat="41.0738853" lon="16.8542209"><ele>55.0</ele><time>2026-04-04T09:06:43.583Z</time></trkpt><trkpt lat="41.0739566" lon="16.8542222"><ele>55.0</ele><time>2026-04-04T09:06:44.582Z</time></trkpt><trkpt lat="41.0740543" lon="16.8542265"><ele>55.0</ele><time>2026-04-04T09:06:46.582Z</time></trkpt></trkseg></trk></gpx>